# Wetter Temperatur Luftdruck Luftfeuchtigkeit Sichtweite Windgeschwindigkeit Windrichtung Zeit
1 Snow 0 1017 86 8000 2 0 12:25 07.10.2022
2 Clouds 4 1015 35 10000 3 10 09:28 07.10.2022
3 Clouds 5 1015 28 10000 5 360 08:56 07.10.2022
4 Clouds 3 1016 35 10000 1 0 06:23 07.10.2022
5 Clouds -5 1017 74 10000 1 0 00:46 07.10.2022
6 Clouds -6 1018 73 10000 0 0 22:50 06.10.2022
7 Clouds -8 1018 79 10000 0 0 21:44 06.10.2022
8 Clouds -8 1018 79 10000 0 0 21:25 06.10.2022
9 Clear -7 1018 79 10000 1 0 19:55 06.10.2022
10 Clear -7 1018 73 10000 1 0 18:37 06.10.2022
11 Clear -7 1018 73 10000 1 0 18:18 06.10.2022
12 Clouds 1 1018 34 10000 0 0 14:42 06.10.2022
13 Clouds 7 1017 18 10000 3 280 11:30 06.10.2022
14 Clouds 7 1019 19 10000 4 220 07:24 06.10.2022
15 Clear -4 1021 63 10000 0 0 03:35 06.10.2022
16 Clear -9 1021 79 10000 1 0 23:44 05.10.2022
17 Clear -10 1022 79 10000 0 0 21:21 05.10.2022
18 Clear -9 1022 79 10000 0 0 18:57 05.10.2022
19 Clear -7 1023 68 10000 1 0 17:35 05.10.2022
20 Clear -4 1023 58 10000 3 180 15:55 05.10.2022
21 Clear -2 1023 50 10000 4 160 14:47 05.10.2022
22 Clear -2 1023 54 10000 3 200 13:56 05.10.2022
23 Clear 5 1023 20 10000 3 220 12:20 05.10.2022
24 Clear 6 1025 22 10000 3 200 09:21 05.10.2022
25 Clear 5 1026 20 10000 2 0 07:42 05.10.2022
26 Clear 0 1028 40 10000 1 0 05:36 05.10.2022
27 Clear -6 1029 73 10000 0 0 03:32 05.10.2022
28 Clear -12 1029 85 10000 0 0 00:45 05.10.2022
29 Clear -12 1029 85 10000 0 0 00:24 05.10.2022
30 Clear -11 1028 85 10000 0 0 22:22 04.10.2022
31 Clear -9 1028 79 10000 1 0 20:31 04.10.2022
32 Clear -8 1028 73 10000 2 0 18:58 04.10.2022
33 Clear -8 1028 73 10000 2 0 18:58 04.10.2022
34 Clear -8 1028 79 10000 2 0 18:36 04.10.2022
35 Clear -7 1027 73 10000 2 0 17:44 04.10.2022
36 Clear -6 1027 68 10000 2 0 16:28 04.10.2022
37 Clear 3 1025 20 10000 4 300 12:41 04.10.2022
38 Clear 3 1025 20 10000 4 300 12:41 04.10.2022
39 Clear 4 1027 24 10000 4 190 09:32 04.10.2022
40 Clear 2 1029 27 10000 3 220 07:23 04.10.2022
41 Clear -11 1032 85 10000 0 0 01:44 04.10.2022
42 Clear -11 1032 85 10000 1 0 23:40 03.10.2022
43 Clear -10 1033 85 10000 0 0 21:52 03.10.2022
44 Clear -10 1033 85 10000 0 0 20:55 03.10.2022
45 Clear -8 1034 73 10000 1 0 19:34 03.10.2022
46 Clear -8 1034 79 10000 1 0 17:53 03.10.2022
47 Clear -7 1034 73 10000 1 0 16:43 03.10.2022
48 Clear -8 1034 79 10000 2 0 15:28 03.10.2022
49 Clouds -2 1034 46 10000 3 310 13:45 03.10.2022
50 Clouds 1 1034 32 10000 4 300 12:22 03.10.2022
51 Clouds 1 1035 34 10000 3 270 10:38 03.10.2022
52 Clouds 1 1035 37 10000 6 280 09:35 03.10.2022
53 Clouds -2 1037 46 10000 2 0 05:34 03.10.2022
54 Clouds -10 1037 85 10000 1 0 02:36 03.10.2022
55 Clear -6 1035 63 10000 2 0 22:29 02.10.2022
56 Clear -7 1034 73 10000 3 330 20:42 02.10.2022
57 Clouds -4 1033 54 10000 4 350 18:31 02.10.2022
58 Clouds -3 1032 50 10000 4 20 17:38 02.10.2022
59 Clouds -3 1032 50 10000 5 10 16:33 02.10.2022
60 Clouds -3 1031 50 10000 3 10 15:41 02.10.2022
61 Clouds -2 1028 50 10000 8 350 13:51 02.10.2022
62 Clouds -1 1027 47 10000 8 360 12:52 02.10.2022
63 Clouds -1 1027 47 10000 8 360 12:28 02.10.2022
64 Clouds 0 1026 43 10000 6 360 11:36 02.10.2022
65 Clouds 1 1026 40 10000 8 350 10:37 02.10.2022
66 Snow 0 1025 51 10000 3 320 08:53 02.10.2022
67 Clouds 0 1025 59 10000 2 0 07:30 02.10.2022
68 Snow -4 1022 86 3000 5 10 02:54 02.10.2022
69 Snow -4 1021 93 6000 4 350 00:45 02.10.2022
70 Snow -4 1021 93 6000 4 350 00:20 02.10.2022
71 Snow -2 1020 80 10000 4 360 22:36 01.10.2022
72 Clouds -1 1019 74 10000 5 360 20:21 01.10.2022
73 Clouds 0 1018 69 10000 5 10 18:30 01.10.2022
74 Clouds 0 1017 69 10000 4 10 16:35 01.10.2022
75 Clouds 1 1016 64 10000 6 330 14:26 01.10.2022
76 Clouds 3 1015 56 10000 3 360 13:21 01.10.2022
77 Clouds 4 1014 52 10000 7 360 12:30 01.10.2022
78 Clouds 6 1014 49 10000 7 350 11:19 01.10.2022
79 Clouds 7 1013 45 10000 8 350 10:31 01.10.2022
80 Clouds 7 1013 49 10000 7 360 09:27 01.10.2022
81 Clouds 7 1013 49 10000 7 360 08:57 01.10.2022
82 Clouds 5 1012 75 10000 7 330 04:19 01.10.2022
83 Clouds 5 1011 75 10000 6 10 03:29 01.10.2022
84 Clouds 6 1009 75 10000 3 10 23:59 30.09.2022
85 Clouds 5 1009 81 10000 2 0 22:36 30.09.2022
86 Clouds 5 1008 75 10000 2 0 21:28 30.09.2022
87 Clouds 9 1007 49 10000 1 0 20:43 30.09.2022
88 Clouds 11 1006 43 10000 4 190 19:43 30.09.2022
89 Clouds 13 1006 38 10000 6 150 17:28 30.09.2022
90 Clouds 12 1006 47 10000 4 150 15:32 30.09.2022
91 Clouds 10 1006 57 10000 4 140 13:29 30.09.2022
92 Clouds 14 1006 38 10000 3 170 11:57 30.09.2022
93 Clouds 15 1007 33 10000 4 200 10:23 30.09.2022
94 Clouds 13 1008 38 10000 3 180 08:23 30.09.2022
95 Clouds 7 1011 65 10000 2 0 04:55 30.09.2022
96 Clouds 5 1009 75 10000 1 0 02:27 30.09.2022
97 Clouds 5 1009 81 10000 2 0 22:24 29.09.2022
98 Clouds 5 1009 81 10000 1 0 21:26 29.09.2022
99 Clouds 5 1008 81 10000 4 300 20:35 29.09.2022
100 Clouds 5 1008 81 10000 7 300 18:32 29.09.2022
101 Clouds 7 1006 76 10000 5 250 17:22 29.09.2022
102 Clouds 7 1005 76 10000 2 0 16:28 29.09.2022
103 Clouds 9 1004 71 10000 6 270 15:35 29.09.2022
104 Clouds 10 1003 71 10000 2 0 14:24 29.09.2022
105 Clouds 11 1006 66 10000 2 0 09:45 29.09.2022
106 Clouds 11 1009 46 10000 3 30 06:45 29.09.2022
107 Clouds 1 1011 86 10000 1 0 02:45 29.09.2022
108 Clear -1 1011 86 10000 2 0 23:54 28.09.2022
109 Clear 1 1011 86 10000 1 0 22:32 28.09.2022
110 Clear 1 1011 86 10000 1 0 21:29 28.09.2022
111 Clear 2 1010 80 10000 1 0 20:20 28.09.2022
112 Clear 5 1010 75 10000 2 0 18:20 28.09.2022
113 Clear 12 1008 50 10000 4 340 14:51 28.09.2022
114 Clouds 16 1005 33 10000 4 310 12:49 28.09.2022
115 Clouds 18 1004 29 10000 9 300 10:50 28.09.2022
116 Clouds 19 1003 20 10000 9 300 08:26 28.09.2022
117 Clouds 19 1002 20 10000 6 150 06:45 28.09.2022
118 Clouds 3 1004 65 10000 0 0 01:54 28.09.2022
119 Clouds 3 1004 65 10000 0 0 01:31 28.09.2022
120 Clear 2 1005 69 10000 0 0 23:19 27.09.2022
121 Clouds 4 1006 65 10000 1 0 21:40 27.09.2022
122 Clouds 5 1007 60 10000 0 0 20:37 27.09.2022
123 Clouds 5 1007 60 10000 0 0 19:47 27.09.2022
124 Clouds 5 1007 60 10000 0 0 19:47 27.09.2022
125 Clouds 6 1008 56 10000 0 0 18:31 27.09.2022
126 Clouds 5 1008 60 10000 1 0 17:43 27.09.2022
127 Clear 8 1008 46 10000 1 0 15:27 27.09.2022
128 Clear 15 1007 25 10000 1 0 14:45 27.09.2022
129 Clear 20 1007 19 10000 3 210 12:40 27.09.2022
130 Clear 22 1008 16 10000 2 0 10:53 27.09.2022
131 Clear 21 1009 17 10000 3 240 08:46 27.09.2022
132 Clear 18 1010 22 10000 2 0 06:30 27.09.2022
133 Clear -1 1009 80 10000 1 0 01:56 27.09.2022
134 Clear -1 1009 80 10000 1 0 01:27 27.09.2022
135 Clear 1 1009 69 10000 0 0 23:25 26.09.2022
136 Clouds 10 1007 43 10000 0.83 131 22:24 26.09.2022
137 Clear 1 1009 69 10000 0 0 20:29 26.09.2022
138 Clouds 10 1008 46 10000 1.7 115 19:30 26.09.2022
139 Clear 4 1010 60 10000 0 0 18:31 26.09.2022
140 Clear 10 1010 34 10000 0 0 15:55 26.09.2022
141 Clear 12 1010 32 10000 3 190 13:30 26.09.2022
142 Clear 21 1010 17 10000 6 210 11:29 26.09.2022
143 Clear 21 1011 17 10000 5 230 10:37 26.09.2022
144 Clear 21 1011 17 10000 5 230 10:19 26.09.2022
145 Clear 20 1011 19 10000 6 220 09:53 26.09.2022
146 Clear 20 1011 19 10000 6 220 09:22 26.09.2022
147 Clouds 14 1013 30 10000 2 0 06:28 26.09.2022
148 Clouds 0 1014 80 10000 1 0 02:44 26.09.2022
149 Clear -3 1014 86 10000 0 0 23:29 25.09.2022
150 Clear -3 1014 86 10000 0 0 21:54 25.09.2022
151 Clear -3 1014 86 10000 0 0 21:34 25.09.2022
152 Clear -1 1015 80 10000 1 0 20:44 25.09.2022
153 Clear -1 1015 80 10000 0 0 19:31 25.09.2022
154 Clear 2 1015 64 10000 0 0 18:34 25.09.2022
155 Clear 3 1015 60 10000 1 0 17:49 25.09.2022
156 Clear 5 1014 52 10000 0 0 16:22 25.09.2022
157 Clear 4 1014 56 10000 3 160 15:43 25.09.2022
158 Clear 5 1015 52 10000 2 0 14:21 25.09.2022
159 Clouds 12 1014 32 10000 4 220 12:44 25.09.2022
160 Clouds 13 1015 28 10000 2 0 10:20 25.09.2022
161 Clouds 12 1016 32 10000 4 290 08:23 25.09.2022
162 Clouds 9 1018 49 10000 2 0 05:31 25.09.2022
163 Clouds 4 1015 87 10000 1 0 00:36 25.09.2022
164 Clouds 5 1014 75 10000 2 0 22:34 24.09.2022
165 Clouds 3 1012 81 10000 1 0 20:45 24.09.2022
166 Clouds 1 1012 80 10000 0 0 19:21 24.09.2022
167 Clear 5 1011 75 10000 0 0 16:59 24.09.2022
168 Clouds 8 1011 66 10000 1 0 16:23 24.09.2022
169 Clouds 7 1012 65 10000 2 0 15:19 24.09.2022
170 Clouds 12 1012 47 10000 1 0 13:23 24.09.2022
171 Clouds 13 1011 41 10000 4 350 12:40 24.09.2022
172 Clouds 14 1011 44 10000 6 340 10:19 24.09.2022
173 Clouds 14 1011 44 10000 8 320 09:22 24.09.2022
174 Clouds 14 1011 44 10000 8 320 09:22 24.09.2022
175 Clouds 14 1011 47 10000 7 340 08:42 24.09.2022
176 Clouds 13 1011 44 10000 8 330 05:55 24.09.2022
177 Clouds 8 1010 61 10000 2 0 04:31 24.09.2022
178 Clear -1 1010 86 10000 0 0 23:47 23.09.2022
179 Clear 1 1011 86 10000 0 0 21:44 23.09.2022
180 Clear 1 1011 86 10000 0 0 21:24 23.09.2022
181 Clear 1 1011 86 10000 0 0 20:54 23.09.2022
182 Clear 2 1011 80 10000 0 0 19:20 23.09.2022
183 Clear 6 1012 61 10000 0 0 17:50 23.09.2022
184 Clear 11 1012 54 10000 2 0 13:41 23.09.2022
185 Clear 19 1014 26 10000 5 230 10:24 23.09.2022
186 Clear 16 1017 25 10000 3 220 07:43 23.09.2022
187 Clear -1 1021 86 10000 0 0 02:32 23.09.2022
188 Clear -3 1022 86 10000 0 0 23:29 22.09.2022
189 Clear -4 1022 86 10000 0 0 22:28 22.09.2022
190 Clear -4 1023 86 10000 0 0 21:36 22.09.2022
191 Clear -4 1023 86 10000 0 0 20:25 22.09.2022
192 Clear -2 1023 86 10000 0 0 18:58 22.09.2022
193 Clear 0 1024 74 10000 2 0 15:39 22.09.2022
194 Clear 9 1024 34 10000 4 340 10:51 22.09.2022
195 Clear 9 1024 34 10000 4 340 10:19 22.09.2022
196 Clear 9 1024 34 10000 4 340 10:19 22.09.2022
197 Clouds 5 1025 52 10000 4 310 07:55 22.09.2022
198 Clouds 2 1025 60 10000 8 350 05:22 22.09.2022
199 Clouds -1 1023 74 10000 3 290 01:19 22.09.2022
200 Clouds -1 1020 74 10000 5 310 22:29 21.09.2022
201 Clear 0 1021 69 10000 2 0 21:18 21.09.2022
202 Clouds 1 1019 75 10000 3 340 18:51 21.09.2022
203 Clouds 2 1018 69 10000 4 10 17:44 21.09.2022
204 Clouds 3 1017 81 10000 7 10 15:35 21.09.2022
205 Clouds 8 1012 46 10000 2 0 13:42 21.09.2022
206 Clouds 9 1013 46 10000 3 320 11:42 21.09.2022
207 Clouds 9 1013 49 10000 7 340 10:54 21.09.2022
208 Clouds 10 1013 40 10000 7 310 09:39 21.09.2022
209 Clouds 10 1013 40 10000 7 310 09:39 21.09.2022
210 Clouds 11 1013 37 10000 6 330 08:31 21.09.2022
211 Clouds 7 1013 57 10000 3 360 03:51 21.09.2022
212 Clouds 6 1013 65 10000 5 340 02:38 21.09.2022
213 Clouds 5 1012 70 10000 7 350 01:56 21.09.2022
214 Clouds 6 1012 70 10000 6 340 00:19 21.09.2022
215 Clear 0 1010 69 10000 2 0 21:53 20.09.2022
216 Clear 3 1009 56 10000 2 0 20:32 20.09.2022
217 Clear 2 1009 60 10000 2 0 18:41 20.09.2022
218 Clear 7 1010 39 10000 3 160 15:37 20.09.2022
219 Clear 8 1011 34 10000 2 0 14:18 20.09.2022
220 Clear 19 1012 15 10000 7 240 11:51 20.09.2022
221 Clear 15 1016 33 10000 5 230 08:44 20.09.2022
222 Clear 15 1016 33 10000 5 230 08:23 20.09.2022
223 Clear 6 1020 56 10000 0 0 04:37 20.09.2022
224 Clear -3 1022 86 10000 1 0 01:42 20.09.2022
225 Clear -2 1022 86 10000 0 0 22:42 19.09.2022
226 Clear -1 1023 80 10000 0 0 21:28 19.09.2022
227 Clear -1 1023 86 10000 2 0 20:40 19.09.2022
228 Clear 2 1024 64 10000 0 0 18:49 19.09.2022
229 Clear 2 1024 69 10000 2 0 17:20 19.09.2022
230 Clear 9 1024 34 10000 4 270 13:47 19.09.2022
231 Clear 12 1025 28 10000 4 280 12:26 19.09.2022
232 Clear 12 1026 30 10000 4 300 10:19 19.09.2022
233 Clear 11 1028 32 10000 2 0 08:37 19.09.2022
234 Clear 1 1031 69 10000 0 0 03:39 19.09.2022
235 Clear -6 1031 86 10000 2 0 00:48 19.09.2022
236 Clear -4 1031 86 10000 1 0 22:42 18.09.2022
237 Clear -5 1031 86 10000 3 160 21:26 18.09.2022
238 Clear -4 1031 86 10000 2 0 19:40 18.09.2022
239 Clear 0 1030 69 10000 3 320 17:52 18.09.2022
240 Clear 3 1030 52 10000 2 0 16:49 18.09.2022
241 Clear 5 1029 45 10000 4 340 14:52 18.09.2022
242 Clear 7 1028 39 10000 8 330 13:41 18.09.2022
243 Clear 8 1027 34 10000 9 330 12:20 18.09.2022
244 Clouds 10 1026 34 10000 6 330 09:44 18.09.2022
245 Clouds 4 1027 70 10000 2 0 03:35 18.09.2022
246 Clouds -2 1025 86 10000 1 0 01:22 18.09.2022
247 Clear -2 1024 93 10000 0 0 23:36 17.09.2022
248 Clear 2 1023 87 10000 0 0 20:56 17.09.2022
249 Clouds 3 1023 81 10000 0 0 19:40 17.09.2022
250 Clouds 2 1023 87 10000 0 0 18:30 17.09.2022
251 Clouds 8 1020 49 10000 3 10 14:27 17.09.2022
252 Clouds 9 1019 43 10000 5 350 13:32 17.09.2022
253 Clouds 10 1019 43 10000 4 330 10:50 17.09.2022
254 Clouds 10 1019 43 10000 5 340 08:30 17.09.2022
255 Clouds 8 1019 57 10000 5 330 06:21 17.09.2022
256 Clouds 4 1015 75 10000 9 330 23:42 16.09.2022
257 Clouds 4 1014 75 10000 9 330 22:42 16.09.2022
258 Clouds 4 1013 75 10000 7 320 20:54 16.09.2022
259 Clouds 4 1013 75 10000 7 320 20:54 16.09.2022
260 Clouds 4 1012 75 10000 7 320 19:41 16.09.2022
261 Clouds 3 1011 87 10000 7 300 16:26 16.09.2022
262 Rain 4 1009 81 10000 9 290 14:53 16.09.2022
263 Clouds 5 1008 81 10000 7 310 13:26 16.09.2022
264 Clouds 8 1003 81 10000 8 330 10:27 16.09.2022
265 Clouds 13 1003 71 10000 2 0 07:52 16.09.2022
266 Clouds 13 1004 71 10000 2 0 06:48 16.09.2022
267 Clouds 13 1004 71 10000 2 0 05:58 16.09.2022
268 Clouds 8 1006 93 10000 1 0 02:35 16.09.2022
269 Clouds 7 1009 87 10000 4 340 22:20 15.09.2022
270 Thunderstorm 8 1011 81 10000 3 40 20:39 15.09.2022
271 Thunderstorm 9 1012 71 10000 6 280 19:42 15.09.2022
272 Clouds 11 1011 66 10000 2 0 17:58 15.09.2022
273 Rain 11 1011 66 10000 2 0 17:28 15.09.2022
274 Clouds 11 1012 66 10000 1 0 15:49 15.09.2022
275 Clear 18 1011 45 10000 4 330 12:51 15.09.2022
276 Clear 19 1011 39 10000 5 330 11:48 15.09.2022
277 Clear 18 1013 42 10000 2 0 09:46 15.09.2022
278 Clouds 16 1014 48 10000 2 0 07:44 15.09.2022
279 Clouds 9 1016 71 10000 0 0 03:48 15.09.2022
280 Clear 6 1016 81 10000 1 0 23:30 14.09.2022
281 Clouds 9 1017 66 10000 1 0 20:47 14.09.2022
282 Clouds 9 1017 66 10000 1 0 19:33 14.09.2022
283 Clouds 13 1016 54 10000 3 340 17:48 14.09.2022
284 Clouds 15 1015 55 10000 2 0 16:37 14.09.2022
285 Clouds 15 1015 58 10000 2 0 15:27 14.09.2022
286 Clouds 24 1015 25 10000 2 0 12:50 14.09.2022
287 Clouds 27 1017 21 10000 5 160 09:53 14.09.2022
288 Clouds 26 1017 22 10000 6 140 08:38 14.09.2022
289 Clouds 22 1020 33 10000 1 0 06:50 14.09.2022
290 Clouds 22 1020 33 10000 1 0 06:30 14.09.2022
291 Clouds 22 1020 33 10000 1 0 06:30 14.09.2022
292 Rain 15 1020 55 10000 2 0 02:58 14.09.2022
293 Clouds 10 1021 76 10000 1 0 01:36 14.09.2022
294 Clouds 10 1022 71 10000 1 0 00:53 14.09.2022
295 Clouds 11 1022 66 10000 2 0 23:55 13.09.2022
296 Clouds 11 1022 66 10000 2 0 23:37 13.09.2022
297 Clouds 11 1022 66 10000 2 0 23:18 13.09.2022
298 Clouds 12 1022 66 10000 2 0 22:29 13.09.2022
299 Clouds 12 1022 66 10000 1 0 21:39 13.09.2022
300 Clouds 10 1021 71 10000 2 0 18:59 13.09.2022
301 Clouds 14 1020 54 10000 1 0 16:42 13.09.2022
302 Clouds 16 1020 48 10000 0 0 15:31 13.09.2022
303 Clouds 23 1019 31 10000 3 60 13:40 13.09.2022
304 Clouds 26 1019 19 10000 2 0 11:23 13.09.2022
305 Clouds 29 1019 14 10000 5 220 08:18 13.09.2022
306 Clouds 20 1018 30 10000 1 0 02:27 13.09.2022
307 Clouds 21 1017 26 10000 7 160 23:23 12.09.2022
308 Clear 20 1017 28 10000 8 150 22:44 12.09.2022
309 Clear 18 1017 32 10000 6 160 21:35 12.09.2022
310 Clear 20 1017 28 10000 7 180 20:22 12.09.2022
311 Clouds 22 1016 24 10000 7 200 18:24 12.09.2022
312 Clear 24 1014 22 10000 10 160 15:53 12.09.2022
313 Clear 27 1013 21 10000 10 160 12:35 12.09.2022
314 Clear 28 1014 18 10000 9 160 10:31 12.09.2022
315 Clear 24 1016 27 10000 13 150 07:40 12.09.2022
316 Clear 20 1017 34 10000 8 110 04:36 12.09.2022
317 Clouds 14 1017 58 10000 2 0 02:25 12.09.2022
318 Clouds 8 1017 76 10000 1 0 22:46 11.09.2022
319 Clouds 7 1017 81 10000 0 0 21:30 11.09.2022
320 Clear 6 1017 87 10000 1 0 20:44 11.09.2022
321 Clear 8 1017 81 10000 1 0 19:39 11.09.2022
322 Clear 8 1017 81 10000 1 0 19:19 11.09.2022
323 Clear 9 1017 76 10000 1 0 17:29 11.09.2022
324 Clear 11 1017 71 10000 3 170 15:51 11.09.2022
325 Clear 19 1016 45 10000 3 340 13:52 11.09.2022
326 Clouds 22 1015 33 10000 4 320 11:35 11.09.2022
327 Clouds 21 1016 37 10000 3 270 08:25 11.09.2022
328 Clear 16 1018 59 10000 4 280 05:49 11.09.2022
329 Clouds 10 1017 76 10000 2 0 00:23 11.09.2022
330 Clouds 11 1018 66 10000 3 10 22:23 10.09.2022
331 Clouds 10 1018 71 10000 2 0 20:35 10.09.2022
332 Clouds 10 1018 71 10000 2 0 20:35 10.09.2022
333 Clouds 11 1017 66 10000 3 10 19:44 10.09.2022
334 Clouds 11 1017 66 10000 3 10 19:25 10.09.2022
335 Clouds 10 1018 71 10000 2 0 17:51 10.09.2022
336 Clouds 12 1016 62 10000 3 320 15:37 10.09.2022
337 Clouds 17 1015 45 10000 5 340 13:55 10.09.2022
338 Clear 20 1015 37 10000 6 330 12:52 10.09.2022
339 Clouds 22 1014 33 10000 5 300 10:34 10.09.2022
340 Clouds 21 1015 32 10000 5 310 08:42 10.09.2022
341 Clouds 21 1015 32 10000 5 310 08:22 10.09.2022
342 Clear 17 1016 42 10000 6 320 04:55 10.09.2022
343 Clear 7 1013 61 10000 1 0 23:38 09.09.2022
344 Clear 9 1013 53 10000 1 0 22:36 09.09.2022
345 Clear 8 1014 61 10000 1 0 20:59 09.09.2022
346 Clear 9 1014 53 10000 1 0 20:22 09.09.2022
347 Clear 8 1014 57 10000 1 0 19:23 09.09.2022
348 Clear 12 1015 43 10000 1 0 17:50 09.09.2022
349 Clear 19 1015 22 10000 2 0 15:45 09.09.2022
350 Clear 25 1014 14 10000 4 200 13:43 09.09.2022
351 Clouds 30 1014 11 10000 8 250 11:38 09.09.2022
352 Clear 29 1016 12 10000 4 200 07:58 09.09.2022
353 Clear 13 1019 50 10000 0 0 03:43 09.09.2022
354 Clear 5 1018 75 10000 0 0 00:39 09.09.2022
355 Clear 6 1019 75 10000 0 0 21:52 08.09.2022
356 Clear 8 1019 71 10000 1 0 20:49 08.09.2022
357 Clear 8 1019 71 10000 1 0 20:29 08.09.2022
358 Clear 10 1019 62 10000 0 0 19:25 08.09.2022
359 Clear 14 1019 47 10000 2 0 17:29 08.09.2022
360 Clear 18 1019 34 10000 1 0 16:18 08.09.2022
361 Clear 23 1018 27 10000 3 180 13:30 08.09.2022
362 Clear 28 1017 16 10000 3 200 12:42 08.09.2022
363 Clouds 29 1018 13 10000 3 180 11:24 08.09.2022
364 Clear 29 1018 12 10000 3 210 09:46 08.09.2022
365 Clear 26 1020 27 10000 1 0 07:38 08.09.2022
366 Clear 16 1021 48 10000 1 0 04:53 08.09.2022
367 Clear 9 1021 76 10000 1 0 02:36 08.09.2022
368 Clear 9 1021 76 10000 1 0 02:18 08.09.2022
369 Clear 5 1020 81 10000 1 0 23:25 07.09.2022
370 Clear 5 1020 87 10000 0 0 21:46 07.09.2022
371 Clear 5 1020 87 10000 0 0 21:24 07.09.2022
372 Clear 6 1020 81 10000 0 0 20:29 07.09.2022
373 Clear 8 1020 76 10000 0 0 19:20 07.09.2022
374 Clear 13 1018 47 10000 1 0 16:24 07.09.2022
375 Clouds 27 1016 24 10000 4 240 10:52 07.09.2022
376 Clouds 27 1016 24 10000 4 240 10:32 07.09.2022
377 Clouds 25 1017 25 10000 4 220 08:29 07.09.2022
378 Clear 18 1018 45 10000 1 0 05:46 07.09.2022
379 Clear 4 1017 87 10000 1 0 00:38 07.09.2022
380 Clear 4 1017 87 10000 0 0 21:56 06.09.2022
381 Clear 4 1017 87 10000 0 0 21:33 06.09.2022
382 Clear 5 1017 87 10000 1 0 19:39 06.09.2022
383 Clear 6 1017 81 10000 1 0 18:39 06.09.2022
384 Clear 10 1016 62 10000 0 0 17:39 06.09.2022
385 Clear 9 1016 66 10000 1 0 16:47 06.09.2022
386 Clear 10 1016 62 10000 2 0 15:58 06.09.2022
387 Clear 19 1015 32 10000 4 300 13:48 06.09.2022
388 Clear 19 1015 32 10000 4 300 13:27 06.09.2022
389 Clear 22 1015 26 10000 4 290 12:57 06.09.2022
390 Clouds 22 1015 28 10000 6 290 10:55 06.09.2022
391 Clear 21 1015 35 10000 3 210 09:22 06.09.2022
392 Clear 20 1016 34 10000 1 0 07:53 06.09.2022
393 Clear 17 1016 36 10000 1 0 06:19 06.09.2022
394 Clear -1 1016 86 10000 0 0 00:54 06.09.2022
395 Clear 2 1016 75 10000 1 0 22:53 05.09.2022
396 Clear 2 1015 75 10000 1 0 21:38 05.09.2022
397 Clear 2 1015 69 10000 1 0 20:20 05.09.2022
398 Clear 0 1015 80 10000 2 0 18:53 05.09.2022
399 Clear 0 1015 80 10000 2 0 18:24 05.09.2022
400 Clear 0 1015 80 10000 1 0 17:50 05.09.2022
401 Clear 8 1014 42 10000 0 0 15:53 05.09.2022
402 Clouds 10 1014 34 10000 3 350 14:34 05.09.2022
403 Clouds 13 1013 30 10000 7 340 12:51 05.09.2022
404 Clear 14 1012 26 10000 9 320 10:37 05.09.2022
405 Clear 13 1012 30 10000 10 320 08:45 05.09.2022
406 Clouds 3 1014 75 10000 4 260 03:47 05.09.2022
407 Clouds 3 1014 75 10000 4 260 03:47 05.09.2022
408 Clouds 0 1014 86 10000 2 0 00:30 05.09.2022
409 Clouds 0 1015 86 10000 2 0 22:29 04.09.2022
410 Clouds 1 1015 80 10000 0 0 21:55 04.09.2022
411 Clouds 1 1016 86 10000 3 310 20:21 04.09.2022
412 Clouds 3 1016 81 10000 1 0 18:34 04.09.2022
413 Snow 1 1016 86 10000 2 0 17:26 04.09.2022
414 Clouds 3 1017 70 10000 3 340 15:42 04.09.2022
415 Clouds 4 1016 60 10000 4 310 14:24 04.09.2022
416 Clouds 7 1016 45 10000 9 340 12:27 04.09.2022
417 Clouds 6 1017 52 10000 7 350 10:59 04.09.2022
418 Clouds 6 1017 52 10000 7 340 09:25 04.09.2022
419 Clouds 5 1017 48 10000 9 350 06:31 04.09.2022
420 Clouds 3 1016 60 10000 9 350 02:41 04.09.2022
421 Clouds 4 1014 75 10000 8 340 22:34 03.09.2022
422 Rain 4 1013 75 10000 6 340 21:26 03.09.2022
423 Rain 4 1013 81 10000 7 340 20:55 03.09.2022
424 Clouds 7 1013 81 10000 8 340 18:31 03.09.2022
425 Clouds 8 1012 76 10000 6 30 17:19 03.09.2022
426 Rain 12 1010 71 10000 8 330 15:35 03.09.2022
427 Clouds 15 1009 63 10000 4 340 14:41 03.09.2022
428 Rain 18 1008 39 10000 3 260 13:44 03.09.2022
429 Clouds 22 1008 23 10000 5 250 11:32 03.09.2022
430 Clouds 22 1009 33 10000 6 230 09:22 03.09.2022
431 Clouds 19 1011 45 10000 3 220 07:45 03.09.2022
432 Clouds 14 1013 62 10000 1 0 04:48 03.09.2022
433 Clouds 8 1013 87 10000 1 0 02:35 03.09.2022
434 Clear 7 1013 87 10000 0 0 23:42 02.09.2022
435 Clouds 9 1014 76 10000 2 0 21:57 02.09.2022
436 Clouds 9 1015 81 10000 3 180 20:42 02.09.2022
437 Clouds 13 1016 67 10000 3 20 19:47 02.09.2022
438 Clouds 14 1016 58 10000 2 0 18:50 02.09.2022
439 Clouds 14 1016 58 10000 2 0 18:24 02.09.2022
440 Clouds 14 1015 54 10000 3 120 17:23 02.09.2022
441 Clouds 16 1016 48 10000 0 0 16:31 02.09.2022
442 Clouds 20 1014 32 10000 3 60 13:25 02.09.2022
443 Rain 22 1014 26 10000 1 0 10:39 02.09.2022
444 Clouds 22 1015 30 10000 2 0 09:42 02.09.2022
445 Clouds 22 1015 30 10000 1 0 08:45 02.09.2022
446 Clouds 20 1017 40 10000 3 210 06:46 02.09.2022
447 Clouds 20 1017 40 10000 3 210 06:18 02.09.2022
448 Clouds 8 1016 87 10000 1 0 23:19 01.09.2022
449 Clouds 13 1016 67 10000 3 340 21:47 01.09.2022
450 Clouds 13 1016 67 10000 3 340 21:27 01.09.2022
451 Clouds 15 1017 55 10000 4 70 20:52 01.09.2022
452 Clouds 14 1017 67 10000 4 80 19:25 01.09.2022
453 Clouds 15 1017 55 10000 4 160 18:18 01.09.2022
454 Clouds 16 1017 55 10000 2 0 16:47 01.09.2022
455 Rain 17 1016 48 10000 4 200 14:51 01.09.2022
456 Clouds 19 1016 45 10000 1 0 13:21 01.09.2022
457 Clouds 20 1016 40 10000 1 0 12:42 01.09.2022
458 Clouds 22 1016 30 10000 2 0 11:50 01.09.2022
459 Clouds 22 1016 30 10000 2 0 11:19 01.09.2022
460 Clouds 22 1017 28 10000 2 0 09:20 01.09.2022
461 Clear 19 1019 34 10000 1 0 06:28 01.09.2022
462 Clear 3 1020 87 10000 1 0 01:45 01.09.2022
463 Clear 2 1020 93 10000 0 0 00:33 01.09.2022
464 Clear 3 1021 93 10000 0 0 22:21 31.08.2022
465 Clear 4 1021 87 10000 0 0 20:27 31.08.2022
466 Clear 6 1021 81 10000 0 0 18:19 31.08.2022
467 Clear 9 1021 66 10000 1 0 16:32 31.08.2022
468 Clear 9 1020 71 10000 3 170 14:58 31.08.2022
469 Clear 17 1020 31 10000 2 0 12:30 31.08.2022
470 Clear 17 1021 31 10000 2 0 11:38 31.08.2022
471 Clear 16 1022 33 10000 3 310 09:25 31.08.2022
472 Clear 13 1023 41 10000 4 290 06:35 31.08.2022
473 Clear 2 1022 93 10000 1 0 01:25 31.08.2022
474 Clouds 6 1019 81 10000 1 0 21:49 30.08.2022
475 Clouds 6 1019 81 10000 1 0 21:21 30.08.2022
476 Clear 6 1017 81 10000 2 0 18:53 30.08.2022
477 Clouds 7 1017 81 10000 2 0 16:35 30.08.2022
478 Clouds 16 1016 39 10000 4 300 13:30 30.08.2022
479 Clouds 18 1017 36 10000 6 280 11:22 30.08.2022
480 Clouds 18 1017 36 10000 6 290 10:57 30.08.2022
481 Clouds 15 1018 58 10000 3 220 08:49 30.08.2022
482 Clear 6 1020 75 10000 1 0 03:55 30.08.2022
483 Clear -1 1021 86 10000 1 0 23:45 29.08.2022
484 Clear -1 1021 93 10000 1 0 22:34 29.08.2022
485 Clear 2 1021 87 10000 1 0 21:34 29.08.2022
486 Clear 2 1021 87 10000 1 0 21:34 29.08.2022
487 Clear 1 1021 93 10000 2 0 20:34 29.08.2022
488 Clear 1 1021 86 10000 1 0 18:39 29.08.2022
489 Clear 5 1021 81 10000 2 0 17:25 29.08.2022
490 Clouds 6 1021 81 10000 2 0 16:50 29.08.2022
491 Clouds 6 1021 81 10000 2 0 15:18 29.08.2022
492 Clouds 9 1020 71 10000 5 340 13:34 29.08.2022
493 Clouds 10 1020 66 10000 5 340 11:33 29.08.2022
494 Clouds 9 1020 71 10000 7 330 10:39 29.08.2022
495 Rain 10 1019 71 10000 5 350 08:39 29.08.2022
496 Rain 12 1017 76 10000 6 290 05:58 29.08.2022
497 Clouds 8 1016 87 10000 5 310 01:53 29.08.2022
498 Clear 4 1014 87 10000 1 0 22:55 28.08.2022
499 Clear 5 1014 87 10000 1 0 21:45 28.08.2022
500 Clear 6 1014 87 10000 1 0 20:58 28.08.2022
501 Clouds 7 1013 87 10000 1 0 19:44 28.08.2022
502 Clouds 7 1013 87 10000 2 0 18:22 28.08.2022
503 Clouds 7 1013 87 10000 2 0 17:45 28.08.2022
504 Clouds 7 1013 87 10000 2 0 16:33 28.08.2022
505 Clouds 13 1011 67 10000 3 350 14:44 28.08.2022
506 Rain 15 1010 58 10000 1 0 12:49 28.08.2022
507 Clouds 15 1009 63 10000 3 80 11:19 28.08.2022
508 Clouds 15 1009 72 10000 2 0 09:57 28.08.2022
509 Clouds 14 1009 62 10000 3 360 08:39 28.08.2022
510 Clouds 14 1009 72 10000 3 320 07:48 28.08.2022
511 Clouds 11 1008 87 10000 2 0 03:32 28.08.2022
512 Rain 10 1008 87 8000 3 110 00:31 28.08.2022
513 Clouds 10 1009 87 10000 5 150 22:41 27.08.2022
514 Clouds 10 1009 81 10000 7 140 21:58 27.08.2022
515 Clouds 10 1010 81 10000 8 140 20:19 27.08.2022
516 Rain 11 1012 82 10000 4 180 18:41 27.08.2022
517 Clouds 12 1012 71 10000 4 220 16:25 27.08.2022
518 Clouds 14 1012 62 10000 9 220 15:25 27.08.2022
519 Clouds 18 1011 36 10000 6 220 12:41 27.08.2022
520 Clouds 19 1011 30 10000 9 210 11:53 27.08.2022
521 Clouds 20 1012 30 10000 8 200 09:51 27.08.2022
522 Clouds 21 1013 30 10000 6 200 08:53 27.08.2022
523 Clouds 13 1016 54 10000 1 0 04:39 27.08.2022
524 Clouds 3 1017 93 10000 0 0 00:20 27.08.2022
525 Clouds 3 1018 93 10000 1 0 23:23 26.08.2022
526 Clear 3 1018 87 10000 1 0 21:43 26.08.2022
527 Clear 4 1019 87 10000 1 0 19:25 26.08.2022
528 Clear 7 1018 81 10000 2 0 17:29 26.08.2022
529 Clear 8 1018 81 10000 3 150 15:35 26.08.2022
530 Clear 11 1018 71 10000 2 0 14:44 26.08.2022
531 Clouds 15 1018 41 10000 2 0 12:54 26.08.2022
532 Clouds 16 1018 44 10000 2 0 11:37 26.08.2022
533 Clouds 15 1019 47 10000 3 340 10:47 26.08.2022
534 Clouds 13 1020 47 10000 2 0 07:32 26.08.2022
535 Clouds 5 1021 87 10000 2 0 02:31 26.08.2022
536 Clear 1 1020 86 10000 1 0 23:44 25.08.2022
537 Clear 4 1019 81 10000 2 0 21:40 25.08.2022
538 Clear 4 1019 87 10000 2 0 20:51 25.08.2022
539 Clear 3 1019 87 10000 1 0 19:24 25.08.2022
540 Clear 6 1019 75 10000 2 0 18:18 25.08.2022
541 Clouds 6 1019 75 10000 2 0 17:31 25.08.2022
542 Clouds 7 1018 76 10000 1 0 15:54 25.08.2022
543 Clouds 7 1018 76 10000 1 0 15:27 25.08.2022
544 Clouds 13 1016 47 10000 8 310 12:40 25.08.2022
545 Clouds 14 1015 44 10000 9 310 10:48 25.08.2022
546 Clouds 13 1015 50 10000 7 330 09:21 25.08.2022
547 Clouds 12 1016 54 10000 6 290 06:31 25.08.2022
548 Clouds 7 1016 81 10000 0 0 01:43 25.08.2022
549 Clouds 6 1016 87 10000 1 0 23:27 24.08.2022
550 Clouds 5 1016 87 10000 1 0 22:41 24.08.2022
551 Clouds 6 1016 81 10000 0 0 21:36 24.08.2022
552 Clouds 7 1017 76 10000 3 190 20:55 24.08.2022
553 Clouds 6 1018 81 10000 3 30 19:19 24.08.2022
554 Rain 4 1018 87 10000 2 0 16:47 24.08.2022
555 Clear 4 1018 81 10000 2 0 15:52 24.08.2022
556 Clouds 11 1018 46 10000 4 330 13:46 24.08.2022
557 Clouds 11 1019 46 10000 6 330 11:50 24.08.2022
558 Clouds 13 1019 44 10000 6 330 10:34 24.08.2022
559 Clouds 12 1020 47 10000 6 320 08:25 24.08.2022
560 Clouds 8 1020 81 10000 2 0 02:57 24.08.2022
561 Clouds 8 1018 81 10000 6 330 23:34 23.08.2022
562 Clouds 8 1018 81 10000 3 330 22:32 23.08.2022
563 Clouds 8 1017 87 10000 3 340 21:35 23.08.2022
564 Clouds 8 1017 87 10000 4 330 20:30 23.08.2022
565 Clouds 8 1016 93 10000 4 360 18:50 23.08.2022
566 Clouds 8 1015 93 10000 3 50 17:50 23.08.2022
567 Clouds 8 1015 93 10000 3 50 17:18 23.08.2022
568 Clouds 9 1015 87 10000 3 40 15:39 23.08.2022
569 Clouds 10 1016 87 8000 2 0 13:36 23.08.2022
570 Clouds 10 1017 81 10000 2 0 11:33 23.08.2022
571 Clouds 10 1018 81 8000 2 0 10:48 23.08.2022
572 Rain 10 1018 81 8000 2 0 10:24 23.08.2022
573 Clouds 14 1019 47 10000 4 210 08:52 23.08.2022
574 Clouds 14 1019 47 10000 4 210 08:21 23.08.2022
575 Rain 14 1020 51 10000 3 150 07:38 23.08.2022
576 Clouds 14 1020 51 10000 3 150 06:28 23.08.2022
577 Rain 10 1021 66 10000 3 50 04:45 23.08.2022
578 Clouds 3 1022 93 10000 1 0 00:28 23.08.2022
579 Clear 2 1022 93 10000 1 0 23:37 22.08.2022
580 Clear 1 1022 93 10000 1 0 22:44 22.08.2022
581 Clear 3 1022 87 10000 1 0 21:45 22.08.2022
582 Clear 3 1022 87 10000 1 0 19:48 22.08.2022
583 Clear 3 1022 87 10000 1 0 19:18 22.08.2022
584 Clear 6 1020 85 10000 1.27 64 17:37 22.08.2022
585 Clear 8 1021 76 10000 2 0 15:39 22.08.2022
586 Clouds 11 1021 54 10000 2 0 14:32 22.08.2022
587 Clouds 14 1019 41 10000 4 340 10:43 22.08.2022
588 Clouds 13 1019 50 10000 2 0 07:59 22.08.2022
589 Clouds 9 1020 71 10000 2 0 04:30 22.08.2022
590 Clouds 2 1018 93 10000 1 0 00:49 22.08.2022
591 Clouds 2 1018 93 10000 1 0 00:26 22.08.2022
592 Clear 1 1017 93 10000 3 170 22:53 21.08.2022
593 Clear 2 1017 93 10000 1 0 21:28 21.08.2022
594 Clear 4 1017 87 10000 0 0 20:56 21.08.2022
595 Clouds 6 1017 87 10000 1 0 19:26 21.08.2022
596 Clouds 7 1016 87 10000 1 0 17:35 21.08.2022
597 Clouds 8 1016 76 10000 2 0 15:53 21.08.2022
598 Clouds 8 1015 76 10000 2 0 15:21 21.08.2022
599 Clouds 10 1014 66 10000 6 330 13:52 21.08.2022
600 Clouds 10 1014 66 10000 6 330 13:30 21.08.2022
601 Clouds 11 1012 58 10000 8 330 11:39 21.08.2022
602 Clouds 10 1012 66 10000 6 350 09:31 21.08.2022
603 Clouds 10 1011 66 10000 9 330 08:56 21.08.2022
604 Clouds 10 1011 66 10000 9 330 08:38 21.08.2022
605 Clouds 10 1011 66 10000 8 300 07:26 21.08.2022
606 Clouds 10 1010 76 10000 5 270 03:40 21.08.2022
607 Clouds 8 1008 87 10000 3 290 00:22 21.08.2022
608 Clouds 9 1008 87 10000 4 300 22:37 20.08.2022
609 Clouds 10 1007 87 10000 4 290 21:37 20.08.2022
610 Clouds 11 1007 87 10000 3 170 20:40 20.08.2022
611 Clouds 11 1006 87 10000 1 0 19:40 20.08.2022
612 Clouds 11 1006 93 10000 2 0 18:30 20.08.2022
613 Clouds 12 1005 82 10000 2 0 17:40 20.08.2022
614 Clouds 11 1003 87 10000 1 0 16:52 20.08.2022
615 Clouds 12 1004 87 10000 1 0 15:30 20.08.2022
616 Clouds 17 1003 63 10000 3 360 13:24 20.08.2022
617 Clouds 21 1003 35 10000 3 220 11:49 20.08.2022
618 Clouds 21 1004 37 10000 4 240 09:34 20.08.2022
619 Clouds 20 1005 37 10000 2 0 08:29 20.08.2022
620 Clouds 16 1006 48 10000 1 0 05:52 20.08.2022
621 Clouds 11 1005 66 10000 3 290 00:59 20.08.2022
622 Clouds 11 1005 66 10000 3 290 00:34 20.08.2022
623 Clear 8 1006 81 10000 1 0 22:59 19.08.2022
624 Clouds 10 1007 71 10000 2 0 21:40 19.08.2022
625 Clouds 12 1008 62 10000 2 0 20:20 19.08.2022
626 Clouds 13 1007 62 10000 1 0 17:19 19.08.2022
627 Clouds 13 1008 62 10000 2 0 15:18 19.08.2022
628 Clouds 20 1010 28 10000 2 0 13:18 19.08.2022
629 Clouds 20 1011 37 10000 4 250 10:52 19.08.2022
630 Clouds 20 1011 37 10000 4 250 10:19 19.08.2022
631 Clouds 16 1012 55 10000 2 0 05:58 19.08.2022
632 Clouds 6 1012 87 10000 0 0 00:48 19.08.2022
633 Clouds 6 1012 87 10000 0 0 00:26 19.08.2022
634 Clouds 7 1012 93 10000 0 0 23:37 18.08.2022
635 Clouds 9 1012 87 10000 0 0 22:38 18.08.2022
636 Clouds 9 1012 87 10000 2 0 21:55 18.08.2022
637 Clouds 9 1012 87 10000 2 0 21:26 18.08.2022
638 Clouds 11 1012 76 10000 2 0 19:55 18.08.2022
639 Clouds 11 1012 76 10000 2 0 19:25 18.08.2022
640 Rain 12 1011 71 10000 2 0 17:49 18.08.2022
641 Clouds 14 1010 58 10000 2 0 16:55 18.08.2022
642 Clouds 16 1009 59 10000 4 350 14:22 18.08.2022
643 Clouds 17 1007 48 10000 3 30 13:58 18.08.2022
644 Clouds 18 1008 52 10000 4 330 12:46 18.08.2022
645 Clouds 19 1008 42 10000 4 340 11:23 18.08.2022
646 Clouds 18 1008 52 10000 4 310 09:43 18.08.2022
647 Clouds 17 1008 51 10000 2 0 08:31 18.08.2022
648 Clouds 16 1008 59 10000 2 0 07:18 18.08.2022
649 Clouds 11 1008 82 10000 3 30 03:23 18.08.2022
650 Rain 11 1008 82 10000 4 60 23:18 17.08.2022
651 Clouds 12 1009 76 10000 5 60 21:28 17.08.2022
652 Rain 15 1010 51 10000 2 0 19:59 17.08.2022
653 Clouds 15 1010 55 10000 1 0 18:58 17.08.2022
654 Rain 15 1009 55 10000 2 0 17:28 17.08.2022
655 Clouds 14 1010 62 10000 4 290 16:21 17.08.2022
656 Clouds 17 1009 45 10000 5 350 14:48 17.08.2022
657 Clouds 19 1008 39 10000 5 340 12:52 17.08.2022
658 Clouds 20 1008 40 10000 6 360 11:36 17.08.2022
659 Clouds 20 1008 40 10000 6 340 09:31 17.08.2022
660 Clouds 18 1009 52 10000 5 340 07:36 17.08.2022
661 Clouds 14 1007 77 10000 6 310 02:21 17.08.2022
662 Clouds 15 1005 72 10000 3 350 23:45 16.08.2022
663 Clouds 15 1006 72 10000 7 20 21:52 16.08.2022
664 Clouds 16 1006 77 10000 7 340 20:51 16.08.2022
665 Clouds 17 1005 72 10000 5 20 19:50 16.08.2022
666 Clouds 17 1004 72 10000 4 40 18:23 16.08.2022
667 Clouds 15 1003 82 10000 2 0 17:28 16.08.2022
668 Clouds 18 1003 72 10000 1 0 15:46 16.08.2022
669 Clouds 18 1003 72 10000 1 0 14:55 16.08.2022
670 Clouds 23 1003 53 10000 1 0 14:37 16.08.2022
671 Clouds 28 1002 26 10000 2 0 12:41 16.08.2022
672 Clouds 28 1003 32 10000 5 270 10:35 16.08.2022
673 Clouds 28 1003 32 10000 5 240 09:31 16.08.2022
674 Clouds 28 1004 32 10000 5 170 08:26 16.08.2022
675 Clouds 26 1004 36 10000 7 150 07:23 16.08.2022
676 Clouds 13 1007 88 10000 2 0 01:35 16.08.2022
677 Clouds 12 1008 82 10000 1 0 22:29 15.08.2022
678 Clouds 12 1009 82 10000 2 0 21:53 15.08.2022
679 Clouds 13 1010 82 10000 1 0 20:47 15.08.2022
680 Clouds 13 1010 82 10000 1 0 20:18 15.08.2022
681 Clouds 15 1010 72 10000 1 0 18:31 15.08.2022
682 Clouds 17 1010 67 10000 3 170 16:40 15.08.2022
683 Clouds 17 1010 67 10000 3 170 16:40 15.08.2022
684 Clouds 17 1010 67 10000 3 170 16:20 15.08.2022
685 Clouds 19 1010 59 10000 4 210 13:55 15.08.2022
686 Clouds 19 1010 59 10000 4 210 13:55 15.08.2022
687 Clouds 23 1010 40 10000 4 230 12:24 15.08.2022
688 Clouds 24 1011 41 10000 5 220 09:57 15.08.2022
689 Clouds 22 1013 40 10000 3 240 08:22 15.08.2022
690 Clouds 18 1014 68 10000 1 0 04:54 15.08.2022
691 Clouds 9 1013 87 10000 0 0 01:35 15.08.2022
692 Clear 8 1013 87 10000 1 0 22:39 14.08.2022
693 Clear 8 1012 93 10000 1 0 21:38 14.08.2022
694 Clear 9 1012 93 10000 0 0 19:58 14.08.2022
695 Clear 10 1012 87 10000 2 0 19:30 14.08.2022
696 Clear 10 1012 87 10000 3 170 18:19 14.08.2022
697 Clouds 12 1012 87 10000 2 0 16:54 14.08.2022
698 Clouds 14 1011 82 10000 1 0 15:50 14.08.2022
699 Clouds 16 1011 67 10000 2 0 14:34 14.08.2022
700 Clouds 17 1010 67 10000 3 350 13:50 14.08.2022
701 Clouds 17 1010 67 10000 3 350 13:20 14.08.2022
702 Rain 18 1010 63 8000 9 310 12:34 14.08.2022
703 Clouds 20 1009 56 10000 3 360 10:50 14.08.2022
704 Clouds 18 1009 63 10000 2 0 08:52 14.08.2022
705 Clouds 17 1009 63 10000 6 330 06:22 14.08.2022
706 Clouds 14 1008 82 10000 4 330 02:57 14.08.2022
707 Clouds 13 1007 88 10000 1 0 00:19 14.08.2022
708 Clouds 13 1008 88 10000 1 0 22:56 13.08.2022
709 Rain 13 1008 88 10000 2 0 21:19 13.08.2022
710 Clouds 13 1008 88 10000 2 0 20:43 13.08.2022
711 Clouds 13 1009 88 10000 2 0 19:45 13.08.2022
712 Clouds 13 1009 88 10000 3 40 17:59 13.08.2022
713 Clouds 13 1009 88 10000 3 50 15:40 13.08.2022
714 Clouds 13 1009 88 10000 2 0 14:28 13.08.2022
715 Clouds 13 1009 88 8000 3 50 13:41 13.08.2022
716 Clouds 15 1010 88 8000 2 0 11:53 13.08.2022
717 Rain 15 1011 88 8000 1 0 10:31 13.08.2022
718 Clouds 15 1012 88 8000 2 0 09:18 13.08.2022
719 Clouds 16 1013 63 10000 1 0 05:57 13.08.2022
720 Rain 10 1012 87 10000 1 0 00:29 13.08.2022
721 Rain 10 1012 87 10000 1 0 22:20 12.08.2022
722 Clouds 12 1012 76 10000 0 0 20:54 12.08.2022
723 Clouds 14 1012 67 10000 1 0 19:42 12.08.2022
724 Clouds 15 1013 67 10000 2 0 18:48 12.08.2022
725 Clouds 13 1012 71 10000 1 0 17:36 12.08.2022
726 Clouds 13 1012 76 10000 1 0 16:24 12.08.2022
727 Clouds 22 1011 37 10000 2 0 14:44 12.08.2022
728 Clouds 23 1011 33 10000 2 0 12:56 12.08.2022
729 Clouds 24 1011 31 10000 2 0 11:19 12.08.2022
730 Clouds 23 1013 31 10000 3 300 08:31 12.08.2022
731 Clouds 23 1013 31 10000 3 260 07:26 12.08.2022
732 Clear 17 1014 67 10000 0 0 03:35 12.08.2022
733 Clouds 10 1014 93 10000 2 0 00:28 12.08.2022
734 Clouds 9 1014 87 10000 1 0 23:35 11.08.2022
735 Clouds 12 1014 87 10000 1 0 22:28 11.08.2022
736 Clouds 14 1014 77 10000 1 0 21:43 11.08.2022
737 Clouds 14 1014 77 10000 1 0 21:19 11.08.2022
738 Clouds 14 1014 77 10000 2 0 20:27 11.08.2022
739 Rain 13 1014 88 10000 1 0 19:33 11.08.2022
740 Clouds 14 1014 82 10000 1 0 18:36 11.08.2022
741 Clouds 17 1014 63 10000 1 0 16:38 11.08.2022
742 Clouds 18 1014 59 10000 2 0 15:37 11.08.2022
743 Clouds 20 1013 49 10000 3 350 13:51 11.08.2022
744 Clouds 21 1013 46 10000 5 330 11:26 11.08.2022
745 Clouds 20 1014 49 10000 4 340 07:49 11.08.2022
746 Clouds 17 1014 67 10000 4 320 04:44 11.08.2022
747 Clouds 11 1013 87 10000 2 0 01:54 11.08.2022
748 Clouds 9 1012 81 10000 1 0 22:38 10.08.2022
749 Clouds 10 1012 87 10000 3 180 21:44 10.08.2022
750 Clouds 10 1012 87 10000 1 0 20:55 10.08.2022
751 Clouds 10 1011 87 10000 1 0 19:44 10.08.2022
752 Clouds 13 1011 76 10000 1 0 18:45 10.08.2022
753 Clouds 14 1011 72 10000 3 280 17:19 10.08.2022
754 Clouds 22 1008 49 10000 1 0 13:36 10.08.2022
755 Clouds 22 1008 49 10000 1 0 13:36 10.08.2022
756 Clouds 22 1008 49 10000 1 0 13:36 10.08.2022
757 Rain 22 1008 49 10000 1 0 12:48 10.08.2022
758 Clouds 20 1010 60 10000 1 0 09:56 10.08.2022
759 Clouds 19 1010 72 10000 3 130 08:35 10.08.2022
760 Clouds 19 1011 63 10000 3 260 07:21 10.08.2022
761 Clouds 16 1010 72 10000 2 0 03:35 10.08.2022
762 Clouds 14 1010 88 10000 3 40 23:58 09.08.2022
763 Clouds 14 1010 88 10000 3 40 23:25 09.08.2022
764 Clouds 14 1012 82 10000 3 140 21:37 09.08.2022
765 Clouds 15 1014 77 8000 3 60 20:40 09.08.2022
766 Clouds 16 1013 63 10000 1 0 18:45 09.08.2022
767 Rain 15 1013 72 10000 2 0 17:31 09.08.2022
768 Clouds 16 1012 63 10000 3 320 16:42 09.08.2022
769 Clouds 19 1011 52 10000 3 30 15:59 09.08.2022
770 Clouds 20 1011 45 10000 4 30 14:28 09.08.2022
771 Clouds 24 1011 35 10000 3 320 10:39 09.08.2022
772 Clouds 24 1012 38 10000 2 0 08:51 09.08.2022
773 Clouds 23 1013 38 10000 2 0 07:54 09.08.2022
774 Clouds 17 1015 55 10000 1 0 04:31 09.08.2022
775 Clear 9 1014 81 10000 2 0 23:46 08.08.2022
776 Clear 9 1015 81 10000 2 0 22:57 08.08.2022
777 Clear 9 1015 81 10000 2 0 22:35 08.08.2022
778 Clouds 10 1015 81 10000 1 0 21:27 08.08.2022
779 Clouds 12 1015 71 10000 1 0 19:51 08.08.2022
780 Clear 14 1015 72 10000 1 0 18:58 08.08.2022
781 Clouds 13 1014 76 10000 2 0 16:47 08.08.2022
782 Clouds 17 1014 59 10000 1 0 15:45 08.08.2022
783 Clouds 22 1013 28 10000 2 0 14:29 08.08.2022
784 Clouds 24 1013 29 10000 3 280 12:29 08.08.2022
785 Clouds 24 1013 33 10000 1 0 10:19 08.08.2022
786 Clouds 21 1016 46 10000 2 0 06:54 08.08.2022
787 Clouds 15 1016 63 10000 1 0 03:31 08.08.2022
788 Clouds 10 1016 87 10000 0 0 22:42 07.08.2022
789 Clouds 10 1017 87 10000 1 0 21:40 07.08.2022
790 Clouds 10 1016 81 10000 1 0 20:26 07.08.2022
791 Clouds 10 1016 81 10000 1 0 20:26 07.08.2022
792 Clear 9 1016 87 10000 0 0 19:57 07.08.2022
793 Clear 9 1016 87 10000 0 0 19:39 07.08.2022
794 Clear 11 1016 76 10000 2 0 18:35 07.08.2022
795 Clear 13 1016 71 10000 0 0 16:54 07.08.2022
796 Clear 13 1016 71 10000 0 0 16:35 07.08.2022
797 Clear 15 1016 63 10000 1 0 15:23 07.08.2022
798 Clouds 19 1015 45 10000 3 300 13:34 07.08.2022
799 Clouds 20 1015 40 10000 3 290 11:54 07.08.2022
800 Clouds 20 1015 37 10000 4 310 10:34 07.08.2022
801 Clouds 18 1016 39 10000 3 270 07:38 07.08.2022
802 Clear 13 1016 62 10000 2 0 03:20 07.08.2022
803 Clouds 7 1016 93 10000 1 0 00:57 07.08.2022
804 Clear 9 1015 81 10000 2 0 22:25 06.08.2022
805 Clear 10 1015 87 10000 3 340 20:46 06.08.2022
806 Clouds 11 1014 82 10000 3 340 19:41 06.08.2022
807 Clouds 12 1014 82 10000 4 310 18:30 06.08.2022
808 Clouds 13 1014 76 10000 4 340 17:32 06.08.2022
809 Clouds 16 1011 67 10000 3 340 14:43 06.08.2022
810 Clouds 17 1010 63 10000 7 330 13:44 06.08.2022
811 Clouds 18 1009 63 10000 4 20 11:55 06.08.2022
812 Clouds 17 1010 72 10000 3 10 10:32 06.08.2022
813 Clouds 19 1009 68 10000 3 280 08:32 06.08.2022
814 Clouds 17 1009 77 10000 4 330 03:52 06.08.2022
815 Clouds 14 1009 88 10000 1 0 23:36 05.08.2022
816 Clouds 15 1009 82 10000 4 280 22:32 05.08.2022
817 Rain 16 1009 77 10000 4 150 19:46 05.08.2022
818 Thunderstorm 17 1010 82 10000 5 130 18:46 05.08.2022
819 Clouds 17 1010 82 10000 5 130 18:22 05.08.2022
820 Rain 17 1010 88 10000 0 0 16:49 05.08.2022
821 Clouds 20 1010 64 10000 2 0 15:22 05.08.2022
822 Clouds 22 1009 53 10000 3 20 14:31 05.08.2022
823 Clouds 23 1009 53 10000 2 0 13:24 05.08.2022
824 Clouds 24 1010 50 10000 1 0 12:29 05.08.2022
825 Clouds 23 1010 49 10000 2 0 10:51 05.08.2022
826 Clouds 21 1011 56 10000 2 0 08:27 05.08.2022
827 Clouds 19 1012 59 10000 2 0 06:56 05.08.2022
828 Clouds 19 1012 59 10000 2 0 06:56 05.08.2022
829 Clouds 13 1014 88 10000 2 0 00:46 05.08.2022
830 Clouds 12 1012 87 10000 2 0 22:32 04.08.2022
831 Clouds 12 1013 87 10000 0 0 21:27 04.08.2022
832 Clouds 13 1013 88 10000 2 0 20:44 04.08.2022
833 Clouds 13 1013 88 10000 1 0 19:48 04.08.2022
834 Clouds 13 1013 88 10000 0 0 18:42 04.08.2022
835 Clouds 13 1013 88 10000 0 0 18:23 04.08.2022
836 Clouds 20 1012 56 10000 3 360 14:38 04.08.2022
837 Clouds 21 1013 52 10000 4 340 13:18 04.08.2022
838 Clouds 23 1012 46 10000 4 320 11:33 04.08.2022
839 Clouds 21 1013 52 10000 7 340 07:55 04.08.2022
840 Clouds 19 1014 63 10000 5 330 06:41 04.08.2022
841 Clouds 16 1013 77 10000 3 330 02:35 04.08.2022
842 Clouds 14 1012 88 10000 3 290 23:46 03.08.2022
843 Clouds 14 1012 88 10000 2 0 22:59 03.08.2022
844 Clouds 15 1012 88 10000 3 290 20:50 03.08.2022
845 Clouds 14 1011 88 10000 3 280 19:54 03.08.2022
846 Clouds 16 1011 82 10000 2 0 18:37 03.08.2022
847 Clouds 16 1011 88 10000 4 310 16:26 03.08.2022
848 Clouds 16 1010 88 10000 3 310 15:45 03.08.2022
849 Clouds 17 1011 88 10000 0 0 12:44 03.08.2022
850 Clouds 21 1010 64 10000 5 350 09:46 03.08.2022
851 Clouds 20 1011 60 10000 4 40 04:51 03.08.2022
852 Clouds 19 1011 63 10000 7 20 03:52 03.08.2022
853 Clouds 18 1011 68 10000 3 90 01:45 03.08.2022
854 Clouds 15 1010 77 10000 2 0 23:41 02.08.2022
855 Clouds 17 1010 72 10000 2 0 21:59 02.08.2022
856 Clouds 17 1010 72 10000 2 0 21:40 02.08.2022
857 Clouds 18 1010 63 10000 1 0 19:38 02.08.2022
858 Clouds 24 1009 33 10000 1 0 16:42 02.08.2022
859 Clouds 27 1008 32 10000 3 180 13:21 02.08.2022
860 Clouds 30 1008 26 10000 4 190 09:53 02.08.2022
861 Clouds 30 1009 26 10000 2 0 08:27 02.08.2022
862 Clouds 28 1009 32 10000 4 200 07:50 02.08.2022
863 Clear 24 1010 46 10000 1 0 04:56 02.08.2022
864 Clear 15 1010 77 10000 1 0 01:58 02.08.2022
865 Clear 13 1010 82 10000 1 0 23:21 01.08.2022
866 Clear 16 1009 67 10000 1 0 21:19 01.08.2022
867 Clear 16 1009 72 10000 2 0 19:44 01.08.2022
868 Clear 16 1009 72 10000 0 0 18:53 01.08.2022
869 Clear 17 1009 67 10000 1 0 16:55 01.08.2022
870 Clear 17 1009 67 10000 1 0 16:55 01.08.2022
871 Clear 17 1009 67 10000 1 0 16:55 01.08.2022
872 Clear 19 1008 59 10000 1 0 16:29 01.08.2022
873 Clear 19 1008 68 10000 1 0 15:34 01.08.2022
874 Clouds 25 1008 38 10000 2 0 14:44 01.08.2022
875 Clouds 28 1008 28 10000 3 310 12:57 01.08.2022
876 Clouds 28 1009 26 10000 2 0 10:47 01.08.2022
877 Clouds 28 1009 23 10000 3 310 08:45 01.08.2022
878 Clear 25 1010 33 10000 2 0 06:50 01.08.2022
879 Clear 21 1011 52 10000 1 0 04:30 01.08.2022
880 Clear 9 1011 87 10000 0 0 00:58 01.08.2022
881 Clear 11 1010 87 10000 1 0 22:42 31.07.2022
882 Clear 11 1010 87 10000 1 0 22:18 31.07.2022
883 Clear 14 1010 77 10000 1 0 20:21 31.07.2022
884 Clear 14 1009 82 10000 1 0 18:38 31.07.2022
885 Clear 16 1008 77 10000 1 0 16:22 31.07.2022
886 Clouds 26 1007 31 10000 4 280 13:59 31.07.2022
887 Clouds 27 1006 29 10000 3 270 12:55 31.07.2022
888 Clouds 27 1007 29 10000 6 240 10:53 31.07.2022
889 Clouds 26 1007 31 10000 6 230 08:29 31.07.2022
890 Clouds 20 1008 52 10000 1 0 04:46 31.07.2022
891 Clouds 9 1008 87 10000 0 0 00:56 31.07.2022
892 Clear 10 1008 87 10000 1 0 22:40 30.07.2022
893 Clear 11 1008 82 10000 0 0 21:50 30.07.2022
894 Clear 11 1008 82 10000 0 0 21:24 30.07.2022
895 Clear 12 1008 82 10000 1 0 20:28 30.07.2022
896 Clear 13 1008 82 10000 1 0 19:42 30.07.2022
897 Clear 13 1007 82 10000 1 0 17:52 30.07.2022
898 Clear 16 1007 72 10000 1 0 16:37 30.07.2022
899 Clouds 18 1006 59 10000 2 0 15:29 30.07.2022
900 Clouds 24 1006 38 10000 3 230 13:22 30.07.2022
901 Clouds 24 1006 38 10000 3 250 12:22 30.07.2022
902 Clouds 24 1006 35 10000 2 0 10:45 30.07.2022
903 Clouds 24 1006 29 10000 4 260 09:59 30.07.2022
904 Clouds 22 1006 43 10000 2 0 08:49 30.07.2022
905 Clouds 22 1007 40 10000 3 290 06:55 30.07.2022
906 Clear 14 1007 77 10000 0 0 02:33 30.07.2022
907 Clouds 9 1006 93 10000 1 0 23:30 29.07.2022
908 Clouds 12 1006 82 10000 0 0 21:36 29.07.2022
909 Clouds 13 1007 82 10000 1 0 20:50 29.07.2022
910 Clouds 13 1007 88 10000 1 0 19:34 29.07.2022
911 Clouds 14 1009 82 10000 2 0 16:59 29.07.2022
912 Thunderstorm 15 1010 77 8000 8 250 14:38 29.07.2022
913 Clouds 24 1005 38 10000 4 150 12:41 29.07.2022
914 Clouds 23 1008 35 10000 2 0 08:52 29.07.2022
915 Clouds 23 1008 35 10000 2 0 08:22 29.07.2022
916 Clouds 14 1010 72 10000 2 0 04:39 29.07.2022
917 Clear 5 1011 93 10000 1 0 23:46 28.07.2022
918 Clear 6 1010 93 10000 0 0 21:38 28.07.2022
919 Clear 6 1011 93 10000 1 0 20:52 28.07.2022
920 Clear 6 1011 93 10000 1 0 20:18 28.07.2022
921 Clear 7 1011 93 10000 1 0 19:40 28.07.2022
922 Clear 8 1012 87 10000 1 0 17:46 28.07.2022
923 Clear 8 1012 87 10000 1 0 17:23 28.07.2022
924 Clear 10 1011 87 10000 2 0 16:40 28.07.2022
925 Clouds 16 1011 59 10000 2 0 13:57 28.07.2022
926 Clouds 16 1011 67 10000 3 50 12:40 28.07.2022
927 Clouds 13 1012 82 10000 2 0 08:49 28.07.2022
928 Clouds 12 1012 82 10000 2 0 05:41 28.07.2022
929 Clouds 12 1012 82 10000 2 0 05:20 28.07.2022
930 Clouds 8 1011 87 10000 0 0 23:20 27.07.2022
931 Clouds 8 1011 87 10000 1 0 21:30 27.07.2022
932 Clouds 9 1011 81 10000 1 0 19:53 27.07.2022
933 Clouds 9 1011 81 10000 1 0 19:20 27.07.2022
934 Clear 12 1011 71 10000 1 0 16:31 27.07.2022
935 Clear 16 1011 51 10000 3 20 15:51 27.07.2022
936 Clouds 18 1011 42 10000 4 350 14:41 27.07.2022
937 Clouds 18 1011 42 10000 4 340 13:34 27.07.2022
938 Clouds 19 1011 39 10000 4 310 09:29 27.07.2022
939 Clouds 17 1012 51 10000 3 330 07:47 27.07.2022
940 Clouds 14 1012 58 10000 5 330 04:53 27.07.2022
941 Clouds 10 1011 81 10000 1 0 23:21 26.07.2022
942 Clouds 11 1011 82 10000 3 340 21:52 26.07.2022
943 Clouds 12 1011 76 10000 3 360 20:49 26.07.2022
944 Clouds 11 1011 82 10000 2 0 19:22 26.07.2022
945 Clouds 13 1011 76 10000 3 360 18:40 26.07.2022
946 Clouds 13 1010 82 10000 4 320 17:54 26.07.2022
947 Clouds 14 1010 77 10000 2 0 15:43 26.07.2022
948 Clouds 14 1009 72 10000 4 10 14:43 26.07.2022
949 Rain 15 1009 67 10000 6 30 12:32 26.07.2022
950 Clouds 14 1008 82 10000 2 0 10:20 26.07.2022
951 Clouds 17 1008 55 10000 10 270 08:27 26.07.2022
952 Clouds 14 1007 77 10000 1 0 01:52 26.07.2022
953 Clouds 13 1006 82 10000 2 0 00:20 26.07.2022
954 Clouds 11 1005 87 10000 3 140 22:40 25.07.2022
955 Clouds 13 1006 76 10000 1 0 21:43 25.07.2022
956 Clouds 11 1005 82 10000 1 0 20:43 25.07.2022
957 Clouds 11 1005 82 10000 1 0 20:24 25.07.2022
958 Clouds 11 1005 87 10000 2 0 19:24 25.07.2022
959 Clouds 13 1005 82 10000 2 0 17:42 25.07.2022
960 Clouds 13 1005 82 10000 2 0 17:20 25.07.2022
961 Clouds 20 1004 45 10000 2 0 13:27 25.07.2022
962 Clouds 21 1004 46 10000 1 0 10:54 25.07.2022
963 Clouds 18 1006 55 10000 1 0 07:53 25.07.2022
964 Clouds 11 1006 87 10000 0 0 01:36 25.07.2022
965 Clouds 10 1006 87 10000 1 0 23:45 24.07.2022
966 Clouds 9 1005 87 10000 0 0 22:47 24.07.2022
967 Clouds 9 1005 87 10000 1 0 21:42 24.07.2022
968 Clear 10 1005 87 10000 1 0 20:59 24.07.2022
969 Clear 10 1005 87 10000 1 0 20:41 24.07.2022
970 Clear 10 1005 87 10000 2 0 19:23 24.07.2022
971 Clear 11 1006 87 10000 2 0 18:26 24.07.2022
972 Clouds 13 1006 82 10000 1 0 15:55 24.07.2022
973 Clouds 16 1005 67 10000 2 0 14:57 24.07.2022
974 Clouds 20 1005 56 10000 4 340 13:49 24.07.2022
975 Clouds 21 1004 52 10000 5 340 12:28 24.07.2022
976 Clouds 22 1003 49 10000 6 320 11:30 24.07.2022
977 Clouds 21 1003 49 10000 3 330 09:55 24.07.2022
978 Clouds 21 1003 49 10000 5 320 08:22 24.07.2022
979 Clouds 21 1003 46 10000 4 280 07:41 24.07.2022
980 Clouds 17 1004 67 10000 1 0 03:18 24.07.2022
981 Clouds 12 1003 87 10000 1 0 23:25 23.07.2022
982 Clouds 12 1003 87 10000 1 0 20:47 23.07.2022
983 Clouds 12 1002 87 10000 2 0 19:29 23.07.2022
984 Clouds 15 1002 82 10000 1 0 18:40 23.07.2022
985 Clouds 15 1002 82 10000 0 0 17:27 23.07.2022
986 Clouds 17 1002 67 10000 0 0 16:29 23.07.2022
987 Clouds 18 1001 63 10000 2 0 15:22 23.07.2022
988 Clouds 21 1001 56 10000 1 0 14:55 23.07.2022
989 Clouds 21 1001 56 10000 1 0 14:23 23.07.2022
990 Clouds 23 1001 46 10000 2 0 11:56 23.07.2022
991 Clouds 23 1001 43 10000 3 170 10:41 23.07.2022
992 Clouds 22 1002 43 10000 4 130 09:38 23.07.2022
993 Rain 21 1002 49 10000 3 170 07:37 23.07.2022
994 Clouds 15 1003 63 10000 3 20 03:37 23.07.2022
995 Clouds 10 1004 87 10000 1 0 00:37 23.07.2022
996 Clouds 12 1005 71 10000 1 0 21:36 22.07.2022
997 Clouds 10 1005 81 10000 2 0 20:31 22.07.2022
998 Clouds 10 1003 92 10000 1.57 179 18:42 22.07.2022
999 Clouds 12 1006 76 10000 4 200 17:40 22.07.2022
1000 Clouds 12 1005 76 10000 4 180 16:26 22.07.2022
1001 Clouds 13 1005 76 10000 4 220 13:24 22.07.2022
1002 Clouds 15 1004 77 10000 5 80 10:23 22.07.2022
1003 Rain 16 1005 67 10000 4 270 09:24 22.07.2022
1004 Clouds 15 1006 67 10000 6 210 07:58 22.07.2022
1005 Rain 14 1006 82 10000 3 180 04:23 22.07.2022
1006 Rain 14 1007 88 10000 6 200 23:44 21.07.2022
1007 Clouds 15 1007 88 10000 1 0 21:55 21.07.2022
1008 Thunderstorm 15 1007 88 10000 2 0 20:28 21.07.2022
1009 Rain 16 1008 88 10000 1 0 18:43 21.07.2022
1010 Rain 16 1009 88 10000 1 0 17:22 21.07.2022
1011 Rain 17 1009 82 10000 2 0 16:43 21.07.2022
1012 Rain 18 1009 77 10000 2 0 14:49 21.07.2022
1013 Clouds 17 1009 77 10000 3 180 13:58 21.07.2022
1014 Clouds 17 1009 77 10000 3 180 13:58 21.07.2022
1015 Rain 22 1008 60 10000 3 350 12:18 21.07.2022
1016 Rain 26 1009 36 10000 3 360 10:37 21.07.2022
1017 Clouds 26 1010 34 10000 8 150 08:53 21.07.2022
1018 Rain 26 1010 34 10000 8 150 08:18 21.07.2022
1019 Clouds 27 1010 32 10000 8 150 07:22 21.07.2022
1020 Clouds 19 1012 59 10000 0 0 03:25 21.07.2022
1021 Clouds 14 1013 77 10000 1 0 22:51 20.07.2022
1022 Clouds 14 1013 77 10000 1 0 22:20 20.07.2022
1023 Clouds 13 1013 82 10000 1 0 20:46 20.07.2022
1024 Rain 12 1013 87 10000 2 0 19:47 20.07.2022
1025 Clouds 15 1013 72 10000 2 0 18:56 20.07.2022
1026 Clouds 15 1013 72 10000 2 0 18:31 20.07.2022
1027 Clouds 16 1013 67 10000 3 20 17:33 20.07.2022
1028 Clouds 17 1013 63 10000 5 350 15:38 20.07.2022
1029 Clouds 19 1012 55 10000 7 320 14:54 20.07.2022
1030 Clouds 20 1011 52 10000 7 340 13:44 20.07.2022
1031 Clouds 22 1011 43 10000 6 350 11:31 20.07.2022
1032 Clouds 21 1011 49 10000 5 310 07:36 20.07.2022
1033 Clouds 15 1009 67 10000 1 0 01:58 20.07.2022
1034 Clouds 14 1008 67 10000 3 180 00:43 20.07.2022
1035 Clouds 16 1006 55 10000 4 200 22:39 19.07.2022
1036 Clouds 16 1006 55 10000 4 200 22:21 19.07.2022
1037 Clouds 20 1004 40 10000 8 140 20:50 19.07.2022
1038 Clouds 21 1004 37 10000 8 150 19:38 19.07.2022
1039 Clouds 22 1004 33 10000 11 140 18:43 19.07.2022
1040 Clouds 23 1003 28 10000 11 140 17:56 19.07.2022
1041 Clouds 24 1003 27 10000 12 150 15:50 19.07.2022
1042 Clouds 18 1002 62 10000 4.34 147 14:20 19.07.2022
1043 Thunderstorm 28 1002 23 10000 9 130 11:35 19.07.2022
1044 Clouds 29 1003 20 10000 9 130 09:58 19.07.2022
1045 Clouds 30 1004 17 10000 8 170 08:48 19.07.2022
1046 Clouds 30 1004 17 10000 8 170 08:21 19.07.2022
1047 Clouds 29 1004 20 10000 11 140 07:18 19.07.2022
1048 Clouds 25 1005 23 10000 12 130 05:23 19.07.2022
1049 Clouds 25 1005 23 10000 11 140 04:40 19.07.2022
1050 Clouds 21 1005 32 10000 5 140 00:31 19.07.2022
1051 Clouds 21 1006 35 10000 3 200 23:21 18.07.2022
1052 Clouds 22 1006 33 10000 6 150 22:55 18.07.2022
1053 Clouds 23 1006 28 10000 7 140 21:50 18.07.2022
1054 Clouds 22 1005 30 10000 5 140 20:50 18.07.2022
1055 Clouds 21 1006 35 10000 5 140 19:24 18.07.2022
1056 Clouds 24 1007 29 10000 10 150 16:52 18.07.2022
1057 Clouds 24 1007 27 10000 6 170 15:42 18.07.2022
1058 Clouds 27 1006 24 10000 8 210 13:45 18.07.2022
1059 Clouds 28 1006 20 10000 7 170 12:37 18.07.2022
1060 Clouds 30 1006 17 10000 5 170 10:34 18.07.2022
1061 Clouds 29 1008 20 10000 6 190 08:50 18.07.2022
1062 Clouds 27 1009 21 10000 6 190 06:54 18.07.2022
1063 Clear 8 1011 81 10000 0 0 00:36 18.07.2022
1064 Clear 9 1011 87 10000 0 0 22:34 17.07.2022
1065 Clear 9 1011 81 10000 1 0 21:47 17.07.2022
1066 Clear 11 1011 76 10000 1 0 20:55 17.07.2022
1067 Clear 11 1011 76 10000 1 0 20:36 17.07.2022
1068 Clear 11 1011 76 10000 0 0 19:28 17.07.2022
1069 Clear 13 1011 71 10000 2 0 18:26 17.07.2022
1070 Clear 17 1011 45 10000 1 0 17:38 17.07.2022
1071 Clear 16 1011 51 10000 3 170 16:50 17.07.2022
1072 Clear 16 1011 51 10000 3 170 16:25 17.07.2022
1073 Clouds 24 1010 25 10000 4 240 14:32 17.07.2022
1074 Clouds 25 1010 25 10000 3 300 13:28 17.07.2022
1075 Clouds 26 1011 24 10000 2 0 11:32 17.07.2022
1076 Clouds 24 1012 27 10000 3 280 08:50 17.07.2022
1077 Clear 15 1015 63 10000 0 0 03:43 17.07.2022
1078 Clear 12 1015 71 10000 0 0 02:21 17.07.2022
1079 Clear 5 1015 87 10000 1 0 23:19 16.07.2022
1080 Clear 6 1014 93 10000 3 150 21:25 16.07.2022
1081 Clear 7 1014 87 10000 2 0 19:25 16.07.2022
1082 Clear 9 1014 81 10000 2 0 17:56 16.07.2022
1083 Clear 12 1015 66 10000 1 0 16:31 16.07.2022
1084 Clouds 19 1013 45 10000 6 340 13:47 16.07.2022
1085 Clouds 20 1012 45 10000 6 340 10:50 16.07.2022
1086 Clouds 19 1012 48 10000 6 330 09:32 16.07.2022
1087 Clouds 17 1012 51 10000 7 330 08:43 16.07.2022
1088 Clouds 16 1013 59 10000 7 340 07:59 16.07.2022
1089 Clouds 15 1012 67 10000 4 360 03:58 16.07.2022
1090 Clouds 14 1011 77 10000 6 350 02:40 16.07.2022
1091 Clouds 13 1010 88 10000 4 340 23:29 15.07.2022
1092 Clouds 13 1009 88 10000 3 340 22:39 15.07.2022
1093 Clouds 13 1009 88 10000 2 0 21:28 15.07.2022
1094 Clouds 13 1009 88 10000 3 320 20:24 15.07.2022
1095 Rain 13 1009 88 10000 0 0 18:37 15.07.2022
1096 Rain 13 1009 88 10000 3 310 17:36 15.07.2022
1097 Rain 16 1009 77 10000 2 0 14:53 15.07.2022
1098 Clouds 17 1009 67 10000 3 170 12:57 15.07.2022
1099 Clouds 17 1009 63 10000 3 180 11:20 15.07.2022
1100 Clouds 18 1010 63 10000 4 170 09:21 15.07.2022
1101 Clouds 16 1012 72 10000 4 190 05:56 15.07.2022
1102 Rain 15 1012 82 10000 0 0 00:53 15.07.2022
1103 Rain 15 1012 82 10000 0 0 00:21 15.07.2022
1104 Rain 15 1013 82 10000 1 0 22:45 14.07.2022
1105 Clouds 16 1012 77 10000 5 30 21:46 14.07.2022
1106 Clouds 16 1012 77 10000 5 30 21:28 14.07.2022
1107 Clouds 16 1012 82 10000 4 90 20:43 14.07.2022
1108 Clouds 16 1012 82 10000 4 90 20:20 14.07.2022
1109 Clouds 17 1012 63 10000 1 0 18:52 14.07.2022
1110 Clouds 19 1011 55 10000 3 330 16:22 14.07.2022
1111 Clouds 21 1010 46 10000 3 0 15:29 14.07.2022
1112 Clouds 26 1009 27 10000 6 240 13:53 14.07.2022
1113 Clouds 26 1009 27 10000 8 250 12:53 14.07.2022
1114 Clouds 26 1009 27 10000 11 230 11:43 14.07.2022
1115 Clouds 26 1009 27 10000 11 230 11:22 14.07.2022
1116 Clouds 26 1009 25 10000 9 230 09:49 14.07.2022
1117 Clouds 26 1011 27 10000 8 170 06:54 14.07.2022
1118 Clouds 16 1013 63 10000 1 0 01:24 14.07.2022
1119 Clouds 15 1012 72 10000 3 100 00:53 14.07.2022
1120 Clouds 16 1013 55 10000 1 0 22:33 13.07.2022
1121 Clouds 16 1012 51 10000 1 0 21:56 13.07.2022
1122 Clouds 16 1012 48 10000 1 0 20:53 13.07.2022
1123 Clouds 18 1012 42 10000 3 140 19:30 13.07.2022
1124 Clouds 18 1012 39 10000 6 140 17:51 13.07.2022
1125 Clouds 18 1012 39 10000 5 140 16:39 13.07.2022
1126 Clouds 18 1011 45 10000 5 140 15:24 13.07.2022
1127 Clouds 25 1011 20 10000 3 200 12:55 13.07.2022
1128 Clouds 25 1012 23 10000 3 240 10:45 13.07.2022
1129 Clouds 25 1012 23 10000 3 240 10:24 13.07.2022
1130 Clouds 24 1013 29 10000 3 230 09:24 13.07.2022
1131 Clouds 22 1014 37 10000 3 300 06:20 13.07.2022
1132 Clear 14 1014 77 10000 0 0 02:21 13.07.2022
1133 Clear 6 1013 93 10000 3 170 23:45 12.07.2022
1134 Clear 8 1013 87 10000 1 0 21:57 12.07.2022
1135 Clear 8 1013 87 10000 1 0 21:29 12.07.2022
1136 Clear 8 1013 87 10000 2 0 20:41 12.07.2022
1137 Clear 10 1013 81 10000 1 0 19:28 12.07.2022
1138 Clouds 13 1012 76 10000 1 0 17:50 12.07.2022
1139 Clouds 13 1012 76 10000 1 0 16:20 12.07.2022
1140 Rain 15 1010 63 10000 6 340 14:31 12.07.2022
1141 Clouds 17 1009 59 10000 7 340 12:48 12.07.2022
1142 Clouds 15 1009 67 10000 7 340 11:26 12.07.2022
1143 Clouds 17 1008 59 10000 10 340 09:42 12.07.2022
1144 Clouds 15 1009 67 10000 9 340 08:24 12.07.2022
1145 Rain 16 1008 63 10000 9 330 06:59 12.07.2022
1146 Clouds 13 1009 76 10000 5 340 05:42 12.07.2022
1147 Clouds 12 1009 76 10000 4 350 02:52 12.07.2022
1148 Clouds 11 1008 82 10000 4 340 23:30 11.07.2022
1149 Clouds 11 1008 82 10000 3 330 22:31 11.07.2022
1150 Clouds 12 1009 76 10000 3 320 20:41 11.07.2022
1151 Clouds 12 1009 76 10000 5 310 19:50 11.07.2022
1152 Clouds 12 1008 76 10000 5 320 18:32 11.07.2022
1153 Rain 13 1008 71 10000 6 320 17:53 11.07.2022
1154 Clouds 13 1008 76 10000 6 350 16:21 11.07.2022
1155 Clouds 14 1007 72 10000 5 330 14:49 11.07.2022
1156 Clouds 18 1005 63 10000 8 320 11:59 11.07.2022
1157 Clouds 20 1005 56 10000 7 320 10:37 11.07.2022
1158 Clouds 20 1005 56 10000 7 300 09:49 11.07.2022
1159 Clouds 21 1005 52 10000 3 280 08:34 11.07.2022
1160 Clouds 18 1005 68 10000 5 300 06:44 11.07.2022
1161 Rain 16 1004 72 10000 6 140 00:22 11.07.2022
1162 Clouds 17 1004 63 10000 8 140 23:28 10.07.2022
1163 Clouds 17 1004 63 10000 7 130 22:21 10.07.2022
1164 Rain 17 1004 59 10000 10 130 20:54 10.07.2022
1165 Rain 16 1005 67 10000 6 100 19:50 10.07.2022
1166 Rain 15 1006 77 10000 7 50 18:53 10.07.2022
1167 Clouds 14 1009 88 10000 2 0 17:41 10.07.2022
1168 Thunderstorm 16 1009 77 10000 14 220 16:58 10.07.2022
1169 Clouds 16 1009 77 10000 14 220 16:20 10.07.2022
1170 Rain 23 1005 33 10000 4 70 14:33 10.07.2022
1171 Clouds 25 1006 29 10000 2 0 12:33 10.07.2022
1172 Clouds 25 1007 27 10000 1 0 11:34 10.07.2022
1173 Clouds 23 1008 28 10000 3 270 09:28 10.07.2022
1174 Clouds 23 1009 28 10000 2 0 08:38 10.07.2022
1175 Clouds 20 1010 40 10000 2 0 05:36 10.07.2022
1176 Clouds 9 1010 87 10000 0 0 23:32 09.07.2022
1177 Clouds 10 1010 87 10000 1 0 22:25 09.07.2022
1178 Clouds 12 1010 82 10000 2 0 21:31 09.07.2022
1179 Rain 14 1011 67 10000 6 340 18:59 09.07.2022
1180 Clouds 13 1010 76 10000 1 0 17:59 09.07.2022
1181 Clouds 15 1010 63 10000 1 0 16:59 09.07.2022
1182 Clouds 18 1009 45 10000 2 0 15:44 09.07.2022
1183 Clouds 18 1009 45 10000 2 0 15:25 09.07.2022
1184 Clouds 21 1009 35 10000 4 330 13:51 09.07.2022
1185 Clouds 21 1009 35 10000 4 330 13:27 09.07.2022
1186 Clouds 22 1009 33 10000 5 330 11:33 09.07.2022
1187 Clouds 21 1009 35 10000 4 340 10:24 09.07.2022
1188 Clouds 21 1010 40 10000 5 350 08:25 09.07.2022
1189 Clouds 20 1011 40 10000 4 330 06:58 09.07.2022
1190 Clouds 18 1011 55 10000 3 300 04:34 09.07.2022
1191 Clouds 8 1011 87 10000 1 0 23:18 08.07.2022
1192 Clouds 9 1011 87 10000 1 0 21:59 08.07.2022
1193 Clear 9 1011 87 10000 1 0 20:59 08.07.2022
1194 Clear 9 1011 87 10000 1 0 20:25 08.07.2022
1195 Clear 11 1011 82 10000 3 180 18:32 08.07.2022
1196 Clear 12 1011 76 10000 2 0 17:25 08.07.2022
1197 Clouds 20 1010 40 10000 2 0 14:55 08.07.2022
1198 Clouds 20 1010 40 10000 2 0 14:29 08.07.2022
1199 Clouds 21 1010 37 10000 4 330 12:28 08.07.2022
1200 Clouds 21 1010 40 10000 3 320 10:45 08.07.2022
1201 Clouds 21 1011 37 10000 3 300 08:55 08.07.2022
1202 Clouds 18 1013 52 10000 3 290 06:55 08.07.2022
1203 Clouds 14 1013 72 10000 4 280 03:22 08.07.2022
1204 Clouds 11 1011 82 10000 2 0 23:45 07.07.2022
1205 Clouds 12 1011 82 10000 4 340 22:45 07.07.2022
1206 Clouds 12 1011 76 10000 5 320 20:59 07.07.2022
1207 Clouds 13 1010 76 10000 5 350 18:42 07.07.2022
1208 Clouds 13 1009 71 10000 5 360 17:41 07.07.2022
1209 Clouds 13 1007 76 10000 6 350 15:34 07.07.2022
1210 Clouds 16 1006 63 10000 4 330 13:30 07.07.2022
1211 Clouds 18 1005 55 10000 6 340 12:40 07.07.2022
1212 Clouds 18 1005 55 10000 6 340 12:20 07.07.2022
1213 Clouds 17 1005 63 10000 7 350 11:31 07.07.2022
1214 Rain 18 1004 59 10000 6 340 10:44 07.07.2022
1215 Clouds 18 1004 59 10000 6 340 10:25 07.07.2022
1216 Clouds 21 1003 46 10000 6 270 07:40 07.07.2022
1217 Clouds 16 1004 72 10000 4 280 04:42 07.07.2022
1218 Rain 13 1001 92 10000 0.64 159 23:37 06.07.2022
1219 Rain 13 1001 94 10000 1.41 94 23:19 06.07.2022
1220 Rain 13 1005 94 10000 1 0 22:57 06.07.2022
1221 Clouds 13 1005 94 10000 1 0 22:38 06.07.2022
1222 Rain 14 1004 82 10000 6 40 21:46 06.07.2022
1223 Rain 15 1005 77 10000 3 140 19:39 06.07.2022
1224 Rain 18 1004 42 10000 3 200 18:29 06.07.2022
1225 Clouds 21 1004 30 10000 5 40 16:27 06.07.2022
1226 Clouds 23 1004 25 10000 2 0 14:58 06.07.2022
1227 Clouds 24 1005 22 10000 2 0 12:42 06.07.2022
1228 Clouds 25 1005 20 10000 2 0 11:49 06.07.2022
1229 Clouds 23 1006 25 10000 2 0 10:18 06.07.2022
1230 Clouds 21 1008 37 10000 2 0 07:47 06.07.2022
1231 Clouds 21 1008 37 10000 2 0 07:23 06.07.2022
1232 Clouds 18 1009 45 10000 2 0 05:28 06.07.2022
1233 Clear 5 1009 87 10000 2 0 22:48 05.07.2022
1234 Clear 6 1009 93 10000 2 0 21:53 05.07.2022
1235 Clear 7 1009 87 10000 1 0 20:39 05.07.2022
1236 Clear 8 1009 87 10000 2 0 19:43 05.07.2022
1237 Clear 8 1009 87 10000 2 0 19:22 05.07.2022
1238 Clear 11 1009 82 10000 1 0 17:47 05.07.2022
1239 Clouds 14 1009 67 10000 3 350 16:55 05.07.2022
1240 Clouds 15 1008 63 10000 4 340 15:31 05.07.2022
1241 Clouds 17 1008 59 10000 4 350 14:28 05.07.2022
1242 Rain 17 1007 59 10000 4 50 12:43 05.07.2022
1243 Clouds 16 1007 51 10000 6 350 11:33 05.07.2022
1244 Clouds 19 1006 45 10000 5 310 10:40 05.07.2022
1245 Clouds 20 1006 40 10000 3 310 09:22 05.07.2022
1246 Clouds 20 1006 42 10000 4 260 07:45 05.07.2022
1247 Clouds 17 1007 59 10000 2 0 04:51 05.07.2022
1248 Clouds 17 1007 59 10000 2 0 04:23 05.07.2022
1249 Clouds 9 1006 81 10000 2 0 23:56 04.07.2022
1250 Clouds 9 1006 81 10000 2 0 23:26 04.07.2022
1251 Clouds 9 1005 81 10000 1 0 22:25 04.07.2022
1252 Clouds 12 1004 66 10000 1 0 21:30 04.07.2022
1253 Clouds 12 1005 66 10000 3 160 20:52 04.07.2022
1254 Clouds 12 1005 66 10000 3 160 20:33 04.07.2022
1255 Clouds 13 1006 62 10000 3 170 19:52 04.07.2022
1256 Clouds 13 1006 62 10000 3 170 19:34 04.07.2022
1257 Clouds 17 1006 48 10000 3 160 17:58 04.07.2022
1258 Clouds 18 1006 52 10000 2 0 15:50 04.07.2022
1259 Clouds 18 1006 52 10000 2 0 15:31 04.07.2022
1260 Clouds 20 1005 49 10000 5 340 13:29 04.07.2022
1261 Clouds 21 1004 46 10000 5 310 12:20 04.07.2022
1262 Clouds 21 1004 46 10000 5 340 10:34 04.07.2022
1263 Clouds 20 1004 56 10000 4 40 09:40 04.07.2022
1264 Clouds 19 1004 63 10000 4 10 07:21 04.07.2022
1265 Clouds 15 1004 88 10000 4 290 03:35 04.07.2022
1266 Clouds 14 1004 94 10000 0 0 00:35 04.07.2022
1267 Clouds 11 1003 93 10000 0 0 22:58 03.07.2022
1268 Clouds 11 1003 93 10000 0 0 22:58 03.07.2022
1269 Rain 13 1004 94 10000 1 0 20:51 03.07.2022
1270 Rain 13 1004 94 10000 1 0 20:25 03.07.2022
1271 Clouds 14 1005 94 10000 1 0 19:27 03.07.2022
1272 Clouds 14 1005 94 10000 2 0 18:35 03.07.2022
1273 Clouds 15 1005 88 10000 2 0 17:43 03.07.2022
1274 Clouds 17 1004 77 10000 4 30 15:49 03.07.2022
1275 Clouds 18 1004 77 10000 4 10 14:58 03.07.2022
1276 Clouds 18 1004 77 10000 4 10 13:59 03.07.2022
1277 Clouds 18 1004 77 10000 3 10 13:33 03.07.2022
1278 Rain 17 1004 82 10000 4 40 12:32 03.07.2022
1279 Rain 18 1006 72 10000 6 300 11:18 03.07.2022
1280 Rain 20 1005 64 10000 7 330 10:38 03.07.2022
1281 Rain 21 1005 60 10000 4 330 09:31 03.07.2022
1282 Clouds 20 1006 64 10000 3 340 07:34 03.07.2022
1283 Clouds 21 1005 52 10000 6 140 01:42 03.07.2022
1284 Clouds 19 1004 59 10000 4 190 23:50 02.07.2022
1285 Clouds 21 1003 52 10000 3 190 22:33 02.07.2022
1286 Clouds 23 1003 43 10000 9 150 20:37 02.07.2022
1287 Clouds 23 1003 43 10000 10 150 19:51 02.07.2022
1288 Clouds 23 1003 43 10000 10 150 19:19 02.07.2022
1289 Clouds 24 1003 41 10000 10 140 17:41 02.07.2022
1290 Clouds 25 1003 38 10000 9 140 16:38 02.07.2022
1291 Clouds 28 1002 32 10000 10 140 13:51 02.07.2022
1292 Clouds 30 1002 30 10000 6 160 12:19 02.07.2022
1293 Clouds 30 1003 28 10000 7 180 10:54 02.07.2022
1294 Clouds 30 1003 28 10000 7 180 10:33 02.07.2022
1295 Clouds 29 1005 28 10000 7 180 08:54 02.07.2022
1296 Clouds 29 1005 28 10000 7 180 08:19 02.07.2022
1297 Clouds 28 1006 32 10000 6 140 06:51 02.07.2022
1298 Clouds 15 1007 82 10000 1 0 00:55 02.07.2022
1299 Clouds 16 1007 77 10000 1 0 23:31 01.07.2022
1300 Clouds 18 1007 68 10000 1 0 22:40 01.07.2022
1301 Clouds 17 1007 72 10000 1 0 21:40 01.07.2022
1302 Clouds 17 1008 77 10000 1 0 20:59 01.07.2022
1303 Clouds 17 1008 77 10000 1 0 20:37 01.07.2022
1304 Clouds 17 1008 77 10000 1 0 19:41 01.07.2022
1305 Clouds 18 1008 72 10000 1 0 17:52 01.07.2022
1306 Clouds 21 1008 64 10000 2 0 15:26 01.07.2022
1307 Rain 24 1008 41 10000 3 280 13:54 01.07.2022
1308 Clouds 28 1008 32 10000 2 0 11:50 01.07.2022
1309 Clouds 28 1008 32 10000 3 200 10:20 01.07.2022
1310 Clouds 24 1010 43 10000 2 0 08:50 01.07.2022
1311 Clouds 23 1012 49 10000 4 200 03:18 01.07.2022
1312 Clouds 15 1011 88 10000 0 0 00:25 01.07.2022
1313 Clouds 14 1011 94 10000 1 0 22:56 30.06.2022
1314 Clouds 14 1011 94 10000 1 0 22:33 30.06.2022
1315 Clouds 14 1010 88 10000 1 0 21:59 30.06.2022
1316 Clouds 14 1010 88 10000 1 0 21:35 30.06.2022
1317 Clouds 15 1011 82 10000 0 0 20:22 30.06.2022
1318 Clouds 16 1010 82 10000 1 0 19:53 30.06.2022
1319 Clouds 16 1010 82 10000 1 0 19:19 30.06.2022
1320 Clouds 17 1011 77 10000 1 0 18:42 30.06.2022
1321 Clouds 18 1011 77 10000 1 0 17:38 30.06.2022
1322 Clouds 20 1011 56 10000 3 260 16:48 30.06.2022
1323 Rain 21 1011 49 10000 4 210 15:27 30.06.2022
1324 Clouds 25 1008 36 10000 11 190 13:30 30.06.2022
1325 Clouds 29 1007 24 10000 5 150 12:35 30.06.2022
1326 Clouds 30 1007 25 10000 5 150 11:28 30.06.2022
1327 Clouds 25 1009 44 10000 5 140 09:54 30.06.2022
1328 Clouds 25 1009 44 10000 5 140 09:34 30.06.2022
1329 Clouds 28 1010 32 10000 6 160 07:51 30.06.2022
1330 Clouds 22 1010 49 10000 1 0 05:57 30.06.2022
1331 Clouds 18 1010 63 10000 3 300 01:29 30.06.2022
1332 Clouds 14 1010 77 10000 1 0 23:34 29.06.2022
1333 Clouds 14 1011 82 10000 1 0 22:39 29.06.2022
1334 Clouds 14 1011 82 10000 2 0 21:37 29.06.2022
1335 Clouds 12 1011 87 10000 0 0 20:34 29.06.2022
1336 Clouds 13 1011 88 10000 0 0 19:37 29.06.2022
1337 Clouds 16 1010 72 10000 0 0 17:45 29.06.2022
1338 Clouds 18 1010 63 10000 4 50 16:41 29.06.2022
1339 Clouds 19 1010 55 10000 3 40 15:19 29.06.2022
1340 Thunderstorm 22 1009 43 10000 9 30 12:40 29.06.2022
1341 Thunderstorm 21 1008 49 10000 6 130 11:19 29.06.2022
1342 Clouds 29 1002 24 10000 4.79 230 09:33 29.06.2022
1343 Clouds 31 1009 19 10000 6 190 07:44 29.06.2022
1344 Clouds 27 1010 29 10000 6 160 04:57 29.06.2022
1345 Clear 18 1010 59 10000 0 0 01:41 29.06.2022
1346 Clear 13 1010 76 10000 1 0 00:36 29.06.2022
1347 Clouds 14 1010 72 10000 1 0 22:55 28.06.2022
1348 Clouds 14 1010 72 10000 1 0 22:34 28.06.2022
1349 Clouds 15 1009 67 10000 2 0 21:55 28.06.2022
1350 Clouds 15 1009 67 10000 2 0 21:33 28.06.2022
1351 Clouds 16 1009 63 10000 2 0 20:44 28.06.2022
1352 Clouds 20 1010 45 10000 1 0 19:34 28.06.2022
1353 Clouds 23 1009 35 10000 1 0 18:53 28.06.2022
1354 Clouds 22 1009 37 10000 2 0 17:42 28.06.2022
1355 Clouds 23 1008 35 10000 5 140 16:21 28.06.2022
1356 Clouds 23 1008 40 10000 5 140 15:42 28.06.2022
1357 Clouds 25 1008 33 10000 4 160 14:21 28.06.2022
1358 Clouds 28 1007 24 10000 4 180 13:54 28.06.2022
1359 Clouds 29 1007 26 10000 4 170 12:57 28.06.2022
1360 Clouds 29 1008 26 10000 4 200 11:21 28.06.2022
1361 Clouds 29 1008 26 10000 5 230 09:36 28.06.2022
1362 Clouds 29 1009 26 10000 2 0 08:44 28.06.2022
1363 Clouds 27 1009 32 10000 2 0 07:42 28.06.2022
1364 Clouds 27 1009 32 10000 2 0 07:19 28.06.2022
1365 Clear 15 1011 72 10000 2 0 01:32 28.06.2022
1366 Clouds 11 1011 87 10000 0 0 23:42 27.06.2022
1367 Clear 10 1010 87 10000 2 0 22:54 27.06.2022
1368 Clear 14 1010 77 10000 1 0 21:38 27.06.2022
1369 Clear 14 1010 77 10000 1 0 20:53 27.06.2022
1370 Clear 15 1010 72 10000 1 0 19:36 27.06.2022
1371 Clear 17 1010 59 10000 0 0 18:26 27.06.2022
1372 Clouds 20 1010 45 10000 2 0 16:27 27.06.2022
1373 Clouds 23 1010 35 10000 2 0 15:23 27.06.2022
1374 Clouds 26 1009 31 10000 7 340 13:37 27.06.2022
1375 Clouds 26 1009 29 10000 5 330 12:56 27.06.2022
1376 Clouds 26 1009 25 10000 3 320 10:34 27.06.2022
1377 Clouds 26 1010 24 10000 3 290 09:21 27.06.2022
1378 Clouds 24 1011 31 10000 2 0 08:30 27.06.2022
1379 Clouds 23 1012 38 10000 2 0 06:39 27.06.2022
1380 Clear 17 1013 63 10000 1 0 03:55 27.06.2022
1381 Clear 11 1013 93 10000 1 0 00:56 27.06.2022
1382 Clear 9 1013 87 10000 1 0 22:18 26.06.2022
1383 Clear 11 1013 93 10000 0 0 20:48 26.06.2022
1384 Clear 11 1013 87 10000 1 0 19:42 26.06.2022
1385 Clear 12 1013 94 10000 1 0 18:31 26.06.2022
1386 Clouds 14 1013 88 10000 1 0 16:47 26.06.2022
1387 Clouds 16 1012 77 10000 0 0 15:26 26.06.2022
1388 Clouds 17 1012 77 10000 1 0 13:41 26.06.2022
1389 Clouds 17 1012 77 10000 1 0 13:20 26.06.2022
1390 Clouds 16 1012 82 10000 3 300 11:26 26.06.2022
1391 Clouds 18 1011 59 10000 1 0 10:26 26.06.2022
1392 Clouds 17 1012 72 10000 2 0 09:34 26.06.2022
1393 Clouds 18 1011 55 10000 3 10 07:44 26.06.2022
1394 Clouds 14 1011 82 10000 1 0 01:55 26.06.2022
1395 Clouds 14 1011 82 10000 3 50 00:21 26.06.2022
1396 Rain 14 1011 82 10000 2 0 23:49 25.06.2022
1397 Clouds 14 1011 82 10000 2 0 23:20 25.06.2022
1398 Rain 14 1010 88 10000 1 0 22:27 25.06.2022
1399 Rain 14 1010 88 10000 2 0 21:40 25.06.2022
1400 Rain 14 1010 88 10000 2 0 21:18 25.06.2022
1401 Clouds 15 1010 82 10000 1 0 20:27 25.06.2022
1402 Rain 15 1010 82 10000 0 0 19:21 25.06.2022
1403 Clouds 16 1011 72 10000 7 300 17:56 25.06.2022
1404 Rain 16 1011 72 10000 7 300 17:22 25.06.2022
1405 Clouds 19 1009 52 10000 4 330 15:36 25.06.2022
1406 Clouds 21 1007 46 10000 7 330 13:34 25.06.2022
1407 Clouds 25 1006 31 10000 8 340 12:38 25.06.2022
1408 Clouds 26 1005 27 10000 6 310 10:34 25.06.2022
1409 Clouds 26 1006 29 10000 5 310 08:59 25.06.2022
1410 Clouds 26 1006 29 10000 5 310 08:36 25.06.2022
1411 Clouds 25 1006 31 10000 3 10 07:54 25.06.2022
1412 Clouds 20 1006 49 10000 3 20 03:33 25.06.2022
1413 Clouds 14 1006 77 10000 2 0 00:34 25.06.2022
1414 Clouds 14 1008 82 10000 5 320 22:53 24.06.2022
1415 Clouds 16 1007 63 10000 3 290 21:34 24.06.2022
1416 Clouds 17 1005 55 10000 2 0 20:45 24.06.2022
1417 Clouds 17 1005 55 10000 2 0 20:18 24.06.2022
1418 Clear 18 1004 48 10000 5 40 19:21 24.06.2022
1419 Clear 15 1003 63 10000 2 0 18:48 24.06.2022
1420 Clear 15 1003 63 10000 2 0 18:30 24.06.2022
1421 Clear 16 1003 55 10000 3 190 17:19 24.06.2022
1422 Clear 22 1003 33 10000 3 350 15:29 24.06.2022
1423 Clear 24 1003 29 10000 6 20 14:26 24.06.2022
1424 Clear 26 1002 27 10000 6 350 13:55 24.06.2022
1425 Clouds 28 1002 21 10000 6 350 11:44 24.06.2022
1426 Clouds 28 1002 17 10000 10 340 10:55 24.06.2022
1427 Clouds 28 1003 23 10000 8 350 09:49 24.06.2022
1428 Clouds 28 1003 23 10000 8 350 09:27 24.06.2022
1429 Clouds 29 1003 20 10000 8 350 08:51 24.06.2022
1430 Clouds 27 1004 26 10000 1 0 06:48 24.06.2022
1431 Clouds 27 1004 26 10000 1 0 06:30 24.06.2022
1432 Clouds 24 1005 33 10000 1 0 05:52 24.06.2022
1433 Clear 14 1007 72 10000 1 0 01:21 24.06.2022
1434 Clouds 12 1008 82 10000 0 0 22:44 23.06.2022
1435 Clouds 13 1009 76 10000 1 0 21:52 23.06.2022
1436 Clouds 12 1009 76 10000 1 0 20:54 23.06.2022
1437 Clouds 12 1009 76 10000 1 0 20:31 23.06.2022
1438 Clear 13 1010 71 10000 1 0 18:44 23.06.2022
1439 Clear 13 1010 71 10000 2 0 17:44 23.06.2022
1440 Clear 14 1010 67 10000 2 0 16:34 23.06.2022
1441 Clear 21 1009 40 10000 2 0 15:27 23.06.2022
1442 Clouds 23 1009 33 10000 3 10 14:51 23.06.2022
1443 Clouds 23 1009 33 10000 6 360 12:39 23.06.2022
1444 Clouds 23 1009 31 10000 5 310 11:19 23.06.2022
1445 Clouds 22 1010 33 10000 2 0 09:20 23.06.2022
1446 Clouds 18 1013 52 10000 2 0 05:51 23.06.2022
1447 Clear 12 1013 76 10000 1 0 01:22 23.06.2022
1448 Clear 8 1013 93 10000 0 0 00:25 23.06.2022
1449 Clear 7 1012 87 10000 3 190 23:22 22.06.2022
1450 Clear 9 1011 87 10000 0 0 21:44 22.06.2022
1451 Clear 10 1011 81 10000 1 0 20:52 22.06.2022
1452 Clear 10 1011 81 10000 1 0 20:20 22.06.2022
1453 Clear 8 1011 87 10000 1 0 19:44 22.06.2022
1454 Clear 8 1011 87 10000 1 0 19:44 22.06.2022
1455 Clear 11 1010 76 10000 4 290 17:50 22.06.2022
1456 Clouds 13 1010 62 10000 4 340 16:50 22.06.2022
1457 Clouds 14 1009 67 10000 2 0 15:46 22.06.2022
1458 Clouds 14 1009 67 10000 2 0 15:22 22.06.2022
1459 Clouds 16 1010 51 10000 4 350 13:50 22.06.2022
1460 Clouds 16 1010 51 10000 4 350 13:25 22.06.2022
1461 Clouds 19 1008 39 10000 11 350 12:37 22.06.2022
1462 Thunderstorm 20 1007 28 10000 11 300 11:46 22.06.2022
1463 Clouds 22 1007 35 10000 6 320 10:53 22.06.2022
1464 Clouds 22 1007 37 10000 4 320 09:44 22.06.2022
1465 Clouds 21 1008 40 10000 6 350 07:51 22.06.2022
1466 Clouds 18 1007 39 10000 2 0 02:56 22.06.2022
1467 Clouds 17 1008 48 10000 1 0 01:21 22.06.2022
1468 Clouds 16 1007 48 10000 3 40 23:19 21.06.2022
1469 Clouds 15 1009 55 10000 3 350 21:25 21.06.2022
1470 Clouds 17 1006 48 10000 5 50 19:43 21.06.2022
1471 Clouds 16 1007 51 10000 6 320 17:57 21.06.2022
1472 Clouds 18 1006 52 10000 2 0 16:52 21.06.2022
1473 Clouds 25 1004 25 10000 4 320 12:36 21.06.2022
1474 Clouds 26 1004 24 10000 2 0 10:55 21.06.2022
1475 Clouds 25 1005 25 10000 7 360 09:40 21.06.2022
1476 Clouds 24 1006 31 10000 3 10 07:56 21.06.2022
1477 Clouds 21 1006 35 10000 2 0 05:33 21.06.2022
1478 Clouds 13 1007 76 10000 0 0 00:37 21.06.2022
1479 Clouds 11 1007 82 10000 1 0 22:23 20.06.2022
1480 Clouds 13 1007 62 10000 1 0 21:49 20.06.2022
1481 Clouds 14 1007 72 10000 1 0 20:30 20.06.2022
1482 Clouds 14 1007 67 10000 2 0 19:37 20.06.2022
1483 Clouds 16 1006 55 10000 2 0 18:44 20.06.2022
1484 Clear 16 1006 55 10000 1 0 17:50 20.06.2022
1485 Clouds 15 1007 58 10000 2 0 16:55 20.06.2022
1486 Clouds 19 1007 48 10000 2 0 15:52 20.06.2022
1487 Clouds 24 1006 31 10000 2 0 12:38 20.06.2022
1488 Clouds 23 1008 38 10000 4 230 10:32 20.06.2022
1489 Clouds 21 1008 40 10000 3 310 08:57 20.06.2022
1490 Clouds 21 1008 40 10000 3 310 08:57 20.06.2022
1491 Clouds 21 1008 40 10000 3 310 08:21 20.06.2022
1492 Clouds 17 1010 55 10000 2 0 05:35 20.06.2022
1493 Clouds 10 1010 87 10000 2 0 01:44 20.06.2022
1494 Clouds 8 1010 93 10000 0 0 00:26 20.06.2022
1495 Clouds 8 1009 93 10000 4 300 22:50 19.06.2022
1496 Clouds 9 1008 87 10000 2.57 343 21:57 19.06.2022
1497 Clouds 9 1008 87 10000 2.57 343 21:39 19.06.2022
1498 Clouds 9 1008 87 10000 2 0 20:38 19.06.2022
1499 Clouds 11 1008 82 10000 3 320 19:47 19.06.2022
1500 Clouds 11 1008 82 10000 5 330 18:45 19.06.2022
1501 Clouds 12 1007 76 10000 6 330 17:54 19.06.2022
1502 Clouds 12 1007 76 10000 6 330 17:22 19.06.2022
1503 Clouds 13 1006 71 10000 5 340 16:35 19.06.2022
1504 Clouds 13 1006 76 10000 7 340 15:41 19.06.2022
1505 Clouds 13 1006 82 10000 6 340 14:57 19.06.2022
1506 Clouds 13 1006 82 10000 6 340 14:19 19.06.2022
1507 Clouds 13 1006 82 10000 7 320 13:23 19.06.2022
1508 Clouds 14 1005 82 10000 1 0 11:21 19.06.2022
1509 Rain 13 1006 88 6000 6 310 09:58 19.06.2022
1510 Rain 15 1005 77 10000 7 350 08:47 19.06.2022
1511 Rain 15 1005 77 10000 7 350 08:19 19.06.2022
1512 Clouds 17 1004 72 10000 7 340 05:42 19.06.2022
1513 Rain 17 1004 77 10000 6 330 02:26 19.06.2022
1514 Clouds 18 1004 72 10000 8 290 00:25 19.06.2022
1515 Clouds 19 1002 63 10000 5 60 23:36 18.06.2022
1516 Clouds 19 1004 68 10000 1 0 22:44 18.06.2022
1517 Clouds 18 1004 72 10000 2 0 21:38 18.06.2022
1518 Clouds 19 1004 68 10000 2 0 20:42 18.06.2022
1519 Clouds 20 1004 64 10000 1 0 19:40 18.06.2022
1520 Clouds 18 1005 77 10000 3 100 18:53 18.06.2022
1521 Clouds 18 1005 77 10000 3 350 17:35 18.06.2022
1522 Clouds 18 1006 72 10000 1 0 16:59 18.06.2022
1523 Rain 18 1006 77 10000 4 70 15:37 18.06.2022
1524 Thunderstorm 15 1006 88 8000 4 30 14:46 18.06.2022
1525 Clouds 29 1002 28 10000 5 160 13:30 18.06.2022
1526 Clouds 30 1004 26 10000 7 170 11:56 18.06.2022
1527 Clouds 30 1005 30 10000 8 150 10:56 18.06.2022
1528 Clouds 30 1005 30 10000 8 150 10:56 18.06.2022
1529 Clouds 29 1006 32 10000 7 170 09:28 18.06.2022
1530 Clouds 29 1006 30 10000 7 160 08:32 18.06.2022
1531 Clouds 28 1006 34 10000 9 140 07:23 18.06.2022
1532 Clouds 23 1008 49 10000 8 110 03:58 18.06.2022
1533 Clouds 19 1008 68 10000 3 30 01:26 18.06.2022
1534 Clouds 18 1008 72 10000 2 0 00:49 18.06.2022
1535 Clouds 18 1008 77 10000 3 100 23:59 17.06.2022
1536 Clouds 18 1008 77 10000 3 100 23:29 17.06.2022
1537 Clouds 20 1007 60 10000 1 0 21:33 17.06.2022
1538 Rain 21 1007 56 10000 1 0 20:26 17.06.2022
1539 Clouds 22 1006 53 10000 4 90 18:52 17.06.2022
1540 Clouds 21 1007 56 10000 7 130 17:46 17.06.2022
1541 Clouds 21 1007 60 10000 4 150 16:43 17.06.2022
1542 Clouds 21 1007 60 10000 4 150 16:19 17.06.2022
1543 Clouds 22 1006 46 10000 1 0 15:37 17.06.2022
1544 Clouds 24 1005 38 10000 3 280 14:21 17.06.2022
1545 Clouds 27 1004 29 10000 2 0 13:51 17.06.2022
1546 Clouds 27 1004 29 10000 2 0 13:31 17.06.2022
1547 Clouds 27 1005 28 10000 4 330 11:59 17.06.2022
1548 Clouds 27 1005 28 10000 4 330 11:39 17.06.2022
1549 Clouds 27 1005 28 10000 4 330 11:21 17.06.2022
1550 Clouds 25 1006 36 10000 6 330 08:33 17.06.2022
1551 Clouds 25 1006 31 10000 5 350 07:53 17.06.2022
1552 Clouds 24 1006 35 10000 4 320 06:34 17.06.2022
1553 Clear 20 1007 56 10000 2 0 03:24 17.06.2022
1554 Clear 13 1006 88 10000 1 0 00:46 17.06.2022
1555 Clear 11 1006 87 10000 1 0 23:30 16.06.2022
1556 Clear 12 1005 87 10000 1 0 22:38 16.06.2022
1557 Clouds 14 1006 82 10000 0 0 21:19 16.06.2022
1558 Clouds 16 1006 72 10000 1 0 20:50 16.06.2022
1559 Clouds 16 1005 77 10000 2 0 19:59 16.06.2022
1560 Clouds 17 1005 77 10000 2 0 18:48 16.06.2022
1561 Clouds 17 1004 72 10000 1 0 17:44 16.06.2022
1562 Clouds 17 1004 72 10000 1 0 17:22 16.06.2022
1563 Clouds 21 1004 52 10000 2 0 16:19 16.06.2022
1564 Clouds 23 1003 46 10000 2 0 15:21 16.06.2022
1565 Clouds 25 1003 36 10000 2 0 14:22 16.06.2022
1566 Clouds 27 1003 29 10000 2 0 12:53 16.06.2022
1567 Clouds 27 1003 29 10000 2 0 12:34 16.06.2022
1568 Clouds 26 1004 36 10000 2 0 11:48 16.06.2022
1569 Clouds 26 1004 36 10000 2 0 10:41 16.06.2022
1570 Clouds 26 1005 38 10000 2 0 09:43 16.06.2022
1571 Clouds 26 1005 38 10000 2 0 08:56 16.06.2022
1572 Clouds 23 1006 43 10000 1 0 07:41 16.06.2022
1573 Clouds 20 1007 60 10000 1 0 05:51 16.06.2022
1574 Clouds 18 1007 72 10000 1 0 04:24 16.06.2022
1575 Clouds 16 1007 82 10000 2 0 01:52 16.06.2022
1576 Clouds 16 1007 82 10000 2 0 01:22 16.06.2022
1577 Clouds 16 1007 77 10000 2 0 00:29 16.06.2022
1578 Rain 17 1006 72 10000 1 0 22:54 15.06.2022
1579 Clouds 17 1007 72 10000 3 90 21:48 15.06.2022
1580 Rain 17 1007 72 10000 3 90 21:19 15.06.2022
1581 Clouds 18 1008 63 10000 3 260 20:37 15.06.2022
1582 Rain 18 1008 63 10000 3 260 20:18 15.06.2022
1583 Rain 20 1007 49 10000 4 250 18:41 15.06.2022
1584 Clouds 19 1007 55 10000 2 0 17:53 15.06.2022
1585 Rain 19 1008 59 10000 1 0 16:34 15.06.2022
1586 Clouds 19 1007 55 10000 1 0 15:22 15.06.2022
1587 Clouds 26 1007 31 10000 1 0 13:29 15.06.2022
1588 Clouds 26 1007 29 10000 3 290 12:47 15.06.2022
1589 Clouds 26 1007 29 10000 3 260 11:28 15.06.2022
1590 Clouds 26 1008 29 10000 4 270 10:22 15.06.2022
1591 Clouds 25 1008 31 10000 4 300 09:34 15.06.2022
1592 Rain 24 1009 33 10000 1 0 07:58 15.06.2022
1593 Clouds 23 1010 40 10000 2 0 05:58 15.06.2022
1594 Clouds 17 1010 72 10000 1 0 02:56 15.06.2022
1595 Clouds 16 1010 77 10000 1 0 01:37 15.06.2022
1596 Clouds 15 1010 82 10000 1 0 00:37 15.06.2022
1597 Clouds 15 1010 77 10000 1 0 23:38 14.06.2022
1598 Clouds 15 1010 82 10000 2 0 22:50 14.06.2022
1599 Rain 16 1010 77 10000 0 0 21:47 14.06.2022
1600 Rain 16 1010 77 10000 0 0 21:26 14.06.2022
1601 Thunderstorm 17 1011 72 10000 2 0 20:41 14.06.2022
1602 Clouds 17 1010 67 10000 2 0 19:58 14.06.2022
1603 Clouds 20 1010 49 10000 1 0 18:45 14.06.2022
1604 Clouds 18 1010 63 10000 2 0 17:20 14.06.2022
1605 Clouds 22 1009 37 10000 3 60 16:43 14.06.2022
1606 Clouds 23 1009 33 10000 3 70 15:49 14.06.2022
1607 Clouds 24 1008 31 10000 1 0 14:56 14.06.2022
1608 Clouds 24 1008 31 10000 1 0 14:18 14.06.2022
1609 Clouds 25 1008 25 10000 4 10 13:29 14.06.2022
1610 Clouds 27 1008 21 10000 1 0 12:19 14.06.2022
1611 Clouds 27 1008 22 10000 1 0 10:59 14.06.2022
1612 Clouds 27 1008 22 10000 1 0 10:29 14.06.2022
1613 Clouds 28 1009 18 10000 1 0 09:26 14.06.2022
1614 Clouds 26 1010 21 10000 3 40 08:40 14.06.2022
1615 Clouds 25 1010 25 10000 5 150 06:53 14.06.2022
1616 Clouds 21 1011 35 10000 3 70 04:23 14.06.2022
1617 Clouds 14 1011 58 10000 1 0 01:38 14.06.2022
1618 Clouds 10 1011 76 10000 1 0 00:27 14.06.2022
1619 Clouds 10 1011 76 10000 1 0 22:59 13.06.2022
1620 Clouds 10 1011 76 10000 1 0 22:23 13.06.2022
1621 Clouds 11 1011 71 10000 0 0 21:41 13.06.2022
1622 Clear 13 1011 62 10000 2 0 19:59 13.06.2022
1623 Clear 13 1011 62 10000 2 0 19:18 13.06.2022
1624 Clear 13 1012 58 10000 2 0 17:56 13.06.2022
1625 Clear 13 1012 58 10000 2 0 17:27 13.06.2022
1626 Clear 15 1012 55 10000 2 0 16:31 13.06.2022
1627 Clouds 22 1011 28 10000 3 320 14:52 13.06.2022
1628 Clouds 22 1011 28 10000 3 320 14:32 13.06.2022
1629 Clouds 24 1011 22 10000 5 340 13:36 13.06.2022
1630 Clouds 25 1011 20 10000 6 330 12:23 13.06.2022
1631 Clear 25 1011 18 10000 6 330 10:58 13.06.2022
1632 Clear 25 1011 18 10000 6 330 10:26 13.06.2022
1633 Clear 24 1012 20 10000 6 330 08:59 13.06.2022
1634 Clear 22 1013 16 10000 5 330 06:53 13.06.2022
1635 Clear 21 1013 24 10000 3 300 05:35 13.06.2022
1636 Clear 13 1014 58 10000 1 0 02:27 13.06.2022
1637 Clear 10 1013 71 10000 0 0 01:36 13.06.2022
1638 Clear 10 1013 71 10000 0 0 01:36 13.06.2022
1639 Clear 5 1013 87 10000 0 0 23:49 12.06.2022
1640 Clear 6 1012 81 10000 1 0 22:44 12.06.2022
1641 Clear 5 1012 87 10000 1 0 21:58 12.06.2022
1642 Clear 6 1012 87 10000 2 0 20:54 12.06.2022
1643 Clear 6 1012 87 10000 2 0 20:18 12.06.2022
1644 Clear 8 1012 76 10000 2 0 19:30 12.06.2022
1645 Clear 9 1011 76 10000 2 0 17:41 12.06.2022
1646 Clear 15 1011 47 10000 3 340 15:57 12.06.2022
1647 Clouds 19 1010 32 10000 6 340 14:51 12.06.2022
1648 Clouds 19 1010 32 10000 6 340 14:20 12.06.2022
1649 Clouds 20 1010 28 10000 7 350 13:49 12.06.2022
1650 Clouds 20 1010 32 10000 6 360 12:32 12.06.2022
1651 Clouds 21 1009 30 10000 10 330 11:36 12.06.2022
1652 Clouds 20 1009 32 10000 11 340 10:21 12.06.2022
1653 Clouds 19 1010 42 10000 9 340 08:54 12.06.2022
1654 Clouds 19 1010 42 10000 9 340 08:35 12.06.2022
1655 Clouds 18 1010 48 10000 7 340 07:31 12.06.2022
1656 Clouds 14 1010 62 10000 7 340 04:35 12.06.2022
1657 Rain 11 1010 76 10000 6 330 02:33 12.06.2022
1658 Rain 11 1010 76 10000 5 330 01:36 12.06.2022
1659 Rain 10 1010 81 10000 2 0 00:58 12.06.2022
1660 Clouds 10 1010 81 10000 2 0 00:20 12.06.2022
1661 Rain 10 1010 81 10000 3 330 23:29 11.06.2022
1662 Rain 10 1009 81 10000 4 330 22:38 11.06.2022
1663 Rain 11 1009 76 10000 4 340 21:37 11.06.2022
1664 Rain 11 1009 76 10000 5 330 20:33 11.06.2022
1665 Rain 11 1009 76 10000 5 340 19:39 11.06.2022
1666 Rain 10 1009 76 10000 3 340 18:56 11.06.2022
1667 Clouds 10 1009 76 10000 3 340 18:33 11.06.2022
1668 Rain 11 1009 71 10000 4 340 17:50 11.06.2022
1669 Clouds 11 1009 71 10000 4 340 17:26 11.06.2022
1670 Rain 12 1009 66 10000 4 350 16:50 11.06.2022
1671 Rain 12 1009 66 10000 4 350 16:26 11.06.2022
1672 Clouds 12 1008 71 10000 5 350 15:27 11.06.2022
1673 Rain 12 1008 76 10000 5 330 13:53 11.06.2022
1674 Rain 12 1008 71 10000 7 350 12:25 11.06.2022
1675 Rain 11 1007 82 10000 6 340 10:40 11.06.2022
1676 Rain 10 1008 87 10000 8 340 09:42 11.06.2022
1677 Rain 11 1007 76 6000 9 350 08:46 11.06.2022
1678 Rain 13 1005 67 10000 13 350 06:47 11.06.2022
1679 Rain 13 1004 71 10000 13 340 05:58 11.06.2022
1680 Clouds 11 1005 71 10000 8 350 03:45 11.06.2022
1681 Clouds 9 1005 81 10000 3 290 01:52 11.06.2022
1682 Clouds 9 1005 81 10000 3 290 01:26 11.06.2022
1683 Clouds 8 1005 87 10000 3 360 23:28 10.06.2022
1684 Clouds 8 1005 81 10000 7 350 22:27 10.06.2022
1685 Rain 8 1006 81 10000 6 340 21:47 10.06.2022
1686 Rain 8 1006 81 10000 3 350 20:39 10.06.2022
1687 Rain 8 1006 81 10000 3 350 20:20 10.06.2022
1688 Rain 8 1007 76 10000 3 330 19:19 10.06.2022
1689 Rain 8 1008 76 10000 8 350 18:46 10.06.2022
1690 Rain 9 1009 71 10000 7 350 17:54 10.06.2022
1691 Clouds 9 1009 71 10000 7 350 17:23 10.06.2022
1692 Rain 9 1009 66 10000 6 360 16:28 10.06.2022
1693 Rain 9 1010 71 10000 4 10 15:40 10.06.2022
1694 Rain 9 1010 71 10000 5 350 14:28 10.06.2022
1695 Rain 9 1010 76 10000 6 350 13:19 10.06.2022
1696 Rain 9 1011 81 10000 5 360 11:59 10.06.2022
1697 Rain 9 1012 81 10000 3 360 10:51 10.06.2022
1698 Rain 8 1012 81 10000 2 0 09:57 10.06.2022
1699 Rain 8 1012 81 10000 1 0 08:48 10.06.2022
1700 Rain 8 1012 76 10000 2 0 07:41 10.06.2022
1701 Rain 8 1012 71 10000 2 0 06:46 10.06.2022
1702 Rain 8 1012 71 10000 2 0 06:27 10.06.2022
1703 Rain 8 1012 66 10000 5 340 04:52 10.06.2022
1704 Rain 6 1012 75 10000 5 10 01:59 10.06.2022
1705 Clouds 6 1012 75 10000 5 10 01:36 10.06.2022
1706 Clouds 6 1012 75 10000 5 10 01:36 10.06.2022
1707 Clouds 7 1012 61 10000 0 0 23:57 09.06.2022
1708 Clouds 8 1012 53 10000 3 20 22:24 09.06.2022
1709 Clouds 8 1013 53 10000 1.64 5 21:38 09.06.2022
1710 Clouds 8 1013 53 10000 1.53 354 21:18 09.06.2022
1711 Clouds 8 1012 49 10000 3 40 20:27 09.06.2022
1712 Clouds 8 1012 49 10000 7 20 19:41 09.06.2022
1713 Clouds 9 1012 43 10000 3 10 18:35 09.06.2022
1714 Clouds 10 1011 43 10000 5 10 17:25 09.06.2022
1715 Clouds 11 1011 40 10000 4 20 16:21 09.06.2022
1716 Clouds 14 1011 33 10000 6 10 14:42 09.06.2022
1717 Clouds 14 1011 33 10000 6 10 14:23 09.06.2022
1718 Clouds 15 1010 29 10000 4 360 13:29 09.06.2022
1719 Clouds 16 1010 27 10000 5 350 12:46 09.06.2022
1720 Clouds 17 1010 27 10000 4 340 11:19 09.06.2022
1721 Clouds 16 1010 31 10000 4 290 09:50 09.06.2022
1722 Clouds 16 1010 31 10000 4 290 09:31 09.06.2022
1723 Clouds 15 1010 33 10000 4 340 08:21 09.06.2022
1724 Clouds 14 1010 33 10000 5 350 07:23 09.06.2022
1725 Clouds 10 1011 46 10000 4 320 03:28 09.06.2022
1726 Clouds 8 1011 76 10000 2 0 23:55 08.06.2022
1727 Clouds 8 1011 76 10000 2 0 22:59 08.06.2022
1728 Clouds 8 1011 76 10000 2 0 22:27 08.06.2022
1729 Clouds 8 1011 76 10000 2 0 21:57 08.06.2022
1730 Rain 8 1011 76 10000 2 0 21:24 08.06.2022
1731 Clouds 8 1011 76 10000 1 0 20:22 08.06.2022
1732 Clouds 8 1012 76 10000 1 0 19:39 08.06.2022
1733 Clouds 8 1012 76 10000 1 0 19:39 08.06.2022
1734 Clouds 8 1011 76 10000 2 0 18:48 08.06.2022
1735 Rain 9 1012 71 10000 2 310 17:30 08.06.2022
1736 Clouds 11 1012 62 10000 4 320 15:52 08.06.2022
1737 Clouds 12 1011 54 10000 4 310 14:18 08.06.2022
1738 Clouds 13 1011 50 10000 4 350 12:29 08.06.2022
1739 Rain 14 1011 47 10000 4 320 11:34 08.06.2022
1740 Clouds 13 1012 50 10000 5 320 10:30 08.06.2022
1741 Clouds 14 1012 47 10000 4 270 09:28 08.06.2022
1742 Clouds 13 1012 54 10000 3 350 08:49 08.06.2022
1743 Clouds 12 1014 58 10000 5 290 06:36 08.06.2022
1744 Clouds 9 1015 71 10000 2 0 04:22 08.06.2022
1745 Clouds 6 1015 87 10000 1 0 00:49 08.06.2022
1746 Clouds 6 1015 87 10000 2 0 23:30 07.06.2022
1747 Clouds 7 1015 87 10000 1 0 22:48 07.06.2022
1748 Clouds 7 1015 87 10000 1 0 22:30 07.06.2022
1749 Clouds 7 1015 87 10000 1 0 21:35 07.06.2022
1750 Clouds 7 1015 87 10000 2 0 20:59 07.06.2022
1751 Clouds 7 1015 87 10000 2 0 20:33 07.06.2022
1752 Clouds 7 1015 87 10000 4 290 19:48 07.06.2022
1753 Rain 8 1015 87 10000 4 300 18:24 07.06.2022
1754 Clouds 9 1015 81 10000 3 360 17:27 07.06.2022
1755 Clouds 9 1015 81 10000 2 0 16:43 07.06.2022
1756 Clouds 9 1015 87 10000 3 350 15:56 07.06.2022
1757 Clouds 9 1015 87 10000 3 350 15:26 07.06.2022
1758 Clouds 11 1015 76 8000 5 340 14:52 07.06.2022
1759 Clouds 11 1015 76 8000 5 340 14:32 07.06.2022
1760 Clouds 13 1013 67 10000 4 340 13:32 07.06.2022
1761 Clouds 13 1013 71 10000 7 300 12:52 07.06.2022
1762 Clouds 17 1012 42 10000 4 60 11:48 07.06.2022
1763 Clouds 17 1012 42 10000 4 120 10:27 07.06.2022
1764 Clouds 17 1012 42 10000 5 110 08:51 07.06.2022
1765 Clouds 15 1012 51 10000 3 70 07:34 07.06.2022
1766 Clouds 15 1012 47 10000 6 130 06:22 07.06.2022
1767 Clouds 15 1011 44 10000 5 120 04:20 07.06.2022
1768 Clouds 13 1009 50 10000 6 90 01:27 07.06.2022
1769 Clouds 12 1008 54 10000 9 120 23:46 06.06.2022
1770 Clouds 12 1008 58 10000 9 110 22:54 06.06.2022
1771 Clouds 12 1008 58 10000 9 110 22:28 06.06.2022
1772 Clouds 12 1009 66 10000 6 60 20:42 06.06.2022
1773 Clouds 11 1009 76 10000 9 40 19:24 06.06.2022
1774 Rain 12 1009 66 10000 8 90 18:48 06.06.2022
1775 Rain 11 1010 76 10000 9 140 17:59 06.06.2022
1776 Rain 13 1009 67 8000 8 160 16:57 06.06.2022
1777 Clouds 18 1007 29 10000 9 140 15:57 06.06.2022
1778 Clouds 19 1007 27 10000 9 140 14:59 06.06.2022
1779 Clouds 19 1007 27 10000 9 140 14:26 06.06.2022
1780 Clouds 20 1008 28 10000 9 140 13:20 06.06.2022
1781 Clouds 20 1008 28 10000 8 150 12:35 06.06.2022
1782 Clouds 22 1008 24 10000 8 160 11:49 06.06.2022
1783 Clouds 21 1010 28 10000 7 150 09:53 06.06.2022
1784 Clouds 21 1010 28 10000 7 150 09:23 06.06.2022
1785 Clouds 19 1011 32 10000 7 140 08:31 06.06.2022
1786 Clouds 20 1012 30 10000 8 130 07:24 06.06.2022
1787 Clouds 15 1014 47 10000 8 140 04:42 06.06.2022
1788 Clouds 13 1015 58 10000 5 100 02:19 06.06.2022
1789 Clouds 12 1015 62 10000 4 80 00:57 06.06.2022
1790 Clouds 12 1015 62 10000 4 80 00:35 06.06.2022
1791 Clouds 12 1015 62 10000 2 0 23:25 05.06.2022
1792 Clouds 12 1015 62 10000 6 70 22:33 05.06.2022
1793 Clear 12 1015 66 10000 6 100 20:34 05.06.2022
1794 Clear 12 1014 66 10000 7 100 19:26 05.06.2022
1795 Clouds 13 1014 62 10000 10 140 18:26 05.06.2022
1796 Clouds 14 1014 44 10000 3 130 17:46 05.06.2022
1797 Clouds 14 1014 44 10000 3 130 17:22 05.06.2022
1798 Clouds 14 1014 38 10000 2 0 16:48 05.06.2022
1799 Clouds 15 1013 31 10000 1 0 15:47 05.06.2022
1800 Clouds 18 1013 25 10000 3 300 14:21 05.06.2022
1801 Clouds 18 1013 25 10000 3 300 14:21 05.06.2022
1802 Clouds 21 1012 19 10000 4 310 12:34 05.06.2022
1803 Clouds 21 1012 16 10000 5 330 11:30 05.06.2022
1804 Clouds 21 1013 18 10000 5 350 10:25 05.06.2022
1805 Clouds 20 1013 22 10000 6 340 09:58 05.06.2022
1806 Clouds 20 1013 21 10000 6 20 08:25 05.06.2022
1807 Clouds 18 1014 25 10000 8 310 06:48 05.06.2022
1808 Clouds 16 1014 31 10000 7 340 05:20 05.06.2022
1809 Clouds 10 1014 62 10000 1 0 02:58 05.06.2022
1810 Clouds 8 1014 66 10000 0 0 01:30 05.06.2022
1811 Clear 0 1015 86 10000 1 0 23:49 04.06.2022
1812 Clear 1 1014 80 10000 2 0 21:39 04.06.2022
1813 Clear 2 1014 80 10000 1 0 19:49 04.06.2022
1814 Clear 7 1014 70 10000 1 0 17:50 04.06.2022
1815 Clear 9 1014 61 10000 2 0 16:22 04.06.2022
1816 Clouds 11 1014 54 10000 4 360 15:54 04.06.2022
1817 Clouds 12 1013 47 10000 8 330 14:36 04.06.2022
1818 Clouds 13 1013 44 10000 10 340 11:48 04.06.2022
1819 Clouds 13 1013 44 10000 10 340 10:57 04.06.2022
1820 Clouds 13 1013 44 10000 10 340 10:20 04.06.2022
1821 Clouds 12 1013 50 10000 10 350 09:41 04.06.2022
1822 Clouds 12 1014 50 10000 9 330 08:40 04.06.2022
1823 Clouds 10 1014 57 10000 8 340 07:27 04.06.2022
1824 Clouds 8 1013 66 10000 8 340 04:33 04.06.2022
1825 Clouds 8 1013 66 10000 8 340 04:33 04.06.2022
1826 Clouds 8 1013 66 10000 8 340 04:33 04.06.2022
1827 Clouds 8 1013 66 10000 8 340 04:33 04.06.2022
1828 Clouds 5 1012 75 10000 7 340 00:48 04.06.2022
1829 Clouds 6 1011 75 10000 6 340 23:31 03.06.2022
1830 Clouds 6 1011 75 10000 5 320 22:28 03.06.2022
1831 Clouds 7 1010 81 10000 9 320 20:42 03.06.2022
1832 Clouds 7 1010 81 10000 9 320 20:42 03.06.2022
1833 Clouds 7 1010 81 10000 9 320 20:18 03.06.2022
1834 Clouds 10 1010 76 10000 3 320 17:32 03.06.2022
1835 Clouds 11 1010 66 10000 5 340 16:37 03.06.2022
1836 Clouds 14 1008 51 10000 7 330 14:53 03.06.2022
1837 Clouds 17 1006 42 10000 9 340 12:52 03.06.2022
1838 Clouds 17 1006 51 10000 10 340 10:36 03.06.2022
1839 Clouds 20 1003 42 10000 9 320 09:30 03.06.2022
1840 Clouds 22 1002 37 10000 6 310 07:54 03.06.2022
1841 Clouds 22 1002 37 10000 6 310 07:20 03.06.2022
1842 Clouds 21 1003 37 10000 4 350 06:30 03.06.2022
1843 Clouds 19 1003 45 10000 2 0 04:40 03.06.2022
1844 Clouds 11 1004 71 10000 2 0 00:22 03.06.2022
1845 Clouds 7 1004 81 10000 1 0 22:35 02.06.2022
1846 Clouds 8 1003 81 10000 1 0 21:29 02.06.2022
1847 Clouds 10 1003 71 10000 2 0 20:22 02.06.2022
1848 Clouds 9 1002 76 10000 2 0 19:41 02.06.2022
1849 Clouds 9 1002 76 10000 2 0 19:19 02.06.2022
1850 Clouds 15 1001 58 10000 2 0 16:46 02.06.2022
1851 Clouds 15 1001 58 10000 2 0 16:20 02.06.2022
1852 Clouds 22 1000 33 10000 1 0 13:47 02.06.2022
1853 Clouds 22 1000 33 10000 1 0 13:26 02.06.2022
1854 Clouds 23 1000 31 10000 8 290 11:18 02.06.2022
1855 Clouds 24 999 25 10000 7 270 10:19 02.06.2022
1856 Rain 25 999 23 10000 11 250 09:27 02.06.2022
1857 Clouds 25 1000 23 10000 7 270 08:25 02.06.2022
1858 Clouds 26 999 22 10000 8 280 06:50 02.06.2022
1859 Rain 22 999 20 10000 5 150 03:54 02.06.2022
1860 Clouds 18 999 34 10000 1 0 02:22 02.06.2022
1861 Clouds 12 1000 47 10000 1 0 23:36 01.06.2022
1862 Clouds 11 1001 50 10000 2 0 22:21 01.06.2022
1863 Clouds 9 1001 61 10000 1 0 21:26 01.06.2022
1864 Clear 11 1002 54 10000 0 0 20:39 01.06.2022
1865 Clear 11 1002 54 10000 1 0 19:52 01.06.2022
1866 Clear 11 1002 50 10000 1 0 18:52 01.06.2022
1867 Clear 13 1003 44 10000 2 0 17:40 01.06.2022
1868 Clear 13 1003 44 10000 3 170 16:33 01.06.2022
1869 Clear 23 1003 20 10000 2 0 14:51 01.06.2022
1870 Clouds 26 1003 13 10000 3 320 13:44 01.06.2022
1871 Clouds 26 1003 14 10000 2 0 11:41 01.06.2022
1872 Clouds 24 1005 15 10000 2 0 09:36 01.06.2022
1873 Clouds 24 1005 15 10000 4 260 08:29 01.06.2022
1874 Clouds 24 1006 16 10000 5 220 07:21 01.06.2022
1875 Clouds 22 1007 24 10000 1 0 04:59 01.06.2022
1876 Clear 3 1009 81 10000 1 0 23:57 31.05.2022
1877 Clear 6 1009 70 10000 0 0 22:51 31.05.2022
1878 Clear 6 1009 70 10000 0 0 22:29 31.05.2022
1879 Clear 6 1008 70 10000 1 0 21:45 31.05.2022
1880 Clear 6 1008 75 10000 1 0 20:45 31.05.2022
1881 Clear 9 1008 57 10000 0 0 19:53 31.05.2022
1882 Clear 9 1008 61 10000 2 0 18:45 31.05.2022
1883 Clear 9 1008 57 10000 3 140 17:49 31.05.2022
1884 Clear 12 1008 50 10000 0 0 16:48 31.05.2022
1885 Clear 16 1008 33 10000 1 0 15:40 31.05.2022
1886 Clouds 21 1008 24 10000 5 280 13:38 31.05.2022
1887 Clouds 21 1008 24 10000 6 290 12:19 31.05.2022
1888 Clouds 19 1009 27 10000 6 280 10:52 31.05.2022
1889 Clouds 18 1010 29 10000 6 280 08:41 31.05.2022
1890 Clouds 16 1012 33 10000 6 280 06:57 31.05.2022
1891 Clouds 14 1012 28 10000 5 310 04:46 31.05.2022
1892 Clear 5 1011 60 10000 1 0 23:53 30.05.2022
1893 Clear 5 1011 60 10000 1 0 23:25 30.05.2022
1894 Clouds 6 1010 61 10000 1 0 22:44 30.05.2022
1895 Clouds 9 1010 46 10000 3 340 21:47 30.05.2022
1896 Clouds 9 1010 46 10000 3 340 21:29 30.05.2022
1897 Clouds 12 1008 28 10000 3 10 19:51 30.05.2022
1898 Rain 13 1007 30 10000 5 360 18:26 30.05.2022
1899 Clouds 13 1007 33 10000 4 350 17:23 30.05.2022
1900 Clouds 13 1006 35 10000 4 340 16:36 30.05.2022
1901 Clouds 16 1004 25 10000 6 360 13:44 30.05.2022
1902 Clouds 17 1004 23 10000 6 350 12:19 30.05.2022
1903 Clouds 18 1004 19 10000 8 310 10:26 30.05.2022
1904 Clouds 19 1005 19 10000 4 330 09:19 30.05.2022
1905 Clear 17 1008 17 10000 5 330 06:28 30.05.2022
1906 Clear 15 1009 21 10000 4 270 05:38 30.05.2022
1907 Clear 3 1011 56 10000 1 0 01:30 30.05.2022
1908 Clear -3 1011 80 10000 3 160 22:49 29.05.2022
1909 Clear -3 1011 80 10000 3 160 22:29 29.05.2022
1910 Clear 2 1011 51 10000 0 0 20:51 29.05.2022
1911 Clear 4 1011 52 10000 2 0 19:30 29.05.2022
1912 Clear 2 1011 64 10000 1 0 18:35 29.05.2022
1913 Clear 7 1010 45 10000 4 330 16:51 29.05.2022
1914 Clear 9 1010 37 10000 5 310 15:47 29.05.2022
1915 Clouds 11 1009 28 10000 7 330 14:56 29.05.2022
1916 Clouds 12 1009 24 10000 9 320 13:46 29.05.2022
1917 Clouds 12 1008 26 10000 8 320 11:31 29.05.2022
1918 Clouds 11 1009 30 10000 9 330 10:37 29.05.2022
1919 Clouds 10 1010 34 10000 8 320 08:39 29.05.2022
1920 Clouds 7 1011 45 10000 6 340 05:22 29.05.2022
1921 Clouds 5 1012 56 10000 7 320 04:41 29.05.2022
1922 Clouds 3 1012 70 10000 6 310 02:24 29.05.2022
1923 Clouds 1 1012 75 10000 5 310 23:48 28.05.2022
1924 Clouds 1 1012 75 10000 5 310 23:26 28.05.2022
1925 Clouds 0 1012 80 10000 4 310 22:25 28.05.2022
1926 Clouds 0 1012 80 10000 3 310 21:31 28.05.2022
1927 Clouds 1 1011 75 10000 5 290 19:21 28.05.2022
1928 Clouds 2 1011 69 10000 5 300 18:45 28.05.2022
1929 Clouds 2 1010 69 10000 3 320 17:35 28.05.2022
1930 Clouds 3 1010 75 10000 3 290 16:35 28.05.2022
1931 Clouds 5 1008 60 10000 3 330 15:38 28.05.2022
1932 Clouds 6 1007 61 10000 5 340 13:57 28.05.2022
1933 Clouds 6 1006 65 10000 4 350 12:43 28.05.2022
1934 Rain 6 1006 65 10000 4 350 11:54 28.05.2022
1935 Rain 5 1005 75 10000 7 360 10:43 28.05.2022
1936 Clouds 4 1005 81 8000 6 10 09:56 28.05.2022
1937 Clouds 4 1005 81 6000 5 20 08:43 28.05.2022
1938 Clouds 4 1004 87 6000 5 330 07:23 28.05.2022
1939 Clouds 6 1002 81 10000 6 30 05:24 28.05.2022
1940 Rain 4 1003 87 8000 6 30 02:33 28.05.2022
1941 Clouds 5 1003 81 6000 7 50 00:18 28.05.2022
1942 Rain 9 1003 46 10000 6 360 22:49 27.05.2022
1943 Rain 10 1003 34 10000 4 350 21:35 27.05.2022
1944 Rain 9 1003 37 10000 1 0 20:46 27.05.2022
1945 Clouds 9 1003 37 10000 1 0 20:21 27.05.2022
1946 Clouds 8 1004 36 10000 0 0 19:41 27.05.2022
1947 Clouds 8 1004 36 10000 0 0 19:21 27.05.2022
1948 Clouds 8 1004 36 10000 1 0 17:26 27.05.2022
1949 Clouds 12 1005 28 10000 5 340 15:57 27.05.2022
1950 Clouds 12 1005 28 10000 5 340 14:58 27.05.2022
1951 Clear 15 1004 25 10000 9 350 13:41 27.05.2022
1952 Clear 17 1004 23 10000 8 350 12:28 27.05.2022
1953 Clear 17 1005 27 10000 8 340 11:31 27.05.2022
1954 Clear 17 1005 25 10000 9 340 10:47 27.05.2022
1955 Clear 16 1005 23 10000 10 340 09:59 27.05.2022
1956 Clear 16 1005 23 10000 10 340 09:31 27.05.2022
1957 Clouds 16 1006 27 10000 9 340 07:40 27.05.2022
1958 Clouds 16 1005 31 10000 10 350 05:25 27.05.2022
1959 Clouds 13 1003 47 10000 8 340 01:44 27.05.2022
1960 Clouds 14 1002 41 10000 2 0 23:31 26.05.2022
1961 Clouds 13 1002 41 10000 1 0 22:28 26.05.2022
1962 Clouds 14 1002 33 10000 1 0 21:33 26.05.2022
1963 Clouds 14 1003 28 10000 1 0 19:49 26.05.2022
1964 Clouds 14 1003 28 10000 1 0 19:18 26.05.2022
1965 Clouds 14 1003 28 10000 1 0 19:18 26.05.2022
1966 Clouds 17 1004 22 10000 1 0 17:36 26.05.2022
1967 Clouds 15 1005 23 10000 2 0 16:35 26.05.2022
1968 Clouds 19 1005 18 10000 4 230 15:34 26.05.2022
1969 Clouds 23 1005 12 10000 3 220 14:21 26.05.2022
1970 Clouds 24 1006 11 10000 3 290 12:20 26.05.2022
1971 Clouds 26 1006 10 10000 3 260 11:21 26.05.2022
1972 Clouds 25 1008 10 10000 4 270 09:39 26.05.2022
1973 Clouds 25 1009 11 10000 3 240 08:51 26.05.2022
1974 Clouds 24 1011 13 10000 4 240 06:51 26.05.2022
1975 Clear 11 1015 32 10000 1 0 02:54 26.05.2022
1976 Clear 4 1015 52 10000 1 0 00:20 26.05.2022
1977 Clear 2 1016 55 10000 1 0 23:19 25.05.2022
1978 Clear 3 1016 56 10000 1 0 21:46 25.05.2022
1979 Clear 5 1017 45 10000 0 0 20:53 25.05.2022
1980 Clear 6 1017 42 10000 1 0 19:59 25.05.2022
1981 Clear 5 1018 42 10000 1 0 18:48 25.05.2022
1982 Clear 8 1018 31 10000 1 0 17:26 25.05.2022
1983 Clouds 12 1018 26 10000 0 0 16:35 25.05.2022
1984 Clouds 18 1018 16 10000 3 20 15:49 25.05.2022
1985 Clouds 19 1018 14 10000 3 340 14:51 25.05.2022
1986 Clouds 19 1018 14 10000 3 340 14:32 25.05.2022
1987 Clouds 21 1018 12 10000 3 330 13:27 25.05.2022
1988 Clouds 19 1015 21 10000 4.2 306 11:51 25.05.2022
1989 Clouds 21 1020 13 10000 3 250 10:42 25.05.2022
1990 Clouds 20 1021 14 10000 3 290 09:53 25.05.2022
1991 Clouds 19 1019 20 10000 5.4 262 08:22 25.05.2022
1992 Clouds 18 1020 21 10000 5.58 265 06:37 25.05.2022
1993 Clear 12 1027 32 10000 0 0 02:55 25.05.2022
1994 Clouds 4 1027 56 10000 2 0 23:52 24.05.2022
1995 Clouds 4 1027 56 10000 2 0 23:23 24.05.2022
1996 Clear 3 1027 60 10000 1 0 22:18 24.05.2022
1997 Clear 5 1027 45 10000 1 0 21:38 24.05.2022
1998 Clear 5 1027 45 10000 1 0 21:19 24.05.2022
1999 Clear 10 1026 29 10000 2 0 19:32 24.05.2022
2000 Clear 10 1026 40 10000 2 0 18:40 24.05.2022
2001 Clouds 8 1025 42 10000 1 0 16:40 24.05.2022
2002 Clouds 15 1025 29 10000 2 0 15:54 24.05.2022
2003 Clouds 16 1024 27 10000 3 340 14:45 24.05.2022
2004 Clouds 17 1024 23 10000 5 340 13:48 24.05.2022
2005 Clouds 18 1023 22 10000 5 340 12:42 24.05.2022
2006 Clouds 19 1023 20 10000 6 310 10:18 24.05.2022
2007 Clouds 18 1024 22 10000 6 320 09:41 24.05.2022
2008 Clouds 18 1024 22 10000 6 330 08:43 24.05.2022
2009 Clouds 16 1024 29 10000 7 330 06:45 24.05.2022
2010 Clear 11 1024 37 10000 6 360 03:48 24.05.2022
2011 Clear 9 1024 49 10000 5 330 01:49 24.05.2022
2012 Clear 9 1024 49 10000 5 330 01:18 24.05.2022
2013 Clouds 8 1021 53 10000 5 340 22:50 23.05.2022
2014 Clouds 10 1020 50 10000 4 350 21:54 23.05.2022
2015 Clouds 11 1018 43 10000 6 360 20:59 23.05.2022
2016 Clouds 11 1018 43 10000 6 360 20:26 23.05.2022
2017 Clouds 11 1017 43 10000 7 340 19:31 23.05.2022
2018 Clouds 12 1016 40 10000 7 360 18:43 23.05.2022
2019 Clouds 12 1016 40 10000 7 360 18:22 23.05.2022
2020 Clouds 13 1015 47 10000 7 350 17:18 23.05.2022
2021 Clouds 18 1012 32 10000 7 360 14:52 23.05.2022
2022 Clouds 23 1009 23 10000 7 340 12:50 23.05.2022
2023 Clouds 24 1008 19 10000 10 340 11:26 23.05.2022
2024 Clouds 26 1007 11 10000 9 330 09:50 23.05.2022
2025 Clouds 26 1007 11 10000 9 330 09:23 23.05.2022
2026 Clouds 26 1008 12 10000 8 270 07:48 23.05.2022
2027 Clouds 25 1009 14 10000 4 260 06:45 23.05.2022
2028 Clouds 23 1010 17 10000 6 230 05:21 23.05.2022
2029 Clear 12 1011 40 10000 1 0 02:19 23.05.2022
2030 Clear 9 1011 49 10000 0 0 01:36 23.05.2022
2031 Clear 2 1011 69 10000 0 0 23:51 22.05.2022
2032 Clear 5 1012 56 10000 0 0 22:35 22.05.2022
2033 Clear 5 1012 56 10000 2 0 21:55 22.05.2022
2034 Clear 4 1012 60 10000 1 0 20:53 22.05.2022
2035 Clear 4 1012 60 10000 1 0 20:27 22.05.2022
2036 Clear 6 1012 52 10000 2 0 19:56 22.05.2022
2037 Clear 6 1012 52 10000 2 0 18:55 22.05.2022
2038 Clear 6 1012 52 10000 3 160 18:25 22.05.2022
2039 Clear 10 1012 43 10000 1 0 17:33 22.05.2022
2040 Clear 11 1012 40 10000 2 0 16:31 22.05.2022
2041 Clear 20 1011 22 10000 4 340 14:48 22.05.2022
2042 Clear 21 1011 19 10000 6 340 13:48 22.05.2022
2043 Clear 22 1011 17 10000 7 330 12:52 22.05.2022
2044 Clear 22 1011 18 10000 6 330 11:44 22.05.2022
2045 Clear 22 1012 18 10000 8 330 09:45 22.05.2022
2046 Clear 22 1012 16 10000 9 340 08:37 22.05.2022
2047 Clear 21 1013 19 10000 7 340 07:22 22.05.2022
2048 Clear 20 1014 22 10000 7 330 06:23 22.05.2022
2049 Clouds 12 1014 58 10000 5 340 02:23 22.05.2022
2050 Clouds 12 1013 58 10000 4 330 00:43 22.05.2022
2051 Clouds 13 1012 54 10000 6 10 23:55 21.05.2022
2052 Clouds 13 1012 54 10000 6 10 23:20 21.05.2022
2053 Clouds 15 1012 44 10000 3 350 21:45 21.05.2022
2054 Clouds 15 1012 44 10000 3 350 21:25 21.05.2022
2055 Clouds 15 1012 44 10000 5 350 20:25 21.05.2022
2056 Clouds 16 1012 41 10000 2 0 19:35 21.05.2022
2057 Clouds 20 1010 24 10000 1 0 17:51 21.05.2022
2058 Clouds 21 1010 21 10000 3 80 16:53 21.05.2022
2059 Clouds 23 1008 17 10000 3 130 14:38 21.05.2022
2060 Clouds 25 1008 14 10000 8 120 13:53 21.05.2022
2061 Clouds 27 1008 12 10000 2 0 12:57 21.05.2022
2062 Clouds 27 1008 12 10000 2 0 12:37 21.05.2022
2063 Clouds 27 1009 11 10000 2 0 10:44 21.05.2022
2064 Clouds 27 1009 12 10000 4 320 09:48 21.05.2022
2065 Clouds 27 1010 10 10000 3 20 08:58 21.05.2022
2066 Clouds 27 1010 10 10000 3 20 08:33 21.05.2022
2067 Clear 23 1008 21 10000 1.27 213 04:33 21.05.2022
2068 Clouds 6 1013 61 10000 1 0 00:38 21.05.2022
2069 Clouds 7 1013 57 10000 0 0 22:59 20.05.2022
2070 Clear 6 1013 56 10000 1 0 22:24 20.05.2022
2071 Clear 7 1013 57 10000 0 0 21:47 20.05.2022
2072 Clear 7 1013 57 10000 0 0 20:57 20.05.2022
2073 Clear 7 1013 53 10000 1 0 20:25 20.05.2022
2074 Clear 10 1013 46 10000 1 0 19:27 20.05.2022
2075 Clear 15 1013 33 10000 1 0 18:47 20.05.2022
2076 Clear 11 1013 40 10000 3 190 17:37 20.05.2022
2077 Clouds 13 1012 35 10000 1 0 16:20 20.05.2022
2078 Clouds 14 1012 33 10000 2 0 15:53 20.05.2022
2079 Clouds 23 1011 20 10000 2 0 14:31 20.05.2022
2080 Clouds 23 1011 20 10000 2 0 13:56 20.05.2022
2081 Clouds 26 1011 13 10000 4 310 11:45 20.05.2022
2082 Clouds 26 1011 14 10000 5 350 10:23 20.05.2022
2083 Clouds 25 1013 13 10000 5 330 08:45 20.05.2022
2084 Clouds 25 1013 15 10000 6 350 07:18 20.05.2022
2085 Clouds 25 1014 13 10000 3 300 06:34 20.05.2022
2086 Clouds 24 1015 16 10000 2 0 05:22 20.05.2022
2087 Clear 4 1016 56 10000 1 0 00:54 20.05.2022
2088 Clear 4 1015 56 10000 1 0 22:57 19.05.2022
2089 Clear 4 1015 56 10000 1 0 22:25 19.05.2022
2090 Clear 5 1015 52 10000 1 0 21:48 19.05.2022
2091 Clear 5 1015 52 10000 1 0 21:23 19.05.2022
2092 Clear 7 1015 49 10000 1 0 20:39 19.05.2022
2093 Clear 9 1016 40 10000 1 0 19:52 19.05.2022
2094 Clear 9 1016 40 10000 2 0 18:31 19.05.2022
2095 Clear 11 1016 35 10000 2 0 17:31 19.05.2022
2096 Clear 16 1015 25 10000 1 0 15:21 19.05.2022
2097 Clouds 22 1014 15 10000 1 0 14:26 19.05.2022
2098 Clouds 24 1014 13 10000 2 0 13:47 19.05.2022
2099 Clouds 25 1015 11 10000 3 320 11:41 19.05.2022
2100 Clouds 25 1016 12 10000 3 230 09:34 19.05.2022
2101 Clouds 23 1017 16 10000 4 250 08:18 19.05.2022
2102 Clouds 22 1018 18 10000 2 0 06:18 19.05.2022
2103 Clear 12 1019 37 10000 1 0 02:54 19.05.2022
2104 Clear 4 1018 60 10000 1 0 00:44 19.05.2022
2105 Clear 2 1017 69 10000 1 0 22:53 18.05.2022
2106 Clear 2 1017 69 10000 1 0 22:35 18.05.2022
2107 Clear 6 1017 56 10000 1 0 21:31 18.05.2022
2108 Clear 5 1017 60 10000 1 0 20:50 18.05.2022
2109 Clear 5 1017 60 10000 1 0 20:18 18.05.2022
2110 Clear 8 1016 49 10000 1 0 18:34 18.05.2022
2111 Clear 8 1016 49 10000 1 0 18:34 18.05.2022
2112 Clear 9 1016 49 10000 1 0 17:41 18.05.2022
2113 Clear 9 1016 49 10000 1 0 17:23 18.05.2022
2114 Clear 12 1016 40 10000 1 0 16:35 18.05.2022
2115 Clear 15 1015 31 10000 3 310 15:42 18.05.2022
2116 Clouds 19 1014 24 10000 5 330 14:48 18.05.2022
2117 Clouds 21 1013 19 10000 6 340 13:44 18.05.2022
2118 Clouds 22 1013 15 10000 5 340 12:51 18.05.2022
2119 Clouds 23 1013 16 10000 5 340 11:37 18.05.2022
2120 Clouds 23 1013 16 10000 5 340 11:19 18.05.2022
2121 Clouds 23 1014 16 10000 5 360 09:56 18.05.2022
2122 Clouds 21 1015 23 8000 5 310 07:54 18.05.2022
2123 Clouds 20 1016 24 8000 4 340 06:48 18.05.2022
2124 Clouds 11 1016 40 8000 3 10 01:53 18.05.2022
2125 Clouds 10 1016 43 8000 2 0 00:23 18.05.2022
2126 Clouds 8 1015 49 10000 2 0 22:18 17.05.2022
2127 Clouds 8 1015 49 10000 1 0 21:20 17.05.2022
2128 Clouds 10 1015 43 10000 2 0 20:22 17.05.2022
2129 Clouds 13 1014 35 10000 4 60 19:28 17.05.2022
2130 Clouds 13 1014 38 10000 3 310 17:52 17.05.2022
2131 Rain 13 1014 38 10000 3 310 17:18 17.05.2022
2132 Clouds 14 1014 33 10000 1 0 16:31 17.05.2022
2133 Clouds 17 1013 25 10000 3 30 15:32 17.05.2022
2134 Clouds 18 1012 24 10000 5 30 14:31 17.05.2022
2135 Clouds 19 1012 22 8000 6 10 13:37 17.05.2022
2136 Clouds 21 1012 18 10000 4 350 11:58 17.05.2022
2137 Clouds 20 1013 19 8000 3 30 09:38 17.05.2022
2138 Clouds 19 1013 19 8000 3 320 08:36 17.05.2022
2139 Clouds 18 1014 19 8000 3 320 06:52 17.05.2022
2140 Clear 15 1014 26 10000 2 0 04:24 17.05.2022
2141 Clear 2 1013 60 10000 1 0 00:46 17.05.2022
2142 Clear 3 1012 56 10000 0 0 22:44 16.05.2022
2143 Clear 3 1012 56 10000 2 0 21:52 16.05.2022
2144 Clear 7 1011 45 10000 1 0 20:49 16.05.2022
2145 Clouds 7 1011 45 10000 3 290 19:49 16.05.2022
2146 Clouds 11 1011 32 10000 2 0 18:21 16.05.2022
2147 Clouds 16 1010 23 10000 7 360 16:24 16.05.2022
2148 Clouds 19 1008 15 10000 6 350 14:38 16.05.2022
2149 Clouds 21 1007 12 10000 8 320 13:23 16.05.2022
2150 Clouds 22 1007 11 10000 7 350 11:31 16.05.2022
2151 Clouds 21 1008 11 10000 8 340 09:47 16.05.2022
2152 Clouds 21 1010 11 10000 6 350 06:58 16.05.2022
2153 Clear 15 1011 18 10000 1 0 04:41 16.05.2022
2154 Clear 1 1013 47 10000 1 0 23:44 15.05.2022
2155 Clear 0 1013 55 10000 1 0 22:32 15.05.2022
2156 Clear 3 1013 44 10000 1 0 21:47 15.05.2022
2157 Clear 3 1013 44 10000 1 0 20:59 15.05.2022
2158 Clear 2 1014 44 10000 0 0 19:53 15.05.2022
2159 Clear 5 1014 36 10000 2 0 17:52 15.05.2022
2160 Clear 6 1014 31 10000 2 0 16:31 15.05.2022
2161 Clear 16 1013 13 10000 5 340 13:59 15.05.2022
2162 Clear 18 1013 11 10000 8 340 12:57 15.05.2022
2163 Clear 20 1013 10 10000 8 340 11:40 15.05.2022
2164 Clear 20 1013 10 10000 8 340 10:29 15.05.2022
2165 Clear 19 1015 11 10000 6 310 08:46 15.05.2022
2166 Clear 16 1016 13 10000 6 300 06:58 15.05.2022
2167 Clear 15 1018 15 10000 3 240 05:52 15.05.2022
2168 Clear 1 1021 47 10000 1 0 00:57 15.05.2022
2169 Clear -2 1020 59 10000 1 0 23:47 14.05.2022
2170 Clear -2 1020 59 10000 1 0 23:29 14.05.2022
2171 Clear -3 1021 63 10000 2 0 21:29 14.05.2022
2172 Clear -1 1021 55 10000 1 0 20:53 14.05.2022
2173 Clear 1 1021 44 10000 2 0 19:40 14.05.2022
2174 Clear 1 1021 44 10000 2 0 19:20 14.05.2022
2175 Clear 3 1021 38 10000 1 0 18:46 14.05.2022
2176 Clear 0 1021 47 10000 3 170 16:56 14.05.2022
2177 Clear 9 1020 25 10000 2 0 15:33 14.05.2022
2178 Clouds 13 1020 18 10000 5 330 14:34 14.05.2022
2179 Clouds 15 1019 15 10000 6 330 12:34 14.05.2022
2180 Clouds 15 1019 14 10000 6 350 11:35 14.05.2022
2181 Clouds 15 1020 13 10000 6 340 10:21 14.05.2022
2182 Clouds 15 1020 14 10000 6 310 09:53 14.05.2022
2183 Clouds 14 1021 19 10000 5 330 08:49 14.05.2022
2184 Clouds 13 1022 21 10000 5 350 06:47 14.05.2022
2185 Clear 4 1023 48 10000 0 0 02:46 14.05.2022
2186 Clear -4 1022 74 10000 2 0 23:44 13.05.2022
2187 Clear -4 1022 74 10000 2 0 23:18 13.05.2022
2188 Clear -5 1022 80 10000 2 0 22:43 13.05.2022
2189 Clear -5 1022 80 10000 2 0 22:18 13.05.2022
2190 Clear -3 1022 74 10000 2 0 20:46 13.05.2022
2191 Clear -3 1022 74 10000 2 0 20:27 13.05.2022
2192 Clear -1 1022 64 10000 2 0 19:28 13.05.2022
2193 Clear 0 1021 55 10000 1 0 17:51 13.05.2022
2194 Clear 0 1021 55 10000 1 0 17:28 13.05.2022
2195 Clear 4 1021 41 10000 1 0 16:20 13.05.2022
2196 Clear 7 1020 31 10000 4 340 15:29 13.05.2022
2197 Clouds 11 1018 22 10000 8 330 13:48 13.05.2022
2198 Clouds 11 1018 20 10000 10 330 12:32 13.05.2022
2199 Clouds 13 1018 18 10000 8 340 11:22 13.05.2022
2200 Clouds 12 1019 22 10000 9 340 09:34 13.05.2022
2201 Clouds 11 1019 22 10000 9 330 08:44 13.05.2022
2202 Clouds 10 1020 25 10000 8 350 07:48 13.05.2022
2203 Clouds 11 1021 24 10000 8 350 06:33 13.05.2022
2204 Clouds 11 1021 24 10000 8 350 06:33 13.05.2022
2205 Clouds 11 1021 24 10000 8 350 06:33 13.05.2022
2206 Clouds 8 1021 29 10000 6 340 03:29 13.05.2022
2207 Clear -5 1021 74 10000 2 0 00:24 13.05.2022
2208 Clear -5 1021 68 10000 1 0 22:45 12.05.2022
2209 Clear -5 1021 68 10000 1 0 21:56 12.05.2022
2210 Clear -1 1021 55 10000 2 0 20:29 12.05.2022
2211 Clear 4 1022 35 10000 2 0 18:51 12.05.2022
2212 Clear 3 1021 35 10000 3 340 17:23 12.05.2022
2213 Clear 7 1021 24 10000 6 350 15:55 12.05.2022
2214 Clouds 8 1020 25 10000 10 340 14:40 12.05.2022
2215 Clouds 9 1020 23 10000 9 350 13:38 12.05.2022
2216 Clouds 10 1020 22 10000 12 340 10:45 12.05.2022
2217 Clouds 8 1021 27 10000 12 340 09:28 12.05.2022
2218 Clouds 8 1021 27 10000 12 340 09:28 12.05.2022
2219 Clouds 7 1021 24 10000 9 330 08:51 12.05.2022
2220 Clouds 7 1022 24 10000 10 330 07:40 12.05.2022
2221 Clouds 3 1023 32 10000 10 350 05:46 12.05.2022
2222 Clouds 0 1024 47 10000 8 340 02:49 12.05.2022
2223 Clouds -6 1023 63 10000 0 0 00:35 12.05.2022
2224 Clear -10 1023 79 10000 0 0 22:35 11.05.2022
2225 Clear -8 1023 73 10000 1 0 21:46 11.05.2022
2226 Clear -8 1023 73 10000 1 0 21:21 11.05.2022
2227 Clear -3 1023 59 10000 1 0 18:33 11.05.2022
2228 Clear 0 1023 43 10000 3 350 16:53 11.05.2022
2229 Clouds 2 1022 30 10000 8 340 14:58 11.05.2022
2230 Clouds 2 1022 30 10000 8 340 14:38 11.05.2022
2231 Clouds 2 1022 30 10000 8 340 14:18 11.05.2022
2232 Clouds 4 1021 30 10000 8 340 11:52 11.05.2022
2233 Clouds 3 1021 35 10000 9 330 10:44 11.05.2022
2234 Clouds 4 1021 28 10000 7 350 08:40 11.05.2022
2235 Clouds 3 1022 30 10000 6 350 05:27 11.05.2022
2236 Clear -9 1022 79 10000 2 0 00:43 11.05.2022
2237 Clear -8 1022 73 10000 1 0 22:31 10.05.2022
2238 Clear -6 1021 63 10000 1 0 21:56 10.05.2022
2239 Clear -7 1021 68 10000 0 0 20:56 10.05.2022
2240 Clear -7 1021 73 10000 1 0 19:37 10.05.2022
2241 Clear -4 1021 63 10000 1 0 17:58 10.05.2022
2242 Clouds -4 1021 63 10000 1 0 17:21 10.05.2022
2243 Clouds -1 1020 55 10000 2 0 15:28 10.05.2022
2244 Clouds 2 1019 30 10000 9 330 12:39 10.05.2022
2245 Clouds 2 1018 38 10000 11 330 11:50 10.05.2022
2246 Clouds 2 1018 38 10000 11 330 11:20 10.05.2022
2247 Clouds 3 1018 30 10000 8 300 10:26 10.05.2022
2248 Clouds 3 1018 32 10000 7 320 09:25 10.05.2022
2249 Clouds 2 1019 30 10000 7 330 06:54 10.05.2022
2250 Clouds -1 1020 47 10000 6 350 03:30 10.05.2022
2251 Clouds -4 1020 80 10000 1 0 00:57 10.05.2022
2252 Clear -6 1019 86 10000 2 0 22:56 09.05.2022
2253 Clear -5 1019 86 10000 2 0 21:50 09.05.2022
2254 Clear -4 1019 86 10000 3 310 20:52 09.05.2022
2255 Clear -2 1018 74 10000 4 340 19:23 09.05.2022
2256 Clouds -2 1017 80 10000 3 330 17:51 09.05.2022
2257 Clouds 0 1017 74 10000 4 330 16:38 09.05.2022
2258 Clouds 1 1015 69 10000 4 350 15:52 09.05.2022
2259 Clouds 1 1015 69 10000 4 350 15:24 09.05.2022
2260 Clouds 2 1015 55 10000 5 330 14:29 09.05.2022
2261 Clouds 3 1014 48 10000 5 340 13:49 09.05.2022
2262 Clouds 4 1014 41 10000 6 330 12:26 09.05.2022
2263 Clouds 5 1013 38 10000 8 350 11:32 09.05.2022
2264 Clouds 5 1014 42 10000 8 340 10:42 09.05.2022
2265 Clouds 3 1014 56 10000 8 350 08:45 09.05.2022
2266 Clouds 3 1014 56 10000 8 350 07:54 09.05.2022
2267 Clouds 1 1012 75 10000 9 340 03:21 09.05.2022
2268 Clouds 3 1006 87 10000 4 50 23:37 08.05.2022
2269 Clouds 3 1006 87 10000 4 50 22:56 08.05.2022
2270 Clouds 7 1004 70 10000 9 320 21:55 08.05.2022
2271 Rain 13 1003 67 8000 3 360 20:35 08.05.2022
2272 Clouds 18 1003 29 10000 8 220 19:45 08.05.2022
2273 Clouds 19 1003 27 10000 13 250 18:54 08.05.2022
2274 Clouds 19 1003 27 10000 13 250 18:18 08.05.2022
2275 Clouds 19 1004 15 10000 9 180 16:44 08.05.2022
2276 Clouds 21 1004 13 10000 10 180 15:39 08.05.2022
2277 Clouds 22 1005 13 10000 10 190 14:45 08.05.2022
2278 Clouds 23 1007 13 10000 9 190 12:27 08.05.2022
2279 Clouds 24 1009 12 10000 10 200 10:32 08.05.2022
2280 Clouds 24 1009 12 10000 10 200 09:57 08.05.2022
2281 Clouds 22 1011 14 10000 10 190 08:57 08.05.2022
2282 Clear 20 1014 21 10000 9 180 07:25 08.05.2022
2283 Clear 5 1019 65 10000 1 0 03:40 08.05.2022
2284 Clear 1 1020 86 10000 1 0 02:47 08.05.2022
2285 Clear -3 1019 93 10000 1 0 00:28 08.05.2022
2286 Clear -4 1019 93 10000 0 0 23:50 07.05.2022
2287 Clear -3 1020 93 10000 0 0 22:46 07.05.2022
2288 Clear -2 1020 93 10000 0 0 21:59 07.05.2022
2289 Clear -2 1020 93 10000 0 0 21:34 07.05.2022
2290 Clear -3 1020 93 10000 1 0 20:28 07.05.2022
2291 Clear -1 1020 93 10000 1 0 19:44 07.05.2022
2292 Clear 0 1021 86 10000 1 0 17:35 07.05.2022
2293 Clear 1 1021 86 10000 2 0 15:46 07.05.2022
2294 Clouds 6 1020 65 10000 1 0 13:39 07.05.2022
2295 Clouds 4 1020 75 10000 6 130 10:46 07.05.2022
2296 Clouds 3 1020 87 10000 7 140 09:19 07.05.2022
2297 Clouds 2 1022 93 10000 7 150 07:50 07.05.2022
2298 Snow 0 1022 93 2000 6 150 06:43 07.05.2022
2299 Snow 1 1022 86 4000 9 150 04:41 07.05.2022
2300 Clouds 3 1023 70 5000 9 190 01:19 07.05.2022
2301 Rain 7 1021 21 10000 11 150 23:37 06.05.2022
2302 Clouds 7 1021 19 10000 12 150 22:27 06.05.2022
2303 Clouds 7 1021 19 10000 14 150 21:43 06.05.2022
2304 Clouds 6 1021 19 10000 12 140 20:33 06.05.2022
2305 Clouds 7 1021 18 10000 11 140 19:29 06.05.2022
2306 Clouds 7 1021 18 10000 11 140 19:29 06.05.2022
2307 Clouds 8 1022 15 10000 11 140 18:57 06.05.2022
2308 Clouds 8 1022 15 10000 11 140 17:38 06.05.2022
2309 Clouds 8 1022 17 10000 9 140 16:23 06.05.2022
2310 Clouds 9 1022 15 10000 6 140 15:39 06.05.2022
2311 Clouds 10 1022 14 10000 6 150 14:33 06.05.2022
2312 Clouds 13 1021 14 10000 4 180 12:53 06.05.2022
2313 Clouds 13 1021 14 10000 4 180 12:31 06.05.2022
2314 Clouds 12 1021 15 10000 3 210 11:38 06.05.2022
2315 Clouds 12 1022 15 10000 4 210 10:26 06.05.2022
2316 Clouds 13 1023 13 10000 4 210 09:39 06.05.2022
2317 Clouds 12 1023 15 10000 2 0 07:59 06.05.2022
2318 Clouds 9 1025 23 10000 3 290 06:39 06.05.2022
2319 Clear 5 1026 30 10000 1 0 04:37 06.05.2022
2320 Clouds -1 1026 51 10000 1 0 02:43 06.05.2022
2321 Clear -9 1025 67 10000 1 0 23:34 05.05.2022
2322 Clear -8 1025 67 10000 1 0 21:52 05.05.2022
2323 Clear -5 1025 54 10000 1 0 20:53 05.05.2022
2324 Clear -5 1024 58 10000 2 0 19:49 05.05.2022
2325 Clear 1 1023 40 10000 2 0 16:54 05.05.2022
2326 Clear 3 1023 32 10000 4 350 15:52 05.05.2022
2327 Clear 4 1022 30 10000 7 340 14:43 05.05.2022
2328 Clouds 6 1021 26 10000 7 340 13:20 05.05.2022
2329 Clouds 6 1021 26 10000 8 340 12:24 05.05.2022
2330 Clouds 7 1020 26 10000 8 350 10:30 05.05.2022
2331 Clouds 7 1020 24 10000 7 350 09:34 05.05.2022
2332 Clouds 6 1020 26 10000 9 350 07:19 05.05.2022
2333 Clouds 1 1018 64 10000 7 350 02:33 05.05.2022
2334 Clouds 1 1016 69 10000 6 360 01:47 05.05.2022
2335 Clouds 1 1016 69 10000 6 360 01:20 05.05.2022
2336 Clouds 2 1013 69 10000 10 340 23:28 04.05.2022
2337 Clouds 2 1012 75 10000 7 350 22:25 04.05.2022
2338 Clouds 4 1011 70 10000 9 340 21:48 04.05.2022
2339 Clouds 4 1011 70 10000 9 340 21:26 04.05.2022
2340 Clouds 5 1010 75 10000 9 330 20:22 04.05.2022
2341 Clouds 7 1009 65 10000 4 320 19:51 04.05.2022
2342 Clouds 9 1008 53 10000 5 350 18:45 04.05.2022
2343 Clouds 9 1008 53 10000 5 350 18:20 04.05.2022
2344 Clouds 9 1007 49 10000 6 70 17:28 04.05.2022
2345 Clouds 13 1005 30 10000 4 330 15:38 04.05.2022
2346 Clouds 13 1004 33 10000 2 0 14:49 04.05.2022
2347 Clouds 13 1004 33 10000 2 0 14:20 04.05.2022
2348 Clouds 16 1003 27 10000 5 310 12:58 04.05.2022
2349 Clouds 17 1003 23 10000 5 310 12:28 04.05.2022
2350 Clouds 17 1004 25 10000 5 350 10:30 04.05.2022
2351 Clouds 17 1004 31 10000 8 340 09:28 04.05.2022
2352 Clouds 17 1004 27 10000 6 340 08:33 04.05.2022
2353 Rain 13 1005 41 10000 6 330 05:44 04.05.2022
2354 Rain 11 1003 37 10000 4 320 02:43 04.05.2022
2355 Clear 5 1000 33 10000 2 0 23:31 03.05.2022
2356 Clear 8 999 27 10000 1 0 22:20 03.05.2022
2357 Clear 4 999 33 10000 0 0 21:33 03.05.2022
2358 Clear 6 999 28 10000 1 0 20:52 03.05.2022
2359 Clear 7 999 26 10000 0 0 19:39 03.05.2022
2360 Clear 11 999 19 10000 2 0 18:48 03.05.2022
2361 Clear 9 999 21 10000 3 170 17:38 03.05.2022
2362 Clear 14 999 14 10000 2 0 16:28 03.05.2022
2363 Clouds 19 998 11 10000 4 230 14:43 03.05.2022
2364 Clear 25 998 8 10000 5 260 12:47 03.05.2022
2365 Clear 25 998 8 10000 5 260 12:25 03.05.2022
2366 Clear 25 998 8 10000 5 260 12:25 03.05.2022
2367 Clouds 25 999 8 10000 8 270 10:52 03.05.2022
2368 Clouds 24 1000 8 10000 7 270 08:38 03.05.2022
2369 Clouds 22 1001 9 10000 3 240 06:46 03.05.2022
2370 Clouds 11 1003 22 10000 1 0 03:34 03.05.2022
2371 Clouds 2 1003 35 10000 1 0 23:44 02.05.2022
2372 Clear 11 1001 23 10000 1.64 150 22:34 02.05.2022
2373 Clear 11 1001 22 10000 1.74 135 21:49 02.05.2022
2374 Clear 3 1005 30 10000 0 0 20:50 02.05.2022
2375 Clear 8 1006 19 10000 1 0 18:35 02.05.2022
2376 Clear 8 1006 19 10000 1 0 17:44 02.05.2022
2377 Clear 11 1006 16 10000 2 0 16:50 02.05.2022
2378 Clear 11 1006 17 10000 4 160 15:56 02.05.2022
2379 Clear 11 1006 17 10000 4 160 15:19 02.05.2022
2380 Clear 23 1007 8 10000 4 290 13:48 02.05.2022
2381 Clear 24 1007 7 10000 3 260 12:18 02.05.2022
2382 Clouds 24 1009 8 10000 6 260 10:20 02.05.2022
2383 Clear 24 1011 8 10000 8 290 08:46 02.05.2022
2384 Clear 23 1011 10 10000 6 230 07:39 02.05.2022
2385 Clear 3 1015 48 10000 0 0 01:58 02.05.2022
2386 Clear -1 1015 64 10000 0 0 00:23 02.05.2022
2387 Clouds 8 1013 38 10000 1.22 126 23:46 01.05.2022
2388 Clear 0 1016 51 10000 1 0 21:56 01.05.2022
2389 Clear 1 1016 47 10000 1 0 20:50 01.05.2022
2390 Clear 2 1016 44 10000 1 0 19:46 01.05.2022
2391 Clear 3 1016 41 10000 2 0 18:54 01.05.2022
2392 Clear 3 1016 41 10000 2 0 18:18 01.05.2022
2393 Clouds 6 1016 31 10000 3 170 16:55 01.05.2022
2394 Clouds 6 1016 31 10000 3 170 16:23 01.05.2022
2395 Clouds 14 1016 21 10000 0 0 15:22 01.05.2022
2396 Clouds 20 1015 12 10000 3 320 13:23 01.05.2022
2397 Clouds 20 1015 11 10000 3 280 10:46 01.05.2022
2398 Clouds 20 1017 14 10000 2 0 08:51 01.05.2022
2399 Clouds 19 1018 18 10000 3 220 07:42 01.05.2022
2400 Clear 5 1020 42 10000 0 0 02:51 01.05.2022
2401 Clear -1 1020 59 10000 1 0 22:58 30.04.2022
2402 Clear 0 1020 55 10000 2 0 21:35 30.04.2022
2403 Clear 1 1021 51 10000 2 0 20:35 30.04.2022
2404 Clear 1 1021 47 10000 3 170 19:33 30.04.2022
2405 Clear 4 1021 38 10000 1 0 17:40 30.04.2022
2406 Clouds 8 1022 29 10000 1 0 16:34 30.04.2022
2407 Clouds 12 1021 24 10000 2 0 15:19 30.04.2022
2408 Clouds 14 1021 21 10000 4 350 14:31 30.04.2022
2409 Clear 16 1021 17 10000 8 310 12:36 30.04.2022
2410 Clear 16 1021 16 10000 7 320 11:32 30.04.2022
2411 Clouds 16 1022 17 10000 9 310 10:31 30.04.2022
2412 Clouds 15 1024 18 10000 7 310 08:34 30.04.2022
2413 Clear 11 1027 25 10000 7 310 05:19 30.04.2022
2414 Clouds -3 1028 43 10000 0 0 00:35 30.04.2022
2415 Clouds -3 1028 43 10000 0 0 23:36 29.04.2022
2416 Clouds -3 1029 39 10000 0 0 22:30 29.04.2022
2417 Clouds -3 1029 39 10000 0 0 21:27 29.04.2022
2418 Clear -7 1029 45 10000 0 0 20:38 29.04.2022
2419 Clear -5 1029 39 10000 2 0 19:36 29.04.2022
2420 Clear -5 1029 39 10000 3 170 17:48 29.04.2022
2421 Clear -3 1029 33 10000 1 0 16:43 29.04.2022
2422 Clear 5 1028 17 10000 6 350 14:38 29.04.2022
2423 Clear 5 1028 17 10000 6 350 14:19 29.04.2022
2424 Clear 7 1027 14 10000 7 330 12:41 29.04.2022
2425 Clear 7 1027 13 10000 10 330 10:57 29.04.2022
2426 Clouds 6 1028 15 10000 8 350 08:18 29.04.2022
2427 Clouds 5 1028 20 10000 6 320 07:27 29.04.2022
2428 Clouds 4 1028 24 10000 7 350 06:34 29.04.2022
2429 Clouds 1 1029 32 10000 8 340 03:23 29.04.2022
2430 Clear -11 1027 62 10000 1 0 00:18 29.04.2022
2431 Clear -11 1027 62 10000 1 0 23:26 28.04.2022
2432 Clear -7 1026 49 10000 3 320 22:37 28.04.2022
2433 Clear -6 1026 45 10000 3 340 21:45 28.04.2022
2434 Clear -5 1026 39 10000 3 330 20:49 28.04.2022
2435 Clear -5 1026 39 10000 3 330 19:57 28.04.2022
2436 Clear -6 1025 38 10000 1 0 19:39 28.04.2022
2437 Clear -6 1025 38 10000 1 0 19:19 28.04.2022
2438 Clear -4 1024 36 10000 1 0 17:56 28.04.2022
2439 Clear -4 1023 36 10000 2 0 16:58 28.04.2022
2440 Clear 1 1023 21 10000 5 350 16:21 28.04.2022
2441 Clear 1 1023 21 10000 5 350 15:56 28.04.2022
2442 Clear 2 1022 21 10000 6 350 15:21 28.04.2022
2443 Clouds 5 1020 20 10000 9 330 13:43 28.04.2022
2444 Clouds 7 1019 19 10000 10 330 12:34 28.04.2022
2445 Clouds 8 1019 19 10000 10 340 11:51 28.04.2022
2446 Clouds 8 1018 18 10000 10 340 10:29 28.04.2022
2447 Clouds 8 1018 25 10000 9 350 09:50 28.04.2022
2448 Clouds 8 1019 29 10000 8 360 07:45 28.04.2022
2449 Clouds 8 1019 25 10000 7 340 06:54 28.04.2022
2450 Clouds 7 1019 24 10000 8 330 05:54 28.04.2022
2451 Clear 6 1018 22 10000 4 360 04:44 28.04.2022
2452 Clear 3 1018 28 10000 2 0 03:28 28.04.2022
2453 Clear -9 1016 62 10000 0 0 23:43 27.04.2022
2454 Clear -9 1016 57 10000 0 0 22:30 27.04.2022
2455 Clear -8 1016 53 10000 1 0 21:50 27.04.2022
2456 Clear -6 1016 49 10000 0 0 20:51 27.04.2022
2457 Clear -6 1016 49 10000 0 0 20:32 27.04.2022
2458 Clear -2 1016 34 10000 1 0 19:36 27.04.2022
2459 Clear -5 1016 42 10000 1 0 18:45 27.04.2022
2460 Clear -5 1016 42 10000 1 0 18:21 27.04.2022
2461 Clear -2 1015 34 10000 3 170 16:21 27.04.2022
2462 Clouds 9 1013 14 10000 4 290 13:51 27.04.2022
2463 Clouds 10 1013 13 10000 4 260 11:39 27.04.2022
2464 Clouds 10 1013 13 10000 4 260 11:18 27.04.2022
2465 Clouds 9 1015 11 10000 2 0 08:53 27.04.2022
2466 Clear 8 1016 13 10000 2 0 06:45 27.04.2022
2467 Clear 8 1016 13 10000 2 0 06:45 27.04.2022
2468 Clear 1 1017 27 10000 1 0 03:30 27.04.2022
2469 Clear -8 1017 57 10000 1 0 01:27 27.04.2022
2470 Clear -12 1017 61 10000 0 0 00:35 27.04.2022
2471 Clear -12 1017 67 10000 1 0 23:25 26.04.2022
2472 Clear -11 1017 57 10000 1 0 22:52 26.04.2022
2473 Clear -11 1017 57 10000 1 0 22:34 26.04.2022
2474 Clear -10 1017 57 10000 1 0 21:26 26.04.2022
2475 Clear -10 1018 52 10000 0 0 20:40 26.04.2022
2476 Clear -10 1018 48 10000 2 0 19:48 26.04.2022
2477 Clear -10 1018 48 10000 2 0 19:26 26.04.2022
2478 Clear -9 1019 45 10000 1 0 18:42 26.04.2022
2479 Clear -5 1019 33 10000 0 0 17:50 26.04.2022
2480 Clear -4 1019 33 10000 2 0 16:26 26.04.2022
2481 Clear 1 1018 21 10000 3 220 13:58 26.04.2022
2482 Clouds 3 1018 20 10000 3 220 13:29 26.04.2022
2483 Clouds 3 1018 20 10000 4 190 11:32 26.04.2022
2484 Clouds 3 1018 17 10000 2 0 10:31 26.04.2022
2485 Clouds 2 1020 21 10000 3 320 08:47 26.04.2022
2486 Clear -1 1022 29 10000 3 320 05:46 26.04.2022
2487 Clear -2 1023 40 10000 2 0 04:23 26.04.2022
2488 Clear -15 1022 78 10000 1 0 00:53 26.04.2022
2489 Clear -10 1022 67 10000 1 0 23:52 25.04.2022
2490 Clear -11 1021 73 10000 2 0 22:18 25.04.2022
2491 Clear -9 1021 67 10000 1 0 21:33 25.04.2022
2492 Clear -10 1020 73 10000 2 0 20:26 25.04.2022
2493 Clear -8 1019 67 10000 0 0 18:52 25.04.2022
2494 Clear -9 1019 79 10000 1 0 17:41 25.04.2022
2495 Clouds -7 1019 73 10000 4 290 16:50 25.04.2022
2496 Clouds -5 1018 68 10000 5 310 15:23 25.04.2022
2497 Clouds -4 1017 63 10000 7 310 14:34 25.04.2022
2498 Clouds -3 1015 59 10000 9 320 13:21 25.04.2022
2499 Clouds -1 1012 47 10000 9 320 10:58 25.04.2022
2500 Clouds 0 1011 40 6000 13 330 09:42 25.04.2022
2501 Clouds -1 1010 47 10000 11 330 08:23 25.04.2022
2502 Clouds -2 1009 59 10000 7 330 06:18 25.04.2022
2503 Clouds -2 1003 64 10000 7 310 01:49 25.04.2022
2504 Snow -1 1001 69 10000 7 340 23:57 24.04.2022
2505 Clouds 1 999 75 10000 7 310 23:28 24.04.2022
2506 Rain 2 998 75 10000 5 330 22:39 24.04.2022
2507 Clouds 3 997 60 10000 5 330 21:56 24.04.2022
2508 Clouds 3 997 60 10000 5 330 21:22 24.04.2022
2509 Clouds 3 997 60 10000 5 330 21:22 24.04.2022
2510 Clouds 4 996 56 10000 6 340 20:46 24.04.2022
2511 Clouds 4 996 56 10000 6 340 20:21 24.04.2022
2512 Clouds 7 993 24 10000 3 300 18:54 24.04.2022
2513 Clouds 9 992 18 10000 1 0 17:54 24.04.2022
2514 Clouds 9 992 18 10000 1 0 17:54 24.04.2022
2515 Rain 9 992 18 10000 1 0 17:21 24.04.2022
2516 Clouds 11 993 13 10000 2 0 16:55 24.04.2022
2517 Rain 11 993 13 10000 2 0 16:29 24.04.2022
2518 Rain 12 994 10 10000 5 40 15:43 24.04.2022
2519 Clouds 12 995 10 10000 4 70 14:36 24.04.2022
2520 Clouds 13 996 8 10000 0 0 13:27 24.04.2022
2521 Clouds 15 997 9 10000 1 0 12:56 24.04.2022
2522 Clouds 14 999 9 10000 4 280 11:50 24.04.2022
2523 Clouds 14 1000 14 10000 7 250 10:47 24.04.2022
2524 Clouds 13 1001 16 10000 8 240 09:47 24.04.2022
2525 Clouds 13 1003 16 10000 4 260 07:55 24.04.2022
2526 Clouds 8 1006 23 10000 2 0 05:45 24.04.2022
2527 Clear 3 1007 44 10000 4 10 02:30 24.04.2022
2528 Clouds -3 1006 68 10000 0 0 00:45 24.04.2022
2529 Clear -1 1006 59 10000 3 350 23:52 23.04.2022
2530 Clear -1 1006 59 10000 3 350 23:25 23.04.2022
2531 Clear -3 1006 68 10000 0 0 21:59 23.04.2022
2532 Clear -3 1006 68 10000 0 0 21:38 23.04.2022
2533 Clear -4 1005 68 10000 0 0 20:59 23.04.2022
2534 Clear -4 1005 63 10000 1 0 19:56 23.04.2022
2535 Clear -4 1005 63 10000 1 0 19:20 23.04.2022
2536 Clear -1 1004 55 10000 1 0 18:53 23.04.2022
2537 Clear -1 1004 55 10000 1 0 18:31 23.04.2022
2538 Clear -3 1004 63 10000 2 0 17:44 23.04.2022
2539 Clear 1 1004 47 10000 2 0 16:44 23.04.2022
2540 Clear 2 1004 44 10000 3 180 15:36 23.04.2022
2541 Clouds 10 1003 22 10000 7 290 12:59 23.04.2022
2542 Clouds 9 1003 20 10000 3 280 11:24 23.04.2022
2543 Clouds 8 1003 27 10000 3 350 09:38 23.04.2022
2544 Clouds 9 1003 29 10000 6 330 07:52 23.04.2022
2545 Clouds 5 1001 56 10000 1 0 03:56 23.04.2022
2546 Clouds 0 999 74 10000 0 0 01:59 23.04.2022
2547 Clouds -2 998 80 10000 1 0 23:34 22.04.2022
2548 Clouds -2 998 80 10000 1 0 22:32 22.04.2022
2549 Clouds 0 998 74 10000 2 0 21:46 22.04.2022
2550 Clouds 0 998 74 10000 2 0 21:20 22.04.2022
2551 Clouds 3 998 60 10000 3 270 20:28 22.04.2022
2552 Clouds 3 997 70 10000 2 0 19:23 22.04.2022
2553 Clouds 5 997 60 10000 3 330 18:53 22.04.2022
2554 Clouds 5 997 60 10000 3 330 18:20 22.04.2022
2555 Clouds 11 995 22 10000 11 290 16:53 22.04.2022
2556 Clouds 11 994 30 10000 6 290 15:56 22.04.2022
2557 Clouds 11 994 30 10000 6 290 15:22 22.04.2022
2558 Clouds 12 993 30 10000 8 300 14:21 22.04.2022
2559 Dust 15 991 17 8000 11 270 13:27 22.04.2022
2560 Clouds 16 991 13 10000 8 250 12:30 22.04.2022
2561 Clouds 16 993 13 10000 10 250 11:23 22.04.2022
2562 Clouds 16 994 13 10000 10 260 10:53 22.04.2022
2563 Clouds 16 994 13 10000 10 260 10:32 22.04.2022
2564 Clouds 16 994 13 10000 10 260 09:54 22.04.2022
2565 Clouds 15 996 17 10000 11 250 08:56 22.04.2022
2566 Clouds 14 998 18 10000 6 240 08:25 22.04.2022
2567 Clouds 8 1003 27 10000 6 220 05:31 22.04.2022
2568 Clear -8 1007 79 10000 1 0 00:53 22.04.2022
2569 Clear -3 1007 68 10000 1 0 23:29 21.04.2022
2570 Clear -7 1007 79 10000 2 0 22:29 21.04.2022
2571 Clear -7 1007 79 10000 2 0 22:29 21.04.2022
2572 Clear -4 1007 74 10000 0 0 21:22 21.04.2022
2573 Clouds -4 1007 74 10000 3 170 20:27 21.04.2022
2574 Clouds 1 1007 60 10000 1 0 18:49 21.04.2022
2575 Clouds 1 1007 60 10000 1 0 18:19 21.04.2022
2576 Clouds 4 1007 52 10000 5 330 16:53 21.04.2022
2577 Clouds 5 1007 42 10000 4 270 15:23 21.04.2022
2578 Clouds 6 1006 33 10000 7 280 14:51 21.04.2022
2579 Clouds 7 1006 26 10000 1 0 13:52 21.04.2022
2580 Clouds 7 1006 26 10000 1 0 13:19 21.04.2022
2581 Clouds 8 1006 23 10000 7 230 11:25 21.04.2022
2582 Clouds 8 1008 18 10000 6 240 08:59 21.04.2022
2583 Clouds 8 1008 18 10000 6 240 08:29 21.04.2022
2584 Clouds 7 1010 21 10000 3 220 06:25 21.04.2022
2585 Clouds 1 1011 32 10000 2 0 03:37 21.04.2022
2586 Clouds 1 1011 32 10000 2 0 02:56 21.04.2022
2587 Clouds -1 1011 40 10000 1 0 02:38 21.04.2022
2588 Clouds -4 1009 50 10000 1 0 23:53 20.04.2022
2589 Clouds -4 1009 50 10000 1 0 23:23 20.04.2022
2590 Clouds -4 1008 50 10000 1 0 22:52 20.04.2022
2591 Clouds -4 1008 50 10000 1 0 22:32 20.04.2022
2592 Clouds -4 1008 50 10000 1 0 22:32 20.04.2022
2593 Clouds -2 1008 43 10000 3 320 21:35 20.04.2022
2594 Clouds -1 1008 43 10000 3 340 20:42 20.04.2022
2595 Clouds 0 1007 37 10000 4 10 19:53 20.04.2022
2596 Clouds 0 1007 37 10000 4 10 19:25 20.04.2022
2597 Clouds 0 1007 37 10000 5 350 18:33 20.04.2022
2598 Clouds 0 1007 34 10000 5 360 16:58 20.04.2022
2599 Clouds 0 1006 34 10000 6 350 16:38 20.04.2022
2600 Clouds 2 1004 30 10000 7 350 14:48 20.04.2022
2601 Clouds 4 1003 30 10000 8 360 11:56 20.04.2022
2602 Clouds 5 1002 30 10000 8 340 11:29 20.04.2022
2603 Clouds 6 1001 28 10000 10 350 10:27 20.04.2022
2604 Clouds 6 1001 31 10000 9 340 09:27 20.04.2022
2605 Clouds 5 1000 36 10000 9 340 08:24 20.04.2022
2606 Clouds 5 1000 36 10000 9 340 08:24 20.04.2022
2607 Clouds 4 1000 45 10000 10 350 07:43 20.04.2022
2608 Clouds 3 998 56 10000 9 350 04:37 20.04.2022
2609 Clouds 2 997 69 10000 4 360 00:55 20.04.2022
2610 Clouds 3 996 70 10000 7 350 00:20 20.04.2022
2611 Clouds 5 995 52 10000 5 350 22:40 19.04.2022
2612 Clouds 5 995 52 10000 5 350 22:19 19.04.2022
2613 Clouds 6 995 45 10000 3 360 21:38 19.04.2022
2614 Clouds 8 994 36 10000 4 330 20:56 19.04.2022
2615 Rain 8 994 36 10000 4 330 20:34 19.04.2022
2616 Clouds 10 994 27 10000 5 330 19:24 19.04.2022
2617 Clouds 12 993 15 10000 5 200 17:59 19.04.2022
2618 Clouds 10 994 16 10000 1 0 16:44 19.04.2022
2619 Clouds 10 994 16 10000 1 0 16:24 19.04.2022
2620 Clouds 11 995 15 10000 3 190 14:51 19.04.2022
2621 Clouds 11 995 15 10000 3 190 14:31 19.04.2022
2622 Clouds 19 997 8 10000 6 260 12:52 19.04.2022
2623 Clouds 19 997 8 10000 6 260 12:26 19.04.2022
2624 Clouds 19 998 8 10000 7 250 11:22 19.04.2022
2625 Clouds 19 1001 10 10000 7 250 09:26 19.04.2022
2626 Clouds 16 1005 14 10000 4 240 06:34 19.04.2022
2627 Clouds 12 1007 22 10000 1 0 04:19 19.04.2022
2628 Clear 0 1007 55 10000 1 0 00:56 19.04.2022
2629 Clear -1 1008 55 10000 1 0 23:38 18.04.2022
2630 Clear -2 1008 64 10000 1 0 21:48 18.04.2022
2631 Clear -2 1008 64 10000 1 0 21:24 18.04.2022
2632 Clear 1 1009 44 10000 1 0 20:38 18.04.2022
2633 Clear 1 1009 44 10000 1 0 19:59 18.04.2022
2634 Clear 1 1009 44 10000 1 0 19:28 18.04.2022
2635 Clear 4 1010 35 10000 1 0 18:33 18.04.2022
2636 Clear 6 1010 31 10000 1 0 17:39 18.04.2022
2637 Clear 6 1010 31 10000 1 0 17:19 18.04.2022
2638 Clear 7 1011 26 10000 4 180 16:35 18.04.2022
2639 Clear 7 1011 26 10000 4 180 16:35 18.04.2022
2640 Clear 8 1011 25 10000 1 0 15:27 18.04.2022
2641 Clear 18 1011 12 10000 5 240 13:44 18.04.2022
2642 Clear 19 1012 12 10000 6 240 12:40 18.04.2022
2643 Clear 19 1013 11 10000 7 240 11:43 18.04.2022
2644 Clear 19 1014 12 10000 7 230 10:43 18.04.2022
2645 Clear 18 1015 15 10000 5 220 09:31 18.04.2022
2646 Clear 17 1016 16 10000 7 230 08:29 18.04.2022
2647 Clear 14 1019 18 10000 4 220 05:58 18.04.2022
2648 Clear -5 1021 80 10000 1 0 01:37 18.04.2022
2649 Clear -6 1021 79 10000 1 0 22:44 17.04.2022
2650 Clear -4 1022 68 10000 1 0 21:51 17.04.2022
2651 Clear -4 1022 68 10000 1 0 21:32 17.04.2022
2652 Clear -4 1022 68 10000 2 0 20:50 17.04.2022
2653 Clear -3 1022 68 10000 1 0 19:53 17.04.2022
2654 Clear -2 1022 64 10000 2 0 18:32 17.04.2022
2655 Clear 0 1022 59 10000 1 0 16:33 17.04.2022
2656 Clouds 4 1022 35 10000 1 0 15:32 17.04.2022
2657 Clouds 9 1021 23 10000 3 10 14:28 17.04.2022
2658 Clear 11 1021 19 10000 5 340 13:20 17.04.2022
2659 Clear 12 1021 17 10000 6 340 12:29 17.04.2022
2660 Clear 12 1021 17 10000 8 330 10:48 17.04.2022
2661 Clear 12 1021 17 10000 8 330 10:29 17.04.2022
2662 Clear 12 1021 19 10000 7 330 09:50 17.04.2022
2663 Clear 12 1021 19 10000 7 330 08:54 17.04.2022
2664 Clear 11 1022 19 10000 5 330 08:26 17.04.2022
2665 Clear 9 1023 20 10000 6 340 05:20 17.04.2022
2666 Clear -6 1023 79 10000 1 0 01:40 17.04.2022
2667 Clear -6 1022 68 10000 2 0 23:59 16.04.2022
2668 Clear -7 1021 79 10000 2 0 22:50 16.04.2022
2669 Clear -4 1021 63 10000 1 0 21:42 16.04.2022
2670 Clear -5 1021 68 10000 3 180 20:45 16.04.2022
2671 Clear -4 1021 68 10000 1 0 19:20 16.04.2022
2672 Clear -4 1020 63 10000 2 0 18:32 16.04.2022
2673 Clear 1 1020 37 10000 0 0 16:42 16.04.2022
2674 Clear 4 1019 30 10000 3 330 15:46 16.04.2022
2675 Clear 6 1018 24 10000 5 340 14:57 16.04.2022
2676 Clear 6 1018 24 10000 5 340 13:58 16.04.2022
2677 Clouds 8 1017 19 10000 7 350 13:40 16.04.2022
2678 Clouds 10 1017 22 10000 8 350 12:33 16.04.2022
2679 Clouds 11 1017 17 10000 7 320 11:24 16.04.2022
2680 Clouds 11 1017 17 10000 5 300 09:59 16.04.2022
2681 Clouds 11 1018 20 10000 6 290 09:18 16.04.2022
2682 Clouds 10 1019 20 10000 6 280 08:31 16.04.2022
2683 Clouds 9 1020 21 10000 6 290 06:59 16.04.2022
2684 Clear 0 1023 51 10000 2 0 03:48 16.04.2022
2685 Clear -6 1024 73 10000 0 0 00:35 16.04.2022
2686 Clear -5 1024 68 10000 2 0 23:34 15.04.2022
2687 Clear -6 1025 73 10000 1 0 22:38 15.04.2022
2688 Clear -4 1025 63 10000 2 0 21:59 15.04.2022
2689 Clear -4 1025 63 10000 2 0 21:18 15.04.2022
2690 Clear -4 1025 63 10000 2 0 21:18 15.04.2022
2691 Clear -4 1025 63 10000 2 0 21:18 15.04.2022
2692 Clear -5 1025 74 10000 2 0 20:27 15.04.2022
2693 Clear -5 1026 74 10000 3 170 19:40 15.04.2022
2694 Clear -3 1026 63 10000 2 0 18:54 15.04.2022
2695 Clear -3 1026 63 10000 2 0 18:25 15.04.2022
2696 Clear 0 1027 37 10000 1 0 17:48 15.04.2022
2697 Clear 0 1027 37 10000 1 0 17:21 15.04.2022
2698 Clear 3 1027 30 10000 6 270 16:23 15.04.2022
2699 Clear 3 1026 32 10000 5 280 15:24 15.04.2022
2700 Clear 7 1026 21 10000 6 320 13:42 15.04.2022
2701 Clear 9 1026 18 10000 5 320 12:43 15.04.2022
2702 Clear 9 1026 18 10000 5 320 11:58 15.04.2022
2703 Clear 9 1026 18 10000 6 300 11:35 15.04.2022
2704 Clear 9 1027 21 10000 6 320 10:45 15.04.2022
2705 Clear 9 1028 18 10000 7 290 09:47 15.04.2022
2706 Clear 9 1028 18 10000 7 290 09:21 15.04.2022
2707 Clear 8 1029 18 10000 5 270 07:53 15.04.2022
2708 Clouds 6 1032 24 10000 2 0 06:37 15.04.2022
2709 Clear -2 1033 59 10000 0 0 03:47 15.04.2022
2710 Clear -8 1033 86 10000 0 0 23:32 14.04.2022
2711 Clear -8 1033 86 10000 0 0 22:49 14.04.2022
2712 Clear -8 1033 86 10000 0 0 22:31 14.04.2022
2713 Clear -8 1033 86 10000 0 0 21:59 14.04.2022
2714 Clear -6 1033 79 10000 0 0 21:30 14.04.2022
2715 Clear -7 1033 79 10000 1 0 19:23 14.04.2022
2716 Clear -6 1033 79 10000 2 0 18:30 14.04.2022
2717 Clear -5 1033 74 10000 1 0 17:44 14.04.2022
2718 Clear -5 1033 74 10000 1 0 17:44 14.04.2022
2719 Clear -3 1033 63 10000 2 0 16:46 14.04.2022
2720 Clear -2 1032 64 10000 4 160 15:28 14.04.2022
2721 Clouds 4 1031 26 10000 3 180 13:47 14.04.2022
2722 Clouds 4 1031 26 10000 3 180 12:58 14.04.2022
2723 Clouds 5 1031 24 10000 4 170 12:31 14.04.2022
2724 Clouds 5 1031 26 10000 4 170 11:30 14.04.2022
2725 Clouds 5 1031 26 10000 4 170 10:54 14.04.2022
2726 Clouds 5 1031 26 10000 5 170 10:27 14.04.2022
2727 Clouds 4 1031 35 10000 4 150 09:25 14.04.2022
2728 Clouds 2 1032 60 10000 0 0 07:33 14.04.2022
2729 Clouds -4 1031 93 6000 1 0 04:35 14.04.2022
2730 Clouds -9 1027 86 8000 1 0 23:45 13.04.2022
2731 Clouds -6 1027 93 6000 1 0 22:24 13.04.2022
2732 Clouds -6 1026 86 3000 0 0 21:42 13.04.2022
2733 Clouds -5 1026 93 3000 1 0 20:25 13.04.2022
2734 Clouds -5 1026 93 3000 1 0 19:39 13.04.2022
2735 Clouds -4 1025 86 3000 1 0 18:36 13.04.2022
2736 Snow -8 1025 93 10000 0 0 17:24 13.04.2022
2737 Snow -8 1024 93 10000 2 0 16:41 13.04.2022
2738 Clouds -4 1023 86 10000 3 70 15:43 13.04.2022
2739 Clouds -3 1022 86 10000 5 60 14:53 13.04.2022
2740 Clouds -3 1022 86 10000 5 60 14:30 13.04.2022
2741 Snow -3 1021 93 8000 4 80 13:36 13.04.2022
2742 Clouds -3 1020 93 3000 3 40 12:38 13.04.2022
2743 Clouds -3 1020 93 3000 5 350 11:24 13.04.2022
2744 Clouds 1 1018 51 6000 4 270 09:45 13.04.2022
2745 Clouds 1 1017 51 8000 4 260 08:43 13.04.2022
2746 Clouds 2 1017 38 10000 7 250 07:23 13.04.2022
2747 Snow 1 1017 47 10000 3 320 06:46 13.04.2022
2748 Snow 1 1017 47 10000 3 320 06:18 13.04.2022
2749 Clouds -11 1016 79 10000 1 0 00:25 13.04.2022
2750 Clear -10 1016 85 10000 1 0 23:46 12.04.2022
2751 Clear -9 1016 79 10000 0 0 22:20 12.04.2022
2752 Clear -9 1016 73 10000 1 0 21:42 12.04.2022
2753 Clear -9 1016 79 10000 2 0 20:44 12.04.2022
2754 Clear -9 1016 79 10000 2 0 19:54 12.04.2022
2755 Clear -9 1016 79 10000 2 0 19:35 12.04.2022
2756 Clouds -6 1016 73 10000 1 0 18:50 12.04.2022
2757 Clouds -5 1016 68 10000 1 0 17:36 12.04.2022
2758 Clouds -2 1017 54 10000 2 0 16:33 12.04.2022
2759 Clouds -1 1017 47 10000 1 0 15:33 12.04.2022
2760 Clouds 1 1016 32 10000 4 240 14:33 12.04.2022
2761 Clouds 3 1016 22 10000 2 0 13:39 12.04.2022
2762 Clouds 3 1016 22 10000 2 0 12:59 12.04.2022
2763 Clouds 4 1016 20 10000 1 0 11:47 12.04.2022
2764 Clouds 4 1016 20 10000 1 0 11:24 12.04.2022
2765 Clouds 3 1018 28 10000 3 160 09:25 12.04.2022
2766 Clouds 3 1018 30 10000 4 150 08:18 12.04.2022
2767 Clouds 2 1020 30 10000 3 180 06:33 12.04.2022
2768 Clouds 1 1021 29 10000 2 0 05:36 12.04.2022
2769 Clouds -11 1022 79 10000 1 0 01:47 12.04.2022
2770 Clear -10 1022 79 10000 1 0 23:19 11.04.2022
2771 Clear -8 1022 79 10000 1 0 21:50 11.04.2022
2772 Clear -8 1022 79 10000 1 0 21:18 11.04.2022
2773 Clear -10 1022 79 10000 2 0 20:30 11.04.2022
2774 Clear -8 1022 73 10000 2 0 19:57 11.04.2022
2775 Clear -8 1022 73 10000 2 0 19:22 11.04.2022
2776 Clear -8 1022 73 10000 2 0 18:49 11.04.2022
2777 Clear -8 1022 73 10000 2 0 17:57 11.04.2022
2778 Clear -8 1022 79 10000 1 0 16:57 11.04.2022
2779 Clear -6 1023 73 10000 1 0 16:20 11.04.2022
2780 Clouds -2 1022 54 10000 1 0 14:35 11.04.2022
2781 Clouds 0 1021 40 10000 6 290 12:53 11.04.2022
2782 Clouds 0 1021 40 10000 6 290 12:35 11.04.2022
2783 Clouds 1 1021 37 10000 7 270 11:37 11.04.2022
2784 Clouds 1 1021 25 10000 7 290 10:31 11.04.2022
2785 Clouds 2 1021 21 10000 2 0 09:22 11.04.2022
2786 Clouds 0 1022 40 10000 5 330 06:51 11.04.2022
2787 Clear -5 1022 74 10000 5 320 02:30 11.04.2022
2788 Clouds -4 1018 74 10000 6 340 22:38 10.04.2022
2789 Clouds -3 1018 74 10000 5 340 21:55 10.04.2022
2790 Clouds -3 1018 74 10000 5 340 21:32 10.04.2022
2791 Clouds -3 1016 80 10000 6 340 20:31 10.04.2022
2792 Clouds -2 1015 74 10000 7 340 19:45 10.04.2022
2793 Snow -2 1015 74 10000 7 340 19:22 10.04.2022
2794 Snow -2 1014 80 10000 8 350 18:42 10.04.2022
2795 Snow -2 1014 80 10000 8 350 17:54 10.04.2022
2796 Snow -2 1013 80 10000 8 340 17:34 10.04.2022
2797 Snow -2 1012 86 10000 7 340 16:22 10.04.2022
2798 Snow 0 1011 69 10000 6 360 15:19 10.04.2022
2799 Snow -1 1009 86 10000 5 20 13:58 10.04.2022
2800 Snow -1 1008 93 8000 5 40 12:34 10.04.2022
2801 Clouds -1 1008 93 3000 5 30 11:46 10.04.2022
2802 Clouds -1 1008 93 3000 5 30 11:28 10.04.2022
2803 Clouds -2 1008 93 3000 5 360 10:43 10.04.2022
2804 Clouds -1 1008 93 5000 5 20 09:50 10.04.2022
2805 Clouds -1 1008 93 5000 5 20 09:21 10.04.2022
2806 Clouds -1 1008 86 5000 5 30 08:21 10.04.2022
2807 Clouds 0 1008 64 8000 3 40 07:18 10.04.2022
2808 Clouds 0 1008 51 10000 1 0 05:19 10.04.2022
2809 Snow -3 1008 74 10000 2 0 02:20 10.04.2022
2810 Clear -5 1006 80 10000 2 0 23:54 09.04.2022
2811 Clear -5 1006 80 10000 2 0 23:29 09.04.2022
2812 Clear -4 1006 74 10000 1 0 22:39 09.04.2022
2813 Clear -5 1005 86 10000 2 0 21:31 09.04.2022
2814 Clear -4 1006 74 10000 2 0 20:35 09.04.2022
2815 Clear -4 1006 74 10000 2 0 19:59 09.04.2022
2816 Clear -4 1006 74 10000 3 330 19:41 09.04.2022
2817 Clear -2 1006 74 10000 2 0 18:26 09.04.2022
2818 Clear -1 1006 69 10000 4 350 17:52 09.04.2022
2819 Clear -1 1006 69 10000 4 350 17:18 09.04.2022
2820 Clouds 0 1005 69 10000 6 340 16:42 09.04.2022
2821 Clouds 1 1004 64 10000 6 350 15:52 09.04.2022
2822 Clouds 1 1004 64 10000 6 350 15:26 09.04.2022
2823 Clouds 3 1003 52 10000 6 360 14:26 09.04.2022
2824 Clouds 5 1001 48 10000 7 360 13:34 09.04.2022
2825 Clouds 5 1001 48 10000 7 360 12:57 09.04.2022
2826 Dust 10 997 40 5000 13 340 11:51 09.04.2022
2827 Dust 17 994 15 3000 12 280 10:52 09.04.2022
2828 Dust 17 994 15 3000 12 280 10:18 09.04.2022
2829 Dust 16 994 14 4000 13 270 09:24 09.04.2022
2830 Dust 17 994 22 3000 13 270 08:35 09.04.2022
2831 Clouds 13 996 21 10000 6 240 05:21 09.04.2022
2832 Clouds 10 997 23 10000 8 140 00:35 09.04.2022
2833 Clouds 10 998 23 10000 8 150 23:24 08.04.2022
2834 Clouds 10 999 23 10000 9 140 21:54 08.04.2022
2835 Clouds 7 1002 29 10000 2 0 20:45 08.04.2022
2836 Clouds 7 1002 29 10000 2 0 19:57 08.04.2022
2837 Clouds 5 1003 33 10000 1 0 18:59 08.04.2022
2838 Clouds 5 1004 33 10000 1 0 18:24 08.04.2022
2839 Clouds 6 1005 31 10000 1 0 17:29 08.04.2022
2840 Clouds 6 1005 31 10000 1 0 16:58 08.04.2022
2841 Clouds 6 1006 31 10000 1 0 16:31 08.04.2022
2842 Clouds 6 1006 31 10000 4 170 15:37 08.04.2022
2843 Clouds 11 1007 22 10000 3 30 14:52 08.04.2022
2844 Clouds 11 1007 22 10000 3 30 14:21 08.04.2022
2845 Clouds 11 1007 20 10000 5 280 13:36 08.04.2022
2846 Clouds 11 1007 20 10000 5 280 13:18 08.04.2022
2847 Clouds 14 1007 21 10000 5 310 11:41 08.04.2022
2848 Clouds 14 1007 23 10000 4 300 10:20 08.04.2022
2849 Clouds 14 1008 21 10000 4 300 09:20 08.04.2022
2850 Clouds 13 1009 26 10000 4 310 07:58 08.04.2022
2851 Clouds 12 1010 30 10000 5 340 06:46 08.04.2022
2852 Clear 8 1009 42 10000 1 0 03:35 08.04.2022
2853 Clear 6 1007 42 10000 6 340 00:31 08.04.2022
2854 Clear 5 1006 33 10000 2 0 23:52 07.04.2022
2855 Clear 2 1005 35 10000 2 0 22:55 07.04.2022
2856 Clear 2 1005 35 10000 2 0 22:36 07.04.2022
2857 Clear 2 1005 35 10000 2 0 22:18 07.04.2022
2858 Clear 5 1004 26 10000 0 0 21:30 07.04.2022
2859 Clear 5 1004 26 10000 0 0 20:55 07.04.2022
2860 Clouds 4 1004 26 10000 2 0 20:21 07.04.2022
2861 Clouds 12 1004 16 10000 1 0 17:43 07.04.2022
2862 Clouds 12 1004 16 10000 1 0 17:23 07.04.2022
2863 Clouds 12 1004 15 10000 5 200 16:35 07.04.2022
2864 Clouds 12 1004 15 10000 5 200 15:56 07.04.2022
2865 Clouds 14 1004 13 10000 4 230 13:59 07.04.2022
2866 Clouds 19 1004 10 10000 5 270 13:26 07.04.2022
2867 Clouds 21 1005 10 10000 7 290 12:28 07.04.2022
2868 Clouds 21 1005 9 10000 7 270 10:56 07.04.2022
2869 Clouds 20 1008 12 10000 5 230 09:34 07.04.2022
2870 Clouds 19 1009 14 10000 7 210 08:27 07.04.2022
2871 Clear 15 1011 18 10000 5 240 06:18 07.04.2022
2872 Clear 1 1014 47 10000 0 0 02:38 07.04.2022
2873 Clouds -4 1015 68 10000 1 0 00:47 07.04.2022
2874 Clouds -3 1015 63 10000 1 0 23:39 06.04.2022
2875 Clear -3 1015 59 10000 1 0 22:45 06.04.2022
2876 Clear -3 1015 59 10000 1 0 22:24 06.04.2022
2877 Clear -3 1016 54 10000 1 0 21:18 06.04.2022
2878 Clear -3 1016 54 10000 2 0 20:27 06.04.2022
2879 Clear 0 1017 51 10000 1 0 19:52 06.04.2022
2880 Clear -2 1017 50 10000 2 0 18:49 06.04.2022
2881 Clear 0 1017 40 10000 1 0 17:51 06.04.2022
2882 Clear 0 1017 40 10000 1 0 17:21 06.04.2022
2883 Clear 2 1017 41 10000 2 0 16:34 06.04.2022
2884 Clear 2 1018 35 10000 1 0 15:46 06.04.2022
2885 Clear 8 1018 27 10000 2 0 13:57 06.04.2022
2886 Clear 14 1017 18 10000 6 330 12:37 06.04.2022
2887 Clear 14 1017 19 10000 6 320 11:48 06.04.2022
2888 Clouds 14 1018 18 10000 8 330 10:42 06.04.2022
2889 Clouds 14 1018 18 10000 8 330 10:18 06.04.2022
2890 Clouds 14 1018 21 10000 6 310 09:25 06.04.2022
2891 Clouds 14 1019 21 10000 7 290 08:26 06.04.2022
2892 Clouds 10 1021 29 10000 2 0 06:45 06.04.2022
2893 Clear -8 1022 73 10000 0 0 01:44 06.04.2022
2894 Clear -9 1022 67 10000 0 0 23:50 05.04.2022
2895 Clear -7 1022 68 10000 1 0 21:59 05.04.2022
2896 Clear -7 1022 68 10000 1 0 21:18 05.04.2022
2897 Clear -4 1022 54 10000 1 0 20:24 05.04.2022
2898 Clear -7 1022 63 10000 3 160 18:53 05.04.2022
2899 Clear -7 1022 63 10000 2 0 17:30 05.04.2022
2900 Clouds -6 1021 63 10000 0 0 16:44 05.04.2022
2901 Clouds -1 1021 51 10000 1 0 15:52 05.04.2022
2902 Clouds -1 1021 51 10000 1 0 15:31 05.04.2022
2903 Clouds 4 1021 35 10000 2 0 13:59 05.04.2022
2904 Clouds 6 1021 33 10000 2 0 12:41 05.04.2022
2905 Clouds 5 1021 36 10000 3 220 11:43 05.04.2022
2906 Rain 5 1021 36 10000 3 220 11:25 05.04.2022
2907 Clouds 5 1022 33 10000 4 250 09:41 05.04.2022
2908 Rain 5 1022 28 10000 3 240 08:51 05.04.2022
2909 Clouds 1 1024 27 10000 1 0 05:28 05.04.2022
2910 Clouds -7 1024 63 10000 1 0 23:51 04.04.2022
2911 Clouds -6 1024 63 10000 1 0 22:41 04.04.2022
2912 Clouds -5 1024 58 10000 2 0 21:52 04.04.2022
2913 Clouds -5 1024 58 10000 2 0 21:21 04.04.2022
2914 Clouds -4 1024 58 10000 4 320 20:48 04.04.2022
2915 Clear -5 1024 58 10000 4 330 19:39 04.04.2022
2916 Clear -5 1024 58 10000 4 330 18:59 04.04.2022
2917 Clouds -3 1023 50 10000 4 330 17:39 04.04.2022
2918 Clouds -2 1022 46 10000 4 340 16:36 04.04.2022
2919 Clouds -1 1021 43 10000 5 360 15:34 04.04.2022
2920 Clouds 0 1020 55 10000 4 20 14:49 04.04.2022
2921 Clouds 0 1020 55 10000 4 20 14:31 04.04.2022
2922 Clouds 2 1019 48 10000 6 10 13:18 04.04.2022
2923 Clouds 6 1016 33 10000 6 20 11:29 04.04.2022
2924 Dust 8 1015 29 10000 8 350 10:49 04.04.2022
2925 Clouds 11 1013 20 10000 9 310 07:46 04.04.2022
2926 Clouds 4 1015 26 10000 1 0 03:19 04.04.2022
2927 Clear -6 1014 49 10000 0 0 00:25 04.04.2022
2928 Clear -7 1014 53 10000 2 0 22:31 03.04.2022
2929 Clear -5 1013 46 10000 0 0 21:37 03.04.2022
2930 Clear -7 1013 49 10000 2 0 20:40 03.04.2022
2931 Clear -6 1014 42 10000 0 0 19:45 03.04.2022
2932 Clouds 3 1015 35 10000 0.28 18 18:31 03.04.2022
2933 Clear -3 1013 31 10000 2 0 17:44 03.04.2022
2934 Clear 1 1013 27 10000 2 0 16:50 03.04.2022
2935 Clear 1 1013 27 10000 2 0 16:31 03.04.2022
2936 Clear 4 1012 17 10000 1 0 14:32 03.04.2022
2937 Clouds 11 1011 12 10000 5 300 13:45 03.04.2022
2938 Clouds 13 1011 10 10000 5 280 12:21 03.04.2022
2939 Clouds 14 1011 8 10000 7 290 10:54 03.04.2022
2940 Clouds 14 1011 8 10000 5 260 09:23 03.04.2022
2941 Clouds 13 1012 8 10000 4 230 07:24 03.04.2022
2942 Clouds 4 1013 22 10000 1 0 04:18 03.04.2022
2943 Clouds 1 1015 27 10000 1.06 181 00:41 03.04.2022
2944 Clouds 1 1015 28 10000 1.26 163 22:54 02.04.2022
2945 Clouds 1 1015 28 10000 1.18 169 21:57 02.04.2022
2946 Clouds 1 1015 28 10000 1.18 169 21:36 02.04.2022
2947 Clouds 1 1015 29 10000 1.15 164 20:52 02.04.2022
2948 Clear 1 1017 30 10000 0.81 162 19:28 02.04.2022
2949 Clear -6 1015 35 10000 1 0 18:21 02.04.2022
2950 Clear -2 1015 26 10000 1 0 17:52 02.04.2022
2951 Clear -4 1015 33 10000 2 0 16:23 02.04.2022
2952 Clear -4 1015 26 10000 2 0 15:21 02.04.2022
2953 Clear 2 1015 15 10000 2 0 14:47 02.04.2022
2954 Clear 9 1015 11 10000 4 280 13:35 02.04.2022
2955 Clear 11 1015 10 10000 5 280 12:37 02.04.2022
2956 Clear 11 1016 11 10000 6 280 10:58 02.04.2022
2957 Clouds 11 1018 11 10000 4 280 08:49 02.04.2022
2958 Clouds 8 1020 14 10000 2 0 06:50 02.04.2022
2959 Clouds -2 1022 43 10000 1 0 03:45 02.04.2022
2960 Clouds -1 1026 42 10000 1.68 142 23:56 01.04.2022
2961 Clouds -1 1026 42 10000 1.81 142 23:19 01.04.2022
2962 Clear -9 1024 53 10000 1 0 21:34 01.04.2022
2963 Clouds -8 1025 53 10000 0 0 20:51 01.04.2022
2964 Clouds -8 1025 53 10000 0 0 20:25 01.04.2022
2965 Clouds -7 1026 45 10000 0 0 19:32 01.04.2022
2966 Clouds -7 1026 45 10000 1 0 18:45 01.04.2022
2967 Clouds -2 1027 37 10000 1 0 17:46 01.04.2022
2968 Clouds -4 1028 36 10000 2 0 16:52 01.04.2022
2969 Clouds -2 1028 34 10000 4 160 15:39 01.04.2022
2970 Clouds -1 1028 31 10000 2 0 14:21 01.04.2022
2971 Clouds 5 1029 19 10000 2 0 13:34 01.04.2022
2972 Clouds 6 1029 19 10000 5 280 12:32 01.04.2022
2973 Clouds 6 1029 19 10000 5 280 12:32 01.04.2022
2974 Clouds 7 1029 19 10000 5 280 11:40 01.04.2022
2975 Clouds 8 1030 18 10000 5 290 10:19 01.04.2022
2976 Clouds 7 1031 23 10000 7 270 08:47 01.04.2022
2977 Clear 5 1033 24 10000 3 230 06:54 01.04.2022
2978 Clear -1 1034 34 10000 1 0 04:50 01.04.2022
2979 Clear -1 1034 34 10000 1 0 04:31 01.04.2022
2980 Clear -14 1032 72 10000 1 0 01:56 01.04.2022
2981 Clear -13 1031 66 10000 2 0 22:58 31.03.2022
2982 Clear -12 1031 61 10000 2 0 21:51 31.03.2022
2983 Clear -12 1031 61 10000 2 0 21:32 31.03.2022
2984 Clouds -10 1031 57 10000 0 0 20:29 31.03.2022
2985 Clouds -8 1031 49 10000 0 0 19:49 31.03.2022
2986 Clouds -7 1031 53 10000 0 0 18:44 31.03.2022
2987 Clouds -4 1031 30 10000 1 0 17:49 31.03.2022
2988 Clouds -6 1030 35 10000 1 0 16:38 31.03.2022
2989 Clouds -5 1030 33 10000 2 0 15:43 31.03.2022
2990 Clouds -5 1030 33 10000 2 0 15:19 31.03.2022
2991 Clouds -4 1029 26 10000 2 0 14:35 31.03.2022
2992 Clouds 5 1029 11 10000 2 0 11:57 31.03.2022
2993 Clouds 6 1029 10 10000 3 210 11:20 31.03.2022
2994 Clouds 5 1030 8 10000 3 160 09:44 31.03.2022
2995 Clouds 4 1032 9 10000 4 170 07:55 31.03.2022
2996 Clouds -5 1034 33 10000 1 0 04:46 31.03.2022
2997 Clear -17 1033 71 10000 1 0 23:43 30.03.2022
2998 Clear -9 1042 54 10000 1.53 120 22:32 30.03.2022
2999 Clear -16 1032 66 10000 1 0 21:38 30.03.2022
3000 Clear -16 1032 72 10000 2 0 20:53 30.03.2022
3001 Clear -16 1032 72 10000 2 0 19:59 30.03.2022
3002 Clear -14 1031 66 10000 1 0 18:59 30.03.2022
3003 Clear -14 1031 66 10000 1 0 18:18 30.03.2022
3004 Clear -14 1031 66 10000 2 0 17:44 30.03.2022
3005 Clear -12 1031 56 10000 1 0 16:54 30.03.2022
3006 Clear -12 1031 56 10000 1 0 16:31 30.03.2022
3007 Clear -10 1031 48 10000 1 0 14:56 30.03.2022
3008 Clear -2 1029 26 10000 6 330 13:35 30.03.2022
3009 Clear 0 1028 19 10000 8 340 12:42 30.03.2022
3010 Clouds 0 1027 21 10000 9 330 10:55 30.03.2022
3011 Clouds 1 1027 19 10000 9 330 09:58 30.03.2022
3012 Clouds 1 1027 19 10000 9 320 08:57 30.03.2022
3013 Clouds 0 1027 29 10000 7 340 07:31 30.03.2022
3014 Clouds -2 1026 37 10000 6 340 05:40 30.03.2022
3015 Clouds -4 1025 68 10000 3 350 03:31 30.03.2022
3016 Clouds -4 1021 50 10000 3 20 23:42 29.03.2022
3017 Clouds -5 1020 58 10000 2 0 22:19 29.03.2022
3018 Clouds -5 1020 58 10000 2 0 21:41 29.03.2022
3019 Clouds -5 1020 54 10000 2 0 20:44 29.03.2022
3020 Clouds -5 1019 50 10000 1 0 19:45 29.03.2022
3021 Clouds -4 1019 50 10000 0 0 18:54 29.03.2022
3022 Clouds -4 1019 50 10000 0 0 18:18 29.03.2022
3023 Clouds -4 1019 46 10000 2 0 17:20 29.03.2022
3024 Clouds -3 1019 39 10000 1 0 16:55 29.03.2022
3025 Clouds -2 1018 37 10000 1 0 15:47 29.03.2022
3026 Clouds 0 1017 32 10000 1 0 14:44 29.03.2022
3027 Clouds 2 1017 25 10000 5 290 13:41 29.03.2022
3028 Clouds 3 1016 25 10000 6 300 12:46 29.03.2022
3029 Clouds 3 1016 22 10000 3 290 11:27 29.03.2022
3030 Clouds 3 1017 22 10000 4 270 10:23 29.03.2022
3031 Clouds 3 1017 20 10000 6 270 09:20 29.03.2022
3032 Clouds 0 1019 21 10000 2 0 06:54 29.03.2022
3033 Clouds -7 1019 42 10000 1 0 03:19 29.03.2022
3034 Clear -15 1016 66 10000 2 0 23:46 28.03.2022
3035 Clear -15 1016 66 10000 2 0 22:58 28.03.2022
3036 Clear -15 1015 66 10000 2 0 22:35 28.03.2022
3037 Clear -15 1015 66 10000 2 0 21:48 28.03.2022
3038 Clear -13 1015 61 10000 2 0 20:41 28.03.2022
3039 Clear -13 1015 61 10000 2 0 19:59 28.03.2022
3040 Clear -10 1014 52 10000 2 0 19:40 28.03.2022
3041 Clear -10 1013 52 10000 3 320 18:51 28.03.2022
3042 Clear -6 1013 38 10000 2 0 17:41 28.03.2022
3043 Clear -6 1013 38 10000 2 0 16:58 28.03.2022
3044 Clear -4 1010 39 10000 5 340 15:35 28.03.2022
3045 Clear -2 1009 34 10000 6 330 14:24 28.03.2022
3046 Clear 1 1007 27 10000 6 340 13:19 28.03.2022
3047 Clear 3 1005 28 10000 8 340 11:53 28.03.2022
3048 Clouds 2 1005 30 10000 7 340 10:35 28.03.2022
3049 Clouds 2 1005 27 10000 8 330 09:21 28.03.2022
3050 Clouds 2 1004 27 10000 7 340 08:40 28.03.2022
3051 Clouds 2 1004 27 10000 7 340 08:20 28.03.2022
3052 Rain 2 1004 27 10000 8 330 06:55 28.03.2022
3053 Clouds -6 1003 42 10000 2 0 02:44 28.03.2022
3054 Clouds -9 1003 45 10000 1 0 22:38 27.03.2022
3055 Clouds -10 1004 48 10000 0 0 21:48 27.03.2022
3056 Clouds -10 1004 48 10000 0 0 21:28 27.03.2022
3057 Clear -10 1004 44 10000 0 0 20:41 27.03.2022
3058 Clear -10 1004 41 10000 1 0 19:37 27.03.2022
3059 Clear -11 1005 40 10000 1 0 18:45 27.03.2022
3060 Clear -11 1005 40 10000 1 0 18:23 27.03.2022
3061 Clear -5 1005 28 10000 2 0 17:36 27.03.2022
3062 Clear -5 1005 28 10000 4 160 15:51 27.03.2022
3063 Clear 4 1005 11 10000 3 240 13:59 27.03.2022
3064 Clear 4 1005 11 10000 3 240 13:21 27.03.2022
3065 Clouds 6 1006 11 10000 5 280 11:35 27.03.2022
3066 Clouds 7 1007 11 10000 6 230 09:37 27.03.2022
3067 Clouds 4 1009 12 10000 5 240 07:39 27.03.2022
3068 Clear -6 1011 30 10000 1 0 04:24 27.03.2022
3069 Clear -8 1020 35 10000 0.96 136 00:26 27.03.2022
3070 Clear -8 1021 33 10000 0.82 147 22:52 26.03.2022
3071 Clear -8 1021 31 10000 0.78 160 21:57 26.03.2022
3072 Clear -14 1013 43 10000 0 0 21:30 26.03.2022
3073 Clear -11 1014 31 10000 1 0 19:38 26.03.2022
3074 Clear -13 1014 33 10000 1 0 18:44 26.03.2022
3075 Clear -12 1014 31 10000 1 0 17:41 26.03.2022
3076 Clear -9 1015 27 10000 2 0 16:40 26.03.2022
3077 Clear -11 1016 28 10000 3 190 15:42 26.03.2022
3078 Clear -9 1016 24 10000 4 210 13:56 26.03.2022
3079 Clear -6 1016 19 10000 3 240 13:36 26.03.2022
3080 Clear -2 1016 16 10000 5 260 12:18 26.03.2022
3081 Clear 0 1017 9 10000 7 280 10:48 26.03.2022
3082 Clouds 0 1018 14 10000 9 300 08:50 26.03.2022
3083 Clouds 0 1018 18 10000 8 320 06:56 26.03.2022
3084 Clouds -3 1019 31 10000 3 310 05:31 26.03.2022
3085 Clouds -8 1019 45 10000 1 0 02:24 26.03.2022
3086 Clouds -14 1015 51 10000 1 0 22:30 25.03.2022
3087 Clouds -16 1015 55 10000 1 0 20:58 25.03.2022
3088 Clouds -15 1014 56 10000 1 0 20:26 25.03.2022
3089 Clouds -14 1014 51 10000 0 0 19:19 25.03.2022
3090 Clouds -14 1013 47 10000 0 0 18:35 25.03.2022
3091 Clear -15 1013 43 10000 0 0 17:30 25.03.2022
3092 Clouds -14 1013 43 10000 2 0 16:27 25.03.2022
3093 Clouds -13 1013 36 10000 2 0 15:34 25.03.2022
3094 Clouds -6 1012 21 10000 2 0 13:29 25.03.2022
3095 Clouds -2 1010 16 10000 7 310 11:21 25.03.2022
3096 Clouds 0 1010 12 10000 7 280 09:37 25.03.2022
3097 Clouds -1 1010 17 10000 9 310 08:50 25.03.2022
3098 Clouds -2 1011 22 10000 9 310 07:42 25.03.2022
3099 Clouds -2 1011 22 10000 9 310 06:59 25.03.2022
3100 Clouds -10 1012 73 10000 0 0 02:37 25.03.2022
3101 Clouds -14 1010 78 10000 1 0 22:59 24.03.2022
3102 Clouds -15 1010 85 10000 1 0 22:19 24.03.2022
3103 Clouds -14 1010 85 10000 1 0 20:52 24.03.2022
3104 Clouds -15 1011 85 10000 2 0 19:49 24.03.2022
3105 Clouds -13 1011 78 10000 0 0 18:44 24.03.2022
3106 Clouds -13 1010 85 10000 1 0 17:35 24.03.2022
3107 Clouds -9 1010 73 10000 2 0 16:28 24.03.2022
3108 Clouds -10 1009 79 10000 1 0 14:51 24.03.2022
3109 Clouds -10 1009 79 10000 1 0 14:22 24.03.2022
3110 Clouds -7 1009 68 10000 2 0 13:34 24.03.2022
3111 Clouds -5 1008 58 10000 5 310 12:24 24.03.2022
3112 Clouds -3 1006 54 8000 8 320 10:48 24.03.2022
3113 Clouds -4 1005 68 8000 9 320 09:27 24.03.2022
3114 Clouds -2 1004 50 10000 11 320 08:32 24.03.2022
3115 Clouds -2 999 40 10000 7 280 04:52 24.03.2022
3116 Snow -3 994 68 10000 1 0 23:59 23.03.2022
3117 Clouds -1 994 59 10000 5 260 22:18 23.03.2022
3118 Snow -3 993 39 10000 1 0 21:21 23.03.2022
3119 Snow -3 993 36 10000 2 0 19:56 23.03.2022
3120 Clouds -2 993 37 10000 1 0 19:25 23.03.2022
3121 Snow -1 995 31 10000 5 130 17:48 23.03.2022
3122 Clouds -1 995 31 10000 5 130 17:18 23.03.2022
3123 Clouds -1 996 34 10000 9 140 15:25 23.03.2022
3124 Clouds -1 996 31 10000 7 140 14:47 23.03.2022
3125 Clouds 1 997 19 10000 5 180 13:30 23.03.2022
3126 Clouds 3 1000 15 10000 3 220 10:50 23.03.2022
3127 Clouds 2 1003 17 10000 6 230 08:21 23.03.2022
3128 Clouds -1 1006 24 10000 4 240 05:50 23.03.2022
3129 Clear -10 1008 52 10000 1 0 02:28 23.03.2022
3130 Clear -18 1008 71 10000 1 0 00:26 23.03.2022
3131 Clear -17 1008 66 10000 1 0 21:40 22.03.2022
3132 Clear -16 1008 60 10000 1 0 20:59 22.03.2022
3133 Clear -16 1008 60 10000 1 0 20:18 22.03.2022
3134 Clear -12 1008 52 10000 2 0 19:26 22.03.2022
3135 Clear -12 1008 56 10000 2 0 18:46 22.03.2022
3136 Clear -11 1008 52 10000 1 0 17:43 22.03.2022
3137 Clear -12 1008 52 10000 3 170 16:39 22.03.2022
3138 Clear -12 1008 44 10000 1 0 15:41 22.03.2022
3139 Clear -12 1008 44 10000 1 0 15:19 22.03.2022
3140 Clear -6 1008 33 10000 1 0 14:42 22.03.2022
3141 Clear -4 1008 28 10000 5 290 13:42 22.03.2022
3142 Clouds 2 1007 12 10000 6 280 11:53 22.03.2022
3143 Clouds 2 1007 12 10000 7 270 10:54 22.03.2022
3144 Clouds 3 1007 13 10000 6 270 09:28 22.03.2022
3145 Clouds 2 1008 14 10000 5 330 07:30 22.03.2022
3146 Clear -6 1011 38 10000 1 0 03:57 22.03.2022
3147 Clear -17 1012 66 10000 0 0 00:50 22.03.2022
3148 Clear -14 1013 61 10000 0 0 22:48 21.03.2022
3149 Clear -13 1013 61 10000 1 0 21:30 21.03.2022
3150 Clear -11 1014 52 10000 2 0 20:44 21.03.2022
3151 Clear -11 1014 52 10000 2 0 20:23 21.03.2022
3152 Clear -10 1014 44 10000 3 150 19:45 21.03.2022
3153 Clear -6 1015 33 10000 2 0 18:48 21.03.2022
3154 Clear -7 1016 38 10000 2 0 17:36 21.03.2022
3155 Clear -7 1016 38 10000 2 0 16:59 21.03.2022
3156 Clear -5 1015 33 10000 6 160 16:27 21.03.2022
3157 Clear -6 1016 38 10000 7 150 15:43 21.03.2022
3158 Clear -10 1016 34 10000 4 170 14:36 21.03.2022
3159 Clear -9 1016 29 10000 3 200 13:20 21.03.2022
3160 Clear -3 1016 18 10000 3 220 11:58 21.03.2022
3161 Clear 0 1017 18 10000 3 210 11:25 21.03.2022
3162 Clear -1 1018 21 10000 4 230 09:49 21.03.2022
3163 Clear -1 1020 21 10000 4 230 07:39 21.03.2022
3164 Clouds -2 1021 24 10000 3 240 06:18 21.03.2022
3165 Clear -18 1022 78 8000 0 0 01:42 21.03.2022
3166 Clear -20 1021 77 10000 1 0 22:57 20.03.2022
3167 Clear -20 1021 77 10000 1 0 22:25 20.03.2022
3168 Clear -19 1020 71 10000 1 0 21:38 20.03.2022
3169 Clear -18 1020 71 10000 1 0 20:55 20.03.2022
3170 Clear -18 1020 71 10000 1 0 20:29 20.03.2022
3171 Clear -18 1020 71 10000 2 0 19:49 20.03.2022
3172 Clear -18 1020 71 10000 2 0 19:19 20.03.2022
3173 Clear -17 1019 71 10000 3 160 17:44 20.03.2022
3174 Clear -17 1019 71 10000 3 160 17:24 20.03.2022
3175 Clear -16 1018 72 10000 2 0 16:35 20.03.2022
3176 Clear -11 1017 57 10000 0 0 14:42 20.03.2022
3177 Clouds -7 1017 45 10000 2 0 13:38 20.03.2022
3178 Clouds -6 1016 42 10000 2 0 12:19 20.03.2022
3179 Clouds -4 1015 46 10000 4 180 09:59 20.03.2022
3180 Clouds -3 1015 36 10000 4 240 08:21 20.03.2022
3181 Clouds -5 1017 33 10000 2 0 06:37 20.03.2022
3182 Clear -10 1018 62 10000 2 0 03:18 20.03.2022
3183 Clear -20 1018 77 10000 2 0 00:53 20.03.2022
3184 Clear -20 1018 77 10000 2 0 00:28 20.03.2022
3185 Clear -20 1016 84 10000 3 180 22:25 19.03.2022
3186 Clear -17 1016 78 10000 2 0 21:26 19.03.2022
3187 Clear -17 1016 78 10000 2 0 21:26 19.03.2022
3188 Clear -16 1016 72 10000 1 0 19:29 19.03.2022
3189 Clear -15 1015 78 10000 2 0 18:38 19.03.2022
3190 Clear -15 1015 78 10000 2 0 17:49 19.03.2022
3191 Clear -15 1015 78 10000 2 0 16:57 19.03.2022
3192 Clear -10 1014 67 10000 5 360 15:29 19.03.2022
3193 Clear -9 1012 62 10000 6 330 13:49 19.03.2022
3194 Clear -9 1012 62 10000 6 330 12:56 19.03.2022
3195 Clear -7 1010 49 10000 8 330 12:36 19.03.2022
3196 Clear -5 1010 30 10000 8 330 11:45 19.03.2022
3197 Clouds -2 1008 31 10000 9 340 09:23 19.03.2022
3198 Clouds -7 1009 79 5000 3 50 05:44 19.03.2022
3199 Clouds -10 1010 62 8000 1 0 02:33 19.03.2022
3200 Clouds -13 1011 66 10000 1 0 23:52 18.03.2022
3201 Clouds -13 1011 61 10000 1 0 22:58 18.03.2022
3202 Clouds -13 1011 61 10000 1 0 22:21 18.03.2022
3203 Clouds -13 1013 56 10000 1 0 20:26 18.03.2022
3204 Clouds -12 1013 48 10000 2 0 19:25 18.03.2022
3205 Clouds -12 1013 48 10000 2 0 18:58 18.03.2022
3206 Clear -15 1014 56 10000 1 0 16:56 18.03.2022
3207 Clear -15 1015 56 10000 2 0 16:24 18.03.2022
3208 Clear -9 1015 38 10000 1 0 14:29 18.03.2022
3209 Clear -8 1015 32 10000 3 270 13:40 18.03.2022
3210 Clouds -4 1015 26 10000 3 290 11:37 18.03.2022
3211 Clouds -4 1016 24 10000 4 320 10:27 18.03.2022
3212 Clouds -3 1016 26 10000 4 330 08:46 18.03.2022
3213 Clear -4 1017 26 10000 4 340 06:59 18.03.2022
3214 Clear -5 1017 33 10000 6 300 04:55 18.03.2022
3215 Clear -14 1016 72 10000 1 0 01:38 18.03.2022
3216 Clear -17 1015 78 10000 1 0 23:59 17.03.2022
3217 Clear -18 1015 78 10000 0 0 22:50 17.03.2022
3218 Clear -18 1015 78 10000 0 0 22:19 17.03.2022
3219 Clear -13 1014 66 10000 0 0 21:30 17.03.2022
3220 Snow -10 1014 62 10000 1 0 20:54 17.03.2022
3221 Snow -10 1014 62 10000 1 0 20:20 17.03.2022
3222 Snow -12 1014 67 10000 0 0 19:38 17.03.2022
3223 Snow -10 1014 62 10000 2 0 18:53 17.03.2022
3224 Snow -7 1013 58 10000 2 0 17:40 17.03.2022
3225 Clouds -7 1013 58 10000 3 10 16:20 17.03.2022
3226 Clouds -6 1013 58 10000 3 10 15:43 17.03.2022
3227 Clouds -6 1013 58 10000 3 10 14:59 17.03.2022
3228 Clouds -5 1013 68 10000 4 330 13:47 17.03.2022
3229 Clouds -5 1012 63 10000 3 350 12:47 17.03.2022
3230 Clouds -4 1011 54 10000 1 0 11:36 17.03.2022
3231 Clouds -4 1012 58 10000 1 0 10:44 17.03.2022
3232 Clouds -4 1011 50 10000 1 0 09:37 17.03.2022
3233 Clouds -3 1012 46 10000 1 0 08:19 17.03.2022
3234 Clouds -6 1013 58 10000 6 140 05:51 17.03.2022
3235 Clouds -7 1014 63 6000 6 140 04:40 17.03.2022
3236 Clouds -12 1015 72 6000 2 0 00:27 17.03.2022
3237 Clouds -13 1016 61 10000 2 0 22:56 16.03.2022
3238 Clouds -13 1016 61 10000 2 0 22:36 16.03.2022
3239 Clouds -16 1017 66 10000 2 0 21:56 16.03.2022
3240 Clouds -13 1017 61 10000 1 0 20:40 16.03.2022
3241 Clouds -10 1018 48 10000 2 0 19:23 16.03.2022
3242 Clear -11 1019 52 10000 1 0 18:42 16.03.2022
3243 Clear -11 1019 52 10000 4 150 17:49 16.03.2022
3244 Clear -11 1019 52 10000 4 150 17:31 16.03.2022
3245 Clear -11 1020 48 10000 5 150 16:21 16.03.2022
3246 Clear -11 1020 52 10000 5 170 14:50 16.03.2022
3247 Clear -10 1020 37 10000 4 200 13:36 16.03.2022
3248 Clear -10 1020 37 10000 4 200 12:55 16.03.2022
3249 Clear -6 1020 23 10000 2 0 11:23 16.03.2022
3250 Clear -6 1021 19 10000 3 230 10:32 16.03.2022
3251 Clear -6 1021 19 10000 3 230 09:56 16.03.2022
3252 Clear -8 1023 23 10000 4 230 07:43 16.03.2022
3253 Clear -18 1026 65 10000 1 0 02:45 16.03.2022
3254 Clear -25 1024 70 10000 1 0 22:55 15.03.2022
3255 Clear -25 1024 77 10000 1 0 22:35 15.03.2022
3256 Clear -19 1023 71 10000 1 0 20:59 15.03.2022
3257 Clear -20 1023 71 10000 2 0 19:39 15.03.2022
3258 Clear -17 1021 66 10000 4 330 17:46 15.03.2022
3259 Clear -16 1020 60 10000 4 340 16:38 15.03.2022
3260 Clear -15 1020 61 10000 5 350 15:38 15.03.2022
3261 Clear -14 1019 61 10000 6 350 14:54 15.03.2022
3262 Clear -14 1019 61 10000 6 350 13:56 15.03.2022
3263 Clouds -13 1018 56 10000 4 350 13:22 15.03.2022
3264 Clear -10 1015 52 10000 8 340 11:33 15.03.2022
3265 Clouds -8 1014 45 10000 8 340 10:27 15.03.2022
3266 Clouds -7 1013 45 10000 9 350 09:24 15.03.2022
3267 Clouds -6 1013 45 10000 8 340 08:24 15.03.2022
3268 Clouds -8 1013 53 10000 5 350 07:36 15.03.2022
3269 Clouds -10 1012 57 10000 4 320 05:56 15.03.2022
3270 Clouds -14 1010 78 10000 1 0 00:31 15.03.2022
3271 Clear -14 1009 78 10000 4 330 23:29 14.03.2022
3272 Clear -13 1009 78 10000 4 340 22:50 14.03.2022
3273 Clouds -13 1009 78 10000 4 340 21:53 14.03.2022
3274 Clouds -13 1009 78 10000 4 340 20:55 14.03.2022
3275 Clouds -12 1009 72 10000 3 360 20:24 14.03.2022
3276 Clouds -11 1009 73 10000 3 10 19:24 14.03.2022
3277 Clouds -10 1008 73 10000 6 330 17:57 14.03.2022
3278 Clouds -9 1008 73 10000 4 330 17:39 14.03.2022
3279 Clouds -9 1006 79 10000 4 300 16:29 14.03.2022
3280 Clouds -7 1004 73 10000 4 350 14:47 14.03.2022
3281 Clouds -6 1003 73 10000 7 340 13:29 14.03.2022
3282 Clouds -2 1002 59 10000 4 310 11:26 14.03.2022
3283 Clouds 2 1001 38 10000 5 340 09:57 14.03.2022
3284 Clouds 4 1000 33 10000 4 320 09:34 14.03.2022
3285 Clouds 5 1000 28 10000 7 300 08:57 14.03.2022
3286 Clouds 5 1000 28 10000 7 300 08:26 14.03.2022
3287 Clear 5 1001 28 10000 3 230 06:19 14.03.2022
3288 Clouds 1 1003 44 10000 6 140 02:59 14.03.2022
3289 Clouds -9 1006 86 8000 0 0 01:39 14.03.2022
3290 Clouds -12 1007 85 10000 0 0 23:41 13.03.2022
3291 Clear -12 1009 85 10000 2 0 21:46 13.03.2022
3292 Clear -12 1009 85 10000 2 0 21:21 13.03.2022
3293 Clear -13 1010 85 10000 1 0 20:46 13.03.2022
3294 Clear -13 1010 85 10000 1 0 20:21 13.03.2022
3295 Clear -11 1011 85 10000 1 0 19:41 13.03.2022
3296 Clear -11 1011 85 10000 1 0 19:21 13.03.2022
3297 Clouds -11 1011 92 10000 1 0 18:41 13.03.2022
3298 Clouds -11 1011 92 10000 1 0 18:22 13.03.2022
3299 Clouds -9 1011 86 10000 0 0 17:36 13.03.2022
3300 Clouds -9 1011 86 10000 1 0 16:44 13.03.2022
3301 Clouds -9 1011 86 10000 1 0 16:21 13.03.2022
3302 Clouds -4 1012 80 10000 0 0 15:36 13.03.2022
3303 Clouds -4 1011 86 10000 1 0 14:36 13.03.2022
3304 Clouds -3 1010 80 10000 2 0 13:27 13.03.2022
3305 Clouds -1 1010 69 10000 4 300 12:21 13.03.2022
3306 Clouds 0 1010 59 10000 3 230 11:36 13.03.2022
3307 Snow 0 1009 64 8000 3 250 10:49 13.03.2022
3308 Snow 0 1009 64 8000 3 250 10:25 13.03.2022
3309 Snow 0 1008 55 10000 1 0 09:41 13.03.2022
3310 Snow 0 1008 59 10000 2 0 08:49 13.03.2022
3311 Snow 0 1008 59 10000 2 0 08:21 13.03.2022
3312 Clouds -1 1008 59 10000 1 0 05:59 13.03.2022
3313 Snow -5 1008 80 4000 1 0 03:33 13.03.2022
3314 Snow -6 1008 79 10000 2 0 00:48 13.03.2022
3315 Snow -6 1008 79 10000 1 0 22:48 12.03.2022
3316 Snow -5 1009 74 10000 3 30 20:59 12.03.2022
3317 Clouds -5 1010 63 10000 1 0 19:58 12.03.2022
3318 Clouds -5 1010 63 10000 1 0 19:39 12.03.2022
3319 Clouds -5 1010 46 10000 2 0 18:31 12.03.2022
3320 Clouds -5 1010 46 10000 1 0 17:46 12.03.2022
3321 Clouds -4 1010 46 10000 2 0 16:25 12.03.2022
3322 Clouds -6 1010 49 10000 1 0 15:24 12.03.2022
3323 Clouds -6 1011 49 10000 3 180 14:52 12.03.2022
3324 Clouds -6 1011 45 10000 2 0 13:53 12.03.2022
3325 Clouds -6 1011 45 10000 2 0 13:53 12.03.2022
3326 Clouds -5 1010 42 10000 2 0 12:25 12.03.2022
3327 Clouds -3 1010 36 10000 1 0 11:51 12.03.2022
3328 Clouds -3 1010 36 10000 1 0 11:20 12.03.2022
3329 Clouds -2 1010 34 10000 1 0 09:58 12.03.2022
3330 Clouds -2 1012 34 10000 2 0 09:39 12.03.2022
3331 Clear -4 1012 36 10000 6 290 07:51 12.03.2022
3332 Clear -7 1013 53 10000 5 290 05:20 12.03.2022
3333 Clouds -14 1013 78 10000 3 300 00:24 12.03.2022
3334 Clouds -13 1013 72 10000 2 0 23:28 11.03.2022
3335 Clouds -11 1011 79 10000 5 320 21:48 11.03.2022
3336 Clouds -11 1011 79 10000 5 320 20:58 11.03.2022
3337 Clear -10 1010 79 10000 5 320 20:37 11.03.2022
3338 Clear -9 1009 73 10000 1 0 19:54 11.03.2022
3339 Clear -9 1009 73 10000 1 0 19:27 11.03.2022
3340 Clouds -5 1007 68 10000 2 0 17:37 11.03.2022
3341 Clouds -5 1007 68 10000 2 0 17:18 11.03.2022
3342 Clouds 0 1005 51 10000 7 330 15:57 11.03.2022
3343 Clouds 2 1004 55 10000 1 0 14:22 11.03.2022
3344 Clouds 1 1002 32 10000 1 0 12:53 11.03.2022
3345 Clouds 1 1002 32 10000 1 0 12:21 11.03.2022
3346 Clouds 7 1001 19 10000 2 0 11:55 11.03.2022
3347 Clouds 8 1002 19 10000 5 230 10:18 11.03.2022
3348 Clouds 6 1003 21 10000 8 160 08:57 11.03.2022
3349 Clouds 6 1003 21 10000 8 160 08:24 11.03.2022
3350 Clouds 4 1005 22 10000 8 170 07:46 11.03.2022
3351 Clouds 3 1009 23 10000 6 170 05:49 11.03.2022
3352 Dust 2 1010 25 10000 13 140 03:49 11.03.2022
3353 Clouds -8 1013 57 10000 1 0 23:46 10.03.2022
3354 Clear -10 1014 73 10000 2 0 22:31 10.03.2022
3355 Clear -10 1015 67 10000 1 0 21:47 10.03.2022
3356 Clear -10 1015 67 10000 1 0 21:19 10.03.2022
3357 Clear -10 1017 73 10000 0 0 19:45 10.03.2022
3358 Clear -13 1017 85 10000 1 0 18:53 10.03.2022
3359 Clear -9 1018 73 10000 1 0 17:36 10.03.2022
3360 Clear -10 1018 73 10000 1 0 15:55 10.03.2022
3361 Clear -9 1018 67 10000 1 0 14:48 10.03.2022
3362 Clear -3 1018 46 10000 2 0 13:21 10.03.2022
3363 Clear 0 1017 32 10000 2 0 11:58 10.03.2022
3364 Clear 4 1017 22 10000 6 280 10:53 10.03.2022
3365 Clouds 5 1016 19 10000 6 310 09:18 10.03.2022
3366 Clouds 4 1017 24 10000 4 320 07:33 10.03.2022
3367 Clear -1 1017 40 8000 1 0 04:19 10.03.2022
3368 Clear -14 1016 78 10000 2 0 01:46 10.03.2022
3369 Clear -12 1015 72 10000 1 0 23:18 09.03.2022
3370 Clear -11 1014 73 10000 0 0 21:49 09.03.2022
3371 Clear -11 1014 73 10000 0 0 21:27 09.03.2022
3372 Clear -11 1013 73 10000 1 0 19:43 09.03.2022
3373 Clear -9 1012 67 10000 0 0 18:33 09.03.2022
3374 Clear -10 1012 67 10000 1 0 17:27 09.03.2022
3375 Clear -10 1012 67 10000 1 0 17:26 09.03.2022
3376 Clear -5 1012 54 10000 1 0 16:31 09.03.2022
3377 Clear -7 1012 58 10000 3 160 14:59 09.03.2022
3378 Clear -3 1011 39 10000 1 0 13:53 09.03.2022
3379 Clear 3 1010 20 10000 2 0 12:45 09.03.2022
3380 Clear 5 1010 16 10000 5 340 11:53 09.03.2022
3381 Clear 5 1010 16 10000 5 340 11:35 09.03.2022
3382 Clear 7 1010 14 10000 6 340 09:50 09.03.2022
3383 Clear 8 1009 17 10000 6 330 08:49 09.03.2022
3384 Clear 8 1009 13 10000 8 310 07:27 09.03.2022
3385 Clear -3 1009 63 10000 1 0 02:42 09.03.2022
3386 Clear -9 1007 79 10000 1 0 00:28 09.03.2022
3387 Clear -9 1006 73 10000 1 0 22:47 08.03.2022
3388 Clear -9 1006 73 10000 1 0 21:55 08.03.2022
3389 Clear -8 1006 73 10000 0 0 21:22 08.03.2022
3390 Clear -8 1006 73 10000 1 0 20:24 08.03.2022
3391 Clear -5 1006 58 10000 2 0 19:30 08.03.2022
3392 Clear 0 1006 40 10000 0 0 18:41 08.03.2022
3393 Clouds 3 1007 32 10000 1 0 16:59 08.03.2022
3394 Clouds 6 1007 26 10000 4 180 15:19 08.03.2022
3395 Clouds 7 1007 26 10000 8 160 14:18 08.03.2022
3396 Clouds 8 1008 25 10000 7 180 12:41 08.03.2022
3397 Clouds 9 1008 21 10000 6 170 11:44 08.03.2022
3398 Clouds 10 1009 20 10000 6 180 10:37 08.03.2022
3399 Clouds 9 1009 23 10000 5 160 08:58 08.03.2022
3400 Clear 10 1011 23 10000 7 170 06:34 08.03.2022
3401 Clear 0 1013 40 10000 1 0 04:25 08.03.2022
3402 Clear -12 1013 79 10000 1 0 22:57 07.03.2022
3403 Clear -10 1023 80 10000 1.78 78 21:46 07.03.2022
3404 Clear -10 1022 81 10000 1.43 74 21:27 07.03.2022
3405 Clear -9 1012 73 10000 1 0 20:38 07.03.2022
3406 Clear -10 1011 79 10000 0 0 19:50 07.03.2022
3407 Clear -10 1011 79 10000 0 0 19:24 07.03.2022
3408 Clear -8 1011 73 10000 1 0 18:38 07.03.2022
3409 Clear -7 1010 68 10000 1 0 17:33 07.03.2022
3410 Clear -7 1010 68 10000 1 0 16:55 07.03.2022
3411 Clear -3 1010 59 10000 2 0 14:57 07.03.2022
3412 Clear 2 1007 30 10000 2 0 12:35 07.03.2022
3413 Clouds -6 1016 80 10000 0.17 28 11:36 07.03.2022
3414 Clear 7 1006 21 10000 3 210 10:34 07.03.2022
3415 Clear 6 1006 21 10000 3 230 08:35 07.03.2022
3416 Clouds -7 1009 53 8000 1 0 02:56 07.03.2022
3417 Clouds -14 1010 78 8000 1 0 00:21 07.03.2022
3418 Clear -16 1009 78 10000 1 0 23:26 06.03.2022
3419 Clear -16 1010 85 10000 1 0 22:29 06.03.2022
3420 Clear -15 1010 72 10000 1 0 21:44 06.03.2022
3421 Clear -13 1011 72 10000 1 0 20:29 06.03.2022
3422 Clear -12 1012 72 10000 1 0 19:43 06.03.2022
3423 Clear -12 1012 72 10000 1 0 18:50 06.03.2022
3424 Clear -10 1013 67 10000 1 0 17:49 06.03.2022
3425 Clear -10 1013 67 10000 1 0 17:20 06.03.2022
3426 Clear -10 1014 67 10000 1 0 16:40 06.03.2022
3427 Clear -7 1014 58 10000 2 0 15:31 06.03.2022
3428 Clear -7 1014 63 10000 4 160 14:42 06.03.2022
3429 Clear -7 1014 63 10000 4 160 13:49 06.03.2022
3430 Clear -3 1014 43 10000 3 230 12:40 06.03.2022
3431 Clear -12 1025 93 10000 0.89 143 11:46 06.03.2022
3432 Clear 1 1013 27 10000 5 290 10:43 06.03.2022
3433 Clear 1 1013 27 10000 5 280 09:21 06.03.2022
3434 Clear 2 1013 25 10000 6 270 08:28 06.03.2022
3435 Clear 1 1013 27 10000 5 260 07:26 06.03.2022
3436 Clouds -14 1011 72 8000 0 0 02:45 06.03.2022
3437 Snow -17 1009 78 10000 1 0 00:36 06.03.2022
3438 Clear -17 1009 78 10000 1 0 00:18 06.03.2022
3439 Clear -16 1008 72 10000 1 0 23:19 05.03.2022
3440 Clouds -15 1008 72 7000 1 170 22:34 05.03.2022
3441 Clear -14 1007 72 10000 1 0 21:29 05.03.2022
3442 Clear -15 1007 72 10000 1 0 20:38 05.03.2022
3443 Clear -13 1007 66 10000 1 0 19:22 05.03.2022
3444 Clear -13 1007 66 10000 1 0 18:39 05.03.2022
3445 Clear -11 1007 67 10000 2 0 17:34 05.03.2022
3446 Clear -10 1007 62 10000 1 0 16:19 05.03.2022
3447 Clear -5 1007 39 10000 0 0 15:20 05.03.2022
3448 Clouds -4 1007 39 10000 1 0 14:36 05.03.2022
3449 Clouds -5 1007 50 10000 4 170 13:42 05.03.2022
3450 Clouds -1 1007 40 10000 2 0 12:40 05.03.2022
3451 Clouds 1 1007 27 10000 3 170 11:20 05.03.2022
3452 Clouds 2 1008 25 10000 5 180 10:52 05.03.2022
3453 Clouds 1 1008 25 10000 6 170 09:33 05.03.2022
3454 Clouds 0 1010 25 10000 6 180 08:28 05.03.2022
3455 Clouds -1 1011 29 10000 7 190 07:21 05.03.2022
3456 Clouds -6 1013 35 8000 1 0 05:25 05.03.2022
3457 Clear -25 1015 77 10000 1 0 00:33 05.03.2022
3458 Clear -24 1016 70 10000 1 0 22:45 04.03.2022
3459 Clear -24 1016 70 10000 1 0 22:25 04.03.2022
3460 Clear -22 1016 71 10000 0 0 21:43 04.03.2022
3461 Clear -23 1016 70 10000 1 0 20:39 04.03.2022
3462 Clear -23 1016 70 10000 1 0 19:37 04.03.2022
3463 Clear -23 1016 70 10000 1 0 18:54 04.03.2022
3464 Clear -22 1016 64 10000 1 0 18:33 04.03.2022
3465 Clear -21 1016 71 10000 2 0 17:29 04.03.2022
3466 Clear -17 1016 60 10000 1 0 15:54 04.03.2022
3467 Clear -17 1016 60 10000 1 0 15:24 04.03.2022
3468 Clear -17 1016 66 10000 2 0 13:35 04.03.2022
3469 Clear -11 1015 44 10000 4 270 12:38 04.03.2022
3470 Clear -8 1015 35 10000 6 270 11:37 04.03.2022
3471 Clear -7 1014 35 10000 6 260 10:24 04.03.2022
3472 Clear -7 1014 35 10000 5 280 09:27 04.03.2022
3473 Clear -8 1013 38 10000 7 280 07:48 04.03.2022
3474 Clouds -10 1014 48 10000 6 280 05:49 04.03.2022
3475 Clouds -18 1013 60 10000 2 0 01:23 04.03.2022
3476 Clouds -16 1012 66 10000 1 0 23:31 03.03.2022
3477 Clouds -15 1012 66 10000 1 0 22:18 03.03.2022
3478 Clouds -14 1013 66 10000 1 0 21:36 03.03.2022
3479 Clouds -13 1013 78 10000 3 270 20:44 03.03.2022
3480 Clouds -14 1013 85 10000 1 0 19:22 03.03.2022
3481 Snow -14 1012 66 10000 4 320 18:25 03.03.2022
3482 Snow -18 1012 71 10000 0 0 17:31 03.03.2022
3483 Snow -15 1011 66 10000 4 290 16:41 03.03.2022
3484 Clouds -14 1010 66 10000 4 320 15:44 03.03.2022
3485 Clouds -12 1008 67 10000 2 0 14:44 03.03.2022
3486 Clouds -12 1008 67 10000 2 0 14:25 03.03.2022
3487 Clouds -9 1005 67 10000 7 340 12:33 03.03.2022
3488 Clouds -8 1004 67 10000 6 330 11:23 03.03.2022
3489 Clouds -6 1003 53 10000 8 330 10:21 03.03.2022
3490 Clouds -2 1001 46 10000 10 310 08:42 03.03.2022
3491 Clouds -1 1000 34 10000 8 330 06:57 03.03.2022
3492 Clouds -3 1000 39 10000 4 260 05:37 03.03.2022
3493 Clouds -16 1000 78 8000 2 0 23:57 02.03.2022
3494 Clear -15 1000 72 10000 1 0 23:00 02.03.2022
3495 Clear -15 1001 78 10000 1 0 22:40 02.03.2022
3496 Clear -17 1001 78 10000 1 0 21:22 02.03.2022
3497 Clear -17 1002 78 10000 1 0 20:26 02.03.2022
3498 Clear -17 1003 71 10000 1 0 19:41 02.03.2022
3499 Clear -17 1003 71 10000 1 0 19:23 02.03.2022
3500 Clear -17 1003 71 10000 3 160 18:35 02.03.2022
3501 Clear -15 1003 72 10000 1 0 17:42 02.03.2022
3502 Clear -13 1004 72 10000 1 0 16:53 02.03.2022
3503 Clear -13 1004 72 10000 1 0 16:18 02.03.2022
3504 Clear -11 1004 67 10000 3 150 14:32 02.03.2022
3505 Clear -9 1005 62 10000 2 0 12:58 02.03.2022
3506 Clear -7 1004 63 10000 3 150 12:35 02.03.2022
3507 Clear 0 1004 32 10000 2 0 11:28 02.03.2022
3508 Clouds 1 1005 23 10000 4 200 10:50 02.03.2022
3509 Clouds 1 1006 27 10000 5 220 09:37 02.03.2022
3510 Clouds 1 1007 29 10000 5 210 08:36 02.03.2022
3511 Clouds -1 1008 37 10000 3 260 07:23 02.03.2022
3512 Clouds -6 1010 45 8000 1 0 05:42 02.03.2022
3513 Clear -22 1011 77 10000 1 0 00:40 02.03.2022
3514 Clear -22 1011 77 10000 1 0 23:35 01.03.2022
3515 Clear -21 1011 71 10000 1 0 22:40 01.03.2022
3516 Clear -21 1011 77 10000 2 0 21:53 01.03.2022
3517 Clear -20 1011 71 10000 1 0 20:41 01.03.2022
3518 Clear -20 1011 71 10000 1 0 20:20 01.03.2022
3519 Clear -20 1011 71 10000 1 0 18:58 01.03.2022
3520 Clear -15 1011 72 10000 1 0 18:25 01.03.2022
3521 Clear -17 1011 66 10000 1 0 17:54 01.03.2022
3522 Clear -17 1011 71 10000 2 0 16:37 01.03.2022
3523 Clear -16 1011 72 10000 3 170 15:48 01.03.2022
3524 Clear -14 1011 72 10000 3 170 14:54 01.03.2022
3525 Clear -14 1011 72 10000 3 170 14:31 01.03.2022
3526 Clear -11 1010 57 10000 1 0 13:26 01.03.2022
3527 Clear -5 1010 39 10000 3 310 12:38 01.03.2022
3528 Clouds -14 1023 85 10000 1.08 307 11:38 01.03.2022
3529 Clear 0 1009 27 10000 5 260 09:53 01.03.2022
3530 Clear -1 1009 29 10000 7 270 08:31 01.03.2022
3531 Clouds -1 1009 29 10000 6 260 07:32 01.03.2022
3532 Clouds -13 1012 66 8000 1 0 03:27 01.03.2022
3533 Clear -23 1012 70 10000 1 0 00:49 01.03.2022
3534 Clear -24 1012 77 10000 2 0 23:47 28.02.2022
3535 Clear -23 1013 77 10000 2 0 22:50 28.02.2022
3536 Clear -21 1014 77 10000 1 0 21:48 28.02.2022
3537 Clear -21 1015 77 10000 1 0 20:56 28.02.2022
3538 Clear -20 1015 84 10000 1 0 19:51 28.02.2022
3539 Clear -20 1015 84 10000 1 0 19:22 28.02.2022
3540 Clear -17 1016 71 10000 1 0 18:35 28.02.2022
3541 Clear -14 1017 72 10000 1 0 17:23 28.02.2022
3542 Clear -14 1017 72 10000 4 180 16:32 28.02.2022
3543 Clear -14 1019 72 10000 4 170 15:21 28.02.2022
3544 Clear -16 1019 72 10000 3 180 14:29 28.02.2022
3545 Clear -13 1020 66 10000 4 170 13:24 28.02.2022
3546 Clear -11 1020 62 10000 3 190 12:31 28.02.2022
3547 Clear -7 1020 49 10000 4 250 11:37 28.02.2022
3548 Clear -6 1020 42 10000 3 260 10:24 28.02.2022
3549 Clear -6 1021 42 10000 4 280 09:59 28.02.2022
3550 Clear -6 1021 42 10000 4 280 09:27 28.02.2022
3551 Clear -7 1021 42 10000 4 280 08:26 28.02.2022
3552 Clear -9 1022 57 10000 3 230 06:53 28.02.2022
3553 Clouds -12 1023 67 10000 4 220 04:31 28.02.2022
3554 Clouds -17 1022 85 10000 1 0 02:41 28.02.2022
3555 Clear -23 1021 77 10000 3 160 23:19 27.02.2022
3556 Clear -24 1020 77 10000 3 170 22:33 27.02.2022
3557 Clear -24 1021 77 10000 2 0 21:47 27.02.2022
3558 Clear -24 1021 77 10000 2 0 20:54 27.02.2022
3559 Clear -19 1021 78 10000 1 0 20:27 27.02.2022
3560 Clear -19 1021 78 10000 1 0 19:56 27.02.2022
3561 Clear -17 1021 78 10000 2 0 19:26 27.02.2022
3562 Clear -12 1020 67 10000 4 360 18:39 27.02.2022
3563 Clouds -11 1020 67 10000 4 350 17:53 27.02.2022
3564 Clouds -10 1020 67 10000 5 340 16:36 27.02.2022
3565 Clouds -9 1019 62 10000 6 350 15:42 27.02.2022
3566 Clouds -7 1016 68 10000 4 360 12:53 27.02.2022
3567 Clouds -7 1016 68 10000 4 360 12:29 27.02.2022
3568 Snow -5 1014 63 10000 7 340 10:50 27.02.2022
3569 Snow -5 1014 63 10000 7 340 09:58 27.02.2022
3570 Clouds -4 1013 58 10000 6 350 09:27 27.02.2022
3571 Clouds -4 1013 58 10000 6 350 08:59 27.02.2022
3572 Snow -5 1013 54 8000 1 0 06:43 27.02.2022
3573 Snow -8 1013 62 8000 1 0 05:35 27.02.2022
3574 Clouds -18 1012 78 8000 0 0 00:37 27.02.2022
3575 Clear -19 1011 78 10000 1 0 22:51 26.02.2022
3576 Clear -19 1011 78 10000 1 0 21:38 26.02.2022
3577 Clear -20 1012 77 10000 1 0 20:48 26.02.2022
3578 Clear -20 1011 77 10000 2 0 19:59 26.02.2022
3579 Clear -20 1011 77 10000 2 0 19:59 26.02.2022
3580 Clear -20 1011 77 10000 2 0 19:34 26.02.2022
3581 Clear -20 1011 77 10000 2 0 18:46 26.02.2022
3582 Clear -18 1011 78 10000 2 0 17:40 26.02.2022
3583 Clear -18 1011 78 10000 1 0 16:48 26.02.2022
3584 Clear -17 1011 71 10000 2 0 15:48 26.02.2022
3585 Clear -17 1011 71 10000 2 0 15:20 26.02.2022
3586 Clear -14 1011 72 10000 2 0 14:52 26.02.2022
3587 Clear -14 1011 72 10000 2 0 14:25 26.02.2022
3588 Clear -13 1011 72 10000 1 0 13:18 26.02.2022
3589 Clear -10 1011 67 10000 3 170 12:20 26.02.2022
3590 Clear -4 1011 54 10000 2 0 11:28 26.02.2022
3591 Clear -3 1012 50 10000 3 160 10:39 26.02.2022
3592 Clear -4 1013 50 10000 3 220 08:48 26.02.2022
3593 Clouds -7 1015 53 8000 2 0 06:51 26.02.2022
3594 Clouds -21 1016 77 8000 0 0 00:50 26.02.2022
3595 Clouds -23 1017 77 8000 0 0 22:47 25.02.2022
3596 Clouds -22 1017 77 8000 1 0 21:40 25.02.2022
3597 Clouds -22 1017 77 8000 1 0 21:21 25.02.2022
3598 Clouds -21 1018 84 10000 1 0 20:32 25.02.2022
3599 Clear -22 1018 77 10000 0 0 18:59 25.02.2022
3600 Clear -20 1019 84 10000 2 0 17:27 25.02.2022
3601 Clear -20 1020 77 10000 3 170 16:24 25.02.2022
3602 Clear -20 1020 77 10000 2 0 15:43 25.02.2022
3603 Clear -20 1020 77 10000 2 0 15:21 25.02.2022
3604 Clear -19 1020 78 10000 1 0 14:42 25.02.2022
3605 Clear -13 1020 85 10000 1 0 13:36 25.02.2022
3606 Clear -13 1020 85 10000 1 0 12:56 25.02.2022
3607 Clouds -7 1020 68 10000 5 290 11:28 25.02.2022
3608 Clouds -6 1020 58 10000 5 330 10:40 25.02.2022
3609 Clouds -6 1020 58 10000 5 330 10:22 25.02.2022
3610 Clouds -7 1020 63 10000 4 320 09:18 25.02.2022
3611 Clouds -5 1020 42 10000 6 320 07:41 25.02.2022
3612 Clear -6 1021 58 10000 2 0 05:49 25.02.2022
3613 Clear -8 1021 62 10000 1 0 04:41 25.02.2022
3614 Clouds -18 1020 78 8000 1 0 00:22 25.02.2022
3615 Clouds -16 1018 78 10000 2 0 21:58 24.02.2022
3616 Clouds -16 1018 78 10000 2 0 21:58 24.02.2022
3617 Clouds -16 1018 78 10000 2 0 21:39 24.02.2022
3618 Clouds -16 1018 78 10000 2 0 21:19 24.02.2022
3619 Clouds -18 1018 71 10000 3 170 19:42 24.02.2022
3620 Clouds -18 1017 78 10000 2 0 18:44 24.02.2022
3621 Clouds -18 1017 78 10000 2 0 18:19 24.02.2022
3622 Clouds -17 1018 78 10000 3 170 17:34 24.02.2022
3623 Clouds -16 1017 78 10000 3 190 16:50 24.02.2022
3624 Clouds -16 1017 78 10000 3 190 16:24 24.02.2022
3625 Clouds -18 1017 78 10000 2 0 14:56 24.02.2022
3626 Clouds -13 1016 61 10000 1 0 14:36 24.02.2022
3627 Clouds -14 1016 66 10000 2 0 13:40 24.02.2022
3628 Clouds -11 1015 62 10000 1 0 12:54 24.02.2022
3629 Clear -5 1015 54 10000 3 200 10:41 24.02.2022
3630 Clear -4 1015 46 10000 3 220 09:24 24.02.2022
3631 Clear -5 1015 50 10000 4 200 08:41 24.02.2022
3632 Clouds -10 1017 52 8000 1 0 05:58 24.02.2022
3633 Clear -22 1017 77 6000 1 0 01:58 24.02.2022
3634 Clear -26 1017 76 8000 1 0 23:40 23.02.2022
3635 Clear -24 1018 77 10000 1 0 21:43 23.02.2022
3636 Clear -25 1018 77 10000 1 0 20:31 23.02.2022
3637 Clear -25 1019 77 10000 0 0 19:48 23.02.2022
3638 Clear -24 1019 77 10000 1 0 18:42 23.02.2022
3639 Clear -22 1019 77 10000 1 0 17:44 23.02.2022
3640 Clear -22 1020 71 10000 2 0 15:26 23.02.2022
3641 Clear -17 1021 71 10000 2 0 13:28 23.02.2022
3642 Clear -15 1020 72 10000 3 160 12:24 23.02.2022
3643 Clear -5 1020 42 10000 2 0 10:44 23.02.2022
3644 Clear -6 1021 49 10000 2 0 09:00 23.02.2022
3645 Clear -6 1021 42 10000 3 240 08:23 23.02.2022
3646 Clear -7 1022 49 10000 1 0 07:18 23.02.2022
3647 Clear -28 1024 69 8000 1 0 01:21 23.02.2022
3648 Clear -27 1023 69 8000 1 0 23:39 22.02.2022
3649 Clear -26 1023 64 8000 1 0 22:51 22.02.2022
3650 Clear -27 1024 69 10000 1 0 21:56 22.02.2022
3651 Clear -27 1024 69 10000 1 0 21:37 22.02.2022
3652 Clear -27 1024 69 10000 1 0 21:18 22.02.2022
3653 Clear -27 1024 69 10000 1 0 20:31 22.02.2022
3654 Clear -27 1024 76 10000 1 0 19:51 22.02.2022
3655 Clear -27 1024 76 10000 1 0 19:31 22.02.2022
3656 Clear -26 1024 76 10000 1 0 18:23 22.02.2022
3657 Clear -26 1024 76 10000 1 0 17:26 22.02.2022
3658 Clear -25 1025 77 10000 1 0 16:41 22.02.2022
3659 Clear -22 1025 84 10000 2 0 15:59 22.02.2022
3660 Clear -22 1025 77 10000 2 0 14:48 22.02.2022
3661 Clear -18 1025 78 10000 3 170 12:48 22.02.2022
3662 Clear -10 1025 62 10000 3 210 10:53 22.02.2022
3663 Clear -9 1026 62 10000 2 0 08:53 22.02.2022
3664 Clouds -11 1027 62 8000 2 0 07:27 22.02.2022
3665 Clouds -12 1027 61 8000 1 0 06:52 22.02.2022
3666 Clear -25 1029 70 6000 0 0 02:47 22.02.2022
3667 Clear -29 1029 69 10000 1 0 23:18 21.02.2022
3668 Clear -28 1030 69 10000 2 0 21:56 21.02.2022
3669 Clear -27 1030 76 10000 1 0 20:38 21.02.2022
3670 Clear -27 1030 69 10000 1 0 18:47 21.02.2022
3671 Clear -26 1030 70 10000 2 0 17:41 21.02.2022
3672 Clear -26 1030 70 10000 2 0 17:41 21.02.2022
3673 Clear -25 1030 70 10000 3 160 15:26 21.02.2022
3674 Clear -25 1030 70 10000 2 0 14:22 21.02.2022
3675 Clear -20 1030 71 10000 2 0 13:30 21.02.2022
3676 Clear -15 1030 66 10000 2 0 12:24 21.02.2022
3677 Clear -13 1029 61 10000 2 0 11:20 21.02.2022
3678 Clear -12 1029 61 10000 5 320 10:23 21.02.2022
3679 Clear -14 1029 72 10000 5 310 05:35 21.02.2022
3680 Clouds -26 1026 70 10000 1 0 00:20 21.02.2022
3681 Clouds -26 1025 70 10000 1 0 22:28 20.02.2022
3682 Clouds -26 1024 76 10000 0 0 21:43 20.02.2022
3683 Clouds -26 1024 76 10000 0 0 21:19 20.02.2022
3684 Clouds -19 1024 84 10000 1 0 20:41 20.02.2022
3685 Clouds -20 1024 77 10000 0 0 19:42 20.02.2022
3686 Clouds -19 1024 78 10000 1 0 18:54 20.02.2022
3687 Clouds -19 1024 78 10000 1 0 18:34 20.02.2022
3688 Clouds -19 1024 78 10000 2 0 17:52 20.02.2022
3689 Clouds -18 1023 78 10000 2 0 15:54 20.02.2022
3690 Clouds -15 1023 78 10000 3 320 14:52 20.02.2022
3691 Clouds -16 1023 78 10000 1 0 13:33 20.02.2022
3692 Clouds -16 1022 78 10000 3 310 12:34 20.02.2022
3693 Snow -13 1022 78 6000 5 330 10:47 20.02.2022
3694 Clouds -13 1022 78 6000 5 330 10:20 20.02.2022
3695 Clouds -12 1022 72 5000 4 310 08:51 20.02.2022
3696 Clear -28 1022 69 10000 0 0 00:55 20.02.2022
3697 Clear -28 1022 69 10000 0 0 00:30 20.02.2022
3698 Clear -29 1022 69 10000 0 0 23:18 19.02.2022
3699 Clear -29 1022 69 10000 0 0 22:23 19.02.2022
3700 Clear -29 1022 69 10000 1 0 21:34 19.02.2022
3701 Clear -28 1022 69 10000 2 0 19:54 19.02.2022
3702 Clear -28 1022 69 10000 2 0 19:33 19.02.2022
3703 Clear -29 1023 69 10000 2 0 18:35 19.02.2022
3704 Clear -30 1023 69 10000 1 0 17:37 19.02.2022
3705 Clear -29 1023 69 10000 2 0 16:28 19.02.2022
3706 Clear -28 1022 69 10000 1 0 15:18 19.02.2022
3707 Clear -25 1022 70 10000 3 160 14:49 19.02.2022
3708 Clear -23 1022 64 10000 2 0 13:45 19.02.2022
3709 Clear -15 1021 47 10000 3 260 11:38 19.02.2022
3710 Clear -13 1021 40 10000 5 260 09:57 19.02.2022
3711 Clouds -16 1024 51 8000 3 220 06:58 19.02.2022
3712 Smoke -21 1025 71 5000 0 0 03:54 19.02.2022
3713 Clouds -33 1025 68 8000 1 0 23:33 18.02.2022
3714 Clear -32 1026 68 10000 1 0 21:50 18.02.2022
3715 Clear -29 1027 76 10000 1 0 20:51 18.02.2022
3716 Clear -29 1027 69 10000 1 0 19:53 18.02.2022
3717 Clear -30 1027 69 10000 1 0 18:50 18.02.2022
3718 Clear -30 1027 69 10000 1 0 18:22 18.02.2022
3719 Clear -29 1027 69 10000 2 0 17:50 18.02.2022
3720 Clear -28 1028 69 10000 3 170 14:50 18.02.2022
3721 Clear -28 1028 69 10000 3 170 13:55 18.02.2022
3722 Clear -27 1028 69 10000 1 0 12:53 18.02.2022
3723 Clear -18 1028 55 10000 1 0 12:32 18.02.2022
3724 Clear -16 1027 51 10000 3 340 11:27 18.02.2022
3725 Clouds -14 1027 47 10000 4 320 10:23 18.02.2022
3726 Clouds -17 1028 60 10000 5 240 06:56 18.02.2022
3727 Clear -18 1028 60 10000 2 0 05:39 18.02.2022
3728 Clear -32 1026 68 10000 1 0 23:24 17.02.2022
3729 Clear -31 1025 69 10000 1 0 21:45 17.02.2022
3730 Clear -31 1025 69 10000 1 0 21:19 17.02.2022
3731 Clear -30 1025 69 10000 2 0 20:36 17.02.2022
3732 Clear -30 1025 69 10000 2 0 19:48 17.02.2022
3733 Clear -30 1024 69 10000 2 0 18:41 17.02.2022
3734 Clear -24 1023 70 10000 0 0 17:50 17.02.2022
3735 Clear -23 1023 70 10000 3 280 16:25 17.02.2022
3736 Clouds -21 1022 71 10000 1 0 15:30 17.02.2022
3737 Clouds -18 1021 60 10000 4 350 14:25 17.02.2022
3738 Clouds -17 1020 66 10000 6 340 12:35 17.02.2022
3739 Clouds -17 1018 66 10000 8 340 11:21 17.02.2022
3740 Clouds -15 1016 56 10000 9 340 08:45 17.02.2022
3741 Clouds -26 1011 76 10000 1 0 00:31 17.02.2022
3742 Clouds -25 1010 77 10000 1 0 22:59 16.02.2022
3743 Clouds -22 1010 84 10000 1 0 21:25 16.02.2022
3744 Clouds -18 1010 85 10000 1 0 19:43 16.02.2022
3745 Clouds -17 1010 78 10000 1 0 18:36 16.02.2022
3746 -273 0 0 0 0 0 17:41 16.02.2022
3747 -273 0 0 0 0 0 17:37 16.02.2022
3748 Clouds -14 1011 66 10000 1 0 15:30 16.02.2022
3749 Clouds -17 1010 66 10000 1 0 14:57 16.02.2022
3750 Clouds -12 1010 56 10000 1 0 12:34 16.02.2022
3751 Clouds -11 1010 52 10000 5 130 11:53 16.02.2022
3752 Clouds -11 1010 52 10000 5 130 11:23 16.02.2022
3753 Clouds -11 1011 52 10000 6 140 10:29 16.02.2022
3754 Clouds -15 1013 47 8000 1 0 06:57 16.02.2022
3755 Clouds -21 1015 65 8000 0 0 04:42 16.02.2022
3756 Clouds -32 1016 68 8000 1 0 23:35 15.02.2022
3757 Clouds -32 1016 62 8000 1 0 22:18 15.02.2022
3758 Clouds -30 1017 69 8000 0 0 21:45 15.02.2022
3759 Clouds -30 1017 69 8000 0 0 21:26 15.02.2022
3760 Clear -32 1017 68 10000 0 0 20:53 15.02.2022
3761 Clear -32 1017 62 10000 1 0 19:48 15.02.2022
3762 Clear -33 1017 68 10000 1 0 18:45 15.02.2022
3763 Clear -33 1017 68 10000 1 0 18:19 15.02.2022
3764 Clear -31 1017 69 10000 1 0 17:47 15.02.2022
3765 Clear -30 1017 69 10000 2 0 16:30 15.02.2022
3766 Clear -29 1017 63 10000 2 0 14:47 15.02.2022
3767 Clear -25 1017 64 10000 2 0 13:26 15.02.2022
3768 Clear -23 1017 64 10000 2 0 11:54 15.02.2022
3769 Clear -18 1017 60 10000 3 230 10:57 15.02.2022
3770 Clear -17 1017 55 10000 3 230 09:25 15.02.2022
3771 Clouds -20 1018 65 8000 1 0 06:48 15.02.2022
3772 Clouds -35 1019 61 6000 1 0 00:26 15.02.2022
3773 Clear -35 1019 68 10000 1 0 22:20 14.02.2022
3774 Clear -33 1019 62 10000 1 0 21:24 14.02.2022
3775 Clear -33 1019 68 10000 2 0 20:24 14.02.2022
3776 Clear -33 1019 68 10000 1 0 19:30 14.02.2022
3777 Clear -29 1019 69 10000 1 0 18:27 14.02.2022
3778 Clear -31 1019 69 10000 2 0 17:43 14.02.2022
3779 Clear -31 1019 69 10000 2 0 17:43 14.02.2022
3780 Clear -31 1019 69 10000 2 0 17:43 14.02.2022
3781 Clear -31 1019 69 10000 2 0 17:23 14.02.2022
3782 Clouds -27 1019 69 10000 2 0 15:58 14.02.2022
3783 Clouds -22 1018 71 10000 1 0 13:40 14.02.2022
3784 Clouds -22 1018 71 10000 1 0 13:22 14.02.2022
3785 Clouds -25 1018 70 10000 2 0 12:32 14.02.2022
3786 Clouds -20 1018 65 10000 2 0 11:47 14.02.2022
3787 Clouds -17 1018 60 10000 2 0 10:25 14.02.2022
3788 Clouds -17 1017 55 10000 3 170 08:34 14.02.2022
3789 Clouds -16 1018 51 10000 4 150 07:26 14.02.2022
3790 Clouds -28 1018 69 6000 1 0 23:37 13.02.2022
3791 Clouds -28 1018 69 8000 0 0 22:41 13.02.2022
3792 Clouds -28 1018 69 8000 0 0 22:23 13.02.2022
3793 Clouds -29 1019 76 8000 1 0 21:27 13.02.2022
3794 Clouds -27 1019 69 8000 0 0 20:30 13.02.2022
3795 Clouds -29 1019 69 8000 1 0 19:24 13.02.2022
3796 Clear -31 1019 69 10000 0 0 18:42 13.02.2022
3797 Clear -33 1019 68 10000 1 0 17:52 13.02.2022
3798 Clear -30 1019 69 10000 2 0 15:54 13.02.2022
3799 Clear -30 1019 69 10000 2 0 15:54 13.02.2022
3800 Clear -28 1020 69 10000 1 0 14:57 13.02.2022
3801 Clear -28 1020 69 10000 1 0 13:59 13.02.2022
3802 Clear -26 1019 70 10000 3 170 12:49 13.02.2022
3803 Clear -22 1019 71 10000 3 180 11:24 13.02.2022
3804 Clear -19 1019 60 10000 2 0 10:28 13.02.2022
3805 Clear -19 1019 65 10000 3 190 09:36 13.02.2022
3806 Clouds -21 1020 65 6000 2 0 06:22 13.02.2022
3807 Clouds -35 1020 61 8000 0 0 00:35 13.02.2022
3808 Clouds -34 1020 68 8000 1 0 23:39 12.02.2022
3809 Clouds -34 1020 62 8000 1 0 22:33 12.02.2022
3810 Clear -33 1020 68 10000 0 0 21:19 12.02.2022
3811 Clear -33 1021 62 10000 1 0 20:32 12.02.2022
3812 Clear -30 1021 69 10000 1 0 19:21 12.02.2022
3813 Clear -31 1021 62 10000 2 0 18:50 12.02.2022
3814 Clear -31 1021 62 10000 2 0 18:32 12.02.2022
3815 Clear -31 1021 76 10000 2 0 16:55 12.02.2022
3816 Clear -30 1022 76 10000 2 0 16:25 12.02.2022
3817 Clear -29 1022 69 10000 2 0 15:49 12.02.2022
3818 Clear -30 1022 69 10000 2 0 14:30 12.02.2022
3819 Clear -22 1022 59 10000 1 0 12:55 12.02.2022
3820 Clear -18 1021 55 10000 4 260 10:36 12.02.2022
3821 Clear -16 1021 47 10000 5 300 09:39 12.02.2022
3822 Clear -17 1022 55 10000 2 0 08:48 12.02.2022
3823 Clear -19 1022 55 10000 1 0 07:50 12.02.2022
3824 Clouds -23 1024 70 6000 1 0 05:33 12.02.2022
3825 Clouds -27 1025 69 6000 0 0 03:32 12.02.2022
3826 Clear -35 1025 68 6000 1 0 02:18 12.02.2022
3827 Clear -34 1025 68 10000 2 0 22:28 11.02.2022
3828 Clear -33 1025 68 10000 2 0 21:47 11.02.2022
3829 Clear -33 1025 68 10000 2 0 20:39 11.02.2022
3830 Clear -32 1025 68 10000 1 0 19:35 11.02.2022
3831 Clear -31 1025 62 10000 2 0 18:59 11.02.2022
3832 Clear -28 1026 69 10000 1 0 17:41 11.02.2022
3833 Clear -28 1026 69 10000 1 0 17:22 11.02.2022
3834 Clear -29 1026 69 10000 2 0 15:55 11.02.2022
3835 Clear -28 1025 69 10000 2 0 14:38 11.02.2022
3836 Clear -28 1025 69 10000 2 0 14:20 11.02.2022
3837 Clear -26 1025 64 10000 1 0 13:50 11.02.2022
3838 Clear -26 1025 64 10000 1 0 13:31 11.02.2022
3839 Clear -20 1024 54 10000 4 300 11:27 11.02.2022
3840 Clear -17 1023 51 10000 7 310 09:45 11.02.2022
3841 Clear -17 1023 51 10000 7 310 08:40 11.02.2022
3842 Clear -17 1023 51 10000 7 310 08:22 11.02.2022
3843 Clear -18 1025 60 10000 4 270 06:33 11.02.2022
3844 Clear -31 1026 69 10000 3 160 02:25 11.02.2022
3845 Clear -30 1024 76 10000 1 0 00:46 11.02.2022
3846 Clear -30 1024 69 10000 2 0 22:45 10.02.2022
3847 Clear -28 1024 69 10000 2 0 21:45 10.02.2022
3848 Clear -30 1024 76 10000 1 0 20:54 10.02.2022
3849 Clear -30 1024 76 10000 1 0 20:29 10.02.2022
3850 Clear -28 1024 76 10000 1 0 19:24 10.02.2022
3851 Clouds -28 1023 69 10000 0 0 18:43 10.02.2022
3852 Clouds -22 1023 77 10000 1 0 17:26 10.02.2022
3853 Clouds -20 1022 77 10000 3 310 16:47 10.02.2022
3854 Clouds -20 1022 71 10000 2 0 15:45 10.02.2022
3855 Clouds -20 1022 71 10000 2 0 15:25 10.02.2022
3856 Clouds -19 1021 71 10000 2 0 14:44 10.02.2022
3857 Clouds -19 1021 71 10000 2 0 14:22 10.02.2022
3858 Clouds -19 1020 78 10000 2 0 13:20 10.02.2022
3859 Clouds -16 1019 66 10000 4 310 11:58 10.02.2022
3860 Clouds -16 1019 66 10000 4 310 11:32 10.02.2022
3861 Clouds -15 1018 72 10000 2 0 10:32 10.02.2022
3862 Clouds -15 1018 66 10000 3 220 09:46 10.02.2022
3863 Clouds -15 1017 66 10000 4 210 08:42 10.02.2022
3864 Clouds -16 1017 72 10000 2 0 06:42 10.02.2022
3865 Clouds -22 1017 77 8000 1 0 03:39 10.02.2022
3866 Clear -27 1015 69 10000 2 0 01:18 10.02.2022
3867 Clouds -27 1015 69 10000 3 170 00:41 10.02.2022
3868 Clouds -27 1015 69 10000 3 170 00:23 10.02.2022
3869 Clouds -26 1014 76 10000 3 160 22:57 09.02.2022
3870 Clouds -26 1014 76 10000 3 160 22:33 09.02.2022
3871 Clear -25 1014 70 10000 2 0 21:48 09.02.2022
3872 Clear -25 1014 70 10000 2 0 21:28 09.02.2022
3873 Clear -26 1014 76 10000 2 0 20:45 09.02.2022
3874 Clear -26 1014 76 10000 2 0 20:23 09.02.2022
3875 Clear -25 1014 77 10000 2 0 19:42 09.02.2022
3876 Clear -26 1014 76 10000 2 0 18:50 09.02.2022
3877 Clear -24 1013 77 10000 2 0 17:24 09.02.2022
3878 Clear -23 1013 84 10000 1 0 16:20 09.02.2022
3879 Clear -23 1013 84 10000 1 0 15:24 09.02.2022
3880 Clear -15 1012 72 10000 2 0 12:54 09.02.2022
3881 Clear -12 1011 61 10000 2 0 11:36 09.02.2022
3882 Clear -10 1010 57 10000 2 0 10:35 09.02.2022
3883 Clear -9 1010 57 10000 2 0 09:53 09.02.2022
3884 Clear -9 1010 57 10000 2 0 09:22 09.02.2022
3885 Clouds -9 1010 53 8000 2 0 08:46 09.02.2022
3886 Smoke -13 1011 56 5000 2 0 06:56 09.02.2022
3887 Smoke -18 1012 65 5000 1 0 04:36 09.02.2022
3888 Smoke -21 1012 77 5000 1 0 03:49 09.02.2022
3889 Clear -27 1011 69 10000 1 0 23:45 08.02.2022
3890 Clear -27 1011 69 10000 1 0 23:19 08.02.2022
3891 Clear -27 1011 69 10000 1 0 23:19 08.02.2022
3892 Clear -28 1012 76 10000 1 0 22:38 08.02.2022
3893 Clear -28 1012 76 10000 1 0 22:38 08.02.2022
3894 Clear -28 1012 76 10000 1 0 22:20 08.02.2022
3895 Clear -25 1012 77 10000 0 0 21:22 08.02.2022
3896 Clear -25 1012 77 10000 0 0 20:58 08.02.2022
3897 Clear -26 1012 76 10000 2 0 20:38 08.02.2022
3898 Clear -25 1012 77 10000 1 0 19:28 08.02.2022
3899 Clear -25 1013 77 10000 1 0 18:24 08.02.2022
3900 Clear -25 1013 70 10000 1 0 17:30 08.02.2022
3901 Clear -22 1013 71 10000 1 0 15:47 08.02.2022
3902 Clear -22 1013 71 10000 1 0 15:27 08.02.2022
3903 Clear -18 1013 65 10000 2 0 13:50 08.02.2022
3904 Clear -17 1013 66 10000 2 0 12:24 08.02.2022
3905 Clear -9 1012 53 10000 2 0 10:52 08.02.2022
3906 Clear -8 1012 53 10000 2 0 09:50 08.02.2022
3907 Clear -8 1012 49 10000 3 190 08:53 08.02.2022
3908 Clear -8 1012 49 10000 3 190 08:53 08.02.2022
3909 Clear -9 1013 53 6000 1 0 06:49 08.02.2022
3910 Smoke -15 1014 66 5000 1 0 04:40 08.02.2022
3911 Smoke -15 1014 66 5000 1 0 04:22 08.02.2022
3912 Smoke -20 1015 77 5000 1 0 03:36 08.02.2022
3913 Smoke -20 1015 77 5000 1 0 03:18 08.02.2022
3914 Smoke -20 1015 77 5000 1 0 02:59 08.02.2022
3915 Clear -26 1015 76 6000 1 0 02:36 08.02.2022
3916 Clear -26 1015 76 6000 1 0 02:18 08.02.2022
3917 Clear -27 1014 76 6000 1 0 01:44 08.02.2022
3918 Clouds -27 1014 76 6000 1 0 01:25 08.02.2022
3919 Clouds -27 1014 69 8000 1 0 00:55 08.02.2022
3920 Clouds -27 1014 69 8000 1 0 00:21 08.02.2022
3921 Clouds -27 1015 69 8000 1 0 23:44 07.02.2022
3922 Clouds -27 1015 69 8000 1 0 23:44 07.02.2022
3923 Clouds -27 1015 69 8000 1 0 23:18 07.02.2022
3924 Clouds -27 1015 69 8000 1 0 22:59 07.02.2022
3925 Clouds -27 1015 76 8000 1 0 22:19 07.02.2022
3926 Clouds -25 1016 77 8000 1 0 21:51 07.02.2022
3927 Clouds -25 1016 77 8000 1 0 21:27 07.02.2022
3928 Clouds -25 1017 77 8000 1 0 20:45 07.02.2022
3929 Clouds -25 1017 77 8000 1 0 20:27 07.02.2022
3930 Clouds -23 1017 70 8000 1 0 19:47 07.02.2022
3931 Clear -24 1018 77 10000 1 0 18:37 07.02.2022
3932 Clear -24 1018 77 10000 1 0 17:23 07.02.2022
3933 Clear -23 1019 70 10000 2 0 16:52 07.02.2022
3934 Clear -24 1019 77 10000 1 0 15:48 07.02.2022
3935 Clear -22 1020 77 10000 3 160 13:58 07.02.2022
3936 Clear -22 1020 77 10000 3 160 13:27 07.02.2022
3937 Clear -20 1020 71 10000 2 0 12:35 07.02.2022
3938 Clear -13 1020 61 10000 1 0 11:40 07.02.2022
3939 Clear -13 1020 61 10000 1 0 11:22 07.02.2022
3940 Clear -12 1020 61 10000 4 260 10:41 07.02.2022
3941 Clear -12 1020 61 10000 4 260 10:22 07.02.2022
3942 Clear -9 1021 48 10000 3 280 09:51 07.02.2022
3943 Clear -9 1021 48 10000 3 280 09:18 07.02.2022
3944 Clouds -11 1022 52 8000 1 0 07:44 07.02.2022
3945 Clouds -13 1023 52 8000 1 0 06:34 07.02.2022
3946 Clouds -19 1024 65 6000 1 0 04:31 07.02.2022
3947 Clouds -28 1023 76 6000 0 0 01:37 07.02.2022
3948 Clouds -29 1023 76 8000 0 0 00:20 07.02.2022
3949 Clouds -28 1023 76 8000 1 0 23:20 06.02.2022
3950 Clouds -27 1023 76 8000 1 0 22:41 06.02.2022
3951 Clouds -28 1024 76 8000 0 0 21:38 06.02.2022
3952 Clouds -28 1024 76 8000 0 0 21:20 06.02.2022
3953 Clouds -27 1024 76 8000 1 0 20:48 06.02.2022
3954 Clouds -27 1024 76 8000 1 0 20:23 06.02.2022
3955 Clear -27 1024 69 10000 1 0 19:18 06.02.2022
3956 Clear -28 1024 76 10000 1 0 18:28 06.02.2022
3957 Clear -27 1024 69 10000 0 0 17:31 06.02.2022
3958 Clear -24 1024 70 10000 1 0 16:51 06.02.2022
3959 Clear -22 1024 64 10000 1 0 15:51 06.02.2022
3960 Clear -22 1024 64 10000 1 0 15:28 06.02.2022
3961 Clouds -20 1041 89 10000 0.86 76 15:00 06.02.2022
3962 Clear -24 1024 70 10000 2 0 13:59 06.02.2022
3963 Clear -21 1024 65 10000 1 0 13:20 06.02.2022
3964 Clear -21 1024 71 10000 0 0 12:27 06.02.2022
3965 Clear -12 1024 48 10000 2 0 10:33 06.02.2022
3966 Clear -12 1024 48 10000 2 0 09:43 06.02.2022
3967 Clouds -12 1024 48 10000 3 260 08:41 06.02.2022
3968 Clouds -15 1025 61 6000 1 0 06:34 06.02.2022
3969 Smoke -17 1026 66 5000 1 0 05:28 06.02.2022
3970 Clouds -28 1027 69 8000 1 0 02:25 06.02.2022
3971 Clouds -30 1027 69 8000 1 0 00:33 06.02.2022
3972 Clear -30 1028 69 10000 1 0 23:39 05.02.2022
3973 Clear -30 1028 69 10000 1 0 21:47 05.02.2022
3974 Clear -30 1029 69 10000 1 0 20:41 05.02.2022
3975 Clear -30 1029 69 10000 1 0 20:20 05.02.2022
3976 Clear -29 1029 69 10000 1 0 19:42 05.02.2022
3977 Clear -30 1029 76 10000 1 0 18:30 05.02.2022
3978 Clear -28 1029 69 10000 0 0 17:35 05.02.2022
3979 Clear -26 1029 70 10000 0 0 15:51 05.02.2022
3980 Clear -26 1029 70 10000 0 0 15:29 05.02.2022
3981 Clear -25 1029 70 10000 3 160 13:25 05.02.2022
3982 Clear -25 1029 70 10000 3 160 13:25 05.02.2022
3983 Clear -23 1029 77 10000 2 0 12:42 05.02.2022
3984 Clear -19 1029 65 10000 3 170 11:45 05.02.2022
3985 Clear -14 1030 56 10000 2 0 10:43 05.02.2022
3986 Clear -14 1030 61 10000 3 170 09:50 05.02.2022
3987 Clear -13 1030 56 10000 3 200 08:39 05.02.2022
3988 Clear -15 1031 61 10000 2 0 06:59 05.02.2022
3989 Clear -15 1031 61 10000 2 0 06:27 05.02.2022
3990 Clouds -30 1031 69 8000 0 0 02:31 05.02.2022
3991 Clear -32 1031 75 10000 1 0 01:18 05.02.2022
3992 Clear -28 1030 69 10000 0 0 00:36 05.02.2022
3993 Clear -31 1030 69 10000 0 0 23:33 04.02.2022
3994 Clear -32 1030 68 10000 1 0 22:39 04.02.2022
3995 Clear -29 1030 69 10000 0 0 21:36 04.02.2022
3996 Clear -29 1030 69 10000 0 0 21:18 04.02.2022
3997 Clear -29 1030 69 10000 1 0 20:29 04.02.2022
3998 Clear -28 1030 69 10000 2 0 18:35 04.02.2022
3999 Clear -24 1030 70 10000 0 0 16:20 04.02.2022
4000 Clear -25 1030 77 10000 0 0 15:18 04.02.2022
4001 Clear -24 1030 77 10000 1 0 14:40 04.02.2022
4002 Clear -20 1029 71 10000 2 0 12:43 04.02.2022
4003 Clear -17 1029 66 10000 2 0 11:44 04.02.2022
4004 Clear -14 1029 61 10000 4 160 10:53 04.02.2022
4005 Clear -12 1029 56 10000 2 0 09:35 04.02.2022
4006 Clear -13 1029 61 10000 2 0 07:44 04.02.2022
4007 Clear -24 1030 70 10000 0 0 03:28 04.02.2022
4008 Clear -30 1029 69 10000 0 0 02:33 04.02.2022
4009 Clear -30 1028 69 10000 1 0 23:34 03.02.2022
4010 Clear -28 1028 69 10000 1 0 22:48 03.02.2022
4011 Clear -28 1028 69 10000 0 0 21:51 03.02.2022
4012 Clear -28 1028 69 10000 0 0 21:18 03.02.2022
4013 Clear -28 1028 69 10000 1 0 20:21 03.02.2022
4014 Clear -29 1028 69 10000 1 0 19:34 03.02.2022
4015 Clear -27 1028 69 10000 1 0 18:48 03.02.2022
4016 Clear -27 1028 69 10000 0 0 17:51 03.02.2022
4017 Clear -26 1028 76 10000 0 0 16:46 03.02.2022
4018 Clear -25 1028 77 10000 1 0 14:54 03.02.2022
4019 Clear -23 1028 70 10000 1 0 13:19 03.02.2022
4020 Clear -17 1027 71 10000 1 0 11:43 03.02.2022
4021 Clear -14 1026 66 10000 4 240 08:40 03.02.2022
4022 Clear -14 1026 61 10000 1 0 07:40 03.02.2022
4023 Clouds -32 1026 75 10000 1 0 00:34 03.02.2022
4024 Clear -31 1026 69 10000 0 0 23:45 02.02.2022
4025 Clear -32 1026 68 10000 1 0 22:36 02.02.2022
4026 Clear -32 1026 68 10000 1 0 21:37 02.02.2022
4027 Clear -30 1026 69 10000 1 0 20:56 02.02.2022
4028 Clear -30 1026 69 10000 1 0 20:00 02.02.2022
4029 Clear -29 1026 76 10000 1 0 19:41 02.02.2022
4030 Clear -29 1026 69 10000 1 0 18:53 02.02.2022
4031 Clear -29 1026 69 10000 1 0 18:22 02.02.2022
4032 Clear -29 1026 76 10000 2 0 17:20 02.02.2022
4033 Clear -29 1026 76 10000 2 0 16:47 02.02.2022
4034 Clear -27 1025 76 10000 1 0 14:18 02.02.2022
4035 Clear -20 1025 71 10000 1 0 12:26 02.02.2022
4036 Clear -18 1024 65 10000 1 0 11:37 02.02.2022
4037 Clear -16 1024 60 10000 3 270 10:38 02.02.2022
4038 Clear -18 1025 65 10000 2 0 07:42 02.02.2022
4039 Clouds -32 1026 68 8000 0 0 00:34 02.02.2022
4040 Clear -33 1026 68 10000 1 0 21:55 01.02.2022
4041 Clear -31 1027 76 10000 0 0 20:47 01.02.2022
4042 Clear -29 1026 76 10000 1 0 17:59 01.02.2022
4043 Clear -30 1026 76 10000 1 0 16:42 01.02.2022
4044 Clear -27 1025 69 10000 0 0 14:49 01.02.2022
4045 Clear -23 1025 70 10000 2 0 12:48 01.02.2022
4046 Clear -22 1024 71 10000 3 170 11:34 01.02.2022
4047 Clouds -21 1025 71 6000 1 0 05:43 01.02.2022
4048 Clear -33 1024 68 10000 1 0 23:53 31.01.2022
4049 Clear -33 1024 68 10000 1 0 23:34 31.01.2022
4050 Clear -33 1024 68 10000 1 0 23:34 31.01.2022
4051 Clear -33 1024 68 10000 1 0 22:26 31.01.2022
4052 Clear -32 1024 75 10000 0 0 21:33 31.01.2022
4053 Clear -33 1025 68 10000 1 0 20:33 31.01.2022
4054 Clear -32 1024 68 10000 1 0 19:46 31.01.2022
4055 Clear -32 1025 68 10000 1 0 18:26 31.01.2022
4056 Clear -28 1024 76 10000 1 0 17:43 31.01.2022
4057 Clear -31 1025 69 10000 1 0 16:43 31.01.2022
4058 Clear -28 1025 76 10000 1 0 15:43 31.01.2022
4059 Clear -27 1025 69 10000 1 0 14:24 31.01.2022
4060 Clear -26 1024 70 10000 2 0 12:39 31.01.2022
4061 Clear -26 1024 70 10000 2 0 11:58 31.01.2022
4062 Clear -16 1024 60 10000 1 0 10:50 31.01.2022
4063 Clear -16 1024 60 10000 1 0 10:32 31.01.2022
4064 Clear -17 1024 66 10000 4 170 09:27 31.01.2022
4065 Clear -17 1024 66 10000 2 0 08:51 31.01.2022
4066 Clear -17 1024 66 10000 2 0 08:20 31.01.2022
4067 Clouds -19 1024 71 6000 1 0 06:18 31.01.2022
4068 Clouds -33 1024 68 6000 1 0 02:18 31.01.2022
4069 Clear -30 1023 76 10000 2 0 23:18 30.01.2022
4070 Clear -29 1023 69 10000 2 0 22:29 30.01.2022
4071 Clear -28 1023 76 10000 2 0 21:42 30.01.2022
4072 Clear -28 1023 76 10000 2 0 21:19 30.01.2022
4073 Clear -28 1023 76 10000 2 0 21:19 30.01.2022
4074 Clear -28 1023 69 10000 1 0 20:47 30.01.2022
4075 Clear -28 1023 69 10000 1 0 20:28 30.01.2022
4076 Clear -26 1023 70 10000 1 0 19:52 30.01.2022
4077 Clear -26 1023 70 10000 2 0 18:43 30.01.2022
4078 Clear -26 1023 70 10000 2 0 18:20 30.01.2022
4079 Clear -27 1023 69 10000 0 0 17:22 30.01.2022
4080 Clear -25 1022 77 10000 1 0 16:40 30.01.2022
4081 Clear -25 1022 77 10000 1 0 16:22 30.01.2022
4082 Clear -22 1022 77 10000 1 0 15:50 30.01.2022
4083 Clear -22 1022 77 10000 1 0 15:31 30.01.2022
4084 Clear -19 1022 71 10000 2 0 14:46 30.01.2022
4085 Clear -18 1022 71 10000 3 290 12:47 30.01.2022
4086 Clear -18 1021 65 10000 4 330 11:58 30.01.2022
4087 Clear -16 1021 66 10000 5 340 10:36 30.01.2022
4088 Clear -15 1020 61 10000 7 330 09:51 30.01.2022
4089 Clear -15 1020 61 10000 8 320 08:55 30.01.2022
4090 Clear -15 1020 61 10000 6 310 07:28 30.01.2022
4091 Clear -29 1020 69 10000 1 0 01:56 30.01.2022
4092 Clear -28 1020 69 10000 3 170 00:34 30.01.2022
4093 Clear -29 1019 69 10000 1 0 23:20 29.01.2022
4094 Clear -29 1019 76 10000 3 150 21:50 29.01.2022
4095 Clear -29 1019 76 10000 3 150 21:24 29.01.2022
4096 Clear -28 1019 69 10000 1 0 20:32 29.01.2022
4097 Clear -27 1020 76 10000 1 0 19:34 29.01.2022
4098 Clear -27 1019 69 10000 0 0 18:52 29.01.2022
4099 Clear -27 1019 69 10000 0 0 18:23 29.01.2022
4100 Clear -25 1019 70 10000 3 180 17:29 29.01.2022
4101 Clear -25 1019 77 10000 2 0 15:57 29.01.2022
4102 Clear -23 1019 70 10000 3 170 14:23 29.01.2022
4103 Clear -23 1019 77 10000 2 0 13:42 29.01.2022
4104 Clear -23 1019 77 10000 2 0 13:23 29.01.2022
4105 Clear -20 1018 71 10000 3 180 11:49 29.01.2022
4106 Clear -20 1018 71 10000 3 180 11:24 29.01.2022
4107 Clouds -16 1018 72 6000 2 0 08:43 29.01.2022
4108 Clouds -17 1018 66 6000 0 0 06:55 29.01.2022
4109 Clouds -30 1018 69 8000 1 0 00:35 29.01.2022
4110 Clouds -30 1018 69 8000 0 0 23:51 28.01.2022
4111 Clouds -30 1019 69 8000 1 0 22:50 28.01.2022
4112 Clouds -30 1019 69 8000 1 0 22:21 28.01.2022
4113 Clouds -30 1019 69 8000 1 0 21:35 28.01.2022
4114 Clouds -29 1020 69 8000 1 0 20:29 28.01.2022
4115 Clouds -29 1020 69 8000 1 0 19:29 28.01.2022
4116 Clouds -30 1020 76 8000 0 0 18:42 28.01.2022
4117 Clear -29 1021 69 10000 1 0 16:46 28.01.2022
4118 Clear -27 1020 76 10000 0 0 15:18 28.01.2022
4119 Clear -25 1021 70 10000 2 0 13:37 28.01.2022
4120 Clear -23 1021 70 10000 2 0 12:27 28.01.2022
4121 Clear -13 1020 56 6000 1 0 10:49 28.01.2022
4122 Clear -12 1021 48 6000 1 0 09:49 28.01.2022
4123 Clear -15 1022 51 6000 1 0 07:43 28.01.2022
4124 Clear -17 1022 55 6000 1 0 06:39 28.01.2022
4125 Clear -23 1022 70 10000 3 80 03:53 28.01.2022
4126 Clear -31 1023 69 8000 1 0 02:30 28.01.2022
4127 Clear -32 1023 68 8000 1 0 01:57 28.01.2022
4128 Clear -32 1023 68 8000 1 0 01:30 28.01.2022
4129 Clear -30 1024 76 10000 1 0 22:40 27.01.2022
4130 Clear -31 1024 69 10000 0 0 21:41 27.01.2022
4131 Clear -31 1024 69 10000 0 0 21:21 27.01.2022
4132 Clear -32 1025 68 10000 0 0 20:23 27.01.2022
4133 Clear -29 1025 69 10000 1 0 18:23 27.01.2022
4134 Clear -29 1025 69 10000 0 0 17:18 27.01.2022
4135 Clear -28 1025 76 10000 2 0 14:24 27.01.2022
4136 Clear -25 1024 70 10000 1 0 12:53 27.01.2022
4137 Clear -25 1024 70 10000 1 0 12:20 27.01.2022
4138 Clear -14 1024 56 8000 1 0 09:51 27.01.2022
4139 Clear -15 1024 56 8000 1 0 08:40 27.01.2022
4140 Clear -15 1024 56 8000 1 0 07:58 27.01.2022
4141 Clear -28 1026 76 6000 1 0 03:34 27.01.2022
4142 Clear -33 1024 68 8000 1 0 00:24 27.01.2022
4143 Clear -32 1025 62 8000 0 0 22:31 26.01.2022
4144 Clear -24 1043 92 10000 1.39 84 21:44 26.01.2022
4145 Clear -24 1043 93 10000 1.41 83 20:57 26.01.2022
4146 Clear -24 1043 93 10000 1.41 83 20:33 26.01.2022
4147 Clear -31 1025 69 10000 1 0 19:49 26.01.2022
4148 Clear -31 1026 62 10000 2 0 18:52 26.01.2022
4149 Clear -31 1026 62 10000 2 0 18:24 26.01.2022
4150 Clear -31 1025 69 10000 1 0 17:34 26.01.2022
4151 Clear -31 1025 69 10000 1 0 16:56 26.01.2022
4152 Clear -31 1026 69 10000 1 0 16:23 26.01.2022
4153 Clear -30 1025 76 10000 1 0 14:54 26.01.2022
4154 Clear -27 1025 69 10000 1 0 12:22 26.01.2022
4155 Clear -17 1024 60 10000 1 0 10:52 26.01.2022
4156 Clear -17 1024 60 10000 1 0 09:55 26.01.2022
4157 Clear -17 1024 66 10000 1 0 09:36 26.01.2022
4158 Clear -19 1025 78 10000 1 0 06:42 26.01.2022
4159 Clouds -32 1024 68 8000 0 0 00:24 26.01.2022
4160 Clouds -30 1024 69 8000 0 0 23:43 25.01.2022
4161 Clouds -32 1024 68 8000 0 0 22:49 25.01.2022
4162 Clouds -32 1024 68 8000 0 0 22:19 25.01.2022
4163 Clouds -32 1024 68 10000 1 0 21:27 25.01.2022
4164 Clouds -31 1024 69 10000 1 0 20:45 25.01.2022
4165 Clouds -29 1024 76 10000 1 0 19:57 25.01.2022
4166 Clouds -29 1024 76 10000 1 0 19:28 25.01.2022
4167 Clouds -29 1024 69 8000 1 0 17:56 25.01.2022
4168 Clouds -29 1024 69 8000 1 0 17:20 25.01.2022
4169 Clouds -25 1024 77 8000 1 0 16:34 25.01.2022
4170 Clouds -27 1023 69 10000 2 0 15:39 25.01.2022
4171 Clouds -27 1023 69 10000 2 0 15:19 25.01.2022
4172 Clear -27 1023 69 10000 3 170 14:51 25.01.2022
4173 Clear -25 1022 70 10000 3 160 12:21 25.01.2022
4174 Clear -16 1021 66 10000 2 0 09:35 25.01.2022
4175 Clear -17 1021 66 10000 2 0 07:52 25.01.2022
4176 Clear -17 1021 66 10000 2 0 07:21 25.01.2022
4177 Clouds -17 1022 78 8000 0 0 05:23 25.01.2022
4178 Clouds -25 1020 77 10000 1 0 00:35 25.01.2022
4179 Clouds -29 1020 69 10000 1 0 23:36 24.01.2022
4180 Clouds -29 1020 69 10000 1 0 23:18 24.01.2022
4181 Clear -29 1020 76 10000 2 0 22:42 24.01.2022
4182 Clear -29 1020 76 10000 2 0 22:19 24.01.2022
4183 Clear -28 1020 69 10000 2 0 21:40 24.01.2022
4184 Clear -28 1020 69 10000 2 0 21:19 24.01.2022
4185 Clear -28 1020 69 10000 2 0 20:26 24.01.2022
4186 Clear -28 1020 69 10000 2 0 20:26 24.01.2022
4187 Clear -26 1020 76 10000 1 0 19:38 24.01.2022
4188 Clear -28 1020 76 10000 1 0 18:50 24.01.2022
4189 Clear -26 1020 70 10000 2 0 17:25 24.01.2022
4190 Clear -26 1019 70 10000 0 0 16:59 24.01.2022
4191 Clear -26 1019 70 10000 0 0 16:30 24.01.2022
4192 Clear -25 1019 70 10000 0 0 14:56 24.01.2022
4193 Clear -19 1018 78 10000 1 0 13:39 24.01.2022
4194 Clouds -20 1018 77 10000 2 0 12:33 24.01.2022
4195 Clouds -18 1018 78 10000 4 290 11:21 24.01.2022
4196 Clouds -16 1017 66 10000 5 310 10:18 24.01.2022
4197 Clouds -15 1017 66 10000 5 310 09:44 24.01.2022
4198 Clouds -16 1017 72 10000 3 240 07:40 24.01.2022
4199 Clouds -24 1017 77 10000 0 0 01:38 24.01.2022
4200 Clouds -25 1016 77 10000 1 0 00:50 24.01.2022
4201 Clouds -25 1016 77 10000 1 0 00:29 24.01.2022
4202 Clouds -23 1017 77 10000 1 0 22:58 23.01.2022
4203 Clouds -20 1017 77 10000 1 0 21:52 23.01.2022
4204 Clouds -20 1017 77 10000 1 0 21:27 23.01.2022
4205 Clouds -20 1017 84 10000 0 0 20:55 23.01.2022
4206 Clouds -20 1017 84 10000 0 0 20:21 23.01.2022
4207 Clouds -19 1017 78 10000 1 0 18:53 23.01.2022
4208 Clouds -19 1018 78 10000 0 0 17:56 23.01.2022
4209 Clouds -20 1018 77 8000 1 0 16:55 23.01.2022
4210 Clouds -18 1018 78 8000 1 0 15:46 23.01.2022
4211 Clouds -17 1018 85 6000 1 0 14:48 23.01.2022
4212 Clouds -17 1018 85 6000 1 0 14:18 23.01.2022
4213 Clouds -15 1017 78 8000 0 0 12:44 23.01.2022
4214 Clouds -15 1017 78 8000 0 0 12:19 23.01.2022
4215 Clouds -15 1017 78 10000 2 0 11:25 23.01.2022
4216 Clouds -13 1017 66 10000 2 0 10:57 23.01.2022
4217 Clouds -13 1017 66 10000 2 0 10:25 23.01.2022
4218 Clouds -11 1017 62 10000 4 190 09:26 23.01.2022
4219 Clouds -11 1018 67 8000 5 160 06:18 23.01.2022
4220 Clouds -12 1018 72 6000 5 130 03:20 23.01.2022
4221 Clouds -12 1018 72 6000 6 150 01:36 23.01.2022
4222 Clouds -13 1018 78 8000 5 140 00:46 23.01.2022
4223 Clouds -13 1018 66 10000 6 140 23:58 22.01.2022
4224 Clouds -13 1018 66 10000 2 0 22:49 22.01.2022
4225 Clouds -13 1018 66 10000 2 0 22:19 22.01.2022
4226 Clouds -12 1019 67 10000 1 0 20:33 22.01.2022
4227 Clouds -14 1019 78 10000 1 0 19:41 22.01.2022
4228 Clouds -15 1020 78 10000 1 0 18:37 22.01.2022
4229 Clouds -14 1020 78 10000 1 0 17:45 22.01.2022
4230 Clouds -14 1020 78 10000 1 0 17:19 22.01.2022
4231 Clouds -14 1020 78 10000 2 0 16:54 22.01.2022
4232 Clouds -14 1020 78 10000 2 0 15:45 22.01.2022
4233 Clouds -14 1019 78 10000 1 0 14:42 22.01.2022
4234 Clouds -15 1020 85 10000 1 0 13:28 22.01.2022
4235 Clouds -11 1019 73 10000 2 0 12:37 22.01.2022
4236 Clouds -11 1019 73 10000 2 0 12:19 22.01.2022
4237 Clouds -9 1019 67 8000 2 0 10:54 22.01.2022
4238 Clouds -9 1019 67 8000 2 0 10:23 22.01.2022
4239 Clouds -8 1019 62 6000 1 0 08:56 22.01.2022
4240 Clouds -8 1019 62 6000 1 0 08:38 22.01.2022
4241 Clouds -11 1020 67 6000 0 0 06:46 22.01.2022
4242 Clouds -23 1021 84 8000 1 0 02:39 22.01.2022
4243 Clouds -23 1020 70 8000 1 0 23:50 21.01.2022
4244 Clouds -23 1020 70 8000 1 0 23:20 21.01.2022
4245 Clouds -24 1020 77 10000 1 0 21:18 21.01.2022
4246 Clear -24 1020 77 10000 0 0 19:35 21.01.2022
4247 Clear -24 1020 77 10000 1 0 17:51 21.01.2022
4248 Clear -23 1020 77 10000 1 0 15:56 21.01.2022
4249 Clear -22 1020 77 10000 1 0 14:58 21.01.2022
4250 Clear -18 1020 78 10000 1 0 12:43 21.01.2022
4251 Clouds -18 1020 78 8000 2 0 11:29 21.01.2022
4252 Clouds -11 1020 67 8000 1 0 10:33 21.01.2022
4253 Clouds -10 1020 62 8000 1 0 08:59 21.01.2022
4254 Clouds -12 1020 67 6000 2 0 07:58 21.01.2022
4255 Clouds -24 1021 84 6000 0 0 01:51 21.01.2022
4256 Clear -25 1020 77 10000 1 0 22:47 20.01.2022
4257 Clear -23 1020 77 10000 0 0 21:49 20.01.2022
4258 Clear -23 1020 77 10000 0 0 21:25 20.01.2022
4259 Clear -22 1020 77 10000 0 0 19:54 20.01.2022
4260 Clear -22 1020 77 10000 0 0 19:18 20.01.2022
4261 Clear -21 1020 84 10000 1 0 17:37 20.01.2022
4262 Clear -21 1019 77 10000 2 0 16:19 20.01.2022
4263 Clear -21 1019 77 10000 2 0 15:29 20.01.2022
4264 Clear -18 1018 78 10000 2 0 14:19 20.01.2022
4265 Clear -17 1018 78 10000 3 160 12:49 20.01.2022
4266 Clear -17 1018 78 10000 3 160 12:29 20.01.2022
4267 Clear -14 1018 72 10000 3 170 11:19 20.01.2022
4268 Clouds -7 1017 58 8000 1 0 09:50 20.01.2022
4269 Clouds -7 1017 53 8000 1 0 08:45 20.01.2022
4270 Clouds -10 1018 62 6000 1 0 06:57 20.01.2022
4271 Clear -20 1017 77 10000 0 0 00:40 20.01.2022
4272 Clear -20 1017 84 10000 0 0 22:38 19.01.2022
4273 Clear -18 1017 85 10000 1 0 21:34 19.01.2022
4274 Clear -17 1017 78 10000 2 0 20:56 19.01.2022
4275 Clear -17 1017 78 10000 2 0 20:30 19.01.2022
4276 Clouds -13 1017 72 10000 2 0 18:52 19.01.2022
4277 Clouds -13 1017 72 10000 1 0 17:51 19.01.2022
4278 Clouds -13 1017 72 10000 1 0 17:18 19.01.2022
4279 Clouds -13 1017 72 10000 1 0 17:18 19.01.2022
4280 Clouds -13 1017 72 10000 1 0 17:18 19.01.2022
4281 Clouds -13 1017 72 10000 1 0 17:18 19.01.2022
4282 Clouds -14 1017 78 10000 1 0 15:32 19.01.2022
4283 Clouds -11 1018 67 10000 1 0 13:25 19.01.2022
4284 Clouds -9 1017 62 10000 3 160 11:58 19.01.2022
4285 Clouds -9 1017 62 10000 3 160 11:38 19.01.2022
4286 Clear -6 1017 58 10000 4 150 09:35 19.01.2022
4287 Clear -6 1017 58 10000 4 160 08:33 19.01.2022
4288 Clouds -9 1019 62 8000 0 0 05:20 19.01.2022
4289 Clouds -20 1018 77 8000 1 0 00:21 19.01.2022
4290 Clouds -21 1019 84 8000 1 0 23:18 18.01.2022
4291 Clouds -21 1019 84 8000 1 0 23:18 18.01.2022
4292 Clouds -18 1019 85 8000 1 0 21:45 18.01.2022
4293 Clouds -20 1019 84 10000 1 0 20:34 18.01.2022
4294 Clouds -19 1019 84 10000 1 0 19:49 18.01.2022
4295 Clouds -19 1019 84 10000 1 0 19:31 18.01.2022
4296 Clouds -18 1020 78 10000 1 0 18:19 18.01.2022
4297 Clouds -18 1020 78 10000 1 0 17:32 18.01.2022
4298 Clouds -17 1020 78 10000 0 0 16:20 18.01.2022
4299 Clouds -16 1020 72 10000 1 0 15:25 18.01.2022
4300 Clouds -17 1020 71 10000 1 0 14:22 18.01.2022
4301 Clouds -14 1020 78 10000 2 0 11:37 18.01.2022
4302 Clouds -8 1020 57 10000 0 0 10:25 18.01.2022
4303 Clouds -7 1020 53 10000 1 0 08:29 18.01.2022
4304 Clouds -8 1020 53 8000 1 0 07:43 18.01.2022
4305 Clear -24 1019 77 8000 0 0 00:39 18.01.2022
4306 Clear -24 1018 77 10000 1 0 22:40 17.01.2022
4307 Clear -24 1018 70 10000 1 0 21:44 17.01.2022
4308 Clear -24 1018 70 10000 1 0 21:24 17.01.2022
4309 Clear -23 1017 77 10000 1 0 18:51 17.01.2022
4310 Clear -23 1017 77 10000 1 0 18:25 17.01.2022
4311 Clear -22 1016 77 10000 0 0 17:22 17.01.2022
4312 Clear -20 1016 71 10000 1 0 15:58 17.01.2022
4313 Clouds -16 1016 66 10000 1 0 14:58 17.01.2022
4314 Clouds -20 1016 71 10000 1 0 14:31 17.01.2022
4315 Clear -18 1015 71 10000 1 0 13:18 17.01.2022
4316 Clear -18 1015 71 10000 1 0 13:18 17.01.2022
4317 Clear -19 1015 71 10000 1 0 12:22 17.01.2022
4318 Clouds -12 1015 56 8000 1 0 10:53 17.01.2022
4319 Clouds -10 1015 48 8000 1 0 09:46 17.01.2022
4320 Clouds -11 1015 52 8000 1 0 08:44 17.01.2022
4321 Clear -12 1016 52 8000 1 0 07:20 17.01.2022
4322 Clouds -18 1032 73 10000 1.52 85 00:59 17.01.2022
4323 Clear -18 1033 74 10000 1.31 99 23:33 16.01.2022
4324 Clear -29 1022 69 10000 1 0 20:51 16.01.2022
4325 Clear -30 1023 69 10000 1 0 19:56 16.01.2022
4326 Clear -28 1023 76 10000 0 0 18:45 16.01.2022
4327 Clear -29 1023 69 10000 2 0 17:47 16.01.2022
4328 Clear -30 1024 69 10000 0 0 16:53 16.01.2022
4329 Clear -29 1024 69 10000 1 0 15:40 16.01.2022
4330 Clear -29 1024 69 10000 2 0 14:29 16.01.2022
4331 Clear -28 1024 69 10000 2 0 13:21 16.01.2022
4332 Clear -24 1023 70 10000 1 0 11:56 16.01.2022
4333 Clear -24 1023 70 10000 1 0 11:27 16.01.2022
4334 Clear -18 1023 60 10000 2 0 10:27 16.01.2022
4335 Clear -18 1023 60 10000 2 0 09:57 16.01.2022
4336 Clear -16 1023 60 10000 1 0 09:23 16.01.2022
4337 Clear -17 1022 66 10000 3 250 08:53 16.01.2022
4338 Smoke -23 1023 70 5000 1 0 05:51 16.01.2022
4339 Clear -32 1021 62 8000 1 0 00:18 16.01.2022
4340 Clear -31 1021 69 8000 2 0 22:38 15.01.2022
4341 Clear -32 1021 68 8000 1 0 21:21 15.01.2022
4342 Clear -30 1021 69 8000 1 0 20:43 15.01.2022
4343 Clear -31 1020 69 8000 1 0 19:58 15.01.2022
4344 Clouds -31 1020 69 8000 1 0 19:23 15.01.2022
4345 Clear -25 1019 77 10000 2 0 17:49 15.01.2022
4346 Clouds -29 1020 76 6000 0 0 16:38 15.01.2022
4347 Clouds -26 1020 76 6000 1 0 13:57 15.01.2022
4348 Clouds -24 1020 70 6000 2 0 12:23 15.01.2022
4349 Clouds -22 1020 71 6000 3 170 11:18 15.01.2022
4350 Clouds -17 1020 60 8000 1 0 08:36 15.01.2022
4351 Clear -30 1022 69 10000 1 0 00:49 15.01.2022
4352 Clear -32 1022 68 10000 0 0 21:56 14.01.2022
4353 Clear -30 1022 69 10000 2 0 20:42 14.01.2022
4354 Clear -29 1022 69 10000 2 0 20:23 14.01.2022
4355 Clear -29 1022 69 10000 2 0 19:40 14.01.2022
4356 Clear -29 1022 69 10000 3 150 18:27 14.01.2022
4357 Clear -24 1021 70 10000 1 0 16:50 14.01.2022
4358 Clear -24 1021 70 10000 2 0 15:48 14.01.2022
4359 Clear -24 1020 77 10000 2 0 14:42 14.01.2022
4360 Clear -20 1019 65 10000 3 340 13:37 14.01.2022
4361 Clear -19 1018 71 10000 4 340 12:29 14.01.2022
4362 Clear -17 1017 66 10000 5 340 10:57 14.01.2022
4363 Clear -13 1014 56 10000 7 340 09:44 14.01.2022
4364 Clear -13 1013 56 10000 9 340 08:44 14.01.2022
4365 Clear -13 1012 61 10000 9 340 06:45 14.01.2022
4366 Clouds -22 1008 71 8000 2 0 01:20 14.01.2022
4367 Clouds -22 1006 77 8000 0 0 22:52 13.01.2022
4368 Clouds -23 1005 70 8000 0 0 21:38 13.01.2022
4369 Clouds -23 1005 70 8000 0 0 21:19 13.01.2022
4370 Clouds -25 1004 77 8000 1 0 19:40 13.01.2022
4371 Clouds -25 1004 77 8000 1 0 19:22 13.01.2022
4372 Clouds -25 1005 70 8000 1 0 17:52 13.01.2022
4373 Clouds -26 1005 76 8000 0 0 16:21 13.01.2022
4374 Clouds -16 1018 77 10000 1.49 55 15:37 13.01.2022
4375 Clouds -24 1005 70 8000 2 0 14:40 13.01.2022
4376 Clouds -23 1005 70 8000 2 0 12:37 13.01.2022
4377 Clouds -16 1005 60 8000 2 0 10:25 13.01.2022
4378 Clouds -13 1006 52 8000 1 0 08:58 13.01.2022
4379 Clouds -13 1006 52 8000 1 0 08:26 13.01.2022
4380 Clear -14 1007 47 8000 1 0 07:23 13.01.2022
4381 Clear -17 1009 55 6000 1 0 05:59 13.01.2022
4382 Smoke -19 1010 71 4000 1 0 05:19 13.01.2022
4383 Clear -18 1026 76 10000 2.52 95 01:56 13.01.2022
4384 Clear -18 1026 77 10000 2.43 94 00:49 13.01.2022
4385 Clear -19 1027 78 10000 2.38 93 23:46 12.01.2022
4386 Clear -19 1028 79 10000 2.32 94 22:59 12.01.2022
4387 Clear -29 1015 69 10000 1 0 21:57 12.01.2022
4388 Clear -29 1015 69 10000 1 0 21:57 12.01.2022
4389 Clear -29 1015 69 10000 1 0 21:22 12.01.2022
4390 Clear -29 1015 69 10000 1 0 20:56 12.01.2022
4391 Clear -29 1016 69 10000 1 0 19:41 12.01.2022
4392 Clear -29 1017 69 10000 2 0 18:30 12.01.2022
4393 Clear -30 1018 76 10000 0 0 17:20 12.01.2022
4394 Clear -29 1019 76 10000 1 0 16:28 12.01.2022
4395 Clear -29 1019 76 10000 1 0 14:48 12.01.2022
4396 Clear -27 1020 76 10000 0 0 12:59 12.01.2022
4397 Clear -17 1021 60 10000 1 0 10:48 12.01.2022
4398 Clear -16 1021 66 10000 2 0 08:38 12.01.2022
4399 Clear -15 1022 66 10000 2 0 07:49 12.01.2022
4400 Clear -15 1022 66 10000 2 0 07:31 12.01.2022
4401 Clouds -25 1025 77 10000 1 0 23:40 11.01.2022
4402 Clouds -25 1025 77 10000 0 0 22:49 11.01.2022
4403 Clouds -25 1025 77 10000 0 0 22:22 11.01.2022
4404 Clear -26 1026 70 10000 3 170 20:51 11.01.2022
4405 Clear -28 1026 69 10000 1 0 19:48 11.01.2022
4406 Clear -26 1026 76 10000 4 170 18:31 11.01.2022
4407 Clear -27 1026 69 10000 1 0 17:24 11.01.2022
4408 Clear -28 1026 69 10000 3 160 16:37 11.01.2022
4409 Clear -26 1026 76 10000 2 0 15:36 11.01.2022
4410 Clear -20 1026 71 10000 2 0 14:42 11.01.2022
4411 Clouds -18 1025 71 10000 3 350 13:55 11.01.2022
4412 Clouds -18 1025 71 10000 3 350 13:34 11.01.2022
4413 Clouds -16 1024 72 10000 4 360 12:42 11.01.2022
4414 Clouds -14 1023 66 10000 3 360 11:43 11.01.2022
4415 Clouds -15 1022 72 10000 2 0 09:29 11.01.2022
4416 Clouds -15 1021 72 6000 0 0 06:37 11.01.2022
4417 Clouds -26 1020 76 8000 1 0 00:31 11.01.2022
4418 Clouds -27 1019 76 8000 1 0 23:41 10.01.2022
4419 Clouds -27 1019 76 8000 1 0 23:22 10.01.2022
4420 Clouds -26 1019 70 8000 0 0 22:19 10.01.2022
4421 Clouds -26 1019 76 8000 1 0 21:54 10.01.2022
4422 Clouds -26 1019 76 8000 1 0 21:20 10.01.2022
4423 Clouds -26 1019 76 8000 1 0 20:56 10.01.2022
4424 Clouds -24 1019 77 8000 1 0 20:28 10.01.2022
4425 Clouds -26 1019 76 6000 2 0 19:42 10.01.2022
4426 Clouds -26 1019 76 6000 2 0 19:20 10.01.2022
4427 Clouds -28 1019 69 6000 2 0 18:48 10.01.2022
4428 Clouds -28 1019 69 6000 1 0 17:41 10.01.2022
4429 Clouds -26 1018 70 6000 2 0 16:42 10.01.2022
4430 Clouds -24 1018 77 6000 1 0 15:45 10.01.2022
4431 Clouds -25 1018 70 8000 1 0 14:26 10.01.2022
4432 Clear -23 1018 70 8000 3 170 11:58 10.01.2022
4433 Clear -23 1018 70 8000 3 170 11:25 10.01.2022
4434 Clear -15 1018 56 6000 1 0 09:48 10.01.2022
4435 Smoke -17 1019 78 5000 0 0 06:47 10.01.2022
4436 Smoke -20 1020 84 4000 1 0 05:49 10.01.2022
4437 Clouds -31 1022 69 8000 1 0 01:30 10.01.2022
4438 Clouds -30 1023 69 8000 0 0 00:24 10.01.2022
4439 Clouds -25 1023 77 10000 1 0 23:29 09.01.2022
4440 Clouds -27 1023 69 10000 1 0 22:37 09.01.2022
4441 Clear -31 1024 69 10000 1 0 21:46 09.01.2022
4442 Clear -31 1024 69 10000 1 0 21:23 09.01.2022
4443 Clear -31 1024 69 10000 1 0 21:23 09.01.2022
4444 Clear -31 1024 76 10000 0 0 20:50 09.01.2022
4445 Clear -31 1024 76 10000 0 0 20:32 09.01.2022
4446 Clear -30 1024 69 10000 1 0 19:44 09.01.2022
4447 Clear -30 1024 69 10000 1 0 19:23 09.01.2022
4448 Clear -29 1023 69 10000 1 0 18:52 09.01.2022
4449 Clear -29 1023 69 10000 1 0 18:33 09.01.2022
4450 Clear -30 1024 76 10000 1 0 17:31 09.01.2022
4451 Clear -28 1024 76 10000 1 0 16:53 09.01.2022
4452 Clear -28 1024 76 10000 1 0 15:57 09.01.2022
4453 Clear -27 1024 76 10000 0 0 15:35 09.01.2022
4454 Clear -24 1024 77 10000 0 0 14:40 09.01.2022
4455 Clear -26 1024 70 10000 2 0 13:50 09.01.2022
4456 Clear -24 1024 77 10000 3 170 12:50 09.01.2022
4457 Clear -23 1023 77 10000 2 0 11:51 09.01.2022
4458 Clear -23 1023 77 10000 3 170 10:52 09.01.2022
4459 Clear -16 1023 66 10000 2 0 09:42 09.01.2022
4460 Clear -16 1023 72 10000 2 0 08:51 09.01.2022
4461 Clouds -18 1025 78 8000 2 0 05:21 09.01.2022
4462 Clouds -27 1025 69 8000 0 0 01:24 09.01.2022
4463 Clear -27 1025 76 10000 2 0 23:44 08.01.2022
4464 Clear -27 1025 76 10000 2 0 23:26 08.01.2022
4465 Clear -30 1025 76 10000 1 0 22:28 08.01.2022
4466 Clear -29 1025 76 10000 1 0 21:25 08.01.2022
4467 Clear -28 1025 76 10000 1 0 20:42 08.01.2022
4468 Clear -28 1025 76 10000 1 0 20:20 08.01.2022
4469 Clear -26 1026 76 10000 0 0 18:40 08.01.2022
4470 Clear -25 1026 77 10000 2 0 17:22 08.01.2022
4471 Clear -22 1026 77 10000 3 150 15:52 08.01.2022
4472 Clear -23 1026 77 10000 3 170 14:44 08.01.2022
4473 Clear -22 1026 77 10000 2 0 13:25 08.01.2022
4474 Clear -19 1025 71 10000 2 0 11:25 08.01.2022
4475 Clear -15 1024 66 10000 2 0 10:25 08.01.2022
4476 Clear -12 1024 61 10000 1 0 09:48 08.01.2022
4477 Clouds -11 1024 57 8000 1 0 07:50 08.01.2022
4478 Clouds -14 1036 91 10000 1.71 343 02:50 08.01.2022
4479 Clouds -15 1036 92 10000 1.45 356 00:41 08.01.2022
4480 Clouds -15 1035 90 10000 1.11 20 22:47 07.01.2022
4481 Clouds -26 1025 76 8000 1 0 20:58 07.01.2022
4482 Clouds -24 1025 77 8000 1 0 20:19 07.01.2022
4483 Clouds -25 1025 70 8000 1 0 19:23 07.01.2022
4484 Clear -24 1025 77 10000 1 0 18:44 07.01.2022
4485 Clear -24 1026 77 10000 0 0 17:28 07.01.2022
4486 Clear -24 1026 77 10000 1 0 16:39 07.01.2022
4487 Clear -22 1026 77 10000 2 0 13:56 07.01.2022
4488 Clear -22 1025 77 10000 1 0 13:38 07.01.2022
4489 Clear -18 1025 71 10000 2 0 12:49 07.01.2022
4490 Clear -10 1024 57 8000 0 0 09:42 07.01.2022
4491 Smoke -23 1025 77 5000 0 0 02:56 07.01.2022
4492 Clear -16 1036 82 10000 1.53 358 01:55 07.01.2022
4493 Clear -16 1036 82 10000 1.45 352 01:28 07.01.2022
4494 Clear -16 1036 82 10000 1.45 352 00:59 07.01.2022
4495 Clear -27 1023 76 6000 1 0 00:28 07.01.2022
4496 Clear -26 1022 70 8000 1 0 21:34 06.01.2022
4497 Clear -26 1022 70 8000 1 0 20:22 06.01.2022
4498 Clear -24 1022 77 8000 1 0 19:45 06.01.2022
4499 Clouds -25 1022 77 8000 1 0 18:34 06.01.2022
4500 Clouds -23 1022 70 8000 1 0 17:41 06.01.2022
4501 Clouds -24 1022 70 8000 0 0 16:52 06.01.2022
4502 Clouds -24 1022 77 8000 1 0 15:48 06.01.2022
4503 Clouds -24 1022 77 8000 1 0 15:26 06.01.2022
4504 Clouds -23 1022 70 8000 2 0 14:51 06.01.2022
4505 Clouds -23 1022 70 8000 2 0 14:18 06.01.2022
4506 Clouds -21 1021 77 8000 2 0 12:50 06.01.2022
4507 Clouds -18 1021 65 8000 2 0 11:43 06.01.2022
4508 Clouds -18 1021 65 8000 2 0 11:22 06.01.2022
4509 Clouds -9 1021 48 6000 2 0 08:52 06.01.2022
4510 Clear -16 1036 75 10000 2.33 98 01:24 06.01.2022
4511 Clear -15 1036 75 10000 2.37 99 23:38 05.01.2022
4512 Clear -15 1035 76 10000 2.45 100 22:59 05.01.2022
4513 Clear -15 1035 76 10000 2.45 100 22:33 05.01.2022
4514 Clear -15 1035 76 10000 2.44 101 21:49 05.01.2022
4515 Clear -15 1035 76 10000 2.57 101 21:21 05.01.2022
4516 Clear -15 1035 76 10000 2.48 102 20:19 05.01.2022
4517 Clear -15 1035 76 10000 2.47 101 18:50 05.01.2022
4518 Clear -24 1024 77 8000 1 0 17:44 05.01.2022
4519 Clear -15 1036 77 10000 2.34 100 16:51 05.01.2022
4520 Clear -24 1024 77 8000 1 0 15:43 05.01.2022
4521 Clouds -24 1024 70 8000 1 0 14:24 05.01.2022
4522 Clear -24 1024 77 8000 1 0 13:25 05.01.2022
4523 Clear -20 1023 71 8000 2 0 11:36 05.01.2022
4524 Clear -12 1022 52 8000 1 0 07:47 05.01.2022
4525 Clear -14 1022 56 6000 2 0 06:25 05.01.2022
4526 Clear -16 1034 80 10000 1.67 89 00:59 05.01.2022
4527 Clear -16 1034 80 10000 1.54 86 23:28 04.01.2022
4528 Clear -16 1034 80 10000 1.54 86 22:55 04.01.2022
4529 Clear -27 1022 69 10000 0 0 21:31 04.01.2022
4530 Clear -27 1022 69 10000 0 0 21:31 04.01.2022
4531 Clear -27 1022 69 10000 0 0 21:31 04.01.2022
4532 Clear -27 1022 69 10000 0 0 19:20 04.01.2022
4533 Clear -27 1021 76 10000 1 0 17:54 04.01.2022
4534 Clear -25 1022 77 10000 1 0 16:53 04.01.2022
4535 Clear -25 1022 77 10000 1 0 16:25 04.01.2022
4536 Clear -26 1021 70 10000 2 0 14:54 04.01.2022
4537 Clear -26 1021 70 10000 2 0 14:35 04.01.2022
4538 Clear -25 1021 70 10000 1 0 13:29 04.01.2022
4539 Clear -22 1020 64 10000 3 170 10:41 04.01.2022
4540 Clear -14 1020 51 8000 1 0 09:47 04.01.2022
4541 Clear -13 1019 52 8000 1 0 08:32 04.01.2022
4542 Clear -17 1033 79 10000 1.15 77 02:52 04.01.2022
4543 Clear -19 1033 82 10000 1.31 77 00:42 04.01.2022
4544 Clear -19 1033 83 10000 1.25 74 23:34 03.01.2022
4545 Clear -19 1033 84 10000 1.54 83 21:52 03.01.2022
4546 Clear -19 1033 84 10000 1.54 83 21:34 03.01.2022
4547 Clear -19 1033 84 10000 1.77 93 20:26 03.01.2022
4548 Clear -28 1019 76 10000 1 0 18:54 03.01.2022
4549 Clear -28 1019 76 10000 1 0 18:28 03.01.2022
4550 Clear -29 1019 69 10000 0 0 16:59 03.01.2022
4551 Clear -19 1034 85 10000 1.74 91 15:40 03.01.2022
4552 Clear -28 1020 69 10000 0 0 14:31 03.01.2022
4553 Clear -28 1020 69 10000 0 0 14:31 03.01.2022
4554 Clear -25 1019 70 10000 2 0 12:48 03.01.2022
4555 Clear -25 1019 70 10000 2 0 11:38 03.01.2022
4556 Clear -23 1018 64 10000 1 0 10:36 03.01.2022
4557 Clouds -17 1019 55 8000 1 0 08:48 03.01.2022
4558 Clouds -17 1019 51 8000 1 0 07:36 03.01.2022
4559 Clear -31 1020 69 8000 0 0 00:29 03.01.2022
4560 Clear -31 1019 69 8000 0 0 23:22 02.01.2022
4561 Clear -31 1019 69 8000 1 0 22:55 02.01.2022
4562 Clear -30 1020 69 8000 1 0 21:46 02.01.2022
4563 Clear -30 1020 63 8000 2 0 20:38 02.01.2022
4564 Clear -30 1020 63 8000 2 0 20:18 02.01.2022
4565 Clear -29 1020 69 10000 1 0 19:30 02.01.2022
4566 Clear -31 1020 62 10000 1 0 18:46 02.01.2022
4567 Clear -31 1020 62 10000 1 0 18:46 02.01.2022
4568 Clear -30 1019 69 10000 2 0 17:54 02.01.2022
4569 Clear -30 1019 69 10000 2 0 17:36 02.01.2022
4570 Clear -30 1019 69 10000 2 0 17:36 02.01.2022
4571 Clear -30 1019 69 10000 2 0 17:18 02.01.2022
4572 Clear -31 1020 76 10000 2 0 16:25 02.01.2022
4573 Clear -30 1019 69 10000 1 0 14:32 02.01.2022
4574 Clear -28 1018 63 10000 2 0 12:50 02.01.2022
4575 Clear -23 1018 59 10000 1 0 11:58 02.01.2022
4576 Clear -23 1018 59 10000 1 0 11:32 02.01.2022
4577 Clear -22 1018 59 10000 3 180 10:46 02.01.2022
4578 Clear -18 1017 46 10000 3 180 09:45 02.01.2022
4579 Clear -21 1017 54 8000 0 0 05:21 02.01.2022
4580 Clouds -21 1033 79 10000 1.5 89 01:41 02.01.2022
4581 Clouds -20 1032 76 10000 1.8 90 23:39 01.01.2022
4582 Clouds -20 1032 74 10000 2.02 95 22:57 01.01.2022
4583 Clouds -19 1032 74 10000 2.05 98 22:22 01.01.2022
4584 Clouds -27 1018 69 8000 1 0 21:43 01.01.2022
4585 Clouds -29 1019 76 8000 1 0 20:55 01.01.2022
4586 Clouds -29 1019 76 8000 1 0 19:58 01.01.2022
4587 Clouds -21 1034 77 10000 1.87 97 19:19 01.01.2022
4588 Clear -32 1020 68 10000 1 0 17:59 01.01.2022
4589 Clear -32 1021 68 10000 1 0 16:41 01.01.2022
4590 Clear -32 1021 68 10000 1 0 16:19 01.01.2022
4591 Clear -31 1021 69 10000 1 0 15:26 01.01.2022
4592 Clear -31 1022 69 10000 2 0 13:58 01.01.2022
4593 Clear -27 1022 58 10000 1 0 12:50 01.01.2022
4594 Clear -25 1022 64 10000 1 0 11:56 01.01.2022
4595 Clear -25 1022 64 10000 1 0 11:23 01.01.2022
4596 Clear -24 1022 64 10000 2 0 10:27 01.01.2022
4597 Clear -17 1022 46 10000 1 0 09:46 01.01.2022
4598 Clear -17 1022 51 10000 2 0 08:26 01.01.2022
4599 Clear -18 1022 60 10000 4 230 07:44 01.01.2022
4600 Clear -18 1023 71 10000 2 0 06:47 01.01.2022
4601 Clear -19 1024 78 10000 3 270 05:27 01.01.2022
4602 Clear -21 1024 77 10000 1 0 04:38 01.01.2022
4603 Clouds -23 1025 70 10000 1 0 01:59 01.01.2022
4604 Clear -27 1024 76 10000 4 170 23:39 31.12.2021
4605 Clear -27 1024 76 10000 2 0 21:53 31.12.2021
4606 Clear -27 1024 76 10000 1 0 20:38 31.12.2021
4607 Clear -24 1023 77 10000 1 0 19:30 31.12.2021
4608 Clouds -20 1039 99 4317 2.08 319 18:37 31.12.2021
4609 Clear -23 1022 84 10000 1 0 17:40 31.12.2021
4610 Clear -23 1022 84 10000 1 0 17:19 31.12.2021
4611 Clear -17 1021 78 10000 3 360 16:38 31.12.2021
4612 Clear -17 1021 78 10000 3 360 15:57 31.12.2021
4613 Clouds -16 1020 72 10000 4 350 15:29 31.12.2021
4614 Clouds -15 1020 72 10000 4 350 14:56 31.12.2021
4615 Clouds -15 1020 72 10000 4 350 14:30 31.12.2021
4616 Clouds -14 1019 66 10000 4 340 13:36 31.12.2021
4617 Clear -14 1017 78 10000 5 340 12:45 31.12.2021
4618 Clear -13 1016 72 10000 3 340 11:51 31.12.2021
4619 Clear -13 1016 72 10000 3 340 11:30 31.12.2021
4620 Clouds -12 1015 67 10000 4 350 10:38 31.12.2021
4621 Clouds -12 1015 67 10000 4 350 09:55 31.12.2021
4622 Clouds -11 1014 62 10000 5 340 09:33 31.12.2021
4623 Clouds -12 1014 67 10000 1 0 08:39 31.12.2021
4624 Clouds -12 1013 61 8000 1 0 07:31 31.12.2021
4625 Clear -26 1014 70 10000 1 0 23:32 30.12.2021
4626 Clouds -16 1026 81 10000 1.99 91 22:33 30.12.2021
4627 Clouds -15 1026 81 10000 2.21 91 21:59 30.12.2021
4628 Clouds -15 1026 81 10000 2.21 91 21:59 30.12.2021
4629 Clouds -15 1026 81 10000 2.21 91 21:37 30.12.2021
4630 Clouds -15 1026 81 10000 2.21 91 21:37 30.12.2021
4631 Clouds -15 1026 81 10000 2.37 94 20:47 30.12.2021
4632 Clouds -15 1027 80 10000 2.43 97 20:28 30.12.2021
4633 Clouds -15 1027 80 10000 2.43 97 19:48 30.12.2021
4634 Clouds -15 1028 81 10000 2.48 96 18:51 30.12.2021
4635 Clear -15 1028 82 10000 2.39 96 18:20 30.12.2021
4636 Clear -25 1018 77 10000 1 0 16:27 30.12.2021
4637 Clear -25 1018 77 10000 0 0 15:52 30.12.2021
4638 Clear -25 1018 77 10000 0 0 15:52 30.12.2021
4639 Clear -25 1019 77 10000 1 0 14:41 30.12.2021
4640 Clear -25 1019 77 10000 1 0 13:57 30.12.2021
4641 Clear -23 1020 77 10000 3 160 12:52 30.12.2021
4642 Clear -21 1020 77 10000 3 170 11:22 30.12.2021
4643 Clear -12 1021 61 10000 0 0 09:59 30.12.2021
4644 Clear -12 1021 61 10000 1 0 09:23 30.12.2021
4645 Clear -14 1023 66 10000 1 0 06:54 30.12.2021
4646 Clear -20 1025 77 8000 0 0 04:20 30.12.2021
4647 Clear -20 1025 77 8000 0 0 04:20 30.12.2021
4648 Clear -23 1025 77 8000 1 0 03:39 30.12.2021
4649 Clear -28 1025 76 8000 0 0 00:35 30.12.2021
4650 Clear -25 1024 70 8000 0 0 23:31 29.12.2021
4651 Clear -27 1024 76 10000 1 0 22:24 29.12.2021
4652 Clear -26 1025 70 10000 1 0 21:53 29.12.2021
4653 Clear -27 1025 69 10000 0 0 20:40 29.12.2021
4654 Clear -26 1024 76 10000 0 0 19:54 29.12.2021
4655 Clear -26 1024 76 10000 0 0 19:25 29.12.2021
4656 Clear -27 1024 69 10000 1 0 18:19 29.12.2021
4657 Clear -25 1024 77 10000 1 0 17:28 29.12.2021
4658 Clear -24 1024 77 10000 1 0 16:49 29.12.2021
4659 Clear -24 1024 77 10000 1 0 16:19 29.12.2021
4660 Clear -24 1024 77 10000 3 150 14:40 29.12.2021
4661 Clouds -20 1024 77 10000 3 170 12:49 29.12.2021
4662 Clouds -20 1024 77 10000 3 170 12:27 29.12.2021
4663 Clouds -18 1023 71 10000 2 0 10:36 29.12.2021
4664 Clear -13 1023 56 10000 3 190 08:24 29.12.2021
4665 Clear -13 1023 56 10000 2 0 06:48 29.12.2021
4666 Clear -13 1023 56 10000 2 0 06:27 29.12.2021
4667 Clear -15 1024 61 10000 0 0 05:43 29.12.2021
4668 Clouds -25 1024 77 8000 0 0 03:20 29.12.2021
4669 Clouds -25 1024 77 8000 0 0 03:20 29.12.2021
4670 Clear -28 1025 69 10000 0 0 00:25 29.12.2021
4671 Clear -27 1025 69 10000 1 0 23:49 28.12.2021
4672 Clear -29 1025 76 10000 1 0 22:45 28.12.2021
4673 Clear -29 1025 76 10000 1 0 22:24 28.12.2021
4674 Clear -27 1025 76 10000 1 0 21:53 28.12.2021
4675 Clear -29 1025 69 10000 1 0 20:48 28.12.2021
4676 Clear -28 1025 76 10000 1 0 19:44 28.12.2021
4677 Clear -27 1025 69 10000 1 0 18:44 28.12.2021
4678 Clear -27 1025 69 10000 1 0 18:23 28.12.2021
4679 Clear -27 1025 69 10000 1 0 16:35 28.12.2021
4680 Clear -26 1025 70 10000 2 0 15:51 28.12.2021
4681 Clear -26 1025 70 10000 2 0 15:25 28.12.2021
4682 Clear -25 1025 70 10000 2 0 14:52 28.12.2021
4683 Clear -25 1025 70 10000 2 0 14:21 28.12.2021
4684 Clear -22 1025 77 10000 0 0 13:51 28.12.2021
4685 Clear -22 1025 77 10000 0 0 13:31 28.12.2021
4686 Clear -22 1024 64 10000 3 170 12:49 28.12.2021
4687 Clear -16 1023 66 10000 4 330 11:51 28.12.2021
4688 Clear -11 1022 52 10000 5 320 09:30 28.12.2021
4689 Clear -15 1022 61 10000 1 0 07:31 28.12.2021
4690 Clouds -28 1022 76 8000 0 0 02:22 28.12.2021
4691 Clouds -29 1021 69 8000 1 0 23:26 27.12.2021
4692 Clear -29 1021 69 10000 1 0 21:54 27.12.2021
4693 Clear -29 1021 69 10000 1 0 21:26 27.12.2021
4694 Clear -30 1021 69 10000 1 0 20:24 27.12.2021
4695 Clear -30 1021 69 10000 1 0 20:24 27.12.2021
4696 Clear -30 1021 69 10000 0 0 19:45 27.12.2021
4697 Clear -28 1021 69 10000 1 0 18:54 27.12.2021
4698 Clear -28 1021 69 10000 0 0 17:50 27.12.2021
4699 Clear -28 1021 69 10000 0 0 17:18 27.12.2021
4700 Clear -30 1021 69 10000 1 0 15:53 27.12.2021
4701 Clear -29 1021 69 10000 1 0 14:34 27.12.2021
4702 Clear -29 1021 69 10000 1 0 13:58 27.12.2021
4703 Clear -26 1020 70 10000 1 0 12:47 27.12.2021
4704 Clear -18 1020 60 10000 1 0 10:37 27.12.2021
4705 Clear -18 1020 60 10000 1 0 10:18 27.12.2021
4706 Clouds -15 1020 51 8000 1 0 08:41 27.12.2021
4707 Clouds -13 1020 40 6000 0 0 07:33 27.12.2021
4708 Clouds -16 1035 62 10000 1.22 77 02:29 27.12.2021
4709 Clouds -16 1035 62 10000 1.32 79 00:29 27.12.2021
4710 Clouds -16 1035 62 10000 1.32 79 23:42 26.12.2021
4711 Clouds -16 1035 62 10000 1.3 83 22:49 26.12.2021
4712 Clear -16 1036 61 10000 1.21 87 21:30 26.12.2021
4713 Clear -16 1036 60 10000 1.22 83 19:52 26.12.2021
4714 Clouds -16 1037 59 10000 1.25 80 18:29 26.12.2021
4715 Clouds -16 1037 59 10000 1.25 80 17:51 26.12.2021
4716 Clouds -16 1039 58 10000 1.18 75 15:31 26.12.2021
4717 Clouds -16 1040 58 10000 1.05 75 13:43 26.12.2021
4718 Clouds -16 1040 59 10000 1.03 75 13:21 26.12.2021
4719 Clear -27 1029 69 8000 1 0 12:35 26.12.2021
4720 Clear -25 1029 64 8000 2 0 11:18 26.12.2021
4721 Clear -17 1030 55 6000 1 0 09:30 26.12.2021
4722 Clear -16 1030 55 6000 1 0 08:44 26.12.2021
4723 Clear -16 1030 55 6000 1 0 08:23 26.12.2021
4724 Clouds -20 1048 74 10000 0.57 109 01:45 26.12.2021
4725 Clear -21 1049 77 10000 0.37 80 00:28 26.12.2021
4726 Clear -21 1049 77 10000 0.37 80 23:35 25.12.2021
4727 Clear -21 1051 79 10000 0.16 183 22:29 25.12.2021
4728 Clear -32 1037 68 10000 0 0 21:29 25.12.2021
4729 Clear -32 1038 68 10000 0 0 19:46 25.12.2021
4730 Clear -32 1038 68 10000 0 0 19:18 25.12.2021
4731 Clear -33 1038 68 10000 1 0 18:26 25.12.2021
4732 Clear -31 1039 69 10000 0 0 16:49 25.12.2021
4733 Clear -29 1039 69 10000 0 0 15:30 25.12.2021
4734 Clear -29 1039 69 10000 1 0 14:22 25.12.2021
4735 Clear -28 1039 69 10000 1 0 12:19 25.12.2021
4736 Clear -26 1039 70 10000 0 0 10:36 25.12.2021
4737 Clear -23 1039 70 10000 2 0 09:48 25.12.2021
4738 Clear -23 1039 64 6000 1 0 07:21 25.12.2021
4739 Clear -26 1059 93 10000 1 338 01:36 25.12.2021
4740 Clear -26 1058 94 10000 0.8 352 00:19 25.12.2021
4741 Clear -26 1058 94 10000 0.86 3 21:51 24.12.2021
4742 Clear -26 1058 93 10000 0.87 358 19:27 24.12.2021
4743 Clear -36 1039 61 10000 0 0 18:41 24.12.2021
4744 Clear -32 1038 62 10000 2 0 16:43 24.12.2021
4745 Clear -32 1038 68 10000 1 0 15:50 24.12.2021
4746 Clear -32 1038 68 10000 1 0 15:20 24.12.2021
4747 Clear -33 1038 68 10000 0 0 14:33 24.12.2021
4748 Clear -34 1038 68 10000 1 0 13:50 24.12.2021
4749 Clear -34 1038 68 10000 1 0 13:32 24.12.2021
4750 Clear -33 1037 68 10000 0 0 12:39 24.12.2021
4751 Clear -32 1036 68 10000 1 0 11:42 24.12.2021
4752 Clear -32 1036 68 10000 1 0 11:24 24.12.2021
4753 Clear -31 1036 69 10000 1 0 10:33 24.12.2021
4754 Clear -21 1035 54 8000 2 0 08:48 24.12.2021
4755 Clear -21 1035 59 8000 1 0 07:58 24.12.2021
4756 Clear -23 1034 64 6000 1 0 06:59 24.12.2021
4757 Clear -36 1033 61 8000 1 0 00:22 24.12.2021
4758 Clear -36 1033 61 8000 0 0 23:49 23.12.2021
4759 Clear -25 1051 89 10000 0.85 1 22:51 23.12.2021
4760 Clear -25 1051 90 10000 0.79 12 22:24 23.12.2021
4761 Clear -25 1051 90 10000 0.79 12 21:41 23.12.2021
4762 Clear -35 1033 61 10000 1 0 20:30 23.12.2021
4763 Clear -35 1033 68 10000 0 0 19:30 23.12.2021
4764 Clear -33 1033 68 10000 1 0 18:27 23.12.2021
4765 Clear -32 1032 68 10000 1 0 17:46 23.12.2021
4766 Clear -30 1032 69 10000 2 180 16:27 23.12.2021
4767 Clear -28 1032 69 10000 3 140 15:48 23.12.2021
4768 Clear -28 1032 69 10000 3 140 15:30 23.12.2021
4769 Clear -31 1032 69 10000 3 170 14:42 23.12.2021
4770 Clear -30 1031 69 10000 3 170 13:43 23.12.2021
4771 Clear -28 1031 69 10000 1 0 11:52 23.12.2021
4772 Clear -18 1030 55 10000 1 0 09:55 23.12.2021
4773 Clear -18 1030 55 10000 1 0 09:34 23.12.2021
4774 Clear -17 1029 55 10000 2 0 08:38 23.12.2021
4775 Clear -21 1029 84 10000 1 0 05:43 23.12.2021
4776 Clear -29 1029 69 10000 1 0 03:22 23.12.2021
4777 Clear -29 1026 69 10000 2 0 22:53 22.12.2021
4778 Clear -29 1026 69 10000 2 0 22:22 22.12.2021
4779 Clear -28 1026 69 10000 1 0 21:37 22.12.2021
4780 Clear -28 1026 69 10000 1 0 21:19 22.12.2021
4781 Clear -30 1026 76 10000 3 170 20:40 22.12.2021
4782 Clear -29 1025 76 10000 2 0 19:57 22.12.2021
4783 Clear -30 1025 69 10000 1 0 18:56 22.12.2021
4784 Clear -28 1025 76 10000 1 0 17:38 22.12.2021
4785 Clear -26 1025 76 10000 2 0 16:25 22.12.2021
4786 Clear -20 1024 84 10000 1 0 15:21 22.12.2021
4787 Clouds -17 1023 78 10000 1 0 12:59 22.12.2021
4788 Clouds -16 1022 78 10000 1 0 11:50 22.12.2021
4789 Clouds -12 1021 61 10000 3 320 09:53 22.12.2021
4790 Clouds -11 1020 62 10000 4 340 08:34 22.12.2021
4791 Clouds -12 1020 72 6000 1 0 05:56 22.12.2021
4792 Clouds -12 1020 67 6000 1 0 05:37 22.12.2021
4793 Clouds -13 1020 72 6000 0 0 05:19 22.12.2021
4794 Clouds -14 1020 72 6000 1 0 04:42 22.12.2021
4795 Clouds -17 1020 85 6000 0 0 03:53 22.12.2021
4796 Clouds -19 1019 84 6000 1 0 03:31 22.12.2021
4797 Snow -18 1018 85 8000 1 0 23:49 21.12.2021
4798 Clouds -19 1018 84 8000 1 0 22:41 21.12.2021
4799 Clear -21 1018 77 10000 2 0 21:58 21.12.2021
4800 Clear -21 1018 77 10000 2 0 21:33 21.12.2021
4801 Clouds -21 1018 77 10000 2 0 20:42 21.12.2021
4802 Clouds -21 1018 77 10000 2 0 20:18 21.12.2021
4803 Clouds -21 1018 77 10000 1 0 19:34 21.12.2021
4804 Clouds -22 1017 84 10000 1 0 18:28 21.12.2021
4805 Clear -22 1017 84 10000 1 0 17:59 21.12.2021
4806 Clear -22 1017 84 10000 1 0 17:40 21.12.2021
4807 Clear -23 1017 77 10000 2 0 15:46 21.12.2021
4808 Clear -22 1016 77 10000 1 0 14:24 21.12.2021
4809 Clear -22 1015 77 10000 1 0 13:42 21.12.2021
4810 Clear -18 1015 78 10000 1 0 12:29 21.12.2021
4811 Clear -17 1013 78 10000 2 0 10:52 21.12.2021
4812 Clear -11 1013 62 8000 1 0 09:56 21.12.2021
4813 Clear -8 1012 53 8000 0 0 08:57 21.12.2021
4814 Clear -10 1012 57 8000 1 0 07:45 21.12.2021
4815 Clouds -11 1012 62 6000 1 0 07:23 21.12.2021
4816 Clouds -16 1012 72 6000 0 0 04:26 21.12.2021
4817 Clouds -23 1012 84 8000 0 0 02:30 21.12.2021
4818 Clear -24 1011 77 10000 1 0 23:55 20.12.2021
4819 Clear -24 1010 77 10000 1 0 22:44 20.12.2021
4820 Clear -24 1010 77 10000 1 0 22:25 20.12.2021
4821 Clear -22 1010 77 10000 1 0 21:27 20.12.2021
4822 Clear -21 1010 77 10000 0 0 20:54 20.12.2021
4823 Clear -21 1010 77 10000 0 0 20:23 20.12.2021
4824 Clear -21 1010 77 10000 2 0 19:38 20.12.2021
4825 Clear -21 1010 77 10000 2 0 19:19 20.12.2021
4826 Clear -23 1010 84 10000 0 0 18:33 20.12.2021
4827 Clear -22 1010 84 10000 1 0 17:50 20.12.2021
4828 Clear -21 1010 77 10000 2 0 16:47 20.12.2021
4829 Clear -21 1010 77 10000 2 0 16:18 20.12.2021
4830 Clear -21 1010 77 10000 0 0 15:40 20.12.2021
4831 Clear -17 1010 71 10000 1 0 13:49 20.12.2021
4832 Clear -15 1009 72 10000 2 0 12:30 20.12.2021
4833 Clear -11 1009 62 10000 1 0 10:46 20.12.2021
4834 Clear -10 1009 62 10000 3 180 09:40 20.12.2021
4835 Clear -5 1008 46 10000 1 0 08:50 20.12.2021
4836 Clear -5 1008 46 10000 1 0 08:32 20.12.2021
4837 Clear -4 1008 42 10000 1 0 07:35 20.12.2021
4838 Clear -5 1008 46 10000 2 0 06:39 20.12.2021
4839 Clear -18 1007 78 10000 2 0 00:20 20.12.2021
4840 Clear -17 1006 71 10000 1 0 22:58 19.12.2021
4841 Clear -17 1006 71 10000 1 0 22:40 19.12.2021
4842 Clear -16 1006 66 10000 1 0 21:32 19.12.2021
4843 Clear -12 1006 61 10000 2 0 20:42 19.12.2021
4844 Clear -12 1006 61 10000 2 0 20:23 19.12.2021
4845 Clear -13 1006 66 10000 3 190 19:41 19.12.2021
4846 Clear -11 1005 62 10000 2 0 18:42 19.12.2021
4847 Clear -11 1005 62 10000 2 0 17:53 19.12.2021
4848 Clear -10 1005 62 10000 3 330 17:30 19.12.2021
4849 Clear -10 1004 62 10000 2 0 16:41 19.12.2021
4850 Clear -11 1004 67 10000 2 0 15:56 19.12.2021
4851 Clear -11 1004 67 10000 2 0 15:24 19.12.2021
4852 Clear -9 1004 62 10000 3 60 14:45 19.12.2021
4853 Clear -9 1003 62 10000 2 0 13:32 19.12.2021
4854 Clear -10 1003 57 10000 3 130 12:59 19.12.2021
4855 Clear -10 1003 57 10000 3 130 12:29 19.12.2021
4856 Clear -15 1003 72 10000 4 160 11:37 19.12.2021
4857 Clouds -6 1003 49 10000 1 0 10:50 19.12.2021
4858 Clouds -6 1003 49 10000 1 0 10:22 19.12.2021
4859 Clouds -5 1003 46 10000 2 0 08:50 19.12.2021
4860 Clouds -6 1004 49 10000 1 0 06:45 19.12.2021
4861 Clear -22 1005 77 8000 1 0 01:51 19.12.2021
4862 Clear -23 1006 84 10000 1 0 00:54 19.12.2021
4863 Clear -22 1006 77 10000 2 0 22:59 18.12.2021
4864 Clear -22 1006 77 10000 2 0 22:24 18.12.2021
4865 Clear -21 1006 84 10000 0 0 21:43 18.12.2021
4866 Clear -21 1006 84 10000 0 0 21:22 18.12.2021
4867 Clear -22 1007 77 10000 1 0 20:26 18.12.2021
4868 Clear -23 1007 77 10000 1 0 19:35 18.12.2021
4869 Clear -23 1007 77 10000 0 0 18:24 18.12.2021
4870 Clear -22 1007 77 10000 1 0 17:49 18.12.2021
4871 Clear -24 1007 77 10000 1 0 16:36 18.12.2021
4872 Clear -24 1007 77 10000 1 0 16:18 18.12.2021
4873 Clouds -22 1008 77 10000 2 0 14:54 18.12.2021
4874 Clouds -21 1008 71 10000 0 0 13:44 18.12.2021
4875 Clouds -19 1008 65 8000 2 0 11:55 18.12.2021
4876 Clouds -18 1008 65 6000 2 0 09:54 18.12.2021
4877 Clouds -18 1008 65 6000 2 0 09:31 18.12.2021
4878 Clouds -16 1009 55 6000 1 0 08:36 18.12.2021
4879 Clouds -19 1011 60 6000 1 0 06:28 18.12.2021
4880 Clear -31 1015 69 8000 2 0 00:59 18.12.2021
4881 Clear -32 1016 68 10000 1 0 23:47 17.12.2021
4882 Clear -32 1016 68 10000 1 0 22:39 17.12.2021
4883 Clear -29 1017 69 10000 2 0 21:29 17.12.2021
4884 Clear -31 1017 69 10000 2 0 20:43 17.12.2021
4885 Clear -30 1018 69 10000 0 0 19:51 17.12.2021
4886 Clear -30 1018 69 10000 0 0 18:39 17.12.2021
4887 Clear -30 1018 63 10000 1 0 17:50 17.12.2021
4888 Clear -29 1019 69 10000 1 0 16:51 17.12.2021
4889 Clear -29 1019 69 10000 1 0 16:27 17.12.2021
4890 Clear -28 1018 69 10000 1 0 15:38 17.12.2021
4891 Clear -26 1019 70 10000 1 0 14:42 17.12.2021
4892 Clear -27 1018 63 10000 2 0 13:45 17.12.2021
4893 Clear -28 1017 63 10000 2 0 12:36 17.12.2021
4894 Clear -26 1017 64 10000 3 180 10:41 17.12.2021
4895 Clear -20 1017 54 10000 1 0 09:47 17.12.2021
4896 Clear -20 1017 54 10000 1 0 09:47 17.12.2021
4897 Clouds -19 1016 50 8000 2 0 08:31 17.12.2021
4898 Clouds -20 1016 65 6000 1 0 07:21 17.12.2021
4899 Smoke -25 1018 77 5000 1 0 04:40 17.12.2021
4900 Clouds -22 1037 76 10000 1.7 99 00:22 17.12.2021
4901 Clouds -23 1039 80 10000 1.76 96 22:24 16.12.2021
4902 Clouds -23 1039 80 10000 1.76 96 21:51 16.12.2021
4903 Clouds -23 1039 80 10000 1.76 96 21:33 16.12.2021
4904 Clouds -23 1040 83 10000 1.66 99 20:31 16.12.2021
4905 Clear -23 1042 86 10000 1.66 104 19:51 16.12.2021
4906 Clear -23 1043 90 10000 1.27 121 18:41 16.12.2021
4907 Clear -23 1043 92 10000 1.13 113 18:22 16.12.2021
4908 Clear -33 1027 68 10000 0 0 17:32 16.12.2021
4909 Clear -33 1027 62 10000 2 0 16:23 16.12.2021
4910 Clear -28 1028 69 10000 0 0 15:20 16.12.2021
4911 Clear -29 1029 69 10000 0 0 13:43 16.12.2021
4912 Clear -25 1029 70 10000 2 0 11:46 16.12.2021
4913 Clear -25 1029 70 10000 2 0 11:18 16.12.2021
4914 Clear -26 1029 76 10000 3 170 10:27 16.12.2021
4915 Clear -21 1029 59 10000 3 190 08:56 16.12.2021
4916 Clear -21 1029 59 10000 2 0 06:22 16.12.2021
4917 Clear -28 1029 76 10000 0 0 02:59 16.12.2021
4918 Clear -33 1027 62 10000 2 0 23:35 15.12.2021
4919 Clear -32 1026 62 10000 2 0 22:48 15.12.2021
4920 Clear -33 1026 68 10000 2 0 21:58 15.12.2021
4921 Clear -33 1026 68 10000 2 0 21:28 15.12.2021
4922 Clear -31 1026 69 10000 0 0 20:31 15.12.2021
4923 Clear -25 1025 70 10000 2 0 19:52 15.12.2021
4924 Clouds -25 1025 70 10000 2 0 18:39 15.12.2021
4925 Clouds -22 1024 59 10000 3 350 17:57 15.12.2021
4926 Clouds -22 1024 59 10000 3 350 17:39 15.12.2021
4927 Clouds -22 1024 59 10000 3 340 16:35 15.12.2021
4928 Clouds -20 1023 59 10000 4 30 15:47 15.12.2021
4929 Clouds -20 1023 59 10000 4 30 15:47 15.12.2021
4930 Clouds -20 1023 59 10000 4 30 15:29 15.12.2021
4931 Clouds -20 1022 59 10000 3 330 14:43 15.12.2021
4932 Clouds -18 1021 55 10000 5 360 13:27 15.12.2021
4933 Clouds -17 1018 55 10000 4 340 10:49 15.12.2021
4934 Clouds -16 1016 55 10000 6 350 09:28 15.12.2021
4935 Clouds -15 1015 61 10000 6 350 07:47 15.12.2021
4936 Mist -15 1012 78 3000 1 0 02:40 15.12.2021
4937 Snow -17 1009 78 6000 1 0 23:44 14.12.2021
4938 Snow -17 1009 71 8000 1 0 22:49 14.12.2021
4939 Snow -17 1009 71 8000 1 0 22:49 14.12.2021
4940 Snow -17 1009 71 8000 1 0 22:49 14.12.2021
4941 Snow -17 1009 71 8000 1 0 22:30 14.12.2021
4942 Snow -18 1009 78 8000 0 0 21:24 14.12.2021
4943 Clouds -22 1009 77 10000 0 0 19:44 14.12.2021
4944 Clouds -22 1009 77 10000 0 0 19:21 14.12.2021
4945 Clouds -23 1009 77 10000 0 0 18:34 14.12.2021
4946 Clouds -22 1009 77 10000 1 0 17:34 14.12.2021
4947 Clouds -23 1009 77 10000 0 0 16:43 14.12.2021
4948 Clouds -23 1010 77 10000 0 0 15:52 14.12.2021
4949 Clouds -21 1010 71 10000 1 0 13:33 14.12.2021
4950 Clouds -21 1010 77 10000 1 0 12:41 14.12.2021
4951 Clouds -21 1009 71 8000 1 0 11:24 14.12.2021
4952 Clouds -19 1009 71 8000 1 0 10:27 14.12.2021
4953 Clouds -14 1009 61 8000 1 0 09:53 14.12.2021
4954 Clouds -12 1009 56 8000 1 0 08:29 14.12.2021
4955 Clouds -13 1009 61 8000 2 0 07:59 14.12.2021
4956 Smoke -15 1010 61 5000 1 0 05:52 14.12.2021
4957 Clear -26 1010 76 10000 0 0 23:39 13.12.2021
4958 Clear -26 1010 76 10000 1 0 21:57 13.12.2021
4959 Clear -26 1010 76 10000 1 0 21:34 13.12.2021
4960 Clear -26 1010 76 10000 1 0 21:34 13.12.2021
4961 Clear -26 1010 70 10000 1 0 20:50 13.12.2021
4962 Clouds -25 1009 77 8000 1 0 19:59 13.12.2021
4963 Clouds -25 1009 77 8000 1 0 19:27 13.12.2021
4964 Clear -24 1009 70 10000 1 0 17:27 13.12.2021
4965 Clear -24 1009 70 10000 1 0 17:27 13.12.2021
4966 Clear -24 1009 70 10000 0 0 16:23 13.12.2021
4967 Clear -23 1008 70 10000 1 0 15:43 13.12.2021
4968 Clear -23 1008 70 10000 1 0 15:43 13.12.2021
4969 Clear -20 1008 71 10000 1 0 13:52 13.12.2021
4970 Clear -20 1008 71 10000 1 0 13:18 13.12.2021
4971 Clear -21 1007 71 10000 0 0 12:36 13.12.2021
4972 Clouds -18 1006 65 10000 2 0 11:40 13.12.2021
4973 Clouds -18 1006 65 10000 2 0 11:19 13.12.2021
4974 Clouds -17 1006 60 10000 0 0 10:21 13.12.2021
4975 Clear -10 1006 44 8000 1 0 08:31 13.12.2021
4976 Clouds -14 1007 56 6000 1 0 05:37 13.12.2021
4977 Clear -22 1008 71 6000 1 0 03:32 13.12.2021
4978 Clear -14 1020 73 10000 1.44 95 23:39 12.12.2021
4979 Clear -14 1021 73 10000 1.68 95 21:52 12.12.2021
4980 Clear -14 1021 73 10000 1.78 101 20:46 12.12.2021
4981 Clear -14 1022 72 10000 1.83 102 19:33 12.12.2021
4982 Clouds -14 1024 71 10000 1.79 104 17:46 12.12.2021
4983 Clear -14 1025 71 10000 1.96 105 16:28 12.12.2021
4984 Clear -22 1015 77 8000 1 0 15:51 12.12.2021
4985 Clear -22 1015 77 8000 1 0 15:26 12.12.2021
4986 Clear -23 1016 70 8000 1 0 14:37 12.12.2021
4987 Clouds -22 1017 71 8000 2 0 13:43 12.12.2021
4988 Clouds -21 1018 71 8000 1 0 12:37 12.12.2021
4989 Clouds -20 1018 71 8000 2 0 11:45 12.12.2021
4990 Clouds -20 1018 71 8000 2 0 11:25 12.12.2021
4991 Clouds -19 1019 71 8000 2 0 10:39 12.12.2021
4992 Clear -15 1019 61 8000 0 0 09:44 12.12.2021
4993 Clouds -13 1020 52 8000 1 0 08:38 12.12.2021
4994 Clouds -14 1023 56 8000 1 0 06:34 12.12.2021
4995 Clouds -18 1025 65 6000 1 0 05:27 12.12.2021
4996 Clouds -19 1026 71 6000 0 0 03:58 12.12.2021
4997 Clouds -17 1042 79 10000 1.26 77 00:42 12.12.2021
4998 Clear -26 1030 84 10000 0 0 22:42 11.12.2021
4999 Clear -26 1030 84 10000 0 0 22:19 11.12.2021
5000 Clear -28 1030 76 10000 1 0 21:22 11.12.2021
5001 Clear -28 1031 69 10000 0 0 19:40 11.12.2021
5002 Clear -28 1031 69 10000 0 0 19:20 11.12.2021
5003 Clear -25 1032 70 10000 0 0 18:38 11.12.2021
5004 Clear -24 1032 70 10000 1 0 17:41 11.12.2021
5005 Clear -25 1032 70 10000 3 130 15:57 11.12.2021
5006 Clear -24 1033 70 10000 1 0 15:35 11.12.2021
5007 Clear -24 1033 70 10000 3 160 13:46 11.12.2021
5008 Clear -23 1032 70 10000 3 150 11:58 11.12.2021
5009 Clear -18 1032 60 10000 0 0 10:24 11.12.2021
5010 Clear -16 1032 60 10000 1 0 09:37 11.12.2021
5011 Clear -22 1030 77 10000 3 170 03:25 11.12.2021
5012 Clouds -26 1028 100 10000 2 0 00:44 11.12.2021
5013 Clouds -24 1027 77 10000 2 0 23:39 10.12.2021
5014 Clouds -23 1026 77 10000 2 0 22:33 10.12.2021
5015 Clouds -23 1026 84 10000 3 160 21:37 10.12.2021
5016 Clouds -20 1025 77 10000 3 170 19:55 10.12.2021
5017 Clouds -20 1025 77 10000 3 170 19:18 10.12.2021
5018 Clouds -19 1025 78 10000 2 0 17:23 10.12.2021
5019 Clouds -19 1025 78 10000 2 0 16:34 10.12.2021
5020 Clouds -19 1025 84 10000 2 0 15:43 10.12.2021
5021 Clouds -19 1025 84 10000 2 0 15:23 10.12.2021
5022 Clouds -18 1025 78 10000 2 0 13:53 10.12.2021
5023 Clouds -18 1025 78 10000 2 0 13:31 10.12.2021
5024 Clouds -16 1025 85 10000 1 0 12:51 10.12.2021
5025 Clouds -17 1024 85 10000 1 0 11:36 10.12.2021
5026 Clouds -16 1024 85 10000 1 0 10:55 10.12.2021
5027 Clouds -10 1023 57 10000 4 330 09:33 10.12.2021
5028 Clouds -10 1023 67 10000 5 320 07:24 10.12.2021
5029 Clouds -10 1024 79 10000 4 330 04:32 10.12.2021
5030 Snow -10 1023 92 8000 2 0 02:29 10.12.2021
5031 Snow -12 1021 85 6000 1 0 23:39 09.12.2021
5032 Clouds -14 1021 85 6000 1 0 22:41 09.12.2021
5033 Clouds -14 1021 85 6000 1 0 22:21 09.12.2021
5034 Clouds -17 1021 85 6000 0 0 21:38 09.12.2021
5035 Clouds -18 1022 85 6000 1 0 20:34 09.12.2021
5036 Clouds -18 1022 85 6000 2 0 19:22 09.12.2021
5037 Clouds -18 1022 85 6000 1 0 18:59 09.12.2021
5038 Clouds -17 1022 85 6000 1 0 17:58 09.12.2021
5039 Clouds -17 1022 85 6000 1 0 17:29 09.12.2021
5040 Clouds -16 1022 85 8000 1 0 16:57 09.12.2021
5041 Clouds -16 1022 85 8000 1 0 16:25 09.12.2021
5042 Clouds -17 1023 85 10000 1 0 14:59 09.12.2021
5043 Clouds -17 1022 85 10000 1 0 13:52 09.12.2021
5044 Clear -18 1022 85 10000 2 0 12:47 09.12.2021
5045 Clear -17 1022 85 10000 2 0 11:29 09.12.2021
5046 Clear -13 1021 78 10000 2 0 10:20 09.12.2021
5047 Clear -7 1021 73 10000 2 0 06:59 09.12.2021
5048 Clouds -10 1021 73 10000 1 0 03:55 09.12.2021
5049 Clouds -15 1018 78 10000 3 150 00:25 09.12.2021
5050 Clear -14 1018 78 10000 2 0 23:36 08.12.2021
5051 Clear -16 1017 78 10000 3 160 22:57 08.12.2021
5052 Clear -17 1017 78 10000 1 0 21:50 08.12.2021
5053 Clear -17 1017 78 10000 1 0 21:32 08.12.2021
5054 Clear -18 1017 78 10000 2 0 20:48 08.12.2021
5055 Clear -18 1016 71 10000 1 0 19:55 08.12.2021
5056 Clear -18 1016 71 10000 2 0 18:58 08.12.2021
5057 Clear -18 1016 71 10000 2 0 18:22 08.12.2021
5058 Clear -17 1015 71 10000 3 160 16:49 08.12.2021
5059 Clear -15 1015 78 10000 1 0 15:41 08.12.2021
5060 Clear -15 1015 78 10000 1 0 15:22 08.12.2021
5061 Clouds -11 1014 67 10000 1 0 13:21 08.12.2021
5062 Clouds -12 1013 67 8000 1 0 10:44 08.12.2021
5063 Clouds -7 1013 53 8000 1 0 09:32 08.12.2021
5064 Clouds -7 1013 53 8000 0 0 08:31 08.12.2021
5065 Clouds -9 1014 53 8000 1 0 05:37 08.12.2021
5066 Clouds -11 1026 69 10000 2.45 105 00:27 08.12.2021
5067 Clouds -11 1026 70 10000 2.41 104 23:22 07.12.2021
5068 Clouds -11 1027 72 10000 2.33 100 21:25 07.12.2021
5069 Clouds -11 1028 72 10000 2.34 97 20:25 07.12.2021
5070 Clear -11 1028 74 10000 2.17 98 18:59 07.12.2021
5071 Clear -11 1029 74 10000 2.13 97 18:21 07.12.2021
5072 Clear -11 1029 73 10000 2.25 93 17:24 07.12.2021
5073 Clear -11 1029 73 10000 2.25 93 16:53 07.12.2021
5074 Clear -10 1029 74 10000 2.1 95 16:25 07.12.2021
5075 Clear -10 1029 73 10000 2 95 14:38 07.12.2021
5076 Clear -18 1020 78 10000 1 0 13:40 07.12.2021
5077 Clear -16 1020 78 10000 1 0 12:22 07.12.2021
5078 Clear -16 1019 78 10000 2 0 11:19 07.12.2021
5079 Clouds -7 1019 53 8000 1 0 09:36 07.12.2021
5080 Clouds -7 1020 53 6000 1 0 07:35 07.12.2021
5081 Clouds -10 1021 57 6000 1 0 05:51 07.12.2021
5082 Clouds -11 1021 57 6000 1 0 05:26 07.12.2021
5083 Clear -19 1021 84 10000 1 0 23:24 06.12.2021
5084 Clear -19 1021 78 10000 0 0 22:40 06.12.2021
5085 Clear -20 1022 77 10000 1 0 21:59 06.12.2021
5086 Clear -20 1022 77 10000 1 0 21:59 06.12.2021
5087 Clear -20 1022 77 10000 1 0 21:31 06.12.2021
5088 Clouds -10 1030 71 10000 2.34 94 20:32 06.12.2021
5089 Clouds -11 1031 74 10000 2.13 92 19:24 06.12.2021
5090 Clouds -11 1031 74 10000 2.13 92 18:40 06.12.2021
5091 Clouds -11 1031 76 10000 2.09 92 17:54 06.12.2021
5092 Clouds -11 1031 76 10000 2.09 92 17:33 06.12.2021
5093 Clear -19 1022 84 10000 2 0 15:51 06.12.2021
5094 Clear -18 1022 78 10000 0 0 14:38 06.12.2021
5095 Clear -17 1022 85 10000 2 0 13:28 06.12.2021
5096 Clear -16 1022 78 10000 1 0 12:37 06.12.2021
5097 Clear -14 1022 72 10000 3 160 10:23 06.12.2021
5098 Clear -6 1022 53 8000 1 0 07:40 06.12.2021
5099 Clear -11 1035 76 10000 2.37 103 02:26 06.12.2021
5100 Clear -22 1027 77 8000 0 0 22:25 05.12.2021
5101 Clear -22 1028 77 8000 1 0 21:25 05.12.2021
5102 Clear -20 1028 84 8000 1 0 20:43 05.12.2021
5103 Clear -20 1028 84 8000 1 0 20:18 05.12.2021
5104 Clear -21 1027 77 8000 1 0 19:23 05.12.2021
5105 Clear -21 1027 77 8000 1 0 18:28 05.12.2021
5106 Clear -18 1027 78 10000 1 0 17:49 05.12.2021
5107 Clear -18 1027 78 10000 1 0 17:18 05.12.2021
5108 Clear -18 1027 85 10000 1 0 16:28 05.12.2021
5109 Clear -18 1027 85 10000 0 0 15:59 05.12.2021
5110 Clear -18 1026 78 10000 3 170 14:48 05.12.2021
5111 Clear -18 1026 78 10000 3 170 14:29 05.12.2021
5112 Clear -17 1026 78 10000 2 0 13:33 05.12.2021
5113 Clear -16 1026 78 10000 1 0 12:43 05.12.2021
5114 Clear -16 1025 78 10000 2 0 12:25 05.12.2021
5115 Clear -15 1025 72 10000 2 0 11:43 05.12.2021
5116 Clear -8 1024 62 10000 1 0 10:24 05.12.2021
5117 Clear -6 1024 53 10000 0 0 09:35 05.12.2021
5118 Clouds -10 1021 57 8000 0 0 04:57 05.12.2021
5119 Clear -22 1018 77 8000 2 0 01:24 05.12.2021
5120 Clear -22 1017 77 10000 1 0 22:44 04.12.2021
5121 Clear -20 1016 77 10000 1 0 21:37 04.12.2021
5122 Clear -18 1016 71 10000 0 0 20:46 04.12.2021
5123 Clear -21 1015 77 10000 1 0 19:43 04.12.2021
5124 Clear -21 1015 77 10000 1 0 19:23 04.12.2021
5125 Clear -18 1014 78 10000 1 0 17:52 04.12.2021
5126 Clear -18 1014 78 10000 1 0 17:22 04.12.2021
5127 Clouds -16 1014 78 8000 1 0 16:46 04.12.2021
5128 Clouds -16 1014 78 8000 1 0 16:27 04.12.2021
5129 Clouds -17 1013 71 8000 2 0 12:57 04.12.2021
5130 Clouds -13 1013 66 6000 1 0 11:40 04.12.2021
5131 Clouds -15 1013 72 8000 3 170 10:59 04.12.2021
5132 Clear -9 1014 57 6000 3 170 09:44 04.12.2021
5133 Clear -6 1014 49 6000 1 0 08:35 04.12.2021
5134 Clouds -13 1018 66 6000 1 0 04:43 04.12.2021
5135 Clouds -16 1018 78 6000 0 0 03:36 04.12.2021
5136 Clear -10 1027 69 10000 1.58 100 23:47 03.12.2021
5137 Clear -20 1020 77 10000 2 0 22:53 03.12.2021
5138 Clear -20 1020 84 10000 1 0 21:57 03.12.2021
5139 Clear -20 1020 84 10000 1 0 21:23 03.12.2021
5140 Clear -10 1028 69 10000 1.56 87 20:42 03.12.2021
5141 Clear -19 1021 78 10000 2 160 19:28 03.12.2021
5142 Clear -19 1021 71 10000 1 0 18:24 03.12.2021
5143 Clear -18 1021 78 10000 1 0 17:31 03.12.2021
5144 Clear -17 1022 71 10000 1 0 13:40 03.12.2021
5145 Clear -16 1022 72 10000 1 0 12:44 03.12.2021
5146 Clear -16 1021 72 10000 2 150 11:23 03.12.2021
5147 Clear -5 1021 50 10000 1 0 09:22 03.12.2021
5148 Clear -5 1021 54 10000 2 0 08:20 03.12.2021
5149 Clear -6 1022 53 8000 1 0 06:44 03.12.2021
5150 Clear -21 1021 77 10000 2 0 00:50 03.12.2021
5151 Clear -21 1021 84 10000 1 0 00:21 03.12.2021
5152 Clear -19 1021 78 10000 1 0 23:38 02.12.2021
5153 Clear -20 1021 84 10000 2 0 21:41 02.12.2021
5154 Clear -20 1021 84 10000 2 0 21:41 02.12.2021
5155 Clear -20 1021 77 10000 2 0 20:46 02.12.2021
5156 Clear -20 1021 77 10000 2 0 20:26 02.12.2021
5157 Clear -19 1020 78 10000 0 0 19:23 02.12.2021
5158 Clear -19 1020 71 10000 0 0 17:30 02.12.2021
5159 Clear -18 1020 78 10000 2 0 15:41 02.12.2021
5160 Clear -17 1020 78 10000 1 0 14:57 02.12.2021
5161 Clear -14 1020 72 10000 2 0 13:45 02.12.2021
5162 Clear -16 1020 78 10000 4 170 12:52 02.12.2021
5163 Clear -16 1019 78 10000 1 0 11:53 02.12.2021
5164 Clear -3 1019 46 10000 0 0 09:28 02.12.2021
5165 Clear -3 1019 46 10000 5 310 08:20 02.12.2021
5166 Clear -6 1019 58 10000 0 0 03:33 02.12.2021
5167 Clear -17 1016 78 10000 2 0 00:51 02.12.2021
5168 Clear -17 1016 71 10000 1 0 22:41 01.12.2021
5169 Clear -17 1016 71 10000 1 0 22:23 01.12.2021
5170 Clear -15 1017 72 10000 2 0 20:35 01.12.2021
5171 Clear -20 1017 77 10000 1 0 19:51 01.12.2021
5172 Clear -20 1017 77 10000 1 0 19:21 01.12.2021
5173 Clear -19 1018 78 10000 1 0 17:42 01.12.2021
5174 Clear -20 1019 77 10000 1 0 16:38 01.12.2021
5175 Clear -22 1019 84 10000 2 0 14:49 01.12.2021
5176 Clear -18 1019 85 10000 1 0 13:44 01.12.2021
5177 Clear -18 1020 71 10000 1 0 11:42 01.12.2021
5178 Clear -14 1020 72 10000 0 0 10:42 01.12.2021
5179 Clear -9 1021 57 10000 1 0 08:55 01.12.2021
5180 Clouds -9 1021 57 8000 1 0 08:26 01.12.2021
5181 Clouds -10 1021 62 8000 1 0 07:33 01.12.2021
5182 Clouds -16 1023 78 6000 1 0 04:22 01.12.2021
5183 Clouds -18 1023 78 6000 1 0 03:39 01.12.2021
5184 Clear -14 1034 85 10000 0.99 84 00:51 01.12.2021
5185 Clear -23 1022 77 10000 1 0 23:37 30.11.2021
5186 Clear -24 1023 70 10000 2 0 22:48 30.11.2021
5187 Clear -24 1024 77 10000 0 0 20:59 30.11.2021
5188 Clear -24 1024 77 10000 0 0 20:34 30.11.2021
5189 Clear -23 1024 77 10000 0 0 19:53 30.11.2021
5190 Clear -23 1024 77 10000 0 0 19:27 30.11.2021
5191 Clear -23 1024 77 10000 1 0 18:24 30.11.2021
5192 Clear -23 1024 77 10000 2 0 16:25 30.11.2021
5193 Clear -23 1024 77 10000 1 0 14:35 30.11.2021
5194 Clear -21 1024 77 10000 2 0 13:52 30.11.2021
5195 Clear -21 1024 77 10000 2 0 13:24 30.11.2021
5196 Clear -21 1024 77 10000 2 0 13:24 30.11.2021
5197 Clear -21 1024 71 10000 1 0 12:44 30.11.2021
5198 Clear -21 1024 77 10000 0 0 11:27 30.11.2021
5199 Clear -20 1024 71 10000 1 0 10:47 30.11.2021
5200 Clear -15 1024 66 10000 0 0 10:29 30.11.2021
5201 Clear -11 1024 62 10000 2 0 08:51 30.11.2021
5202 Clear -10 1024 57 10000 2 0 08:20 30.11.2021
5203 Clear -10 1025 57 10000 2 0 07:39 30.11.2021
5204 Clouds -26 1027 70 8000 1 0 01:52 30.11.2021
5205 Clouds -16 1039 92 10000 0.61 94 01:32 30.11.2021
5206 Clear -26 1026 70 10000 2 160 23:57 29.11.2021
5207 Clouds -16 1040 96 10000 0.39 66 23:21 29.11.2021
5208 Clear -26 1027 76 10000 1 0 22:44 29.11.2021
5209 Clear -26 1027 76 10000 1 0 22:25 29.11.2021
5210 Clear -26 1027 70 10000 1 0 21:22 29.11.2021
5211 Clear -25 1027 77 10000 1 0 20:56 29.11.2021
5212 Clear -25 1027 77 10000 1 0 20:22 29.11.2021
5213 Clear -25 1027 77 10000 1 0 19:44 29.11.2021
5214 Clear -25 1027 77 10000 1 0 19:44 29.11.2021
5215 Clear -25 1027 77 10000 1 0 19:26 29.11.2021
5216 Clouds -17 1041 99 8679 0.27 164 18:47 29.11.2021
5217 Clouds -16 1042 99 7158 0.43 181 17:22 29.11.2021
5218 Clouds -16 1042 99 7158 0.43 181 16:56 29.11.2021
5219 Clouds -16 1042 100 5657 0.65 185 16:25 29.11.2021
5220 Clouds -16 1042 99 6022 0.27 153 15:24 29.11.2021
5221 Clouds -16 1042 99 6022 0.27 153 14:41 29.11.2021
5222 Clouds -15 1041 99 8266 0.54 19 13:25 29.11.2021
5223 Clouds -15 1040 98 8909 0.95 357 12:20 29.11.2021
5224 Clouds -15 1040 98 8909 0.95 357 11:31 29.11.2021
5225 Clouds -14 1038 97 10000 1.39 316 10:27 29.11.2021
5226 Clear -9 1025 67 10000 4 300 08:30 29.11.2021
5227 Clear -10 1025 73 10000 1 0 05:54 29.11.2021
5228 Clouds -20 1022 77 10000 1 0 01:31 29.11.2021
5229 Clouds -18 1022 78 10000 1 0 00:35 29.11.2021
5230 Snow -19 1022 78 10000 0 0 23:41 28.11.2021
5231 Snow -17 1022 85 10000 1 0 22:30 28.11.2021
5232 Snow -17 1023 85 10000 1 0 21:41 28.11.2021
5233 Snow -17 1023 85 10000 1 0 21:41 28.11.2021
5234 Clear -18 1023 85 10000 1 0 20:51 28.11.2021
5235 Clear -18 1023 85 10000 1 0 19:54 28.11.2021
5236 Clear -22 1024 77 10000 1 0 18:42 28.11.2021
5237 Clear -22 1024 77 10000 1 0 18:23 28.11.2021
5238 Clear -22 1025 77 10000 1 0 17:46 28.11.2021
5239 Clear -22 1025 77 10000 1 0 17:18 28.11.2021
5240 Clear -22 1025 77 10000 2 0 16:28 28.11.2021
5241 Clear -20 1026 71 10000 1 0 15:51 28.11.2021
5242 Clear -20 1026 71 10000 1 0 14:56 28.11.2021
5243 Clear -18 1026 85 10000 1 0 14:29 28.11.2021
5244 Clear -16 1027 78 10000 1 0 12:54 28.11.2021
5245 Clear -18 1027 78 10000 3 190 11:56 28.11.2021
5246 Clear -15 1027 72 10000 4 170 10:37 28.11.2021
5247 Clear -15 1027 72 10000 4 170 10:18 28.11.2021
5248 Clear -11 1027 62 10000 2 0 09:36 28.11.2021
5249 Clear -11 1029 67 10000 3 290 05:23 28.11.2021
5250 Clouds -11 1025 79 10000 4 310 22:58 27.11.2021
5251 Snow -10 1024 85 8000 3 330 20:28 27.11.2021
5252 Snow -9 1023 79 5000 4 330 18:44 27.11.2021
5253 Snow -9 1022 86 8000 4 300 16:19 27.11.2021
5254 Snow -8 1022 79 6000 2 0 15:32 27.11.2021
5255 Snow -7 1021 79 10000 4 360 13:41 27.11.2021
5256 Clouds -7 1020 79 10000 4 340 12:27 27.11.2021
5257 Clouds -5 1018 74 10000 5 340 10:30 27.11.2021
5258 Clouds -3 1017 68 10000 4 350 09:41 27.11.2021
5259 Clear -2 1016 59 10000 2 0 07:44 27.11.2021
5260 Clouds -9 1016 73 8000 1 0 04:55 27.11.2021
5261 Clear -18 1014 85 10000 0 0 00:31 27.11.2021
5262 Clouds -9 1023 83 10000 1.81 54 22:52 26.11.2021
5263 Clouds -9 1023 83 10000 1.74 65 22:24 26.11.2021
5264 Clear -17 1014 85 10000 1 0 21:34 26.11.2021
5265 Clear -16 1014 78 10000 1 0 20:45 26.11.2021
5266 Clear -17 1014 85 10000 2 0 19:56 26.11.2021
5267 Clear -17 1014 85 10000 2 0 19:28 26.11.2021
5268 Clear -16 1014 85 10000 1 0 17:55 26.11.2021
5269 Clear -16 1014 85 10000 1 0 17:21 26.11.2021
5270 Clear -16 1014 78 10000 1 0 15:56 26.11.2021
5271 Clear -12 1014 85 10000 1 0 13:35 26.11.2021
5272 Clear -14 1014 78 10000 1 0 12:30 26.11.2021
5273 Clear -12 1013 79 10000 1 0 10:37 26.11.2021
5274 Clear -4 1013 58 10000 1 0 08:58 26.11.2021
5275 Clear -2 1013 50 10000 1 0 08:21 26.11.2021
5276 Clouds -3 1014 54 8000 1 0 07:26 26.11.2021
5277 Clouds -4 1014 54 8000 1 0 06:26 26.11.2021
5278 Clouds -11 1017 79 8000 0 0 03:59 26.11.2021
5279 Clouds -9 1026 81 10000 2.59 106 01:55 26.11.2021
5280 Clear -10 1028 82 10000 2.44 104 23:18 25.11.2021
5281 Clear -10 1029 81 10000 2.36 109 21:26 25.11.2021
5282 Clear -9 1029 80 10000 2.37 112 20:27 25.11.2021
5283 Clear -18 1021 85 10000 0 0 18:48 25.11.2021
5284 Clear -19 1021 84 10000 1 0 17:48 25.11.2021
5285 Clear -19 1021 84 10000 1 0 17:25 25.11.2021
5286 Clouds -10 1030 79 10000 2.05 106 16:33 25.11.2021
5287 Clear -18 1022 78 10000 1 0 15:33 25.11.2021
5288 Clear -17 1022 85 10000 1 0 13:50 25.11.2021
5289 Clear -16 1022 85 10000 1 0 12:27 25.11.2021
5290 Clear -13 1022 72 10000 1 0 11:50 25.11.2021
5291 Clear -4 1021 54 10000 2 0 09:28 25.11.2021
5292 Clear -7 1021 63 8000 1 0 06:22 25.11.2021
5293 Clear -18 1020 85 6000 1 0 02:50 25.11.2021
5294 Clear -11 1027 83 10000 1.73 337 23:28 24.11.2021
5295 Clear -21 1016 77 10000 1 0 22:25 24.11.2021
5296 Clear -21 1016 77 10000 1 0 21:38 24.11.2021
5297 Clear -21 1015 84 10000 2 0 20:53 24.11.2021
5298 Clear -21 1015 84 10000 2 0 20:26 24.11.2021
5299 Clear -19 1014 78 10000 1 0 18:31 24.11.2021
5300 Clear -19 1014 78 10000 1 0 17:58 24.11.2021
5301 Clear -18 1013 85 10000 1 0 15:47 24.11.2021
5302 Clear -17 1014 71 10000 1 0 14:54 24.11.2021
5303 Clear -17 1014 71 10000 1 0 14:20 24.11.2021
5304 Clear -17 1014 71 10000 2 0 12:50 24.11.2021
5305 Clear -13 1013 66 10000 2 0 11:22 24.11.2021
5306 Clear -13 1013 66 10000 2 0 10:49 24.11.2021
5307 Clear -13 1013 66 10000 2 0 10:26 24.11.2021
5308 Clear -6 1012 58 10000 1 0 07:55 24.11.2021
5309 Clear -7 1013 53 10000 1 0 06:55 24.11.2021
5310 Clear -13 1014 72 8000 1 0 03:55 24.11.2021
5311 Clear -22 1013 77 10000 0 0 00:53 24.11.2021
5312 Clear -21 1013 77 10000 1 0 22:58 23.11.2021
5313 Clear -21 1013 77 10000 1 0 22:34 23.11.2021
5314 Clear -23 1013 77 10000 2 0 21:44 23.11.2021
5315 Clear -21 1013 71 10000 0 0 20:19 23.11.2021
5316 Clear -20 1012 77 10000 1 0 18:43 23.11.2021
5317 Clear -20 1012 77 10000 1 0 18:22 23.11.2021
5318 Clear -19 1012 84 10000 2 0 17:19 23.11.2021
5319 Clear -19 1012 78 10000 2 0 16:34 23.11.2021
5320 Clear -21 1011 77 10000 1 0 15:23 23.11.2021
5321 Clear -18 1011 78 10000 1 0 14:26 23.11.2021
5322 Clear -18 1011 78 10000 2 0 11:48 23.11.2021
5323 Clear -13 1011 66 10000 2 0 10:22 23.11.2021
5324 Clear -9 1011 57 10000 1 0 09:22 23.11.2021
5325 Clouds -11 1013 57 8000 1 0 06:46 23.11.2021
5326 Clouds -18 1014 71 8000 1 0 03:56 23.11.2021
5327 Clouds -21 1014 77 8000 1 0 02:58 23.11.2021
5328 Clouds -14 1025 77 10000 1.38 86 23:21 22.11.2021
5329 Clouds -14 1025 77 10000 1.38 86 22:53 22.11.2021
5330 Clouds -14 1026 77 10000 1.32 83 22:29 22.11.2021
5331 Clouds -14 1026 77 10000 1.32 83 21:43 22.11.2021
5332 Clouds -14 1026 76 10000 1.31 82 20:52 22.11.2021
5333 Clear -24 1016 77 10000 1 0 19:58 22.11.2021
5334 Clear -24 1016 77 10000 1 0 19:19 22.11.2021
5335 Clear -24 1017 77 10000 0 0 18:40 22.11.2021
5336 Clear -14 1028 78 10000 1.13 93 17:45 22.11.2021
5337 Clear -14 1029 77 10000 0.99 81 16:22 22.11.2021
5338 Clear -24 1017 77 10000 0 0 14:20 22.11.2021
5339 Clear -23 1018 77 10000 2 160 12:26 22.11.2021
5340 Clear -20 1018 65 10000 2 170 10:43 22.11.2021
5341 Clear -12 1018 48 10000 0 0 09:48 22.11.2021
5342 Clear -12 1019 48 10000 1 0 08:40 22.11.2021
5343 Clear -14 1020 51 10000 1 0 06:43 22.11.2021
5344 Clear -18 1037 74 10000 0.74 83 23:35 21.11.2021
5345 Clouds -18 1038 75 10000 0.65 92 22:51 21.11.2021
5346 Clouds -18 1038 76 10000 0.55 103 22:19 21.11.2021
5347 Clouds -19 1039 79 10000 0.55 101 20:42 21.11.2021
5348 Clouds -19 1040 80 10000 0.45 74 19:59 21.11.2021
5349 Clear -19 1040 81 10000 0.48 41 18:30 21.11.2021
5350 Clear -25 1026 70 10000 2 0 17:39 21.11.2021
5351 Clear -18 1041 83 10000 0.64 12 16:46 21.11.2021
5352 Clear -18 1041 83 10000 0.98 342 14:46 21.11.2021
5353 Clear -25 1027 70 10000 3 160 13:49 21.11.2021
5354 Clear -26 1027 70 10000 1 0 12:38 21.11.2021
5355 Clear -26 1027 70 10000 1 0 11:57 21.11.2021
5356 Clear -18 1027 65 10000 0 0 11:35 21.11.2021
5357 Clear -16 1027 60 10000 3 280 10:19 21.11.2021
5358 Clouds -15 1026 56 10000 3 300 08:56 21.11.2021
5359 Clouds -15 1026 56 10000 3 300 08:26 21.11.2021
5360 Clouds -14 1027 51 10000 4 300 07:49 21.11.2021
5361 Clouds -15 1027 56 10000 8 310 06:20 21.11.2021
5362 Clouds -15 1027 56 10000 5 320 05:30 21.11.2021
5363 Clouds -16 1026 66 10000 1 0 03:20 21.11.2021
5364 Clouds -17 1025 71 10000 4 320 02:53 21.11.2021
5365 Clouds -16 1038 90 4952 4.75 322 01:23 21.11.2021
5366 Clouds -17 1023 71 10000 4 330 00:23 21.11.2021
5367 Snow -14 1020 78 6000 8 320 21:50 20.11.2021
5368 Snow -14 1020 78 6000 8 320 21:30 20.11.2021
5369 Snow -13 1017 78 6000 8 330 19:23 20.11.2021
5370 Snow -12 1015 79 10000 7 330 18:45 20.11.2021
5371 Snow -12 1015 79 10000 7 330 18:19 20.11.2021
5372 Snow -11 1014 73 10000 5 340 17:19 20.11.2021
5373 Snow -10 1013 79 6000 4 330 14:50 20.11.2021
5374 Snow -10 1013 79 6000 4 330 14:28 20.11.2021
5375 Snow -10 1012 85 3000 3 310 13:33 20.11.2021
5376 Snow -10 1011 92 3000 2 0 11:24 20.11.2021
5377 Snow -10 1012 85 3000 2 0 09:54 20.11.2021
5378 Snow -10 1012 79 3000 2 0 08:26 20.11.2021
5379 Clouds -12 1015 79 8000 1 0 05:30 20.11.2021
5380 Clouds -13 1016 78 8000 0 0 04:51 20.11.2021
5381 Clouds -15 1017 78 10000 0 0 03:25 20.11.2021
5382 Clouds -20 1018 84 10000 0 0 00:42 20.11.2021
5383 Clouds -20 1018 84 10000 1 0 23:44 19.11.2021
5384 Clouds -18 1018 85 10000 1 0 22:53 19.11.2021
5385 Clouds -19 1018 84 10000 1 0 21:22 19.11.2021
5386 Clear -21 1018 84 10000 2 0 20:39 19.11.2021
5387 Clear -21 1018 84 10000 2 0 20:20 19.11.2021
5388 Clear -19 1017 78 10000 2 0 19:43 19.11.2021
5389 Clouds -17 1018 78 10000 2 0 18:43 19.11.2021
5390 Clouds -12 1017 79 10000 1 0 17:39 19.11.2021
5391 Clouds -11 1017 85 10000 1 0 16:22 19.11.2021
5392 Snow -11 1016 85 10000 3 330 14:19 19.11.2021
5393 Clouds -8 1014 73 10000 1 0 10:56 19.11.2021
5394 Clouds -7 1013 73 10000 4 300 10:23 19.11.2021
5395 Snow -5 1012 80 6000 3 300 08:32 19.11.2021
5396 Clouds -6 1011 68 10000 2 0 04:58 19.11.2021
5397 Snow -6 1011 63 8000 2 0 03:19 19.11.2021
5398 Snow -7 1009 73 10000 8 140 23:53 18.11.2021
5399 Snow -7 1010 79 10000 8 150 22:43 18.11.2021
5400 Clouds -5 1010 36 10000 10 150 20:56 18.11.2021
5401 Clouds -5 1010 36 10000 10 150 20:37 18.11.2021
5402 Clouds -5 1010 36 10000 10 150 20:19 18.11.2021
5403 Clouds -4 1010 28 10000 5 140 19:36 18.11.2021
5404 Clouds -4 1011 30 10000 5 140 18:35 18.11.2021
5405 Clouds -4 1013 30 10000 4 160 17:52 18.11.2021
5406 Clouds -4 1013 33 10000 4 160 16:46 18.11.2021
5407 Snow -7 1013 45 10000 2 0 15:52 18.11.2021
5408 Clouds -6 1013 38 10000 1 0 14:40 18.11.2021
5409 Clouds -8 1013 49 10000 1 0 12:55 18.11.2021
5410 Clouds -9 1013 53 10000 2 0 11:44 18.11.2021
5411 Clouds -9 1013 53 10000 2 0 11:25 18.11.2021
5412 Clear -7 1014 49 10000 2 0 10:22 18.11.2021
5413 Clear -5 1014 42 10000 2 0 08:26 18.11.2021
5414 Clear -5 1015 42 10000 2 0 06:40 18.11.2021
5415 Clear -6 1015 49 10000 1 0 05:44 18.11.2021
5416 Clear -9 1024 69 10000 1.67 305 01:26 18.11.2021
5417 Clear -9 1023 67 10000 1.75 310 23:35 17.11.2021
5418 Clear -9 1022 66 10000 1.77 309 22:40 17.11.2021
5419 Clear -9 1021 64 10000 1.95 306 22:19 17.11.2021
5420 Clear -17 1013 71 10000 1 0 21:35 17.11.2021
5421 Clear -11 1012 57 10000 2 330 19:51 17.11.2021
5422 Clear -14 1011 66 10000 1 0 17:35 17.11.2021
5423 Clear -14 1011 66 10000 1 0 17:35 17.11.2021
5424 Clouds -8 1010 49 10000 1 0 15:56 17.11.2021
5425 Clouds -7 1010 45 10000 0 0 13:19 17.11.2021
5426 Clear -8 1009 49 10000 3 170 12:37 17.11.2021
5427 Clouds -8 1010 49 10000 3 160 10:54 17.11.2021
5428 Clouds -3 1010 36 10000 1 0 09:38 17.11.2021
5429 Clear -3 1010 39 10000 4 230 07:56 17.11.2021
5430 Clear -3 1010 39 10000 4 220 07:37 17.11.2021
5431 Clouds -9 1013 48 10000 1 0 02:49 17.11.2021
5432 Clouds -11 1012 48 10000 1 0 00:35 17.11.2021
5433 Clear -6 1011 33 10000 4 260 22:32 16.11.2021
5434 Clear -5 1010 30 10000 7 270 20:19 16.11.2021
5435 Clear -4 1010 28 10000 6 260 19:55 16.11.2021
5436 Clear -4 1010 26 10000 5 270 18:52 16.11.2021
5437 Clear -4 1010 26 10000 5 270 18:29 16.11.2021
5438 Clear -4 1010 30 10000 3 270 17:29 16.11.2021
5439 Clouds -4 1010 39 10000 4 300 16:21 16.11.2021
5440 Clouds -5 1009 58 10000 1 0 15:44 16.11.2021
5441 Clear -1 1009 40 10000 1 0 13:49 16.11.2021
5442 Clear -1 1007 40 10000 5 220 10:39 16.11.2021
5443 Clear 2 1006 30 10000 3 240 09:42 16.11.2021
5444 Clouds 3 1007 28 8000 1 0 08:24 16.11.2021
5445 Clouds 2 1008 30 8000 1 0 07:30 16.11.2021
5446 Clear -14 1013 66 10000 1 0 23:54 15.11.2021
5447 Clouds -4 1019 50 10000 2.13 115 22:43 15.11.2021
5448 Clouds -4 1020 50 10000 1.99 112 22:20 15.11.2021
5449 Clear -14 1014 78 10000 0 0 21:51 15.11.2021
5450 Clear -14 1014 78 10000 0 0 21:25 15.11.2021
5451 Clouds -4 1020 49 10000 1.93 120 19:41 15.11.2021
5452 Clear -11 1015 67 10000 1 0 17:50 15.11.2021
5453 Clear -10 1015 67 10000 1 0 16:19 15.11.2021
5454 Clear -8 1015 57 10000 1 0 15:39 15.11.2021
5455 Clear -8 1015 57 10000 1 0 15:19 15.11.2021
5456 Clear -6 1014 49 10000 3 160 12:43 15.11.2021
5457 Clear -4 1013 46 10000 4 220 10:54 15.11.2021
5458 Clear 4 1013 26 10000 1 0 09:26 15.11.2021
5459 Clear 3 1014 28 10000 1 0 07:45 15.11.2021
5460 Clear -5 1016 54 10000 1 0 04:45 15.11.2021
5461 Clear -5 1021 50 10000 1.23 113 22:47 14.11.2021
5462 Clear -5 1021 50 10000 1.02 109 22:28 14.11.2021
5463 Clear -14 1017 78 10000 0 0 19:51 14.11.2021
5464 Clear -14 1017 78 10000 0 0 19:18 14.11.2021
5465 Clear -5 1022 50 10000 0.72 109 18:54 14.11.2021
5466 Clear -5 1022 50 10000 0.72 109 18:36 14.11.2021
5467 Clear -5 1022 50 10000 0.67 96 18:18 14.11.2021
5468 Clear -13 1017 72 10000 0 0 17:54 14.11.2021
5469 Clear -13 1017 72 10000 0 0 17:36 14.11.2021
5470 Clear -13 1017 72 10000 0 0 17:18 14.11.2021
5471 Clear -12 1017 72 10000 1 0 16:45 14.11.2021
5472 Clear -12 1017 72 10000 1 0 16:19 14.11.2021
5473 Clear -10 1017 62 10000 1 0 15:22 14.11.2021
5474 Clear -10 1017 62 10000 2 0 14:45 14.11.2021
5475 Clear -10 1017 62 10000 2 0 14:23 14.11.2021
5476 Clear -12 1017 61 10000 3 170 13:53 14.11.2021
5477 Clear -12 1017 61 10000 3 170 13:32 14.11.2021
5478 Clear -7 1016 49 10000 2 0 12:26 14.11.2021
5479 Clear -8 1016 53 10000 3 180 11:34 14.11.2021
5480 Clear -5 1016 42 10000 3 210 10:40 14.11.2021
5481 Clear 1 1016 27 10000 3 230 09:42 14.11.2021
5482 Clear 2 1016 25 10000 5 240 08:52 14.11.2021
5483 Clouds 2 1016 30 8000 3 290 06:51 14.11.2021
5484 Clouds -6 1022 59 10000 0.51 357 23:27 13.11.2021
5485 Clear -13 1017 78 10000 0 0 22:21 13.11.2021
5486 Clear -14 1016 72 10000 1 0 21:49 13.11.2021
5487 Clear -13 1016 72 10000 1 0 20:59 13.11.2021
5488 Clear -11 1015 67 10000 2 140 19:33 13.11.2021
5489 Clear -13 1015 72 10000 2 200 18:32 13.11.2021
5490 Clear -11 1014 67 10000 1 0 17:41 13.11.2021
5491 Clear -11 1014 62 10000 1 0 16:29 13.11.2021
5492 Clear -11 1013 62 10000 3 180 14:55 13.11.2021
5493 Clear -11 1013 62 10000 3 180 14:18 13.11.2021
5494 Clear -9 1012 53 10000 2 0 12:45 13.11.2021
5495 Clear -7 1011 45 10000 1 0 11:57 13.11.2021
5496 Clear -7 1011 45 10000 1 0 11:24 13.11.2021
5497 Clear -7 1011 45 10000 1 0 10:39 13.11.2021
5498 Clear 2 1011 25 10000 1 0 09:50 13.11.2021
5499 Clear 2 1011 25 10000 1 0 09:31 13.11.2021
5500 Clear 4 1011 24 10000 1 0 08:49 13.11.2021
5501 Clear 4 1011 22 10000 1 0 08:18 13.11.2021
5502 Clear -1 1013 43 10000 1 0 04:43 13.11.2021
5503 Clear -3 1013 50 10000 1 0 04:23 13.11.2021
5504 Clear -12 1013 72 10000 0 0 00:19 13.11.2021
5505 Clear -10 1013 67 10000 1 0 22:42 12.11.2021
5506 Clear -10 1014 67 10000 0 0 20:55 12.11.2021
5507 Clear -11 1014 73 10000 2 0 19:40 12.11.2021
5508 Clear -11 1014 73 10000 2 0 19:22 12.11.2021
5509 Clear -8 1014 62 10000 2 0 18:20 12.11.2021
5510 Clear -9 1013 62 10000 2 0 16:18 12.11.2021
5511 Clear -8 1013 57 10000 3 170 14:46 12.11.2021
5512 Clear -1 1012 37 10000 1 0 11:31 12.11.2021
5513 Clear 1 1012 29 10000 3 260 10:48 12.11.2021
5514 Clear 4 1012 24 10000 5 270 09:27 12.11.2021
5515 Clear 4 1012 26 10000 5 250 08:35 12.11.2021
5516 Clear -14 1015 85 10000 2 0 02:19 12.11.2021
5517 Clouds -5 1020 59 10000 0.49 242 23:31 11.11.2021
5518 Clouds -5 1021 59 10000 0.53 185 22:28 11.11.2021
5519 Clear -15 1017 78 10000 1 0 21:26 11.11.2021
5520 Clouds -5 1022 58 10000 0.21 240 20:26 11.11.2021
5521 Clear -15 1018 78 10000 1 0 18:54 11.11.2021
5522 Clear -13 1018 78 10000 1 0 17:42 11.11.2021
5523 Clear -14 1018 78 10000 1 0 16:24 11.11.2021
5524 Clear -11 1019 73 10000 1 0 14:44 11.11.2021
5525 Clear -11 1019 73 10000 1 0 14:26 11.11.2021
5526 Clear -10 1019 73 10000 1 0 13:36 11.11.2021
5527 Clear -9 1019 67 10000 3 160 12:48 11.11.2021
5528 Clear -5 1019 54 10000 2 0 10:34 11.11.2021
5529 Clear 1 1020 37 10000 2 220 09:33 11.11.2021
5530 Clear 1 1020 37 10000 3 240 07:35 11.11.2021
5531 Clouds -6 1030 73 10000 1.16 318 00:43 11.11.2021
5532 Clear -15 1024 85 10000 1 0 22:46 10.11.2021
5533 Clear -16 1025 78 10000 0 0 21:56 10.11.2021
5534 Clear -16 1025 78 10000 0 0 21:18 10.11.2021
5535 Clear -15 1025 78 10000 2 160 20:35 10.11.2021
5536 Clear -14 1025 78 10000 1 0 19:46 10.11.2021
5537 Clear -14 1026 85 10000 3 170 17:39 10.11.2021
5538 Clear -13 1026 78 10000 2 0 16:21 10.11.2021
5539 Clear -13 1026 78 10000 1 0 14:25 10.11.2021
5540 Clear -9 1026 62 10000 1 0 13:40 10.11.2021
5541 Clear -6 1026 53 10000 3 320 12:40 10.11.2021
5542 Clear 0 1025 34 10000 4 350 10:20 10.11.2021
5543 Clear 2 1025 27 10000 6 320 08:45 10.11.2021
5544 Clear 3 1025 28 10000 5 310 07:22 10.11.2021
5545 Clear 2 1026 32 10000 4 280 05:59 10.11.2021
5546 Clear -3 1027 59 10000 1 0 04:59 10.11.2021
5547 Clear -13 1025 78 10000 0 0 22:45 09.11.2021
5548 Clear -13 1026 78 10000 1 0 21:46 09.11.2021
5549 Clear -13 1026 85 10000 1 0 20:20 09.11.2021
5550 Clear -10 1025 79 10000 2 130 18:59 09.11.2021
5551 Clear -11 1025 85 10000 2 0 17:30 09.11.2021
5552 Clear -10 1025 73 10000 2 170 15:38 09.11.2021
5553 Clear -10 1025 73 10000 1 0 13:59 09.11.2021
5554 Clear -7 1025 63 10000 1 0 12:50 09.11.2021
5555 Clear -1 1025 47 10000 2 310 11:34 09.11.2021
5556 Clear 0 1024 40 10000 1 0 10:42 09.11.2021
5557 Clear 4 1024 30 10000 3 310 09:24 09.11.2021
5558 Clear 4 1024 28 10000 3 240 08:18 09.11.2021
5559 Clear 0 1025 40 10000 2 0 05:23 09.11.2021
5560 Clear -12 1026 72 10000 1 0 01:58 09.11.2021
5561 Clear -12 1026 72 10000 1 0 01:39 09.11.2021
5562 Clear -14 1025 78 10000 2 0 23:34 08.11.2021
5563 Clear -14 1025 78 10000 0 0 22:48 08.11.2021
5564 Clear -13 1025 78 10000 1 0 21:46 08.11.2021
5565 Clear -13 1025 72 10000 1 0 20:38 08.11.2021
5566 Clear -11 1025 67 10000 0 0 19:46 08.11.2021
5567 Clear -13 1026 72 10000 0 0 17:48 08.11.2021
5568 Snow -12 1025 67 10000 2 0 15:59 08.11.2021
5569 Clear -12 1025 67 10000 2 0 14:57 08.11.2021
5570 Clear -12 1025 67 10000 2 0 14:34 08.11.2021
5571 Clear -12 1025 61 10000 1 0 13:22 08.11.2021
5572 Clear -5 1025 42 10000 2 0 11:56 08.11.2021
5573 Clear -2 1024 37 10000 3 270 10:50 08.11.2021
5574 Clear -1 1024 34 10000 4 270 09:37 08.11.2021
5575 Clear -1 1024 37 10000 3 220 08:52 08.11.2021
5576 Clear -2 1024 37 10000 2 0 07:27 08.11.2021
5577 Clear -8 1026 57 10000 1 0 03:38 08.11.2021
5578 Clear -10 1027 62 10000 1 0 03:19 08.11.2021
5579 Clear -15 1026 78 10000 1 0 23:43 07.11.2021
5580 Clear -16 1026 72 10000 1 0 21:42 07.11.2021
5581 Clear -11 1026 62 10000 0 0 20:51 07.11.2021
5582 Clear -12 1026 67 10000 0 0 19:22 07.11.2021
5583 Clear -12 1027 67 10000 2 0 17:47 07.11.2021
5584 Clear -15 1027 72 10000 2 0 16:44 07.11.2021
5585 Clear -14 1027 66 10000 3 160 15:42 07.11.2021
5586 Clear -14 1027 66 10000 3 180 14:28 07.11.2021
5587 Clear -9 1027 53 10000 1 0 12:57 07.11.2021
5588 Clear -7 1026 49 10000 3 330 11:42 07.11.2021
5589 Clear -4 1026 36 10000 6 330 09:22 07.11.2021
5590 Clear -11 1028 44 10000 1 0 04:33 07.11.2021
5591 Clear -17 1028 66 10000 1 0 02:32 07.11.2021
5592 Clear -21 1028 71 10000 2 0 22:57 06.11.2021
5593 Clear -22 1027 71 10000 1 0 22:32 06.11.2021
5594 Clear -20 1028 65 10000 1 0 21:28 06.11.2021
5595 Clear -21 1028 65 10000 2 0 20:32 06.11.2021
5596 Clear -22 1029 71 10000 1 0 18:56 06.11.2021
5597 Clear -17 1030 55 10000 1 0 16:38 06.11.2021
5598 Clear -15 1031 51 10000 1 0 14:31 06.11.2021
5599 Clear -16 1031 51 10000 3 160 13:38 06.11.2021
5600 Clear -14 1031 47 10000 2 0 11:25 06.11.2021
5601 Clear -8 1031 32 10000 2 0 09:22 06.11.2021
5602 Clear -13 1034 52 10000 2 250 04:56 06.11.2021
5603 Clear -23 1034 70 10000 2 180 01:27 06.11.2021
5604 Clear -23 1033 70 10000 3 150 23:34 05.11.2021
5605 Clear -23 1033 70 10000 2 170 22:33 05.11.2021
5606 Clear -23 1033 70 10000 2 170 22:33 05.11.2021
5607 Clear -22 1034 71 10000 2 170 20:42 05.11.2021
5608 Clear -22 1034 71 10000 2 170 20:19 05.11.2021
5609 Clear -23 1034 70 10000 2 170 19:32 05.11.2021
5610 Clear -18 1034 60 10000 1 0 18:38 05.11.2021
5611 Clear -17 1033 60 10000 1 0 17:25 05.11.2021
5612 Clouds -15 1031 51 10000 5 350 14:54 05.11.2021
5613 Clouds -15 1031 56 10000 5 350 13:33 05.11.2021
5614 Clear -12 1026 44 10000 8 340 09:59 05.11.2021
5615 Clear -12 1026 40 10000 9 340 08:39 05.11.2021
5616 Clear -12 1026 37 10000 8 350 07:21 05.11.2021
5617 Clear -13 1026 43 10000 7 320 04:43 05.11.2021
5618 Clouds -15 1025 51 10000 5 330 02:24 05.11.2021
5619 Clouds -14 1023 56 10000 5 330 00:30 05.11.2021
5620 Clouds -14 1022 61 10000 4 340 22:57 04.11.2021
5621 Clouds -14 1022 61 10000 4 340 22:18 04.11.2021
5622 Clouds -13 1021 61 10000 5 340 21:30 04.11.2021
5623 Clouds -13 1021 66 10000 5 330 20:30 04.11.2021
5624 Clouds -13 1020 66 10000 4 330 19:50 04.11.2021
5625 Clouds -13 1020 66 10000 4 330 19:28 04.11.2021
5626 Clouds -12 1020 67 10000 5 360 18:42 04.11.2021
5627 Clouds -12 1019 67 10000 5 10 17:28 04.11.2021
5628 Clouds -12 1018 72 10000 7 360 16:23 04.11.2021
5629 Clouds -12 1018 72 10000 7 360 16:23 04.11.2021
5630 Snow -10 1017 67 10000 6 360 14:19 04.11.2021
5631 Clouds -7 1012 63 10000 6 10 10:52 04.11.2021
5632 Clouds -4 1010 58 10000 6 320 08:58 04.11.2021
5633 Clouds -4 1010 63 10000 7 330 08:28 04.11.2021
5634 Clouds -2 1009 54 10000 7 320 07:33 04.11.2021
5635 Clouds -5 1004 63 10000 0 0 23:43 03.11.2021
5636 Clouds -7 1003 68 10000 0 0 22:49 03.11.2021
5637 Clouds -8 1003 73 10000 0 0 21:45 03.11.2021
5638 Clouds -8 1003 73 10000 0 0 20:45 03.11.2021
5639 Clouds -8 1003 73 10000 0 0 20:27 03.11.2021
5640 Clear -6 1003 63 10000 0 0 19:38 03.11.2021
5641 Clear -7 1003 68 10000 1 0 18:47 03.11.2021
5642 Clear -7 1003 63 10000 1 0 17:58 03.11.2021
5643 Clear -6 1003 63 10000 0 0 16:53 03.11.2021
5644 Clear -6 1003 58 10000 1 0 15:52 03.11.2021
5645 Clear -6 1003 58 10000 1 0 15:31 03.11.2021
5646 Clear -3 1004 50 10000 1 0 13:46 03.11.2021
5647 Clouds -2 1003 43 10000 2 0 11:38 03.11.2021
5648 Clouds 1 1003 29 10000 1 0 10:52 03.11.2021
5649 Clouds 2 1003 32 10000 1 0 10:18 03.11.2021
5650 Clouds 4 1003 26 10000 1 0 09:27 03.11.2021
5651 Clouds 3 1003 28 10000 1 0 08:21 03.11.2021
5652 Clouds 4 1003 26 10000 1 0 07:38 03.11.2021
5653 Clear -3 1006 50 10000 1 0 04:24 03.11.2021
5654 Clouds -2 1012 39 10000 1.99 133 01:42 03.11.2021
5655 Clouds -3 1012 39 10000 1.77 149 23:32 02.11.2021
5656 Clouds -3 1013 39 10000 1.55 150 22:21 02.11.2021
5657 Clouds -3 1013 39 10000 1.74 150 20:48 02.11.2021
5658 Clear -3 1014 41 10000 1.95 149 20:23 02.11.2021
5659 Clear -12 1008 72 10000 0 0 19:46 02.11.2021
5660 Clear -10 1009 67 10000 0 0 18:36 02.11.2021
5661 Clear -10 1010 67 10000 1 0 17:57 02.11.2021
5662 Clear -10 1010 67 10000 1 0 17:31 02.11.2021
5663 Clear -11 1010 67 10000 2 160 16:27 02.11.2021
5664 Clear -7 1010 53 10000 1 0 14:58 02.11.2021
5665 Clear -6 1010 53 10000 4 180 13:50 02.11.2021
5666 Clear -6 1010 53 10000 4 180 13:26 02.11.2021
5667 Clouds -6 1010 49 10000 1 0 12:28 02.11.2021
5668 Clouds 0 1010 34 10000 2 260 11:28 02.11.2021
5669 Clouds 1 1010 27 10000 4 250 10:51 02.11.2021
5670 Clouds 1 1010 32 10000 2 240 10:23 02.11.2021
5671 Clouds 3 1011 32 10000 5 230 08:42 02.11.2021
5672 Clear 3 1012 38 10000 2 200 06:42 02.11.2021
5673 Clouds -1 1013 64 10000 3 230 03:32 02.11.2021
5674 Clouds -5 1012 80 10000 2 140 00:58 02.11.2021
5675 Clouds -5 1011 86 10000 2 0 22:28 01.11.2021
5676 Clouds -5 1011 93 10000 1 0 20:50 01.11.2021
5677 Clouds -5 1011 93 10000 1 0 20:32 01.11.2021
5678 Clouds -5 1011 86 10000 1 0 19:44 01.11.2021
5679 Snow 0 1010 86 10000 2 130 18:55 01.11.2021
5680 Snow 0 1010 86 10000 2 130 18:19 01.11.2021
5681 Clouds 1 1010 75 10000 4 320 17:18 01.11.2021
5682 Clouds 3 1010 52 10000 5 240 16:34 01.11.2021
5683 Snow 0 1010 69 10000 2 190 15:44 01.11.2021
5684 Snow 0 1010 69 10000 2 190 15:19 01.11.2021
5685 Snow -1 1009 69 10000 1 0 14:40 01.11.2021
5686 Clouds -1 1009 69 10000 1 0 14:19 01.11.2021
5687 Clouds -3 1009 74 10000 1 0 12:59 01.11.2021
5688 Clouds 2 1009 55 10000 2 0 11:40 01.11.2021
5689 Clouds 7 1009 42 10000 1 0 10:22 01.11.2021
5690 Rain 7 1010 42 10000 4 240 08:26 01.11.2021
5691 Clouds 7 1011 39 10000 4 180 07:47 01.11.2021
5692 Clouds 2 1014 48 10000 8 140 03:55 01.11.2021
5693 Clouds 2 1014 48 10000 8 140 03:36 01.11.2021
5694 Clear -7 1017 86 10000 1 0 23:58 31.10.2021
5695 Clear -8 1020 79 10000 1 0 21:26 31.10.2021
5696 Clear -7 1020 86 10000 1 0 20:24 31.10.2021
5697 Clear -4 1022 74 10000 0 0 18:43 31.10.2021
5698 Clear -4 1022 74 10000 0 0 18:21 31.10.2021
5699 Clear 0 1022 59 10000 4 140 16:48 31.10.2021
5700 Clear 1 1023 55 10000 7 140 14:53 31.10.2021
5701 Clear 1 1023 51 10000 5 140 12:58 31.10.2021
5702 Clear 1 1023 51 10000 5 140 12:58 31.10.2021
5703 Clear 1 1023 51 10000 5 140 12:19 31.10.2021
5704 Clouds 4 1023 45 10000 4 160 10:51 31.10.2021
5705 Clouds 6 1023 39 10000 7 170 09:26 31.10.2021
5706 Clouds 6 1024 36 10000 6 190 08:46 31.10.2021
5707 Clear -9 1028 86 10000 2 0 02:59 31.10.2021
5708 Clear -12 1029 85 10000 0 0 23:54 30.10.2021
5709 Clear -13 1029 85 10000 0 0 21:50 30.10.2021
5710 Clear -13 1029 85 10000 0 0 21:26 30.10.2021
5711 Clear -11 1030 73 10000 1 0 19:40 30.10.2021
5712 Clear -9 1030 73 10000 1 0 17:48 30.10.2021
5713 Clear -6 1031 53 10000 1 0 15:41 30.10.2021
5714 Clear -6 1030 53 10000 3 160 13:59 30.10.2021
5715 Clear -6 1030 53 10000 3 160 13:38 30.10.2021
5716 Clear -6 1030 53 10000 3 160 13:20 30.10.2021
5717 Clear -1 1030 40 10000 3 220 11:49 30.10.2021
5718 Clear 4 1030 26 10000 1 0 10:44 30.10.2021
5719 Clear 4 1030 30 10000 3 260 08:56 30.10.2021
5720 Clear 2 1030 48 10000 3 260 07:56 30.10.2021
5721 Clear -1 1031 69 10000 1 0 05:46 30.10.2021
5722 Clear -9 1031 92 10000 1 0 02:59 30.10.2021
5723 Clear -8 1029 86 10000 0 0 23:21 29.10.2021
5724 Clear -9 1029 92 10000 2 0 22:34 29.10.2021
5725 Clouds -6 1028 93 10000 3 170 20:59 29.10.2021
5726 Clouds -6 1028 93 10000 3 170 20:32 29.10.2021
5727 Clouds -6 1028 93 10000 3 170 20:32 29.10.2021
5728 Clear -8 1028 86 10000 1 0 19:26 29.10.2021
5729 Clear -5 1027 86 10000 1 0 17:43 29.10.2021
5730 Clear -4 1026 86 10000 1 0 15:42 29.10.2021
5731 Snow -1 1025 74 10000 2 350 12:50 29.10.2021
5732 Clouds 2 1023 60 10000 5 20 10:46 29.10.2021
5733 Clouds 2 1023 60 10000 5 20 09:45 29.10.2021
5734 Snow -2 1021 80 10000 7 350 02:22 29.10.2021
5735 Clear -3 1019 80 10000 6 340 00:30 29.10.2021
5736 Clear -1 1018 69 10000 3 360 22:27 28.10.2021
5737 Clear -2 1017 69 10000 1 0 20:59 28.10.2021
5738 Clear -2 1017 69 10000 1 0 19:56 28.10.2021
5739 Clear -6 1017 73 10000 0 0 18:46 28.10.2021
5740 Clear -5 1017 63 10000 1 0 17:38 28.10.2021
5741 Clear -5 1016 63 10000 1 0 16:38 28.10.2021
5742 Clear -2 1016 50 10000 2 0 14:42 28.10.2021
5743 Clear -1 1015 47 10000 1 0 13:33 28.10.2021
5744 Clear 0 1015 40 10000 2 0 12:50 28.10.2021
5745 Clear 6 1014 24 10000 2 0 11:49 28.10.2021
5746 Clear 11 1014 19 10000 3 230 10:23 28.10.2021
5747 Clear 11 1014 19 10000 3 240 09:37 28.10.2021
5748 Clear 11 1014 19 10000 3 230 08:36 28.10.2021
5749 Clear 10 1015 22 10000 1 0 07:41 28.10.2021
5750 Clear 1 1019 46 10000 1.68 111 01:48 28.10.2021
5751 Clear -8 1017 79 10000 1 0 22:49 27.10.2021
5752 Clear -7 1017 73 10000 1 0 21:53 27.10.2021
5753 Clear -7 1017 73 10000 1 0 21:20 27.10.2021
5754 Clear -8 1017 79 10000 1 0 20:43 27.10.2021
5755 Clear -6 1017 68 10000 1 0 19:46 27.10.2021
5756 Clear 2 1019 47 10000 2.01 103 18:56 27.10.2021
5757 Clear -6 1017 68 10000 1 0 17:39 27.10.2021
5758 Clear 0 1017 47 10000 0 0 16:25 27.10.2021
5759 Clear 1 1017 37 10000 0 0 15:24 27.10.2021
5760 Clear 1 1017 37 10000 0 0 15:24 27.10.2021
5761 Clear 5 1017 30 10000 3 100 14:20 27.10.2021
5762 Clear 13 1016 19 10000 5 140 11:18 27.10.2021
5763 Clear 15 1016 18 10000 3 160 10:37 27.10.2021
5764 Clear 14 1017 19 10000 2 0 09:23 27.10.2021
5765 Clear 11 1018 25 10000 1 0 07:44 27.10.2021
5766 Clear 5 1020 36 10000 1 0 05:49 27.10.2021
5767 Clear 1 1023 49 10000 1.5 107 01:24 27.10.2021
5768 Clear 1 1023 49 10000 1.5 107 00:54 27.10.2021
5769 Clear 1 1023 49 10000 1.26 109 23:55 26.10.2021
5770 Clear -9 1022 79 10000 2 0 22:47 26.10.2021
5771 Clear -9 1022 79 10000 2 0 22:25 26.10.2021
5772 Clear -9 1022 86 10000 1 0 21:41 26.10.2021
5773 Clear -6 1022 73 10000 1 0 19:54 26.10.2021
5774 Clear -6 1022 73 10000 1 0 19:22 26.10.2021
5775 Clear -7 1022 79 10000 0 0 18:23 26.10.2021
5776 Clear -5 1021 68 10000 2 0 15:51 26.10.2021
5777 Clear -1 1021 55 10000 2 0 13:21 26.10.2021
5778 Clear 10 1021 25 10000 3 230 10:54 26.10.2021
5779 Clear 10 1021 25 10000 4 230 09:26 26.10.2021
5780 Clear 8 1023 31 10000 2 0 07:22 26.10.2021
5781 Clear -12 1026 85 10000 0 0 00:19 26.10.2021
5782 Clear -10 1026 92 10000 1 0 23:37 25.10.2021
5783 Clear -9 1026 86 10000 1 0 22:33 25.10.2021
5784 Clear -9 1026 86 10000 2 0 21:45 25.10.2021
5785 Clear -9 1026 86 10000 2 170 20:38 25.10.2021
5786 Clear -8 1026 86 10000 2 160 19:44 25.10.2021
5787 Clear -8 1026 86 10000 2 160 19:23 25.10.2021
5788 Clear -7 1025 79 10000 3 170 18:38 25.10.2021
5789 Clear -7 1025 79 10000 2 160 17:34 25.10.2021
5790 Clear 1 1025 51 10000 2 340 15:18 25.10.2021
5791 Clear 5 1022 36 10000 6 340 12:33 25.10.2021
5792 Clear 8 1020 29 10000 6 340 10:54 25.10.2021
5793 Clear 8 1020 29 10000 3 230 08:59 25.10.2021
5794 Clear 6 1021 31 10000 3 250 07:19 25.10.2021
5795 Clear 1 1021 44 10000 1 0 04:35 25.10.2021
5796 Clear -8 1020 67 10000 1 0 00:52 25.10.2021
5797 Clear -8 1020 67 10000 1 0 00:33 25.10.2021
5798 Clear -10 1019 79 10000 0 0 23:41 24.10.2021
5799 Clear -10 1019 79 10000 1 0 22:39 24.10.2021
5800 Clear -10 1019 79 10000 1 0 22:19 24.10.2021
5801 Clear -9 1019 73 10000 0 0 21:18 24.10.2021
5802 Clear -9 1019 73 10000 2 0 20:36 24.10.2021
5803 Clear 0 1022 55 10000 1.34 348 19:40 24.10.2021
5804 Clear -5 1019 58 10000 1 0 18:29 24.10.2021
5805 Clear -6 1019 63 10000 3 160 17:44 24.10.2021
5806 Clear -4 1019 54 10000 2 0 15:56 24.10.2021
5807 Clear -3 1018 50 10000 2 0 14:42 24.10.2021
5808 Clear 2 1017 30 10000 2 0 12:58 24.10.2021
5809 Clear 6 1017 22 10000 3 200 11:45 24.10.2021
5810 Clear 9 1017 18 10000 3 220 11:26 24.10.2021
5811 Clear 10 1017 17 10000 3 220 10:28 24.10.2021
5812 Clear 7 1019 26 10000 1 0 07:59 24.10.2021
5813 Clouds 0 1023 43 10000 0.2 235 01:25 24.10.2021
5814 Clear -10 1022 79 10000 1 0 23:49 23.10.2021
5815 Clear -9 1022 79 10000 0 0 22:32 23.10.2021
5816 Clear -9 1022 73 10000 1 0 20:37 23.10.2021
5817 Clear -9 1023 73 10000 0 0 18:59 23.10.2021
5818 Clear -8 1023 67 10000 1 0 18:30 23.10.2021
5819 Clear -5 1023 58 10000 0 0 17:43 23.10.2021
5820 Clear -6 1023 58 10000 1 0 16:38 23.10.2021
5821 Clear -2 1023 46 10000 3 140 14:35 23.10.2021
5822 Clear 10 1021 18 10000 2 0 09:45 23.10.2021
5823 Clear -9 1022 73 10000 0 0 00:25 23.10.2021
5824 Clear -10 1022 79 10000 1 0 23:23 22.10.2021
5825 Clear -7 1022 68 10000 0 0 20:55 22.10.2021
5826 Clear -7 1022 63 10000 0 0 18:57 22.10.2021
5827 Clear 0 1022 37 10000 2 0 17:44 22.10.2021
5828 Clear 4 1022 26 10000 6 140 15:50 22.10.2021
5829 Clear 4 1022 26 10000 6 140 14:30 22.10.2021
5830 Clear 5 1021 24 10000 4 150 12:38 22.10.2021
5831 Clear 10 1022 17 10000 5 170 10:48 22.10.2021
5832 Clear 11 1022 16 10000 5 180 09:56 22.10.2021
5833 Clear 11 1022 16 10000 5 180 09:56 22.10.2021
5834 Clear 11 1022 15 10000 5 180 09:32 22.10.2021
5835 Clear 11 1023 16 10000 6 160 07:26 22.10.2021
5836 Clear 1 1025 47 10000 0 0 04:59 22.10.2021
5837 Clear -8 1025 73 10000 0 0 00:24 22.10.2021
5838 Clear -10 1025 85 10000 0 0 23:40 21.10.2021
5839 Clear -10 1025 79 10000 0 0 22:21 21.10.2021
5840 Clear -9 1026 79 10000 0 0 20:55 21.10.2021
5841 Clear -9 1026 79 10000 0 0 20:20 21.10.2021
5842 Clear -6 1026 68 10000 0 0 19:30 21.10.2021
5843 Clear -6 1026 68 10000 0 0 19:30 21.10.2021
5844 Clear -9 1026 79 10000 0 0 18:52 21.10.2021
5845 Clear -9 1026 79 10000 0 0 18:22 21.10.2021
5846 Clear -5 1026 68 10000 0 0 17:42 21.10.2021
5847 Clear -4 1026 58 10000 1 0 16:20 21.10.2021
5848 Clear -3 1025 54 10000 1 0 15:21 21.10.2021
5849 Clear 0 1025 43 10000 0 0 14:49 21.10.2021
5850 Clear -1 1025 51 10000 3 140 13:26 21.10.2021
5851 Clear 9 1025 23 10000 0 0 11:27 21.10.2021
5852 Clear 9 1026 23 10000 2 0 09:23 21.10.2021
5853 Clear 8 1027 27 10000 3 250 07:31 21.10.2021
5854 Clear 3 1029 41 10000 1 0 05:33 21.10.2021
5855 Clear -10 1029 79 10000 1 0 23:56 20.10.2021
5856 Clear -11 1028 85 10000 0 0 22:21 20.10.2021
5857 Clear -8 1028 79 10000 1 0 21:45 20.10.2021
5858 Clear -8 1028 79 10000 1 0 20:57 20.10.2021
5859 Clear -10 1028 85 10000 1 0 20:36 20.10.2021
5860 Clear -10 1028 85 10000 1 0 19:59 20.10.2021
5861 Clear -8 1028 79 10000 1 0 18:59 20.10.2021
5862 Clear -7 1028 73 10000 2 0 17:54 20.10.2021
5863 Clear -7 1027 68 10000 2 0 15:54 20.10.2021
5864 Clear 1 1026 44 10000 1 0 12:50 20.10.2021
5865 Clear 7 1026 26 10000 7 330 09:30 20.10.2021
5866 Clear 3 1028 44 10000 1 0 05:24 20.10.2021
5867 Clear -11 1026 85 10000 2 0 00:53 20.10.2021
5868 Clear -11 1026 85 10000 2 0 00:26 20.10.2021
5869 Clear -10 1025 85 10000 0 0 21:47 19.10.2021
5870 Clear -10 1025 85 10000 0 0 21:27 19.10.2021
5871 Clear -9 1025 79 10000 1 0 20:26 19.10.2021
5872 Clear -9 1025 79 10000 1 0 19:45 19.10.2021
5873 Clear -9 1025 79 10000 1 0 19:23 19.10.2021
5874 Clear -7 1025 73 10000 1 0 18:23 19.10.2021
5875 Clear -7 1025 73 10000 1 0 18:23 19.10.2021
5876 Clear -1 1028 58 10000 1.73 349 16:25 19.10.2021
5877 Clear -5 1024 63 10000 3 170 15:25 19.10.2021
5878 Clear -3 1024 54 10000 2 0 14:31 19.10.2021
5879 Clear -1 1023 51 10000 2 0 13:43 19.10.2021
5880 Clear 6 1023 28 10000 2 0 11:37 19.10.2021
5881 Clear 8 1023 25 10000 3 210 10:39 19.10.2021
5882 Clear 7 1023 29 10000 3 220 08:59 19.10.2021
5883 Clear 7 1024 29 10000 2 0 07:56 19.10.2021
5884 Clear -3 1030 60 10000 1.32 125 00:27 19.10.2021
5885 Clear -12 1026 79 10000 0 0 23:56 18.10.2021
5886 Clear -12 1026 79 10000 0 0 23:20 18.10.2021
5887 Clear -3 1030 58 10000 1.39 124 22:54 18.10.2021
5888 Clear -11 1027 85 10000 0 0 21:58 18.10.2021
5889 Clear -10 1027 79 10000 1 0 20:46 18.10.2021
5890 Clear -10 1027 79 10000 1 0 20:20 18.10.2021
5891 Clear -10 1027 79 10000 2 0 19:30 18.10.2021
5892 Clear -10 1027 79 10000 2 0 18:58 18.10.2021
5893 Clear -8 1027 73 10000 1 0 16:30 18.10.2021
5894 Clear -7 1027 68 10000 3 160 14:33 18.10.2021
5895 Clear 4 1026 30 10000 2 300 11:44 18.10.2021
5896 Clear 5 1026 20 10000 4 330 09:42 18.10.2021
5897 Clear 0 1028 51 10000 2 0 05:32 18.10.2021
5898 Clear -11 1026 85 10000 3 180 23:52 17.10.2021
5899 Clear -7 1025 63 10000 2 0 22:23 17.10.2021
5900 Clear -7 1025 79 10000 0 0 21:42 17.10.2021
5901 Clear -5 1025 74 10000 1 0 20:49 17.10.2021
5902 Clear -5 1025 74 10000 1 0 19:56 17.10.2021
5903 Clear -5 1024 74 7000 1 300 19:37 17.10.2021
5904 Clear -3 1029 69 10000 2.41 340 18:28 17.10.2021
5905 Clear -3 1023 63 10000 3 350 15:57 17.10.2021
5906 Clear 1 1022 37 10000 5 340 14:38 17.10.2021
5907 Clear 1 1022 37 10000 5 340 13:56 17.10.2021
5908 Clear 0 1021 40 10000 1 0 13:30 17.10.2021
5909 Clear 6 1020 26 10000 7 330 11:27 17.10.2021
5910 Clear 8 1019 19 10000 5 360 09:56 17.10.2021
5911 Clear 7 1020 21 10000 3 260 07:43 17.10.2021
5912 Clear -9 1023 79 10000 1 0 02:35 17.10.2021
5913 Clear -13 1024 78 10000 1 0 00:30 17.10.2021
5914 Clear -13 1025 78 10000 0 0 22:46 16.10.2021
5915 Clear -11 1026 79 10000 0 0 20:36 16.10.2021
5916 Clear -11 1026 79 10000 0 0 19:59 16.10.2021
5917 Clear -10 1027 73 10000 0 0 19:40 16.10.2021
5918 Clear -10 1027 73 10000 0 0 19:18 16.10.2021
5919 Clear -11 1028 79 10000 1 0 18:44 16.10.2021
5920 Clear -11 1028 79 10000 1 0 18:22 16.10.2021
5921 Clear -10 1028 73 10000 1 0 17:31 16.10.2021
5922 Clear -9 1029 67 10000 0 0 16:18 16.10.2021
5923 Clear -4 1030 50 10000 3 160 12:50 16.10.2021
5924 Clear 3 1031 28 10000 3 200 11:24 16.10.2021
5925 Clear 2 1033 30 10000 2 0 08:57 16.10.2021
5926 Clear -17 1039 78 10000 1 0 01:37 16.10.2021
5927 Clear -16 1039 85 10000 0 0 00:29 16.10.2021
5928 Clear -16 1039 78 10000 0 0 23:25 15.10.2021
5929 Clear -15 1040 72 10000 0 0 22:20 15.10.2021
5930 Clear -13 1040 66 10000 0 0 21:40 15.10.2021
5931 Clear -15 1041 72 10000 1 0 20:54 15.10.2021
5932 Clear -15 1041 72 10000 1 0 20:22 15.10.2021
5933 Clear -15 1041 72 10000 1 0 19:20 15.10.2021
5934 Clear -16 1041 78 10000 2 150 18:21 15.10.2021
5935 Clear -12 1041 67 10000 1 0 15:46 15.10.2021
5936 Clear -11 1040 62 10000 1 0 14:18 15.10.2021
5937 Clear -7 1040 42 10000 4 340 12:25 15.10.2021
5938 Clouds -5 1039 36 10000 7 350 11:18 15.10.2021
5939 Clouds -5 1039 36 10000 7 350 10:28 15.10.2021
5940 Clouds -5 1040 36 10000 5 340 07:35 15.10.2021
5941 Clear -7 1040 35 10000 5 350 04:46 15.10.2021
5942 Clear -9 1037 57 10000 4 20 00:22 15.10.2021
5943 Clouds -8 1036 57 10000 5 10 23:25 14.10.2021
5944 Clouds -8 1036 57 10000 6 20 22:20 14.10.2021
5945 Clear -7 1035 58 10000 4 10 21:37 14.10.2021
5946 Clear -7 1034 68 10000 4 350 20:20 14.10.2021
5947 Clear -6 1034 63 10000 4 340 19:46 14.10.2021
5948 Clear -7 1034 73 10000 2 0 18:40 14.10.2021
5949 Clear -7 1034 73 10000 2 0 18:40 14.10.2021
5950 Clear -6 1033 68 10000 4 340 16:59 14.10.2021
5951 Clear -6 1033 68 10000 4 340 16:32 14.10.2021
5952 Clear -6 1032 68 10000 4 340 14:50 14.10.2021
5953 Clear -6 1032 68 10000 4 340 14:26 14.10.2021
5954 Clear -6 1031 68 10000 3 350 13:33 14.10.2021
5955 Clouds -3 1030 54 10000 6 360 11:34 14.10.2021
5956 Clouds -1 1029 51 10000 9 340 09:24 14.10.2021
5957 Clouds 0 1031 64 10000 8.05 315 06:19 14.10.2021
5958 Clouds -1 1029 74 10000 1.56 231 00:41 14.10.2021
5959 Clear -7 1026 86 10000 0 0 22:40 13.10.2021
5960 Clear -5 1026 80 10000 1 0 21:36 13.10.2021
5961 Clear -8 1026 93 10000 1 0 20:45 13.10.2021
5962 Clear -7 1026 86 10000 1 0 19:39 13.10.2021
5963 Clear -6 1026 86 10000 1 0 18:47 13.10.2021
5964 Clear -5 1026 86 10000 1 0 17:22 13.10.2021
5965 Clear -3 1025 74 10000 1 0 14:47 13.10.2021
5966 Clear -3 1025 74 10000 1 0 14:25 13.10.2021
5967 Clouds 5 1024 42 10000 2 360 12:48 13.10.2021
5968 Clouds 7 1023 33 10000 4 310 11:37 13.10.2021
5969 Clouds 9 1022 31 10000 7 320 10:18 13.10.2021
5970 Clouds 9 1022 29 10000 6 270 07:53 13.10.2021
5971 Clear 4 1023 60 10000 0 0 03:39 13.10.2021
5972 Clear -3 1022 80 10000 1 0 02:21 13.10.2021
5973 Clear -4 1019 80 10000 2 0 23:36 12.10.2021
5974 Clear -5 1019 86 10000 1 0 22:50 12.10.2021
5975 Clear -5 1019 86 10000 1 0 22:29 12.10.2021
5976 Clear -5 1019 86 10000 1 0 20:54 12.10.2021
5977 Clear -5 1019 86 10000 1 0 20:31 12.10.2021
5978 Clear -3 1018 80 10000 2 0 19:36 12.10.2021
5979 Clear -2 1018 74 10000 1 0 18:25 12.10.2021
5980 Clear 0 1018 64 10000 1 0 17:20 12.10.2021
5981 Clouds 1 1017 55 10000 3 130 16:22 12.10.2021
5982 Clouds 1 1017 60 10000 2 0 15:31 12.10.2021
5983 Clouds 1 1017 60 10000 2 0 15:30 12.10.2021
5984 Clouds 5 1016 38 10000 0 0 13:46 12.10.2021
5985 Clouds 5 1016 42 10000 1 0 13:18 12.10.2021
5986 Clouds 12 1015 19 10000 2 0 11:29 12.10.2021
5987 Clouds 13 1015 16 10000 5 250 09:34 12.10.2021
5988 Clear 12 1016 19 10000 7 160 08:20 12.10.2021
5989 Clouds 11 1016 19 10000 6 160 06:45 12.10.2021
5990 Clouds 8 1017 23 10000 7 140 04:39 12.10.2021
5991 Clouds 5 1017 28 10000 4 120 02:55 12.10.2021
5992 Clear -2 1018 64 10000 1 0 23:49 11.10.2021
5993 Clear -2 1018 64 10000 1 0 23:28 11.10.2021
5994 Clear -2 1018 64 10000 1 0 23:28 11.10.2021
5995 Clear -2 1019 64 10000 1 0 22:47 11.10.2021
5996 Clear 0 1020 51 10000 3 350 21:25 11.10.2021
5997 Clear 4 1020 35 10000 5 140 19:53 11.10.2021
5998 Clear 4 1020 35 10000 5 140 19:34 11.10.2021
5999 Clear 3 1020 41 10000 4 160 18:23 11.10.2021
6000 Clear 4 1020 41 10000 3 160 16:40 11.10.2021
6001 Clear 4 1020 41 10000 3 160 16:20 11.10.2021
6002 Clear 5 1020 38 10000 4 170 15:42 11.10.2021
6003 Clear 5 1020 42 10000 4 170 14:53 11.10.2021
6004 Clear 5 1020 42 10000 4 170 14:19 11.10.2021
6005 Clear 2 1020 51 10000 3 170 13:35 11.10.2021
6006 Clear 12 1019 20 10000 5 170 11:18 11.10.2021
6007 Clear 12 1020 28 10000 5 150 09:46 11.10.2021
6008 Clear 11 1020 32 10000 1 0 07:57 11.10.2021
6009 Clear -9 1022 92 10000 0 0 01:44 11.10.2021
6010 Clear -8 1021 86 10000 1 0 00:57 11.10.2021
6011 Clear -7 1022 93 10000 1 0 00:37 11.10.2021
6012 Clear -7 1022 86 10000 0 0 22:35 10.10.2021
6013 Clear -5 1022 86 10000 0 0 21:49 10.10.2021
6014 Clear -5 1022 86 10000 0 0 20:57 10.10.2021
6015 Clear -6 1022 86 10000 0 0 20:38 10.10.2021
6016 Clear -6 1022 86 10000 0 0 20:19 10.10.2021
6017 Clear -5 1022 86 10000 0 0 19:40 10.10.2021
6018 Clear -5 1023 86 10000 0 0 18:57 10.10.2021
6019 Clear -5 1023 86 10000 0 0 18:19 10.10.2021
6020 Clear 1 1023 55 10000 1 0 15:48 10.10.2021
6021 Clear 1 1023 60 10000 4 160 14:45 10.10.2021
6022 Clear 1 1022 64 10000 4 170 13:40 10.10.2021
6023 Clear 6 1022 36 10000 4 190 12:43 10.10.2021
6024 Clear 8 1023 29 10000 5 210 11:30 10.10.2021
6025 Clear 8 1023 29 10000 4 200 10:26 10.10.2021
6026 Clear 7 1024 36 10000 4 180 09:18 10.10.2021
6027 Clear 6 1024 39 10000 4 210 08:50 10.10.2021
6028 Clear -1 1027 69 10000 0 0 04:31 10.10.2021
6029 Clear -9 1026 86 10000 0 0 02:19 10.10.2021
6030 Clear -11 1025 85 10000 1 0 00:47 10.10.2021
6031 Clear -7 1025 86 10000 0 0 23:26 09.10.2021
6032 Clear -6 1025 93 10000 0 0 21:55 09.10.2021
6033 Clear -6 1025 93 10000 0 0 21:30 09.10.2021
6034 Clear -6 1025 79 10000 0 0 20:19 09.10.2021
6035 Clear -6 1025 86 10000 0 0 19:41 09.10.2021
6036 Clear -3 1025 74 10000 2 0 18:48 09.10.2021
6037 Clear -4 1025 80 10000 2 0 17:57 09.10.2021
6038 Clear -5 1024 86 10000 2 0 16:20 09.10.2021
6039 Clouds -5 1024 86 10000 3 170 14:28 09.10.2021
6040 Clouds -1 1023 80 10000 1 0 13:38 09.10.2021
6041 Clouds 1 1023 64 10000 3 300 12:27 09.10.2021
6042 Clouds 1 1022 64 10000 6 320 10:44 09.10.2021
6043 Clouds 1 1022 64 10000 6 320 10:19 09.10.2021
6044 Clouds 1 1022 64 10000 8 310 08:45 09.10.2021
6045 Clouds 0 1022 74 10000 8 320 08:20 09.10.2021
6046 Snow 0 1021 74 8000 8 330 06:37 09.10.2021
6047 Clouds 0 1020 74 10000 8 340 04:43 09.10.2021
6048 Clouds -1 1018 80 10000 8 340 02:46 09.10.2021
6049 Snow 0 1015 86 10000 6 340 00:24 09.10.2021
6050 Snow 0 1015 86 10000 6 330 23:31 08.10.2021
6051 Snow 0 1015 86 10000 6 340 22:46 08.10.2021
6052 Rain 1 1015 80 10000 5 360 21:44 08.10.2021
6053 Rain 1 1016 86 8000 2 0 19:49 08.10.2021
6054 Snow 1 1016 93 8000 2 0 18:23 08.10.2021
6055 Snow 0 1016 93 6000 1 0 16:55 08.10.2021
6056 Snow 0 1016 93 6000 1 0 16:24 08.10.2021
6057 Snow 0 1016 93 6000 3 360 14:56 08.10.2021
6058 Snow 2 1016 75 8000 5 360 13:45 08.10.2021
6059 Rain 4 1016 52 10000 6 350 11:42 08.10.2021
6060 Clouds 5 1015 48 10000 7 360 10:42 08.10.2021
6061 Rain 6 1015 42 10000 7 330 09:47 08.10.2021
6062 Clouds 4 1016 87 10000 1 0 03:38 08.10.2021
6063 Clouds 1 1014 86 10000 1 0 23:24 07.10.2021
6064 Clouds 3 1015 93 10000 1 0 21:48 07.10.2021
6065 Clouds 3 1015 93 10000 1 0 21:28 07.10.2021
6066 Clouds 3 1015 93 10000 1 0 21:28 07.10.2021
6067 Clouds 2 1015 93 10000 1 0 20:29 07.10.2021
6068 Clouds -1 1014 100 10000 1 0 19:32 07.10.2021
6069 Clouds 1 1014 93 10000 1 0 18:40 07.10.2021
6070 Clouds 3 1014 87 10000 2 0 17:32 07.10.2021
6071 Clouds 5 1014 81 10000 1 0 16:25 07.10.2021
6072 Clouds 6 1014 81 10000 2 0 14:48 07.10.2021
6073 Clouds 7 1013 76 10000 1 0 13:43 07.10.2021
6074 Clouds 10 1013 62 10000 6 220 12:53 07.10.2021
6075 Clouds 12 1012 43 10000 5 150 10:58 07.10.2021
6076 Clouds 14 1012 28 10000 3 240 10:22 07.10.2021
6077 Clouds 14 1012 30 10000 3 230 09:42 07.10.2021
6078 Clouds 14 1013 28 10000 4 240 08:53 07.10.2021
6079 Clouds 15 1014 26 10000 7 210 07:58 07.10.2021
6080 Clouds 15 1014 26 10000 7 210 07:38 07.10.2021
6081 Clouds 13 1015 30 10000 6 190 06:36 07.10.2021
6082 Clear -6 1018 79 10000 0 0 00:29 07.10.2021
6083 Clear -4 1019 74 10000 0 0 22:59 06.10.2021
6084 Clear -4 1019 74 10000 0 0 22:24 06.10.2021
6085 Clear -5 1019 80 10000 0 0 20:51 06.10.2021
6086 Clear -5 1019 80 10000 0 0 20:26 06.10.2021
6087 Clear -3 1020 63 10000 1 0 18:43 06.10.2021
6088 Clear -2 1019 59 10000 1 0 17:19 06.10.2021
6089 Clear 1 1019 44 10000 2 160 15:34 06.10.2021
6090 Clear 2 1019 41 10000 2 0 14:34 06.10.2021
6091 Clear 5 1018 30 10000 0 0 13:24 06.10.2021
6092 Clear 8 1018 27 10000 3 290 12:45 06.10.2021
6093 Clouds 10 1018 20 10000 4 290 12:23 06.10.2021
6094 Clouds 14 1018 19 10000 3 250 10:36 06.10.2021
6095 Clouds 14 1019 19 10000 3 250 09:39 06.10.2021
6096 Clouds 13 1019 21 10000 4 260 08:57 06.10.2021
6097 Clouds 13 1020 24 10000 3 240 07:53 06.10.2021
6098 Clear 11 1022 28 10000 4 170 05:37 06.10.2021
6099 Clear 5 1022 36 10000 4 170 01:23 06.10.2021
6100 Clouds 5 1022 36 10000 7 160 00:20 06.10.2021
6101 Clouds 5 1022 36 10000 7 160 00:20 06.10.2021
6102 Clouds 6 1023 33 10000 5 160 23:48 05.10.2021
6103 Clouds 6 1023 33 10000 5 160 23:29 05.10.2021
6104 Clouds 7 1023 31 10000 6 180 22:30 05.10.2021
6105 Clouds 8 1024 29 10000 7 180 21:50 05.10.2021
6106 Clouds 8 1024 29 10000 9 170 20:49 05.10.2021
6107 Clouds 8 1024 29 10000 9 170 20:25 05.10.2021
6108 Clouds 8 1024 31 10000 9 170 19:50 05.10.2021
6109 Clouds 8 1024 31 10000 9 170 19:18 05.10.2021
6110 Clouds 9 1025 27 10000 8 170 16:58 05.10.2021
6111 Clouds 9 1025 27 10000 8 150 15:22 05.10.2021
6112 Clouds 10 1025 27 10000 6 180 13:43 05.10.2021
6113 Clouds 11 1024 24 10000 7 200 12:54 05.10.2021
6114 Clouds 11 1024 24 10000 7 200 12:19 05.10.2021
6115 Clouds 12 1025 22 10000 8 200 11:21 05.10.2021
6116 Clouds 12 1025 20 10000 8 200 09:50 05.10.2021
6117 Clouds 10 1028 27 10000 8 190 05:36 05.10.2021
6118 Clouds 1 1028 60 10000 3 290 23:54 04.10.2021
6119 Clouds 4 1028 41 10000 4 150 22:39 04.10.2021
6120 Clouds 0 1029 64 10000 0 0 20:43 04.10.2021
6121 Clouds 1 1029 55 10000 1 0 18:34 04.10.2021
6122 Clouds -1 1029 64 10000 1 0 16:39 04.10.2021
6123 Clouds -2 1029 64 10000 2 0 15:32 04.10.2021
6124 Clouds -2 1029 64 10000 2 0 15:32 04.10.2021
6125 Clouds -1 1029 59 10000 1 0 14:43 04.10.2021
6126 Clouds -1 1029 59 10000 1 0 13:57 04.10.2021
6127 Clouds -1 1028 59 10000 3 150 13:27 04.10.2021
6128 Clouds 8 1028 27 10000 0 0 12:28 04.10.2021
6129 Clouds 8 1028 27 10000 0 0 11:31 04.10.2021
6130 Clouds 7 1028 29 10000 1 0 10:23 04.10.2021
6131 Clouds 7 1028 29 10000 1 0 08:42 04.10.2021
6132 Clouds 7 1029 29 10000 2 0 07:43 04.10.2021
6133 Clouds -8 1029 93 10000 0 0 01:56 04.10.2021
6134 Clear -10 1028 85 10000 0 0 22:41 03.10.2021
6135 Clear -8 1027 86 10000 1 0 21:42 03.10.2021
6136 Clear -8 1027 86 10000 1 0 21:23 03.10.2021
6137 Clear -8 1027 86 10000 2 0 20:21 03.10.2021
6138 Clear -8 1027 86 10000 1 0 19:30 03.10.2021
6139 Clouds -4 1026 80 10000 1 0 18:28 03.10.2021
6140 Clouds -4 1026 80 10000 2 0 17:28 03.10.2021
6141 Clear -1 1024 69 10000 2 0 14:48 03.10.2021
6142 Clear -1 1024 69 10000 2 0 14:24 03.10.2021
6143 Clouds 2 1023 55 10000 2 0 13:34 03.10.2021
6144 Clouds 3 1022 52 10000 4 30 12:29 03.10.2021
6145 Clouds 3 1021 52 10000 4 350 10:52 03.10.2021
6146 Clouds 4 1021 48 10000 5 350 08:53 03.10.2021
6147 Clouds 1 1019 64 10000 5 330 03:29 03.10.2021
6148 Clouds 0 1015 69 10000 4 330 22:43 02.10.2021
6149 Clouds 0 1014 74 10000 3 310 21:21 02.10.2021
6150 Clouds 0 1013 69 10000 5 320 19:50 02.10.2021
6151 Snow 0 1012 74 10000 3 310 18:55 02.10.2021
6152 Clouds 1 1010 69 10000 7 340 17:57 02.10.2021
6153 Rain 1 1010 69 10000 7 340 17:26 02.10.2021
6154 Snow 0 1008 69 10000 7 330 15:38 02.10.2021
6155 Clear -5 1013 74 10000 3 180 16:50 30.09.2021
6156 Clear -3 1013 63 10000 2 0 15:37 30.09.2021
6157 Clear 4 1013 33 10000 0 0 13:45 30.09.2021
6158 Clear 9 1013 20 10000 5 290 11:37 30.09.2021
6159 Clear 9 1013 20 10000 6 270 10:43 30.09.2021
6160 Clear 9 1013 25 8000 7 290 09:41 30.09.2021
6161 Clouds 8 1014 29 10000 4 240 08:29 30.09.2021
6162 Clouds 6 1015 33 10000 4 230 07:33 30.09.2021
6163 Clear 3 1016 52 10000 1 0 04:58 30.09.2021
6164 Clear -8 1017 86 10000 0 0 01:20 30.09.2021
6165 Clear -8 1016 86 10000 2 0 23:55 29.09.2021
6166 Clear -8 1015 93 10000 3 160 22:31 29.09.2021
6167 Clear -8 1015 86 10000 1 0 21:24 29.09.2021
6168 Clear -6 1015 86 10000 2 0 20:26 29.09.2021
6169 Clear -3 1015 80 10000 0 0 19:50 29.09.2021
6170 Clear -3 1015 80 10000 2 0 18:29 29.09.2021
6171 Clear -1 1015 69 10000 1 0 17:34 29.09.2021
6172 Clear -1 1015 69 10000 1 0 16:46 29.09.2021
6173 Clouds -2 1014 80 10000 0 0 15:55 29.09.2021
6174 Clouds -1 1014 74 10000 0 0 14:39 29.09.2021
6175 Clouds 3 1013 52 10000 3 350 13:42 29.09.2021
6176 Clouds 4 1013 52 10000 4 270 12:50 29.09.2021
6177 Clouds 4 1013 60 10000 3 240 11:55 29.09.2021
6178 Clouds 5 1013 48 10000 3 330 10:44 29.09.2021
6179 Clouds 7 1013 36 10000 7 270 09:49 29.09.2021
6180 Clouds 5 1013 45 10000 4 240 08:49 29.09.2021
6181 Clouds 5 1014 45 10000 4 220 07:31 29.09.2021
6182 Clouds 0 1016 69 10000 1 0 03:39 29.09.2021
6183 Clouds -5 1016 86 10000 1 0 23:26 28.09.2021
6184 Clouds -3 1016 80 10000 0 0 22:23 28.09.2021
6185 Clear -4 1016 86 10000 1 0 21:35 28.09.2021
6186 Clear -6 1017 86 10000 0 0 20:36 28.09.2021
6187 Clear -6 1017 86 10000 1 0 19:43 28.09.2021
6188 Clear -6 1017 86 10000 2 0 18:45 28.09.2021
6189 Clear -6 1017 86 10000 2 0 17:54 28.09.2021
6190 Clear -2 1017 69 10000 1 0 15:56 28.09.2021
6191 Clouds 2 1016 48 10000 4 340 13:44 28.09.2021
6192 Clouds 2 1016 48 10000 5 350 12:47 28.09.2021
6193 Clouds 3 1016 44 10000 6 360 12:19 28.09.2021
6194 Clouds 4 1016 45 10000 5 350 11:45 28.09.2021
6195 Clouds 3 1015 52 10000 6 340 10:55 28.09.2021
6196 Clouds 3 1015 56 10000 6 350 09:53 28.09.2021
6197 Clouds 4 1015 48 10000 7 360 08:57 28.09.2021
6198 Clouds 4 1015 48 10000 7 360 08:34 28.09.2021
6199 Clouds 1 1014 69 10000 8 330 06:51 28.09.2021
6200 Rain 1 1013 75 10000 7 270 05:27 28.09.2021
6201 Snow 0 1011 93 8000 8 270 01:22 28.09.2021
6202 Clouds 2 1010 80 10000 3 290 00:25 28.09.2021
6203 Clouds 3 1009 70 10000 5 310 23:32 27.09.2021
6204 Clouds 4 1009 65 10000 4 320 22:55 27.09.2021
6205 Clouds 5 1007 56 10000 4 310 21:44 27.09.2021
6206 Clouds 5 1007 52 10000 3 310 20:44 27.09.2021
6207 Clouds 7 1006 33 10000 3 60 19:53 27.09.2021
6208 Clouds 7 1006 33 10000 3 60 19:27 27.09.2021
6209 Clouds 7 1007 36 10000 4 20 18:48 27.09.2021
6210 Clouds 7 1008 39 10000 3 40 17:29 27.09.2021
6211 Clouds 8 1008 34 10000 6 360 16:48 27.09.2021
6212 Clouds 9 1007 29 10000 4 10 15:43 27.09.2021
6213 Clouds 7 1006 33 10000 3 340 14:56 27.09.2021
6214 Clouds 11 1004 22 10000 5 360 13:31 27.09.2021
6215 Clouds 15 1004 15 10000 5 310 11:31 27.09.2021
6216 Clouds 16 1005 14 10000 4 240 10:32 27.09.2021
6217 Clouds 14 1006 19 10000 4 230 08:48 27.09.2021
6218 Clear 9 1008 37 10000 1 0 05:22 27.09.2021
6219 Clear 0 1009 74 10000 0 0 02:59 27.09.2021
6220 Clear -5 1011 86 10000 1 0 22:32 26.09.2021
6221 Clear -4 1012 86 10000 1 0 21:50 26.09.2021
6222 Clear -1 1012 80 10000 1 0 20:58 26.09.2021
6223 Clear -1 1012 80 10000 1 0 20:21 26.09.2021
6224 Clear -1 1013 80 10000 1 0 19:48 26.09.2021
6225 Clear -3 1014 86 10000 0 0 18:45 26.09.2021
6226 Clear -2 1014 86 10000 1 0 17:56 26.09.2021
6227 Clear -2 1014 86 10000 1 0 17:22 26.09.2021
6228 Clear 0 1015 69 10000 1 0 16:40 26.09.2021
6229 Clear 0 1015 69 10000 1 0 15:59 26.09.2021
6230 Clear 0 1015 69 10000 2 0 14:59 26.09.2021
6231 Clouds 5 1015 52 10000 2 230 13:57 26.09.2021
6232 Clouds 5 1015 52 10000 2 230 13:20 26.09.2021
6233 Clouds 8 1016 36 10000 2 0 12:24 26.09.2021
6234 Clouds 7 1016 42 10000 4 280 11:42 26.09.2021
6235 Clouds 8 1016 39 10000 6 270 10:30 26.09.2021
6236 Clouds 8 1016 39 10000 6 290 09:20 26.09.2021
6237 Clouds 6 1017 49 10000 5 310 07:39 26.09.2021
6238 Clouds 2 1016 87 10000 4 260 00:23 26.09.2021
6239 Clouds 3 1015 87 10000 5 290 23:30 25.09.2021
6240 Clouds 2 1015 93 10000 0 0 22:38 25.09.2021
6241 Clouds 0 1016 93 10000 2 0 21:55 25.09.2021
6242 Clouds 0 1016 93 10000 2 0 21:32 25.09.2021
6243 Clouds 4 1016 87 10000 0 0 20:48 25.09.2021
6244 Clouds 3 1014 93 10000 3 270 18:59 25.09.2021
6245 Clouds 3 1014 93 10000 3 270 18:24 25.09.2021
6246 Clouds 10 1012 71 10000 1 0 15:56 25.09.2021
6247 Clouds 15 1009 47 10000 6 200 13:57 25.09.2021
6248 Clouds 15 1009 47 10000 6 200 13:32 25.09.2021
6249 Clouds 18 1009 42 10000 6 200 12:28 25.09.2021
6250 Clouds 16 1010 51 10000 7 220 10:35 25.09.2021
6251 Rain 14 1010 67 10000 7 220 09:40 25.09.2021
6252 Clouds 19 1008 42 10000 10 160 08:20 25.09.2021
6253 Clouds 19 1010 39 10000 11 150 06:26 25.09.2021
6254 Clear 6 1013 75 10000 1 0 23:55 24.09.2021
6255 Clear 6 1014 75 10000 2 0 21:50 24.09.2021
6256 Clear 6 1015 81 10000 1 0 20:39 24.09.2021
6257 Clear 7 1015 76 10000 1 0 19:48 24.09.2021
6258 Clear 8 1015 71 10000 1 0 18:34 24.09.2021
6259 Clear 10 1015 66 10000 2 0 17:54 24.09.2021
6260 Clear 10 1015 66 10000 2 0 17:36 24.09.2021
6261 Clear 10 1015 66 10000 2 0 17:18 24.09.2021
6262 Clouds 16 1014 41 10000 1 0 14:31 24.09.2021
6263 Clouds 17 1013 39 10000 2 0 13:18 24.09.2021
6264 Clouds 19 1013 34 10000 1 0 12:39 24.09.2021
6265 Clouds 19 1013 34 10000 1 0 12:20 24.09.2021
6266 Clouds 20 1014 28 10000 6 190 10:27 24.09.2021
6267 Clouds 20 1014 32 10000 10 160 08:55 24.09.2021
6268 Clouds 18 1014 42 10000 11 160 07:34 24.09.2021
6269 Clouds 17 1015 42 10000 12 150 06:46 24.09.2021
6270 Clouds 15 1017 47 10000 8 130 04:55 24.09.2021
6271 Clear 3 1018 65 10000 1 0 00:26 24.09.2021
6272 Clear 0 1019 80 10000 2 0 22:30 23.09.2021
6273 Clear 0 1019 80 10000 0 0 21:56 23.09.2021
6274 Clear 0 1020 80 10000 0 0 20:34 23.09.2021
6275 Clear 1 1020 69 10000 0 0 19:46 23.09.2021
6276 Clear 0 1020 80 10000 0 0 17:47 23.09.2021
6277 Clear 3 1020 65 10000 2 160 15:32 23.09.2021
6278 Clear 3 1020 65 10000 2 160 14:59 23.09.2021
6279 Clear 9 1019 40 10000 2 270 13:46 23.09.2021
6280 Clear 9 1019 40 10000 2 270 13:20 23.09.2021
6281 Clear 13 1019 24 10000 3 310 12:52 23.09.2021
6282 Clear 13 1019 24 10000 3 310 12:22 23.09.2021
6283 Clear 13 1019 24 10000 3 310 12:22 23.09.2021
6284 Clear 14 1019 21 10000 3 320 11:32 23.09.2021
6285 Clear 14 1019 21 10000 3 310 10:26 23.09.2021
6286 Clear 14 1019 18 10000 3 360 09:52 23.09.2021
6287 Clear 13 1019 26 10000 4 300 08:21 23.09.2021
6288 Clouds 8 1021 53 10000 3 350 04:27 23.09.2021
6289 Clear 1 1018 86 10000 1 0 23:27 22.09.2021
6290 Clouds 1 1018 86 10000 2 0 22:29 22.09.2021
6291 Clouds 2 1017 93 10000 1 0 21:56 22.09.2021
6292 Clouds 2 1017 93 10000 1 0 21:34 22.09.2021
6293 Clouds 3 1017 81 10000 2 0 20:54 22.09.2021
6294 Clouds 5 1016 81 10000 4 350 19:32 22.09.2021
6295 Clouds 4 1016 81 10000 3 330 18:39 22.09.2021
6296 Clouds 6 1015 93 10000 2 349 17:47 22.09.2021
6297 Clouds 6 1015 94 10000 2.07 342 16:38 22.09.2021
6298 Clear 6 1013 81 10000 3 330 15:19 22.09.2021
6299 Clouds 12 1010 62 10000 5 360 13:48 22.09.2021
6300 Clouds 15 1008 51 10000 7 300 11:59 22.09.2021
6301 Clouds 19 1007 34 10000 9 260 10:52 22.09.2021
6302 Clouds 20 1007 40 10000 5 250 09:25 22.09.2021
6303 Clouds 20 1007 40 10000 4 250 08:29 22.09.2021
6304 Clouds 19 1008 42 10000 6 150 07:19 22.09.2021
6305 Clouds 15 1009 55 10000 3 260 05:56 22.09.2021
6306 Clear 14 1009 58 10000 4 270 05:34 22.09.2021
6307 Clear 9 1010 71 10000 0 0 03:50 22.09.2021
6308 Clear 1 1010 93 10000 0 0 00:22 22.09.2021
6309 Clear 2 1009 87 10000 1 0 22:54 21.09.2021
6310 Clear 5 1009 93 10000 1 0 21:36 21.09.2021
6311 Clouds 8 1008 95 10000 2.17 13 20:26 21.09.2021
6312 Clouds 8 1010 95 10000 2.01 10 19:22 21.09.2021
6313 Clouds 8 1009 95 10000 2.48 355 17:36 21.09.2021
6314 Clouds 10 1008 81 10000 3 330 16:35 21.09.2021
6315 Clouds 12 1008 66 10000 3 360 15:39 21.09.2021
6316 Clouds 12 1007 66 10000 3 350 14:57 21.09.2021
6317 Clouds 15 1006 58 10000 6 20 13:56 21.09.2021
6318 Clouds 15 1006 58 10000 6 20 13:36 21.09.2021
6319 Clouds 16 1006 59 10000 6 10 12:35 21.09.2021
6320 Clouds 18 1004 55 10000 5 110 10:26 21.09.2021
6321 Clouds 19 1005 48 10000 7 140 08:28 21.09.2021
6322 Clouds 18 1006 52 10000 7 150 06:53 21.09.2021
6323 Clear 3 1007 93 10000 1 0 00:30 21.09.2021
6324 Clear 4 1008 93 10000 1 0 22:27 20.09.2021
6325 Clear 4 1007 93 10000 0 0 21:40 20.09.2021
6326 Clear 5 1008 87 10000 0 0 20:34 20.09.2021
6327 Clear 8 1008 87 10000 0 0 19:31 20.09.2021
6328 Clear 8 1008 87 10000 0 0 17:47 20.09.2021
6329 Clear 9 1008 81 10000 1 0 16:43 20.09.2021
6330 Clear 11 1008 76 10000 0 0 15:50 20.09.2021
6331 Clear 11 1008 76 10000 0 0 15:32 20.09.2021
6332 Clouds 11 1008 76 10000 2 140 14:24 20.09.2021
6333 Clouds 17 1007 51 10000 1 0 12:35 20.09.2021
6334 Clouds 18 1008 45 10000 2 0 11:26 20.09.2021
6335 Clouds 18 1008 45 10000 1 20 10:24 20.09.2021
6336 Clouds 18 1008 45 10000 2 0 09:37 20.09.2021
6337 Clouds 17 1008 48 10000 1 0 09:18 20.09.2021
6338 Clouds 16 1009 59 10000 2 0 07:50 20.09.2021
6339 Clouds 9 1011 93 10000 1 0 00:36 20.09.2021
6340 Clouds 10 1012 93 10000 1 0 22:26 19.09.2021
6341 Clouds 10 1013 93 10000 0 0 21:43 19.09.2021
6342 Clouds 10 1013 93 10000 1 0 20:51 19.09.2021
6343 Clouds 10 1014 93 10000 1 0 19:32 19.09.2021
6344 Clouds 10 1014 93 10000 0 0 18:30 19.09.2021
6345 Clouds 11 1015 87 10000 0 0 17:23 19.09.2021
6346 Clouds 11 1015 87 10000 0 0 17:23 19.09.2021
6347 Clouds 11 1015 82 10000 1 0 15:59 19.09.2021
6348 Clouds 11 1015 82 10000 2 0 15:30 19.09.2021
6349 Clouds 11 1015 82 10000 3 50 14:48 19.09.2021
6350 Clouds 11 1015 87 10000 1 0 13:29 19.09.2021
6351 Clouds 11 1015 87 10000 0 0 12:51 19.09.2021
6352 Clouds 11 1015 87 10000 0 0 11:28 19.09.2021
6353 Rain 11 1015 87 10000 1 0 10:53 19.09.2021
6354 Rain 11 1016 82 10000 4 30 09:49 19.09.2021
6355 Rain 11 1016 87 8000 3 50 08:35 19.09.2021
6356 Rain 13 1017 67 10000 2 0 06:42 19.09.2021
6357 Clear 5 1015 87 10000 0 0 23:53 18.09.2021
6358 Clear 5 1015 87 10000 1 0 22:31 18.09.2021
6359 Clear 7 1016 81 10000 0 0 20:56 18.09.2021
6360 Clear 7 1016 81 10000 0 0 20:36 18.09.2021
6361 Clear 9 1016 71 10000 1 0 19:39 18.09.2021
6362 Clear 9 1016 71 10000 1 0 19:20 18.09.2021
6363 Clear 8 1015 76 10000 1 0 18:32 18.09.2021
6364 Clear 8 1015 76 10000 2 0 17:34 18.09.2021
6365 Clear 9 1015 71 10000 1 0 16:20 18.09.2021
6366 Clouds 15 1013 51 10000 1 0 13:49 18.09.2021
6367 Clouds 18 1013 39 10000 2 0 13:29 18.09.2021
6368 Clouds 20 1013 28 10000 1 0 12:49 18.09.2021
6369 Clouds 22 1012 23 10000 2 0 11:41 18.09.2021
6370 Clouds 22 1012 24 10000 1 0 10:32 18.09.2021
6371 Clouds 22 1013 24 10000 2 0 09:28 18.09.2021
6372 Clouds 21 1013 26 10000 2 0 08:57 18.09.2021
6373 Clear 18 1015 39 10000 1 0 05:49 18.09.2021
6374 Clouds 10 1012 77 10000 0.92 73 00:41 18.09.2021
6375 Clouds 10 1012 77 10000 1.41 78 23:49 17.09.2021
6376 Rain 10 1011 76 10000 1.03 100 22:38 17.09.2021
6377 Clouds 11 1011 76 10000 1.17 87 22:19 17.09.2021
6378 Clouds 10 1014 71 10000 1 0 20:47 17.09.2021
6379 Rain 14 1014 51 10000 2 0 19:22 17.09.2021
6380 Rain 12 1014 66 10000 1 0 17:21 17.09.2021
6381 Clouds 13 1013 54 10000 2 0 16:24 17.09.2021
6382 Clouds 18 1012 42 10000 1 0 13:21 17.09.2021
6383 Clouds 23 1011 25 10000 3 30 10:42 17.09.2021
6384 Clouds 23 1012 20 10000 4 60 08:45 17.09.2021
6385 Clouds 20 1014 32 10000 2 0 06:50 17.09.2021
6386 Clear 2 1014 80 10000 1 0 00:59 17.09.2021
6387 Clear 2 1014 93 10000 0 0 23:23 16.09.2021
6388 Clear 4 1014 87 10000 1 0 22:25 16.09.2021
6389 Clear 3 1015 87 10000 0 0 21:41 16.09.2021
6390 Clear 3 1015 87 10000 0 0 21:20 16.09.2021
6391 Clear 3 1015 87 10000 1 0 20:18 16.09.2021
6392 Clouds 6 1015 81 10000 1 0 18:19 16.09.2021
6393 Clouds 9 1016 66 10000 0 0 17:29 16.09.2021
6394 Clouds 10 1015 66 10000 2 0 14:55 16.09.2021
6395 Clouds 13 1015 58 10000 1 0 13:55 16.09.2021
6396 Clouds 20 1015 34 10000 2 0 12:48 16.09.2021
6397 Clouds 22 1015 28 10000 3 310 12:28 16.09.2021
6398 Clouds 22 1015 23 10000 4 250 11:25 16.09.2021
6399 Clouds 22 1015 20 10000 5 250 10:31 16.09.2021
6400 Clouds 22 1015 20 10000 5 250 10:31 16.09.2021
6401 Clouds 22 1015 20 10000 5 250 10:30 16.09.2021
6402 Clouds 22 1016 28 10000 4 250 09:53 16.09.2021
6403 Clouds 21 1017 32 10000 5 230 08:42 16.09.2021
6404 Clear 19 1018 42 10000 6 220 07:22 16.09.2021
6405 Clear 19 1018 45 10000 4 210 06:39 16.09.2021
6406 Clear 15 1020 51 10000 1 0 04:34 16.09.2021
6407 Clear 1 1021 93 10000 0 0 01:26 16.09.2021
6408 Clear 1 1021 93 10000 0 0 01:26 16.09.2021
6409 Clear 2 1021 93 10000 1 0 23:35 15.09.2021
6410 Clear 2 1021 87 10000 0 0 22:47 15.09.2021
6411 Clear 4 1021 81 10000 1 0 21:41 15.09.2021
6412 Clear 4 1021 81 10000 1 0 21:23 15.09.2021
6413 Clear 6 1021 81 10000 1 0 19:51 15.09.2021
6414 Clear 6 1021 81 10000 1 0 19:19 15.09.2021
6415 Clear 9 1022 71 10000 1 0 17:49 15.09.2021
6416 Clear 8 1022 81 10000 2 0 16:48 15.09.2021
6417 Clear 13 1022 62 10000 2 0 15:31 15.09.2021
6418 Clear 12 1021 66 10000 4 230 14:44 15.09.2021
6419 Clear 14 1021 58 10000 5 220 13:51 15.09.2021
6420 Clear 15 1020 55 10000 4 230 13:29 15.09.2021
6421 Clouds 17 1020 34 10000 3 270 12:34 15.09.2021
6422 Clouds 19 1020 26 10000 6 300 11:51 15.09.2021
6423 Clouds 19 1020 32 10000 6 290 11:18 15.09.2021
6424 Clouds 19 1020 34 10000 5 300 10:35 15.09.2021
6425 Clouds 18 1020 42 10000 4 310 09:23 15.09.2021
6426 Clouds 16 1021 55 10000 4 290 07:30 15.09.2021
6427 Clouds 12 1022 76 10000 1 0 04:19 15.09.2021
6428 Clouds 9 1020 93 10000 2 310 22:38 14.09.2021
6429 Clouds 9 1019 93 10000 1 0 21:38 14.09.2021
6430 Clouds 9 1019 93 10000 0 0 20:26 14.09.2021
6431 Clouds 9 1019 93 10000 1 0 19:41 14.09.2021
6432 Clouds 8 1020 87 10000 0 0 17:34 14.09.2021
6433 Clouds 10 1019 93 10000 1 0 16:56 14.09.2021
6434 Clouds 11 1019 87 10000 0 0 15:27 14.09.2021
6435 Clouds 12 1018 87 10000 0 0 14:28 14.09.2021
6436 Clouds 12 1018 87 6000 1 0 11:50 14.09.2021
6437 Clouds 13 1018 76 10000 2 220 10:49 14.09.2021
6438 Clouds 15 1018 58 10000 4 160 09:50 14.09.2021
6439 Clouds 16 1018 48 10000 5 150 08:36 14.09.2021
6440 Clouds 17 1019 36 10000 6 140 06:22 14.09.2021
6441 Rain 12 1019 40 10000 1 0 23:36 13.09.2021
6442 Clouds 13 1019 35 10000 1 0 22:29 13.09.2021
6443 Clouds 15 1019 25 10000 5 120 21:59 13.09.2021
6444 Rain 15 1019 25 10000 5 120 21:39 13.09.2021
6445 Clouds 16 1019 27 10000 8 140 19:48 13.09.2021
6446 Clouds 15 1019 29 10000 9 140 18:45 13.09.2021
6447 Clouds 16 1019 27 10000 8 140 17:39 13.09.2021
6448 Clouds 16 1019 31 10000 7 140 16:50 13.09.2021
6449 Clouds 17 1019 36 10000 7 140 14:47 13.09.2021
6450 Clear 21 1018 28 10000 6 170 11:45 13.09.2021
6451 Clear 21 1018 30 10000 5 160 10:50 13.09.2021
6452 Clear 21 1018 28 10000 5 190 08:55 13.09.2021
6453 Clear -1 1021 93 10000 1 0 00:48 13.09.2021
6454 Clear 0 1020 93 10000 0 0 22:51 12.09.2021
6455 Clear 0 1020 93 10000 0 0 22:23 12.09.2021
6456 Clear 1 1020 86 10000 0 0 21:21 12.09.2021
6457 Clear 2 1021 87 10000 1 0 20:19 12.09.2021
6458 Clear 3 1021 87 10000 1 0 19:37 12.09.2021
6459 Clear 3 1021 87 10000 1 0 19:18 12.09.2021
6460 Clear 4 1020 87 10000 0 0 18:18 12.09.2021
6461 Clear 7 1019 76 10000 3 160 15:58 12.09.2021
6462 Clear 7 1019 76 10000 3 150 14:47 12.09.2021
6463 Clear 16 1018 31 10000 3 330 12:43 12.09.2021
6464 Clear 17 1017 27 10000 6 320 10:32 12.09.2021
6465 Clear 16 1017 33 10000 5 290 08:39 12.09.2021
6466 Clear 14 1017 41 10000 3 280 07:32 12.09.2021
6467 Clouds 6 1017 81 10000 4 330 00:47 12.09.2021
6468 Clouds 6 1017 81 10000 4 330 00:47 12.09.2021
6469 Clouds 7 1015 81 10000 5 350 22:58 11.09.2021
6470 Clouds 7 1015 81 10000 7 340 21:39 11.09.2021
6471 Clouds 7 1014 87 10000 6 340 19:41 11.09.2021
6472 Rain 8 1014 87 10000 7 340 18:28 11.09.2021
6473 Clouds 8 1014 87 10000 3 310 17:28 11.09.2021
6474 Rain 9 1014 93 10000 3 290 15:36 11.09.2021
6475 Rain 11 1014 82 10000 2 0 13:23 11.09.2021
6476 Clouds 12 1013 76 10000 4 320 11:44 11.09.2021
6477 Rain 13 1012 71 10000 3 360 10:35 11.09.2021
6478 Rain 17 1012 48 10000 4 340 08:51 11.09.2021
6479 Clouds 19 1013 30 10000 2 0 07:43 11.09.2021
6480 Clouds 13 1013 62 10000 1 0 04:23 11.09.2021
6481 Clouds 6 1014 87 10000 1 0 22:43 10.09.2021
6482 Clouds 6 1014 87 10000 1 0 21:57 10.09.2021
6483 Clouds 6 1013 87 10000 1 0 21:38 10.09.2021
6484 Clouds 9 1013 81 10000 1 0 19:31 10.09.2021
6485 Clouds 15 1011 55 10000 5 140 17:58 10.09.2021
6486 Rain 14 1012 62 10000 8 160 16:28 10.09.2021
6487 Clouds 17 1011 42 10000 5 80 13:29 10.09.2021
6488 Clouds 20 1010 30 10000 3 70 10:54 10.09.2021
6489 Clouds 20 1011 30 10000 1 0 08:26 10.09.2021
6490 Clear 20 1011 30 10000 1 0 07:43 10.09.2021
6491 Clear 0 1013 86 10000 0 0 00:40 10.09.2021
6492 Clear 1 1013 86 10000 0 0 21:54 09.09.2021
6493 Clear 2 1013 87 10000 0 0 20:48 09.09.2021
6494 Clear 2 1013 87 10000 0 0 20:28 09.09.2021
6495 Clear 3 1012 81 10000 1 0 18:46 09.09.2021
6496 Clear 4 1012 81 10000 2 0 17:51 09.09.2021
6497 Clear 7 1012 70 10000 1 0 16:39 09.09.2021
6498 Clear 6 1012 75 10000 2 0 15:26 09.09.2021
6499 Clouds 15 1011 38 10000 3 280 12:33 09.09.2021
6500 Clouds 16 1011 31 10000 1 0 11:23 09.09.2021
6501 Clouds 14 1011 35 10000 5 280 09:36 09.09.2021
6502 Clouds 12 1012 47 10000 4 250 07:56 09.09.2021
6503 Clouds 10 1014 62 10000 3 250 05:51 09.09.2021
6504 Clear -2 1014 93 10000 1 0 00:33 09.09.2021
6505 Clear -2 1014 86 10000 3 170 21:49 08.09.2021
6506 Clear -2 1014 93 10000 2 170 20:54 08.09.2021
6507 Clear -2 1014 86 10000 1 0 19:46 08.09.2021
6508 Clear -2 1014 86 10000 0 0 18:47 08.09.2021
6509 Clear -2 1014 86 10000 0 0 18:25 08.09.2021
6510 Clear 1 1014 80 10000 1 0 17:40 08.09.2021
6511 Clouds 4 1014 70 10000 1 0 15:35 08.09.2021
6512 Clouds 8 1013 49 10000 5 360 13:45 08.09.2021
6513 Clouds 10 1013 43 10000 5 330 12:41 08.09.2021
6514 Clouds 10 1013 43 10000 5 330 12:23 08.09.2021
6515 Clouds 10 1013 43 10000 5 350 11:26 08.09.2021
6516 Clouds 10 1012 46 10000 5 340 10:31 08.09.2021
6517 Clouds 10 1012 43 10000 5 320 09:56 08.09.2021
6518 Clouds 9 1013 49 10000 3 290 07:45 08.09.2021
6519 Clouds 9 1013 49 10000 3 280 07:19 08.09.2021
6520 Clouds 4 1014 75 10000 2 0 23:28 07.09.2021
6521 Rain 4 1015 75 10000 1 0 22:19 07.09.2021
6522 Rain 5 1015 65 10000 4 340 20:42 07.09.2021
6523 Clouds 6 1015 56 10000 3 340 18:53 07.09.2021
6524 Clouds 6 1015 56 10000 3 340 18:28 07.09.2021
6525 Rain 6 1015 61 10000 3 360 17:35 07.09.2021
6526 Clouds 7 1014 61 10000 3 320 15:57 07.09.2021
6527 Clouds 7 1013 61 10000 4 350 14:53 07.09.2021
6528 Clouds 7 1014 57 10000 3 320 13:52 07.09.2021
6529 Clouds 9 1014 53 10000 5 10 11:58 07.09.2021
6530 Clouds 11 1013 54 10000 6 340 10:50 07.09.2021
6531 Clouds 11 1013 54 10000 5 350 09:40 07.09.2021
6532 Clouds 12 1013 50 10000 5 320 07:47 07.09.2021
6533 Clouds 11 1013 54 10000 5 310 06:20 07.09.2021
6534 Clouds 8 1013 71 10000 0 0 02:39 07.09.2021
6535 Clouds 4 1013 87 10000 1 0 01:57 07.09.2021
6536 Clouds 5 1012 81 10000 2 0 23:49 06.09.2021
6537 Clouds 8 1012 66 10000 0 0 23:30 06.09.2021
6538 Clouds 9 1013 61 10000 4 60 22:51 06.09.2021
6539 Clouds 8 1014 71 10000 7 30 21:55 06.09.2021
6540 Clouds 6 1014 87 10000 2 0 20:34 06.09.2021
6541 Clear 3 1013 93 10000 1 0 19:18 06.09.2021
6542 Clear 6 1013 81 10000 0 0 18:33 06.09.2021
6543 Clear 5 1013 87 10000 2 0 17:50 06.09.2021
6544 Clear 7 1014 76 10000 3 170 16:20 06.09.2021
6545 Clear 7 1014 76 10000 3 170 16:20 06.09.2021
6546 Clear 7 1014 76 10000 3 170 16:20 06.09.2021
6547 Clouds 11 1014 54 10000 1 0 14:59 06.09.2021
6548 Clouds 15 1014 38 10000 5 260 12:49 06.09.2021
6549 Clouds 16 1014 33 10000 7 290 11:52 06.09.2021
6550 Clouds 16 1014 44 10000 2 0 10:19 06.09.2021
6551 Clouds 15 1016 44 10000 4 250 07:35 06.09.2021
6552 Clouds 10 1018 62 10000 6 140 02:54 06.09.2021
6553 Clouds 4 1020 81 10000 1 0 23:22 05.09.2021
6554 Clouds 3 1020 81 10000 1 0 22:32 05.09.2021
6555 Clouds 3 1021 87 10000 2 0 21:55 05.09.2021
6556 Clouds 3 1021 87 10000 2 0 21:19 05.09.2021
6557 Clouds 6 1022 65 10000 1 0 19:30 05.09.2021
6558 Clouds 6 1023 70 10000 1 0 17:51 05.09.2021
6559 Clouds 8 1023 71 10000 2 0 15:43 05.09.2021
6560 Clouds 8 1023 71 10000 2 0 15:19 05.09.2021
6561 Clouds 10 1023 43 10000 1 0 12:44 05.09.2021
6562 Clouds 11 1023 40 10000 1 0 11:31 05.09.2021
6563 Clouds 11 1023 37 10000 2 0 10:36 05.09.2021
6564 Clouds 10 1024 34 10000 4 300 09:32 05.09.2021
6565 Clouds 11 1023 35 10000 5 340 08:28 05.09.2021
6566 Clouds 4 1025 75 10000 1 0 03:22 05.09.2021
6567 Clear -4 1024 93 10000 0 0 00:37 05.09.2021
6568 Clear -1 1024 93 10000 1 0 23:54 04.09.2021
6569 Clear -1 1024 93 10000 1 0 23:21 04.09.2021
6570 Clear 0 1024 86 10000 2 310 22:34 04.09.2021
6571 Clear 0 1024 86 10000 2 310 22:34 04.09.2021
6572 Clear 3 1023 75 10000 2 340 19:59 04.09.2021
6573 Clear 3 1023 75 10000 2 340 19:32 04.09.2021
6574 Clouds 5 1023 70 10000 5 340 16:48 04.09.2021
6575 Clouds 7 1022 57 10000 7 340 14:28 04.09.2021
6576 Clouds 9 1020 49 10000 8 360 11:22 04.09.2021
6577 Clouds 10 1019 46 10000 10 350 10:27 04.09.2021
6578 Clouds 8 1018 53 10000 10 360 07:30 04.09.2021
6579 Clouds 3 1015 87 10000 5 350 00:48 04.09.2021
6580 Clouds 4 1015 87 10000 4 10 23:32 03.09.2021
6581 Rain 5 1015 81 10000 6 350 22:57 03.09.2021
6582 Clouds 6 1015 87 10000 5 330 21:37 03.09.2021
6583 Rain 6 1015 87 10000 3 340 20:53 03.09.2021
6584 Rain 7 1015 81 10000 4 350 19:57 03.09.2021
6585 Rain 7 1015 81 10000 4 350 19:30 03.09.2021
6586 Rain 7 1015 93 10000 6 310 17:58 03.09.2021
6587 Clouds 9 1013 87 10000 4 320 16:44 03.09.2021
6588 Clouds 10 1013 87 10000 4 330 15:34 03.09.2021
6589 Rain 12 1014 82 10000 3 60 12:59 03.09.2021
6590 Rain 16 1012 67 10000 7 330 10:43 03.09.2021
6591 Clouds 23 1011 35 10000 7 170 09:20 03.09.2021
6592 Clouds 23 1012 38 10000 7 180 07:51 03.09.2021
6593 Clouds 20 1013 49 10000 5 150 06:21 03.09.2021
6594 Clouds 11 1014 87 10000 0 0 23:54 02.09.2021
6595 Clouds 11 1014 87 10000 1 0 21:42 02.09.2021
6596 Clouds 10 1014 87 10000 2 0 20:24 02.09.2021
6597 Clouds 12 1014 82 10000 0 0 17:33 02.09.2021
6598 Clouds 13 1014 76 10000 1 0 16:20 02.09.2021
6599 Clouds 14 1013 72 10000 3 320 14:36 02.09.2021
6600 Clouds 19 1012 48 10000 5 350 12:58 02.09.2021
6601 Clouds 21 1011 43 10000 6 340 11:40 02.09.2021
6602 Clouds 22 1011 40 10000 6 330 10:37 02.09.2021
6603 Clouds 21 1012 46 10000 5 330 08:40 02.09.2021
6604 Clouds 20 1012 49 10000 4 340 07:20 02.09.2021
6605 Clouds 20 1012 49 10000 4 340 07:20 02.09.2021
6606 Clouds 18 1013 59 10000 2 0 05:31 02.09.2021
6607 Clouds 13 1013 82 10000 1 0 02:35 02.09.2021
6608 Clouds 10 1013 93 10000 0 0 01:34 02.09.2021
6609 Clouds 9 1012 87 10000 2 0 23:40 01.09.2021
6610 Clouds 10 1012 93 10000 1.03 320 22:42 01.09.2021
6611 Clouds 11 1011 87 10000 0 0 21:41 01.09.2021
6612 Clouds 10 1011 87 10000 0 0 20:53 01.09.2021
6613 Clouds 11 1011 82 10000 1 0 19:23 01.09.2021
6614 Clouds 13 1011 88 10000 1 0 17:47 01.09.2021
6615 Clouds 14 1011 82 10000 1 0 16:48 01.09.2021
6616 Clouds 14 1011 82 10000 1 0 16:21 01.09.2021
6617 Clouds 17 1011 63 10000 2 0 13:40 01.09.2021
6618 Thunderstorm 15 1011 77 10000 4 90 11:46 01.09.2021
6619 Rain 24 1011 27 10000 2 0 09:25 01.09.2021
6620 Clouds 24 1012 27 10000 4 260 07:53 01.09.2021
6621 Clouds 21 1013 40 10000 2 0 05:39 01.09.2021
6622 Clouds 10 1014 76 10000 1 0 23:19 31.08.2021
6623 Clouds 11 1014 71 10000 1 0 21:40 31.08.2021
6624 Clear 13 1015 62 10000 1 0 19:48 31.08.2021
6625 Clear 12 1015 62 10000 1 0 18:37 31.08.2021
6626 Clear 15 1015 51 10000 1 0 17:38 31.08.2021
6627 Clear 15 1015 51 10000 1 0 17:20 31.08.2021
6628 Clouds 14 1016 54 10000 3 190 16:24 31.08.2021
6629 Clouds 23 1014 27 10000 3 270 13:40 31.08.2021
6630 Clouds 26 1014 22 10000 6 280 11:36 31.08.2021
6631 Clouds 26 1014 25 10000 4 240 10:55 31.08.2021
6632 Clouds 25 1014 27 10000 2 0 09:45 31.08.2021
6633 Clouds 25 1015 25 10000 2 0 08:40 31.08.2021
6634 Clouds 24 1015 27 10000 4 230 07:38 31.08.2021
6635 Clear 21 1016 35 10000 4 240 05:36 31.08.2021
6636 Clouds 11 1016 76 10000 3 90 23:35 30.08.2021
6637 Clouds 9 1016 81 10000 0 0 21:52 30.08.2021
6638 Clouds 9 1016 81 10000 0 0 21:32 30.08.2021
6639 Clear 9 1016 76 10000 0 0 20:20 30.08.2021
6640 Clear 9 1016 76 10000 0 0 19:29 30.08.2021
6641 Clear 9 1016 71 10000 1 0 18:44 30.08.2021
6642 Clear 10 1017 66 10000 1 0 17:46 30.08.2021
6643 Clouds 14 1016 51 10000 1 0 16:24 30.08.2021
6644 Clouds 13 1016 58 10000 2 0 15:39 30.08.2021
6645 Clouds 20 1015 37 10000 2 0 13:43 30.08.2021
6646 Clouds 24 1015 27 10000 3 290 12:24 30.08.2021
6647 Clouds 24 1015 27 10000 3 260 09:30 30.08.2021
6648 Clouds 4 1016 87 10000 1 0 22:28 29.08.2021
6649 Clear 4 1016 87 10000 0 0 21:33 29.08.2021
6650 Clear 6 1016 75 10000 0 0 19:59 29.08.2021
6651 Clear 6 1016 75 10000 0 0 19:19 29.08.2021
6652 Clear 8 1015 71 10000 1 0 17:50 29.08.2021
6653 Clouds 13 1014 50 10000 1 0 15:48 29.08.2021
6654 Clouds 13 1014 50 10000 1 0 15:48 29.08.2021
6655 Clouds 13 1013 54 10000 2 0 14:19 29.08.2021
6656 Clouds 22 1013 24 10000 2 0 13:43 29.08.2021
6657 Clouds 23 1013 21 10000 2 0 12:32 29.08.2021
6658 Clouds 23 1013 20 10000 2 0 11:48 29.08.2021
6659 Clouds 23 1013 21 10000 2 0 10:52 29.08.2021
6660 Clouds 23 1013 21 10000 2 0 10:33 29.08.2021
6661 Clouds 23 1014 23 10000 3 260 09:54 29.08.2021
6662 Clouds 21 1015 30 10000 5 210 06:55 29.08.2021
6663 Clear 2 1017 93 10000 0 0 00:20 29.08.2021
6664 Clear 5 1018 87 10000 1 0 20:55 28.08.2021
6665 Clear 5 1018 87 10000 1 0 19:54 28.08.2021
6666 Clear 9 1018 71 10000 1 0 18:28 28.08.2021
6667 Clear 11 1018 62 10000 1 0 17:48 28.08.2021
6668 Clear 11 1018 62 10000 1 0 17:48 28.08.2021
6669 Clear 11 1018 66 10000 5 140 16:58 28.08.2021
6670 Clouds 11 1018 62 10000 1 0 15:32 28.08.2021
6671 Clouds 11 1018 58 10000 2 0 14:19 28.08.2021
6672 Clouds 14 1017 47 10000 3 160 13:43 28.08.2021
6673 Clouds 17 1018 34 10000 3 180 12:41 28.08.2021
6674 Clouds 17 1018 36 10000 3 160 11:51 28.08.2021
6675 Clouds 18 1018 34 10000 3 130 10:29 28.08.2021
6676 Clouds 16 1019 48 10000 2 0 08:36 28.08.2021
6677 Clouds 14 1020 51 10000 2 0 05:22 28.08.2021
6678 Clouds 7 1020 87 10000 0 0 22:26 27.08.2021
6679 Clouds 4 1020 87 10000 2 0 20:56 27.08.2021
6680 Clouds 3 1020 87 10000 2 0 19:59 27.08.2021
6681 Clouds 4 1020 87 10000 2 0 18:39 27.08.2021
6682 Clouds 4 1020 87 10000 2 0 18:20 27.08.2021
6683 Clouds 6 1020 81 10000 1 0 16:47 27.08.2021
6684 Clouds 9 1020 66 10000 1 0 15:21 27.08.2021
6685 Clouds 11 1020 62 10000 1 0 14:37 27.08.2021
6686 Clouds 14 1019 44 10000 5 350 12:28 27.08.2021
6687 Clouds 15 1019 47 10000 6 340 11:24 27.08.2021
6688 Clouds 16 1019 41 10000 6 350 10:41 27.08.2021
6689 Clouds 14 1020 47 10000 4 350 09:26 27.08.2021
6690 Clouds 13 1020 54 10000 5 360 08:38 27.08.2021
6691 Clouds 14 1020 47 10000 7 340 05:51 27.08.2021
6692 Clouds 9 1020 76 10000 2 10 00:50 27.08.2021
6693 Clouds 9 1020 76 10000 3 20 00:28 27.08.2021
6694 Clouds 9 1020 81 10000 0 0 22:28 26.08.2021
6695 Rain 8 1020 87 10000 0 0 21:57 26.08.2021
6696 Clouds 8 1020 87 10000 1 0 19:53 26.08.2021
6697 Clouds 10 1020 76 10000 1 0 18:36 26.08.2021
6698 Clouds 8 1020 81 10000 1 0 17:26 26.08.2021
6699 Clouds 10 1020 76 10000 3 10 16:30 26.08.2021
6700 Clouds 12 1019 62 10000 4 10 14:53 26.08.2021
6701 Clouds 13 1019 58 10000 6 350 13:27 26.08.2021
6702 Clouds 14 1019 51 10000 7 360 12:34 26.08.2021
6703 Clouds 14 1019 54 10000 8 340 11:45 26.08.2021
6704 Clouds 15 1018 51 10000 8 340 09:25 26.08.2021
6705 Clouds 15 1018 47 10000 8 350 08:19 26.08.2021
6706 Clouds 15 1018 47 10000 8 350 08:19 26.08.2021
6707 Clouds 9 1018 76 10000 3 10 23:45 25.08.2021
6708 Clouds 9 1018 76 10000 3 10 22:44 25.08.2021
6709 Clouds 9 1018 76 10000 3 10 22:25 25.08.2021
6710 Clouds 9 1018 81 10000 2 0 20:57 25.08.2021
6711 Clouds 9 1018 81 10000 2 0 20:30 25.08.2021
6712 Clouds 10 1018 76 10000 3 10 19:52 25.08.2021
6713 Clouds 10 1018 76 8000 3 320 18:18 25.08.2021
6714 Clouds 12 1018 58 10000 4 10 15:59 25.08.2021
6715 Clouds 12 1018 58 10000 4 10 15:59 25.08.2021
6716 Clouds 12 1018 58 10000 4 10 15:39 25.08.2021
6717 Clouds 12 1018 58 10000 4 350 14:47 25.08.2021
6718 Clouds 13 1017 54 10000 6 10 13:54 25.08.2021
6719 Clouds 14 1016 54 10000 7 350 12:23 25.08.2021
6720 Clouds 14 1016 51 10000 8 350 11:20 25.08.2021
6721 Clouds 15 1016 51 10000 9 340 09:59 25.08.2021
6722 Clouds 16 1016 48 10000 8 340 09:36 25.08.2021
6723 Clouds 16 1016 48 10000 8 340 08:36 25.08.2021
6724 Clouds 14 1016 54 10000 8 340 07:21 25.08.2021
6725 Clouds 8 1017 76 10000 3 350 01:25 25.08.2021
6726 Clouds 6 1016 81 10000 3 310 23:31 24.08.2021
6727 Clouds 9 1016 76 10000 5 340 21:20 24.08.2021
6728 Clouds 8 1017 81 10000 4 340 20:18 24.08.2021
6729 Clouds 9 1017 76 10000 4 350 19:43 24.08.2021
6730 Clouds 10 1017 76 10000 4 360 17:55 24.08.2021
6731 Clouds 10 1017 76 10000 4 360 17:22 24.08.2021
6732 Clouds 10 1017 76 10000 4 360 17:22 24.08.2021
6733 Clouds 10 1017 76 10000 4 350 16:23 24.08.2021
6734 Clouds 13 1015 62 10000 7 340 13:54 24.08.2021
6735 Clouds 13 1015 67 10000 8 340 12:45 24.08.2021
6736 Clouds 14 1015 58 10000 7 340 11:21 24.08.2021
6737 Clouds 14 1015 58 10000 6 350 10:47 24.08.2021
6738 Clouds 14 1015 62 10000 7 340 09:53 24.08.2021
6739 Clouds 12 1015 66 10000 8 340 07:42 24.08.2021
6740 Clouds 12 1015 71 10000 10 340 05:50 24.08.2021
6741 Clouds 11 1015 71 10000 7 360 03:37 24.08.2021
6742 Clouds 10 1014 81 10000 7 340 23:54 23.08.2021
6743 Rain 10 1014 81 10000 7 340 22:46 23.08.2021
6744 Rain 10 1014 81 10000 6 340 21:36 23.08.2021
6745 Rain 11 1014 76 10000 8 340 19:55 23.08.2021
6746 Clouds 11 1014 76 10000 9 350 18:25 23.08.2021
6747 Clouds 12 1013 76 10000 8 350 15:45 23.08.2021
6748 Clouds 13 1011 71 10000 9 340 13:56 23.08.2021
6749 Clouds 13 1011 76 10000 9 350 12:33 23.08.2021
6750 Clouds 13 1010 71 10000 8 360 10:52 23.08.2021
6751 Rain 13 1010 71 10000 6 360 10:22 23.08.2021
6752 Rain 13 1010 67 10000 8 360 08:49 23.08.2021
6753 Rain 14 1009 62 10000 9 360 07:43 23.08.2021
6754 Clouds 13 1008 76 10000 7 350 06:42 23.08.2021
6755 Clouds 13 1008 67 10000 7 10 04:22 23.08.2021
6756 Clouds 7 1009 87 10000 1 0 00:46 23.08.2021
6757 Clouds 9 1007 81 10000 5 360 22:42 22.08.2021
6758 Clouds 10 1006 71 10000 5 50 21:30 22.08.2021
6759 Clouds 10 1006 76 10000 5 50 20:20 22.08.2021
6760 Clouds 10 1008 87 10000 3 160 18:36 22.08.2021
6761 Clouds 8 1007 87 10000 1 0 16:22 22.08.2021
6762 Clouds 12 1006 71 10000 2 0 14:54 22.08.2021
6763 Clouds 15 1006 63 10000 1 0 13:50 22.08.2021
6764 Clouds 15 1005 58 10000 2 0 13:20 22.08.2021
6765 Clouds 15 1006 58 10000 0 0 12:49 22.08.2021
6766 Clouds 14 1006 62 10000 2 0 11:53 22.08.2021
6767 Clouds 14 1006 62 10000 2 0 11:32 22.08.2021
6768 Clouds 13 1006 67 10000 2 0 09:21 22.08.2021
6769 Clouds 13 1006 67 10000 3 230 07:54 22.08.2021
6770 Clouds 11 1006 87 8000 3 240 04:43 22.08.2021
6771 Clouds 6 1003 93 10000 1 0 22:38 21.08.2021
6772 Clouds 7 1003 93 10000 1 0 21:42 21.08.2021
6773 Clouds 10 1002 87 10000 3 240 18:58 21.08.2021
6774 Clouds 10 1002 87 10000 3 240 18:39 21.08.2021
6775 Clouds 9 1001 87 10000 1 0 17:18 21.08.2021
6776 Clouds 11 999 76 10000 6 20 16:49 21.08.2021
6777 Rain 11 1000 82 10000 6 30 15:40 21.08.2021
6778 Rain 11 1000 82 10000 6 30 15:22 21.08.2021
6779 Rain 10 1001 87 10000 3 330 13:43 21.08.2021
6780 Thunderstorm 11 1000 82 6000 10 250 12:40 21.08.2021
6781 Thunderstorm 15 997 63 10000 4 50 11:36 21.08.2021
6782 Clouds 17 998 59 10000 8 60 08:54 21.08.2021
6783 Clear 5 1005 81 10000 1 0 00:46 21.08.2021
6784 Clear 5 1007 87 10000 1 0 22:29 20.08.2021
6785 Clear 8 1008 76 10000 1 0 19:49 20.08.2021
6786 Clouds 10 1008 66 10000 2 0 17:45 20.08.2021
6787 Clouds 16 1008 48 10000 2 0 14:35 20.08.2021
6788 Clouds 23 1008 21 10000 3 240 12:18 20.08.2021
6789 Clouds 22 1008 23 10000 1<